<?xml version="1.0" encoding="UTF-8" standalone="no" ?>
<gpx xmlns="http://www.topografix.com/GPX/1/1" xmlns:xsi="http://www.w3.org/2001/XMLSchema-instance" xsi:schemaLocation="http://www.topografix.com/GPX/1/1 http://www.topografix.com/GPX/1/1/gpx.xsd" version="1.1" creator="VisuGPX - https://www.visugpx.com">
  <metadata>
    <name>Chemin de Stevenson</name>
  </metadata>
  <wpt lat="44.93307" lon="3.99991">
    <ele>929.5</ele>
  </wpt>
  <wpt lat="44.89138" lon="3.79526">
    <ele>1214</ele>
  </wpt>
  <wpt lat="44.64763" lon="3.80314">
    <ele>1118.4</ele>
  </wpt>
  <wpt lat="44.59197" lon="3.90599">
    <ele>1015.5</ele>
  </wpt>
  <wpt lat="44.51796" lon="3.7568">
    <ele>1219.7</ele>
  </wpt>
  <wpt lat="44.40347" lon="3.7465">
    <ele>1222.9</ele>
  </wpt>
  <wpt lat="44.34768" lon="3.62009">
    <ele>608.9</ele>
  </wpt>
  <wpt lat="44.27163" lon="3.73066">
    <ele>696.9</ele>
  </wpt>
  <wpt lat="44.18323" lon="3.83528">
    <ele>268.1</ele>
  </wpt>
  <wpt lat="44.10137" lon="3.89429">
    <ele>182.3</ele>
  </wpt>
  <wpt lat="44.12715" lon="4.08557">
    <ele>132.7</ele>
  </wpt>
  <wpt lat="45.04544" lon="3.89068">
    <ele>614.6</ele>
  </wpt>
  <wpt lat="44.93307" lon="3.99991">
    <ele>929.5</ele>
  </wpt>
  <wpt lat="44.89138" lon="3.79526">
    <ele>1214</ele>
  </wpt>
  <wpt lat="44.64763" lon="3.80314">
    <ele>1118.4</ele>
  </wpt>
  <wpt lat="44.59197" lon="3.90599">
    <ele>1015.5</ele>
  </wpt>
  <wpt lat="44.51796" lon="3.75678">
    <ele>1220.1</ele>
  </wpt>
  <wpt lat="44.40347" lon="3.7465">
    <ele>1222.9</ele>
  </wpt>
  <wpt lat="44.34768" lon="3.62009">
    <ele>608.9</ele>
  </wpt>
  <wpt lat="44.27163" lon="3.73066">
    <ele>696.9</ele>
  </wpt>
  <wpt lat="44.18323" lon="3.83528">
    <ele>268.1</ele>
  </wpt>
  <wpt lat="44.10137" lon="3.89429">
    <ele>182.3</ele>
  </wpt>
  <wpt lat="44.12715" lon="4.08557">
    <ele>132.7</ele>
  </wpt>
  <wpt lat="45.04544" lon="3.89068">
    <ele>614.6</ele>
  </wpt>
  <wpt lat="44.76944" lon="3.88282">
    <ele>1150.3</ele>
  </wpt>
  <trk>
    <name><![CDATA[16 juil]]></name>
    <extensions>
      <line xmlns="http://www.topografix.com/GPX/gpx_style/0/2">
        <color>ff0000</color>
        <opacity>1</opacity>
        <width>3</width>
      </line>
    </extensions>
    <trkseg>
      <trkpt lat="45.04552" lon="3.89057">
        <ele>619.9</ele>
      </trkpt>
      <trkpt lat="45.04552" lon="3.89057">
        <ele>619.9</ele>
      </trkpt>
      <trkpt lat="45.04552" lon="3.89057">
        <ele>619.9</ele>
      </trkpt>
      <trkpt lat="45.04552" lon="3.89057">
        <ele>619.9</ele>
      </trkpt>
      <trkpt lat="45.04552" lon="3.89057">
        <ele>619.9</ele>
      </trkpt>
      <trkpt lat="45.04552" lon="3.89057">
        <ele>619.9</ele>
      </trkpt>
      <trkpt lat="45.04552" lon="3.89057">
        <ele>619.9</ele>
      </trkpt>
      <trkpt lat="45.04552" lon="3.89057">
        <ele>619.9</ele>
      </trkpt>
      <trkpt lat="45.04552" lon="3.89057">
        <ele>619.9</ele>
      </trkpt>
      <trkpt lat="45.04466" lon="3.88978">
        <ele>624</ele>
      </trkpt>
      <trkpt lat="45.04378" lon="3.88913">
        <ele>625.2</ele>
      </trkpt>
      <trkpt lat="45.04328" lon="3.8889">
        <ele>624</ele>
      </trkpt>
      <trkpt lat="45.04266" lon="3.88913">
        <ele>626</ele>
      </trkpt>
      <trkpt lat="45.0416" lon="3.88855">
        <ele>624.9</ele>
      </trkpt>
      <trkpt lat="45.04115" lon="3.88851">
        <ele>626.2</ele>
      </trkpt>
      <trkpt lat="45.04108" lon="3.88948">
        <ele>629.61</ele>
        <time>2016-06-07T16:53:13Z</time>
      </trkpt>
      <trkpt lat="45.04126" lon="3.89069">
        <ele>637.66</ele>
        <time>2016-06-07T16:53:33Z</time>
      </trkpt>
      <trkpt lat="45.04152" lon="3.89177">
        <ele>643.951</ele>
        <time>2016-06-07T16:53:53Z</time>
      </trkpt>
      <trkpt lat="45.04081" lon="3.89258">
        <ele>654.463</ele>
        <time>2016-06-07T16:54:13Z</time>
      </trkpt>
      <trkpt lat="45.04044" lon="3.89336">
        <ele>660.044</ele>
        <time>2016-06-07T16:54:33Z</time>
      </trkpt>
      <trkpt lat="45.04029" lon="3.89438">
        <ele>669.218</ele>
        <time>2016-06-07T16:54:53Z</time>
      </trkpt>
      <trkpt lat="45.03995" lon="3.89564">
        <ele>673.908</ele>
        <time>2016-06-07T16:55:13Z</time>
      </trkpt>
      <trkpt lat="45.03939" lon="3.89601">
        <ele>684.399</ele>
        <time>2016-06-07T16:55:33Z</time>
      </trkpt>
      <trkpt lat="45.03877" lon="3.89677">
        <ele>696.03</ele>
        <time>2016-06-07T16:55:53Z</time>
      </trkpt>
      <trkpt lat="45.03872" lon="3.89703">
        <ele>699.151</ele>
        <time>2016-06-07T16:56:13Z</time>
      </trkpt>
      <trkpt lat="45.03764" lon="3.89698">
        <ele>703.829</ele>
        <time>2016-06-07T16:56:33Z</time>
      </trkpt>
      <trkpt lat="45.03754" lon="3.89709">
        <ele>706.417</ele>
        <time>2016-06-07T16:56:53Z</time>
      </trkpt>
      <trkpt lat="45.03747" lon="3.89735">
        <ele>708.419</ele>
        <time>2016-06-07T16:57:13Z</time>
      </trkpt>
      <trkpt lat="45.03718" lon="3.89768">
        <ele>711.699</ele>
        <time>2016-06-07T16:57:33Z</time>
      </trkpt>
      <trkpt lat="45.03673" lon="3.898">
        <ele>724.09</ele>
        <time>2016-06-07T16:57:53Z</time>
      </trkpt>
      <trkpt lat="45.03606" lon="3.89862">
        <ele>741.652</ele>
        <time>2016-06-07T16:58:13Z</time>
      </trkpt>
      <trkpt lat="45.03567" lon="3.89907">
        <ele>749.153</ele>
        <time>2016-06-07T16:58:33Z</time>
      </trkpt>
      <trkpt lat="45.03554" lon="3.89934">
        <ele>754.008</ele>
        <time>2016-06-07T16:58:53Z</time>
      </trkpt>
      <trkpt lat="45.03541" lon="3.89997">
        <ele>757.608</ele>
        <time>2016-06-07T16:59:13Z</time>
      </trkpt>
      <trkpt lat="45.0353" lon="3.90021">
        <ele>761.878</ele>
        <time>2016-06-07T16:59:33Z</time>
      </trkpt>
      <trkpt lat="45.03529" lon="3.9004">
        <ele>763.589</ele>
        <time>2016-06-07T16:59:53Z</time>
      </trkpt>
      <trkpt lat="45.03497" lon="3.9007">
        <ele>772.78</ele>
        <time>2016-06-07T17:00:13Z</time>
      </trkpt>
      <trkpt lat="45.03483" lon="3.90116">
        <ele>777.848</ele>
        <time>2016-06-07T17:00:33Z</time>
      </trkpt>
      <trkpt lat="45.03367" lon="3.90157">
        <ele>780.036</ele>
        <time>2016-06-07T17:00:53Z</time>
      </trkpt>
      <trkpt lat="45.03307" lon="3.90205">
        <ele>776.818</ele>
        <time>2016-06-07T17:01:13Z</time>
      </trkpt>
      <trkpt lat="45.03277" lon="3.90186">
        <ele>774.258</ele>
        <time>2016-06-07T17:01:33Z</time>
      </trkpt>
      <trkpt lat="45.03264" lon="3.90175">
        <ele>773.169</ele>
        <time>2016-06-07T17:01:53Z</time>
      </trkpt>
      <trkpt lat="45.03247" lon="3.90178">
        <ele>770.828</ele>
        <time>2016-06-07T17:02:13Z</time>
      </trkpt>
      <trkpt lat="45.03233" lon="3.90186">
        <ele>768.289</ele>
        <time>2016-06-07T17:02:33Z</time>
      </trkpt>
      <trkpt lat="45.03219" lon="3.90212">
        <ele>764.217</ele>
        <time>2016-06-07T17:02:53Z</time>
      </trkpt>
      <trkpt lat="45.03217" lon="3.90242">
        <ele>761.508</ele>
        <time>2016-06-07T17:03:13Z</time>
      </trkpt>
      <trkpt lat="45.03209" lon="3.90257">
        <ele>758.635</ele>
        <time>2016-06-07T17:03:33Z</time>
      </trkpt>
      <trkpt lat="45.03165" lon="3.90266">
        <ele>754.426</ele>
        <time>2016-06-07T17:03:53Z</time>
      </trkpt>
      <trkpt lat="45.03153" lon="3.90282">
        <ele>753.747</ele>
        <time>2016-06-07T17:04:13Z</time>
      </trkpt>
      <trkpt lat="45.03152" lon="3.90308">
        <ele>752.045</ele>
        <time>2016-06-07T17:04:33Z</time>
      </trkpt>
      <trkpt lat="45.03173" lon="3.90468">
        <ele>749.373</ele>
        <time>2016-06-07T17:04:53Z</time>
      </trkpt>
      <trkpt lat="45.03171" lon="3.90542">
        <ele>746.865</ele>
        <time>2016-06-07T17:05:13Z</time>
      </trkpt>
      <trkpt lat="45.03114" lon="3.90574">
        <ele>747.8</ele>
      </trkpt>
      <trkpt lat="45.03106" lon="3.90626">
        <ele>751</ele>
      </trkpt>
      <trkpt lat="45.03115" lon="3.90699">
        <ele>755.396</ele>
        <time>2016-06-07T17:05:53Z</time>
      </trkpt>
      <trkpt lat="45.0307" lon="3.90737">
        <ele>755.822</ele>
        <time>2016-06-07T17:06:13Z</time>
      </trkpt>
      <trkpt lat="45.03032" lon="3.90747">
        <ele>758.362</ele>
        <time>2016-06-07T17:06:33Z</time>
      </trkpt>
      <trkpt lat="45.03004" lon="3.90769">
        <ele>761.808</ele>
        <time>2016-06-07T17:06:53Z</time>
      </trkpt>
      <trkpt lat="45.02984" lon="3.90802">
        <ele>765.808</ele>
        <time>2016-06-07T17:07:13Z</time>
      </trkpt>
      <trkpt lat="45.02965" lon="3.90826">
        <ele>769.565</ele>
        <time>2016-06-07T17:07:33Z</time>
      </trkpt>
      <trkpt lat="45.02938" lon="3.90877">
        <ele>779.256</ele>
        <time>2016-06-07T17:07:53Z</time>
      </trkpt>
      <trkpt lat="45.02909" lon="3.90903">
        <ele>786.527</ele>
        <time>2016-06-07T17:08:13Z</time>
      </trkpt>
      <trkpt lat="45.02884" lon="3.90913">
        <ele>791.385</ele>
        <time>2016-06-07T17:08:33Z</time>
      </trkpt>
      <trkpt lat="45.0285" lon="3.90942">
        <ele>798.013</ele>
        <time>2016-06-07T17:08:53Z</time>
      </trkpt>
      <trkpt lat="45.02807" lon="3.90967">
        <ele>805.295</ele>
        <time>2016-06-07T17:09:13Z</time>
      </trkpt>
      <trkpt lat="45.02742" lon="3.90991">
        <ele>810.835</ele>
        <time>2016-06-07T17:09:33Z</time>
      </trkpt>
      <trkpt lat="45.02723" lon="3.91013">
        <ele>814.036</ele>
        <time>2016-06-07T17:09:53Z</time>
      </trkpt>
      <trkpt lat="45.02703" lon="3.91016">
        <ele>814.418</ele>
        <time>2016-06-07T17:10:13Z</time>
      </trkpt>
      <trkpt lat="45.02671" lon="3.91013">
        <ele>814.898</ele>
        <time>2016-06-07T17:10:33Z</time>
      </trkpt>
      <trkpt lat="45.02617" lon="3.91014">
        <ele>817.617</ele>
        <time>2016-06-07T17:10:53Z</time>
      </trkpt>
      <trkpt lat="45.02565" lon="3.91026">
        <ele>822.208</ele>
        <time>2016-06-07T17:11:13Z</time>
      </trkpt>
      <trkpt lat="45.02516" lon="3.91048">
        <ele>825.024</ele>
        <time>2016-06-07T17:11:33Z</time>
      </trkpt>
      <trkpt lat="45.02504" lon="3.91059">
        <ele>825.095</ele>
        <time>2016-06-07T17:11:53Z</time>
      </trkpt>
      <trkpt lat="45.02443" lon="3.91051">
        <ele>826.116</ele>
        <time>2016-06-07T17:12:13Z</time>
      </trkpt>
      <trkpt lat="45.02391" lon="3.91066">
        <ele>829.574</ele>
        <time>2016-06-07T17:12:33Z</time>
      </trkpt>
      <trkpt lat="45.02362" lon="3.91091">
        <ele>830.082</ele>
        <time>2016-06-07T17:12:53Z</time>
      </trkpt>
      <trkpt lat="45.02343" lon="3.91098">
        <ele>830.384</ele>
        <time>2016-06-07T17:13:13Z</time>
      </trkpt>
      <trkpt lat="45.023" lon="3.9113">
        <ele>831.114</ele>
        <time>2016-06-07T17:13:33Z</time>
      </trkpt>
      <trkpt lat="45.02259" lon="3.91148">
        <ele>830.855</ele>
        <time>2016-06-07T17:13:53Z</time>
      </trkpt>
      <trkpt lat="45.02184" lon="3.91204">
        <ele>829.163</ele>
        <time>2016-06-07T17:14:13Z</time>
      </trkpt>
      <trkpt lat="45.02094" lon="3.91332">
        <ele>824.844</ele>
        <time>2016-06-07T17:14:33Z</time>
      </trkpt>
      <trkpt lat="45.02029" lon="3.91338">
        <ele>818.3</ele>
      </trkpt>
      <trkpt lat="45.01988" lon="3.9135">
        <ele>813.908</ele>
        <time>2016-06-07T17:15:13Z</time>
      </trkpt>
      <trkpt lat="45.01883" lon="3.91387">
        <ele>800.999</ele>
        <time>2016-06-07T17:15:33Z</time>
      </trkpt>
      <trkpt lat="45.01808" lon="3.91399">
        <ele>799.09</ele>
        <time>2016-06-07T17:15:53Z</time>
      </trkpt>
      <trkpt lat="45.01768" lon="3.9141">
        <ele>797.231</ele>
        <time>2016-06-07T17:16:13Z</time>
      </trkpt>
      <trkpt lat="45.01728" lon="3.91414">
        <ele>795.299</ele>
        <time>2016-06-07T17:16:33Z</time>
      </trkpt>
      <trkpt lat="45.017" lon="3.91429">
        <ele>794.627</ele>
        <time>2016-06-07T17:16:53Z</time>
      </trkpt>
      <trkpt lat="45.01665" lon="3.91462">
        <ele>793.019</ele>
        <time>2016-06-07T17:17:13Z</time>
      </trkpt>
      <trkpt lat="45.01624" lon="3.91484">
        <ele>790.729</ele>
        <time>2016-06-07T17:17:33Z</time>
      </trkpt>
      <trkpt lat="45.01595" lon="3.91486">
        <ele>790.06</ele>
        <time>2016-06-07T17:17:53Z</time>
      </trkpt>
      <trkpt lat="45.01589" lon="3.91458">
        <ele>788.837</ele>
        <time>2016-06-07T17:18:13Z</time>
      </trkpt>
      <trkpt lat="45.01565" lon="3.91389">
        <ele>786.349</ele>
        <time>2016-06-07T17:18:33Z</time>
      </trkpt>
      <trkpt lat="45.01553" lon="3.91365">
        <ele>786.013</ele>
        <time>2016-06-07T17:18:53Z</time>
      </trkpt>
      <trkpt lat="45.01536" lon="3.91361">
        <ele>786.008</ele>
        <time>2016-06-07T17:19:13Z</time>
      </trkpt>
      <trkpt lat="45.01505" lon="3.91382">
        <ele>786.076</ele>
        <time>2016-06-07T17:19:33Z</time>
      </trkpt>
      <trkpt lat="45.01463" lon="3.91374">
        <ele>784.237</ele>
        <time>2016-06-07T17:19:53Z</time>
      </trkpt>
      <trkpt lat="45.0142" lon="3.91343">
        <ele>783.678</ele>
        <time>2016-06-07T17:20:13Z</time>
      </trkpt>
      <trkpt lat="45.01409" lon="3.9135">
        <ele>783.616</ele>
        <time>2016-06-07T17:20:33Z</time>
      </trkpt>
      <trkpt lat="45.01395" lon="3.91379">
        <ele>784.364</ele>
        <time>2016-06-07T17:20:53Z</time>
      </trkpt>
      <trkpt lat="45.01365" lon="3.91387">
        <ele>784.966</ele>
        <time>2016-06-07T17:21:13Z</time>
      </trkpt>
      <trkpt lat="45.01343" lon="3.91408">
        <ele>784.136</ele>
        <time>2016-06-07T17:21:33Z</time>
      </trkpt>
      <trkpt lat="45.01332" lon="3.91362">
        <ele>784.057</ele>
        <time>2016-06-07T17:21:53Z</time>
      </trkpt>
      <trkpt lat="45.01306" lon="3.91283">
        <ele>788.842</ele>
        <time>2016-06-07T17:22:13Z</time>
      </trkpt>
      <trkpt lat="45.013" lon="3.91234">
        <ele>788.222</ele>
        <time>2016-06-07T17:22:33Z</time>
      </trkpt>
      <trkpt lat="45.01343" lon="3.91008">
        <ele>790.114</ele>
        <time>2016-06-07T17:22:53Z</time>
      </trkpt>
      <trkpt lat="45.01341" lon="3.90938">
        <ele>794.608</ele>
        <time>2016-06-07T17:23:13Z</time>
      </trkpt>
      <trkpt lat="45.0135" lon="3.90898">
        <ele>797.727</ele>
        <time>2016-06-07T17:23:33Z</time>
      </trkpt>
      <trkpt lat="45.01349" lon="3.90881">
        <ele>799.388</ele>
        <time>2016-06-07T17:23:53Z</time>
      </trkpt>
      <trkpt lat="45.01336" lon="3.90866">
        <ele>798.939</ele>
        <time>2016-06-07T17:24:13Z</time>
      </trkpt>
      <trkpt lat="45.01282" lon="3.90757">
        <ele>807.577</ele>
        <time>2016-06-07T17:24:33Z</time>
      </trkpt>
      <trkpt lat="45.01249" lon="3.90705">
        <ele>807.065</ele>
        <time>2016-06-07T17:24:53Z</time>
      </trkpt>
      <trkpt lat="45.01242" lon="3.9067">
        <ele>808.277</ele>
        <time>2016-06-07T17:25:13Z</time>
      </trkpt>
      <trkpt lat="45.01228" lon="3.90678">
        <ele>808.447</ele>
        <time>2016-06-07T17:25:33Z</time>
      </trkpt>
      <trkpt lat="45.01138" lon="3.90785">
        <ele>804.588</ele>
        <time>2016-06-07T17:25:53Z</time>
      </trkpt>
      <trkpt lat="45.01087" lon="3.90907">
        <ele>802.387</ele>
        <time>2016-06-07T17:26:13Z</time>
      </trkpt>
      <trkpt lat="45.01048" lon="3.91014">
        <ele>797.742</ele>
        <time>2016-06-07T17:26:33Z</time>
      </trkpt>
      <trkpt lat="45.01005" lon="3.91091">
        <ele>792.426</ele>
        <time>2016-06-07T17:26:53Z</time>
      </trkpt>
      <trkpt lat="45.00986" lon="3.91108">
        <ele>788.808</ele>
        <time>2016-06-07T17:27:13Z</time>
      </trkpt>
      <trkpt lat="45.00967" lon="3.91106">
        <ele>787.441</ele>
        <time>2016-06-07T17:27:33Z</time>
      </trkpt>
      <trkpt lat="45.00946" lon="3.91095">
        <ele>788.082</ele>
        <time>2016-06-07T17:27:53Z</time>
      </trkpt>
      <trkpt lat="45.00906" lon="3.91074">
        <ele>788.063</ele>
        <time>2016-06-07T17:28:13Z</time>
      </trkpt>
      <trkpt lat="45.00861" lon="3.91062">
        <ele>784.281</ele>
        <time>2016-06-07T17:28:33Z</time>
      </trkpt>
      <trkpt lat="45.0077" lon="3.91062">
        <ele>769.279</ele>
        <time>2016-06-07T17:28:53Z</time>
      </trkpt>
      <trkpt lat="45.00726" lon="3.91075">
        <ele>756.431</ele>
        <time>2016-06-07T17:29:13Z</time>
      </trkpt>
      <trkpt lat="45.0061" lon="3.9119">
        <ele>743.781</ele>
        <time>2016-06-07T17:29:33Z</time>
      </trkpt>
      <trkpt lat="45.0061" lon="3.91221">
        <ele>740.162</ele>
        <time>2016-06-07T17:29:53Z</time>
      </trkpt>
      <trkpt lat="45.00599" lon="3.91234">
        <ele>737.932</ele>
        <time>2016-06-07T17:30:13Z</time>
      </trkpt>
      <trkpt lat="45.00573" lon="3.91239">
        <ele>735.092</ele>
        <time>2016-06-07T17:30:33Z</time>
      </trkpt>
      <trkpt lat="45.00553" lon="3.91236">
        <ele>732.311</ele>
        <time>2016-06-07T17:30:53Z</time>
      </trkpt>
      <trkpt lat="45.00506" lon="3.91266">
        <ele>725.208</ele>
        <time>2016-06-07T17:31:13Z</time>
      </trkpt>
      <trkpt lat="45.0047" lon="3.91307">
        <ele>721.956</ele>
        <time>2016-06-07T17:31:33Z</time>
      </trkpt>
      <trkpt lat="45.00457" lon="3.91302">
        <ele>721.527</ele>
        <time>2016-06-07T17:31:53Z</time>
      </trkpt>
      <trkpt lat="45.00436" lon="3.91273">
        <ele>720.6</ele>
      </trkpt>
      <trkpt lat="45.00412" lon="3.91297">
        <ele>718.996</ele>
        <time>2016-06-07T17:32:33Z</time>
      </trkpt>
      <trkpt lat="45.00384" lon="3.9131">
        <ele>716.044</ele>
        <time>2016-06-07T17:32:53Z</time>
      </trkpt>
      <trkpt lat="45.00365" lon="3.91301">
        <ele>713.636</ele>
        <time>2016-06-07T17:33:13Z</time>
      </trkpt>
      <trkpt lat="45.00347" lon="3.91304">
        <ele>710.576</ele>
        <time>2016-06-07T17:33:33Z</time>
      </trkpt>
      <trkpt lat="45.0032" lon="3.91296">
        <ele>706.647</ele>
        <time>2016-06-07T17:33:53Z</time>
      </trkpt>
      <trkpt lat="45.00307" lon="3.91305">
        <ele>704.235</ele>
        <time>2016-06-07T17:34:13Z</time>
      </trkpt>
      <trkpt lat="45.00307" lon="3.91337">
        <ele>702.386</ele>
        <time>2016-06-07T17:34:33Z</time>
      </trkpt>
      <trkpt lat="45.00314" lon="3.91417">
        <ele>698.214</ele>
        <time>2016-06-07T17:34:53Z</time>
      </trkpt>
      <trkpt lat="45.003" lon="3.91437">
        <ele>694.308</ele>
        <time>2016-06-07T17:35:13Z</time>
      </trkpt>
      <trkpt lat="45.00215" lon="3.915">
        <ele>683.096</ele>
        <time>2016-06-07T17:35:33Z</time>
      </trkpt>
      <trkpt lat="45.00149" lon="3.9154">
        <ele>678.547</ele>
        <time>2016-06-07T17:35:53Z</time>
      </trkpt>
      <trkpt lat="45.00075" lon="3.91578">
        <ele>668.678</ele>
        <time>2016-06-07T17:36:13Z</time>
      </trkpt>
      <trkpt lat="45.00078" lon="3.9159">
        <ele>667.656</ele>
        <time>2016-06-07T17:36:33Z</time>
      </trkpt>
      <trkpt lat="45.001" lon="3.91616">
        <ele>666.864</ele>
        <time>2016-06-07T17:36:53Z</time>
      </trkpt>
      <trkpt lat="45.00108" lon="3.91633">
        <ele>665.526</ele>
        <time>2016-06-07T17:37:13Z</time>
      </trkpt>
      <trkpt lat="45.00101" lon="3.91701">
        <ele>661.026</ele>
        <time>2016-06-07T17:37:33Z</time>
      </trkpt>
      <trkpt lat="44.99969" lon="3.91705">
        <ele>646.827</ele>
        <time>2016-06-07T17:37:53Z</time>
      </trkpt>
      <trkpt lat="44.99942" lon="3.91699">
        <ele>643.398</ele>
        <time>2016-06-07T17:38:13Z</time>
      </trkpt>
      <trkpt lat="44.99919" lon="3.91713">
        <ele>638.815</ele>
        <time>2016-06-07T17:38:33Z</time>
      </trkpt>
      <trkpt lat="44.99886" lon="3.91748">
        <ele>633.426</ele>
        <time>2016-06-07T17:38:53Z</time>
      </trkpt>
      <trkpt lat="44.99874" lon="3.91698">
        <ele>631.908</ele>
        <time>2016-06-07T17:39:13Z</time>
      </trkpt>
      <trkpt lat="44.99748" lon="3.91736">
        <ele>629.312</ele>
        <time>2016-06-07T17:39:33Z</time>
      </trkpt>
      <trkpt lat="44.99716" lon="3.91802">
        <ele>632.263</ele>
        <time>2016-06-07T17:39:53Z</time>
      </trkpt>
      <trkpt lat="44.99683" lon="3.91831">
        <ele>633.094</ele>
        <time>2016-06-07T17:40:13Z</time>
      </trkpt>
      <trkpt lat="44.99636" lon="3.91842">
        <ele>633.032</ele>
        <time>2016-06-07T17:40:33Z</time>
      </trkpt>
      <trkpt lat="44.99571" lon="3.91821">
        <ele>635.34</ele>
        <time>2016-06-07T17:40:53Z</time>
      </trkpt>
      <trkpt lat="44.99491" lon="3.91778">
        <ele>644.932</ele>
        <time>2016-06-07T17:41:13Z</time>
      </trkpt>
      <trkpt lat="44.99472" lon="3.91777">
        <ele>647.182</ele>
        <time>2016-06-07T17:41:33Z</time>
      </trkpt>
      <trkpt lat="44.99462" lon="3.91787">
        <ele>648.413</ele>
        <time>2016-06-07T17:41:53Z</time>
      </trkpt>
      <trkpt lat="44.99437" lon="3.91823">
        <ele>650.134</ele>
        <time>2016-06-07T17:42:13Z</time>
      </trkpt>
      <trkpt lat="44.99365" lon="3.91895">
        <ele>663.855</ele>
        <time>2016-06-07T17:42:33Z</time>
      </trkpt>
      <trkpt lat="44.9932" lon="3.91997">
        <ele>674.31</ele>
        <time>2016-06-07T17:42:53Z</time>
      </trkpt>
      <trkpt lat="44.99273" lon="3.92073">
        <ele>677.408</ele>
        <time>2016-06-07T17:43:13Z</time>
      </trkpt>
      <trkpt lat="44.99179" lon="3.92053">
        <ele>687.466</ele>
        <time>2016-06-07T17:43:33Z</time>
      </trkpt>
      <trkpt lat="44.9916" lon="3.92031">
        <ele>692.497</ele>
        <time>2016-06-07T17:43:53Z</time>
      </trkpt>
      <trkpt lat="44.99132" lon="3.91954">
        <ele>702.338</ele>
        <time>2016-06-07T17:44:13Z</time>
      </trkpt>
      <trkpt lat="44.99066" lon="3.91871">
        <ele>714.596</ele>
        <time>2016-06-07T17:44:33Z</time>
      </trkpt>
      <trkpt lat="44.99058" lon="3.91831">
        <ele>719.674</ele>
        <time>2016-06-07T17:44:53Z</time>
      </trkpt>
      <trkpt lat="44.99076" lon="3.91697">
        <ele>734.136</ele>
        <time>2016-06-07T17:45:13Z</time>
      </trkpt>
      <trkpt lat="44.99028" lon="3.91671">
        <ele>740.576</ele>
        <time>2016-06-07T17:45:33Z</time>
      </trkpt>
      <trkpt lat="44.99029" lon="3.91657">
        <ele>742.077</ele>
        <time>2016-06-07T17:45:53Z</time>
      </trkpt>
      <trkpt lat="44.99093" lon="3.91575">
        <ele>745.042</ele>
        <time>2016-06-07T17:46:13Z</time>
      </trkpt>
      <trkpt lat="44.99091" lon="3.91561">
        <ele>746.222</ele>
        <time>2016-06-07T17:46:33Z</time>
      </trkpt>
      <trkpt lat="44.99" lon="3.91535">
        <ele>759.914</ele>
        <time>2016-06-07T17:46:53Z</time>
      </trkpt>
      <trkpt lat="44.98969" lon="3.91505">
        <ele>767.108</ele>
        <time>2016-06-07T17:47:13Z</time>
      </trkpt>
      <trkpt lat="44.98932" lon="3.91429">
        <ele>776.047</ele>
        <time>2016-06-07T17:47:33Z</time>
      </trkpt>
      <trkpt lat="44.98908" lon="3.91392">
        <ele>776.188</ele>
        <time>2016-06-07T17:47:53Z</time>
      </trkpt>
      <trkpt lat="44.98872" lon="3.91354">
        <ele>775.289</ele>
        <time>2016-06-07T17:48:13Z</time>
      </trkpt>
      <trkpt lat="44.98839" lon="3.91344">
        <ele>777.487</ele>
        <time>2016-06-07T17:48:33Z</time>
      </trkpt>
      <trkpt lat="44.98803" lon="3.91343">
        <ele>782.435</ele>
        <time>2016-06-07T17:48:53Z</time>
      </trkpt>
      <trkpt lat="44.98702" lon="3.9138">
        <ele>789.287</ele>
        <time>2016-06-07T17:49:13Z</time>
      </trkpt>
      <trkpt lat="44.98657" lon="3.91378">
        <ele>792.477</ele>
        <time>2016-06-07T17:49:33Z</time>
      </trkpt>
      <trkpt lat="44.98607" lon="3.91384">
        <ele>801.138</ele>
        <time>2016-06-07T17:49:53Z</time>
      </trkpt>
      <trkpt lat="44.98528" lon="3.91442">
        <ele>809.921</ele>
        <time>2016-06-07T17:50:13Z</time>
      </trkpt>
      <trkpt lat="44.9851" lon="3.91446">
        <ele>811.241</ele>
        <time>2016-06-07T17:50:33Z</time>
      </trkpt>
      <trkpt lat="44.98498" lon="3.91425">
        <ele>812.005</ele>
        <time>2016-06-07T17:50:53Z</time>
      </trkpt>
      <trkpt lat="44.98426" lon="3.91346">
        <ele>808.008</ele>
        <time>2016-06-07T17:51:13Z</time>
      </trkpt>
      <trkpt lat="44.98407" lon="3.9138">
        <ele>808.795</ele>
        <time>2016-06-07T17:51:33Z</time>
      </trkpt>
      <trkpt lat="44.98403" lon="3.9144">
        <ele>810.996</ele>
        <time>2016-06-07T17:51:53Z</time>
      </trkpt>
      <trkpt lat="44.98407" lon="3.9149">
        <ele>812.337</ele>
        <time>2016-06-07T17:52:13Z</time>
      </trkpt>
      <trkpt lat="44.98394" lon="3.91529">
        <ele>813.375</ele>
        <time>2016-06-07T17:52:33Z</time>
      </trkpt>
      <trkpt lat="44.98363" lon="3.9158">
        <ele>816.043</ele>
        <time>2016-06-07T17:52:53Z</time>
      </trkpt>
      <trkpt lat="44.98268" lon="3.91695">
        <ele>822.485</ele>
        <time>2016-06-07T17:53:13Z</time>
      </trkpt>
      <trkpt lat="44.98243" lon="3.91699">
        <ele>826.465</ele>
        <time>2016-06-07T17:53:33Z</time>
      </trkpt>
      <trkpt lat="44.98212" lon="3.91684">
        <ele>831.146</ele>
        <time>2016-06-07T17:53:53Z</time>
      </trkpt>
      <trkpt lat="44.98178" lon="3.91687">
        <ele>833.397</ele>
        <time>2016-06-07T17:54:13Z</time>
      </trkpt>
      <trkpt lat="44.98157" lon="3.91714">
        <ele>835.623</ele>
        <time>2016-06-07T17:54:33Z</time>
      </trkpt>
      <trkpt lat="44.98141" lon="3.91774">
        <ele>839.725</ele>
        <time>2016-06-07T17:54:53Z</time>
      </trkpt>
      <trkpt lat="44.98146" lon="3.91839">
        <ele>839.908</ele>
        <time>2016-06-07T17:55:13Z</time>
      </trkpt>
      <trkpt lat="44.98136" lon="3.91863">
        <ele>842.322</ele>
        <time>2016-06-07T17:55:33Z</time>
      </trkpt>
      <trkpt lat="44.97993" lon="3.92095">
        <ele>855.223</ele>
        <time>2016-06-07T17:55:53Z</time>
      </trkpt>
      <trkpt lat="44.97946" lon="3.92162">
        <ele>858.794</ele>
        <time>2016-06-07T17:56:13Z</time>
      </trkpt>
      <trkpt lat="44.97886" lon="3.92291">
        <ele>868.392</ele>
        <time>2016-06-07T17:56:33Z</time>
      </trkpt>
      <trkpt lat="44.97764" lon="3.92503">
        <ele>882.27</ele>
        <time>2016-06-07T17:56:53Z</time>
      </trkpt>
      <trkpt lat="44.97707" lon="3.92557">
        <ele>886.092</ele>
        <time>2016-06-07T17:57:13Z</time>
      </trkpt>
      <trkpt lat="44.97655" lon="3.92635">
        <ele>890.152</ele>
        <time>2016-06-07T17:57:33Z</time>
      </trkpt>
      <trkpt lat="44.97605" lon="3.92722">
        <ele>887.563</ele>
        <time>2016-06-07T17:57:53Z</time>
      </trkpt>
      <trkpt lat="44.97569" lon="3.92752">
        <ele>886.727</ele>
        <time>2016-06-07T17:58:13Z</time>
      </trkpt>
      <trkpt lat="44.97502" lon="3.92789">
        <ele>883.368</ele>
        <time>2016-06-07T17:58:33Z</time>
      </trkpt>
      <trkpt lat="44.97451" lon="3.92801">
        <ele>879.714</ele>
        <time>2016-06-07T17:58:53Z</time>
      </trkpt>
      <trkpt lat="44.97403" lon="3.92833">
        <ele>882.508</ele>
        <time>2016-06-07T17:59:13Z</time>
      </trkpt>
      <trkpt lat="44.97348" lon="3.92913">
        <ele>878.595</ele>
        <time>2016-06-07T17:59:33Z</time>
      </trkpt>
      <trkpt lat="44.97322" lon="3.92977">
        <ele>878.527</ele>
        <time>2016-06-07T18:00:13Z</time>
      </trkpt>
      <trkpt lat="44.97305" lon="3.93004">
        <ele>879.825</ele>
        <time>2016-06-07T18:00:33Z</time>
      </trkpt>
      <trkpt lat="44.97145" lon="3.93431">
        <ele>885.343</ele>
        <time>2016-06-07T18:00:53Z</time>
      </trkpt>
      <trkpt lat="44.9711" lon="3.93489">
        <ele>884.635</ele>
        <time>2016-06-07T18:01:13Z</time>
      </trkpt>
      <trkpt lat="44.97069" lon="3.93547">
        <ele>884.915</ele>
        <time>2016-06-07T18:01:33Z</time>
      </trkpt>
      <trkpt lat="44.97059" lon="3.93579">
        <ele>887.026</ele>
        <time>2016-06-07T18:01:53Z</time>
      </trkpt>
      <trkpt lat="44.96964" lon="3.93753">
        <ele>887.437</ele>
        <time>2016-06-07T18:02:13Z</time>
      </trkpt>
      <trkpt lat="44.96919" lon="3.93864">
        <ele>886.449</ele>
        <time>2016-06-07T18:02:33Z</time>
      </trkpt>
      <trkpt lat="44.96885" lon="3.93925">
        <ele>885.313</ele>
        <time>2016-06-07T18:02:53Z</time>
      </trkpt>
      <trkpt lat="44.96817" lon="3.94012">
        <ele>891.108</ele>
        <time>2016-06-07T18:03:13Z</time>
      </trkpt>
      <trkpt lat="44.96722" lon="3.94102">
        <ele>889.386</ele>
        <time>2016-06-07T18:03:33Z</time>
      </trkpt>
      <trkpt lat="44.96683" lon="3.94133">
        <ele>889.227</ele>
        <time>2016-06-07T18:03:53Z</time>
      </trkpt>
      <trkpt lat="44.96614" lon="3.9422">
        <ele>888.978</ele>
        <time>2016-06-07T18:04:13Z</time>
      </trkpt>
      <trkpt lat="44.96565" lon="3.94266">
        <ele>891.266</ele>
        <time>2016-06-07T18:04:33Z</time>
      </trkpt>
      <trkpt lat="44.96493" lon="3.94369">
        <ele>890.064</ele>
        <time>2016-06-07T18:04:53Z</time>
      </trkpt>
      <trkpt lat="44.96437" lon="3.94469">
        <ele>890.046</ele>
        <time>2016-06-07T18:05:13Z</time>
      </trkpt>
      <trkpt lat="44.96398" lon="3.94545">
        <ele>889.876</ele>
        <time>2016-06-07T18:05:33Z</time>
      </trkpt>
      <trkpt lat="44.96357" lon="3.94605">
        <ele>886.417</ele>
        <time>2016-06-07T18:05:53Z</time>
      </trkpt>
      <trkpt lat="44.96246" lon="3.94747">
        <ele>890.553</ele>
        <time>2016-06-07T18:06:13Z</time>
      </trkpt>
      <trkpt lat="44.962" lon="3.94827">
        <ele>894.104</ele>
        <time>2016-06-07T18:06:33Z</time>
      </trkpt>
      <trkpt lat="44.96189" lon="3.94872">
        <ele>896.414</ele>
        <time>2016-06-07T18:06:53Z</time>
      </trkpt>
      <trkpt lat="44.96191" lon="3.94947">
        <ele>901.408</ele>
        <time>2016-06-07T18:07:13Z</time>
      </trkpt>
      <trkpt lat="44.96207" lon="3.95062">
        <ele>909.488</ele>
        <time>2016-06-07T18:07:33Z</time>
      </trkpt>
      <trkpt lat="44.96227" lon="3.95539">
        <ele>911.7</ele>
      </trkpt>
      <trkpt lat="44.96249" lon="3.95722">
        <ele>912.38</ele>
        <time>2016-06-07T18:08:13Z</time>
      </trkpt>
      <trkpt lat="44.96258" lon="3.95866">
        <ele>898.968</ele>
        <time>2016-06-07T18:08:33Z</time>
      </trkpt>
      <trkpt lat="44.96227" lon="3.95933">
        <ele>895.196</ele>
        <time>2016-06-07T18:08:53Z</time>
      </trkpt>
      <trkpt lat="44.96182" lon="3.96004">
        <ele>894.288</ele>
        <time>2016-06-07T18:09:13Z</time>
      </trkpt>
      <trkpt lat="44.96132" lon="3.96146">
        <ele>885.998</ele>
        <time>2016-06-07T18:09:33Z</time>
      </trkpt>
      <trkpt lat="44.96119" lon="3.96144">
        <ele>886.959</ele>
        <time>2016-06-07T18:09:53Z</time>
      </trkpt>
      <trkpt lat="44.9609" lon="3.96181">
        <ele>885.923</ele>
        <time>2016-06-07T18:10:13Z</time>
      </trkpt>
      <trkpt lat="44.9605" lon="3.96182">
        <ele>892.883</ele>
        <time>2016-06-07T18:10:33Z</time>
      </trkpt>
      <trkpt lat="44.96022" lon="3.96195">
        <ele>895.611</ele>
        <time>2016-06-07T18:10:53Z</time>
      </trkpt>
      <trkpt lat="44.96006" lon="3.96222">
        <ele>893.908</ele>
        <time>2016-06-07T18:11:13Z</time>
      </trkpt>
      <trkpt lat="44.95984" lon="3.96285">
        <ele>891.255</ele>
        <time>2016-06-07T18:11:33Z</time>
      </trkpt>
      <trkpt lat="44.9593" lon="3.96334">
        <ele>896.056</ele>
        <time>2016-06-07T18:11:53Z</time>
      </trkpt>
      <trkpt lat="44.95907" lon="3.96388">
        <ele>901.137</ele>
        <time>2016-06-07T18:12:13Z</time>
      </trkpt>
      <trkpt lat="44.95889" lon="3.96469">
        <ele>899.145</ele>
        <time>2016-06-07T18:12:33Z</time>
      </trkpt>
      <trkpt lat="44.95827" lon="3.96586">
        <ele>896.483</ele>
        <time>2016-06-07T18:12:53Z</time>
      </trkpt>
      <trkpt lat="44.95743" lon="3.96659">
        <ele>893.675</ele>
        <time>2016-06-07T18:13:13Z</time>
      </trkpt>
      <trkpt lat="44.9571" lon="3.9669">
        <ele>894.755</ele>
        <time>2016-06-07T18:13:33Z</time>
      </trkpt>
      <trkpt lat="44.95672" lon="3.96744">
        <ele>895.736</ele>
        <time>2016-06-07T18:13:53Z</time>
      </trkpt>
      <trkpt lat="44.95564" lon="3.96917">
        <ele>895.791</ele>
        <time>2016-06-07T18:14:13Z</time>
      </trkpt>
      <trkpt lat="44.95552" lon="3.96949">
        <ele>894.281</ele>
        <time>2016-06-07T18:14:33Z</time>
      </trkpt>
      <trkpt lat="44.95543" lon="3.9701">
        <ele>892.619</ele>
        <time>2016-06-07T18:14:53Z</time>
      </trkpt>
      <trkpt lat="44.95535" lon="3.97034">
        <ele>893.508</ele>
        <time>2016-06-07T18:15:13Z</time>
      </trkpt>
      <trkpt lat="44.95489" lon="3.97058">
        <ele>896.292</ele>
        <time>2019-03-25T14:41:51Z</time>
      </trkpt>
      <trkpt lat="44.95444" lon="3.97097">
        <ele>904.043</ele>
        <time>2019-03-25T14:42:11Z</time>
      </trkpt>
      <trkpt lat="44.95336" lon="3.97124">
        <ele>921.434</ele>
        <time>2019-03-25T14:42:31Z</time>
      </trkpt>
      <trkpt lat="44.9534" lon="3.97092">
        <ele>922.522</ele>
        <time>2019-03-25T14:42:51Z</time>
      </trkpt>
      <trkpt lat="44.95271" lon="3.97079">
        <ele>939.92</ele>
        <time>2019-03-25T14:43:11Z</time>
      </trkpt>
      <trkpt lat="44.95136" lon="3.97015">
        <ele>972.772</ele>
        <time>2019-03-25T14:43:31Z</time>
      </trkpt>
      <trkpt lat="44.95052" lon="3.97039">
        <ele>977.112</ele>
        <time>2019-03-25T14:43:51Z</time>
      </trkpt>
      <trkpt lat="44.94945" lon="3.97034">
        <ele>977.213</ele>
        <time>2019-03-25T14:44:11Z</time>
      </trkpt>
      <trkpt lat="44.9485" lon="3.96997">
        <ele>977.582</ele>
        <time>2019-03-25T14:44:31Z</time>
      </trkpt>
      <trkpt lat="44.94773" lon="3.97076">
        <ele>978.743</ele>
        <time>2019-03-25T14:44:51Z</time>
      </trkpt>
      <trkpt lat="44.94786" lon="3.97134">
        <ele>980.817</ele>
        <time>2019-03-25T14:45:11Z</time>
      </trkpt>
      <trkpt lat="44.94736" lon="3.97177">
        <ele>983.708</ele>
        <time>2019-03-25T14:45:31Z</time>
      </trkpt>
      <trkpt lat="44.94698" lon="3.97169">
        <ele>983.181</ele>
        <time>2019-03-25T14:45:51Z</time>
      </trkpt>
      <trkpt lat="44.94633" lon="3.97198">
        <ele>982.262</ele>
        <time>2019-03-25T14:46:11Z</time>
      </trkpt>
      <trkpt lat="44.94605" lon="3.97243">
        <ele>977.983</ele>
        <time>2019-03-25T14:46:31Z</time>
      </trkpt>
      <trkpt lat="44.94584" lon="3.97346">
        <ele>978.641</ele>
        <time>2019-03-25T14:46:51Z</time>
      </trkpt>
      <trkpt lat="44.94592" lon="3.97383">
        <ele>981.019</ele>
        <time>2019-03-25T14:47:11Z</time>
      </trkpt>
      <trkpt lat="44.94596" lon="3.97443">
        <ele>983.731</ele>
        <time>2019-03-25T14:47:31Z</time>
      </trkpt>
      <trkpt lat="44.94611" lon="3.97546">
        <ele>983.571</ele>
        <time>2019-03-25T14:47:51Z</time>
      </trkpt>
      <trkpt lat="44.94601" lon="3.97594">
        <ele>977.292</ele>
        <time>2019-03-25T14:48:11Z</time>
      </trkpt>
      <trkpt lat="44.9462" lon="3.97628">
        <ele>981.446</ele>
        <time>2019-03-25T14:48:31Z</time>
      </trkpt>
      <trkpt lat="44.94637" lon="3.97797">
        <ele>987.988</ele>
        <time>2019-03-25T14:48:51Z</time>
      </trkpt>
      <trkpt lat="44.94614" lon="3.97945">
        <ele>985.916</ele>
        <time>2019-03-25T14:49:11Z</time>
      </trkpt>
      <trkpt lat="44.94614" lon="3.98138">
        <ele>987.608</ele>
        <time>2019-03-25T14:49:31Z</time>
      </trkpt>
      <trkpt lat="44.94629" lon="3.98244">
        <ele>981.437</ele>
        <time>2019-03-25T14:49:51Z</time>
      </trkpt>
      <trkpt lat="44.94665" lon="3.98284">
        <ele>977.158</ele>
        <time>2019-03-25T14:50:11Z</time>
      </trkpt>
      <trkpt lat="44.94667" lon="3.98424">
        <ele>955.379</ele>
        <time>2019-03-25T14:50:31Z</time>
      </trkpt>
      <trkpt lat="44.94678" lon="3.98484">
        <ele>947.397</ele>
        <time>2019-03-25T14:50:51Z</time>
      </trkpt>
      <trkpt lat="44.94663" lon="3.98585">
        <ele>934.565</ele>
        <time>2019-03-25T14:51:11Z</time>
      </trkpt>
      <trkpt lat="44.94691" lon="3.98759">
        <ele>932.087</ele>
        <time>2019-03-25T14:51:31Z</time>
      </trkpt>
      <trkpt lat="44.94659" lon="3.9892">
        <ele>930.937</ele>
        <time>2019-03-25T14:51:51Z</time>
      </trkpt>
      <trkpt lat="44.94646" lon="3.98939">
        <ele>931.298</ele>
        <time>2019-03-25T14:52:11Z</time>
      </trkpt>
      <trkpt lat="44.94644" lon="3.98946">
        <ele>931.653</ele>
        <time>2016-06-07T18:23:53Z</time>
      </trkpt>
      <trkpt lat="44.94487" lon="3.99055">
        <ele>936.904</ele>
        <time>2016-06-07T18:24:13Z</time>
      </trkpt>
      <trkpt lat="44.94403" lon="3.99102">
        <ele>936.014</ele>
        <time>2016-06-07T18:24:33Z</time>
      </trkpt>
      <trkpt lat="44.94352" lon="3.99158">
        <ele>933.508</ele>
        <time>2016-06-07T18:24:53Z</time>
      </trkpt>
      <trkpt lat="44.94302" lon="3.99223">
        <ele>932.878</ele>
        <time>2016-06-07T18:25:13Z</time>
      </trkpt>
      <trkpt lat="44.94146" lon="3.99321">
        <ele>931.759</ele>
        <time>2016-06-07T18:25:33Z</time>
      </trkpt>
      <trkpt lat="44.94098" lon="3.99326">
        <ele>933.38</ele>
        <time>2016-06-07T18:25:53Z</time>
      </trkpt>
      <trkpt lat="44.94068" lon="3.9935">
        <ele>933.698</ele>
        <time>2016-06-07T18:26:13Z</time>
      </trkpt>
      <trkpt lat="44.94009" lon="3.994">
        <ele>933.096</ele>
        <time>2016-06-07T18:26:33Z</time>
      </trkpt>
      <trkpt lat="44.93969" lon="3.99405">
        <ele>931.248</ele>
        <time>2016-06-07T18:26:53Z</time>
      </trkpt>
      <trkpt lat="44.93942" lon="3.99422">
        <ele>932.628</ele>
        <time>2016-06-07T18:27:13Z</time>
      </trkpt>
      <trkpt lat="44.93924" lon="3.99446">
        <ele>934.799</ele>
        <time>2016-06-07T18:27:33Z</time>
      </trkpt>
      <trkpt lat="44.93899" lon="3.99485">
        <ele>938.091</ele>
        <time>2016-06-07T18:27:53Z</time>
      </trkpt>
      <trkpt lat="44.93887" lon="3.99527">
        <ele>941.981</ele>
        <time>2016-06-07T18:28:13Z</time>
      </trkpt>
      <trkpt lat="44.93833" lon="3.99548">
        <ele>942.919</ele>
        <time>2016-06-07T18:28:33Z</time>
      </trkpt>
      <trkpt lat="44.93768" lon="3.99553">
        <ele>945.408</ele>
        <time>2016-06-07T18:28:53Z</time>
      </trkpt>
      <trkpt lat="44.93738" lon="3.99569">
        <ele>945.342</ele>
        <time>2016-06-07T18:29:13Z</time>
      </trkpt>
      <trkpt lat="44.93681" lon="3.99578">
        <ele>941.143</ele>
        <time>2016-06-07T18:29:33Z</time>
      </trkpt>
      <trkpt lat="44.93631" lon="3.99609">
        <ele>940.374</ele>
        <time>2016-06-07T18:29:53Z</time>
      </trkpt>
      <trkpt lat="44.93568" lon="3.99633">
        <ele>937.552</ele>
        <time>2016-06-07T18:30:13Z</time>
      </trkpt>
      <trkpt lat="44.93533" lon="3.99652">
        <ele>934.8</ele>
      </trkpt>
      <trkpt lat="44.93486" lon="3.99718">
        <ele>934</ele>
      </trkpt>
      <trkpt lat="44.93427" lon="3.9984">
        <ele>938</ele>
      </trkpt>
      <trkpt lat="44.93304" lon="3.99994">
        <ele>929</ele>
      </trkpt>
    </trkseg>
  </trk>
  <trk>
    <name><![CDATA[17 juil]]></name>
    <extensions>
      <line xmlns="http://www.topografix.com/GPX/gpx_style/0/2">
        <color>303630</color>
        <opacity>1</opacity>
        <width>3</width>
      </line>
    </extensions>
    <trkseg>
      <trkpt lat="44.93304" lon="3.99994">
        <ele>929</ele>
      </trkpt>
      <trkpt lat="44.93304" lon="3.99994">
        <ele>929</ele>
      </trkpt>
      <trkpt lat="44.93304" lon="3.99994">
        <ele>929</ele>
      </trkpt>
      <trkpt lat="44.93304" lon="3.99994">
        <ele>929</ele>
      </trkpt>
      <trkpt lat="44.93304" lon="3.99994">
        <ele>929</ele>
      </trkpt>
      <trkpt lat="44.93304" lon="3.99994">
        <ele>929</ele>
      </trkpt>
      <trkpt lat="44.93304" lon="3.99994">
        <ele>929</ele>
      </trkpt>
      <trkpt lat="44.93304" lon="3.99994">
        <ele>929</ele>
      </trkpt>
      <trkpt lat="44.93304" lon="3.99994">
        <ele>929</ele>
      </trkpt>
      <trkpt lat="44.93423" lon="3.99824">
        <ele>935.5</ele>
      </trkpt>
      <trkpt lat="44.93486" lon="3.99698">
        <ele>933</ele>
      </trkpt>
      <trkpt lat="44.93533" lon="3.99639">
        <ele>934</ele>
      </trkpt>
      <trkpt lat="44.93525" lon="3.99573">
        <ele>928.052</ele>
        <time>2016-06-07T18:31:13Z</time>
      </trkpt>
      <trkpt lat="44.9353" lon="3.99545">
        <ele>924.553</ele>
        <time>2016-06-07T18:31:33Z</time>
      </trkpt>
      <trkpt lat="44.93566" lon="3.99476">
        <ele>917.491</ele>
        <time>2016-06-07T18:31:53Z</time>
      </trkpt>
      <trkpt lat="44.93598" lon="3.9938">
        <ele>898.681</ele>
        <time>2016-06-07T18:32:13Z</time>
      </trkpt>
      <trkpt lat="44.93607" lon="3.99338">
        <ele>892.619</ele>
        <time>2016-06-07T18:32:33Z</time>
      </trkpt>
      <trkpt lat="44.93621" lon="3.99304">
        <ele>888.808</ele>
        <time>2016-06-07T18:32:53Z</time>
      </trkpt>
      <trkpt lat="44.93633" lon="3.99246">
        <ele>884.952</ele>
        <time>2016-06-07T18:33:13Z</time>
      </trkpt>
      <trkpt lat="44.93638" lon="3.99178">
        <ele>880.823</ele>
        <time>2016-06-07T18:33:33Z</time>
      </trkpt>
      <trkpt lat="44.93636" lon="3.99115">
        <ele>877.274</ele>
        <time>2016-06-07T18:33:53Z</time>
      </trkpt>
      <trkpt lat="44.93648" lon="3.99015">
        <ele>867.692</ele>
        <time>2016-06-07T18:34:13Z</time>
      </trkpt>
      <trkpt lat="44.93662" lon="3.98951">
        <ele>860.75</ele>
        <time>2016-06-07T18:34:33Z</time>
      </trkpt>
      <trkpt lat="44.93685" lon="3.98903">
        <ele>856.632</ele>
        <time>2016-06-07T18:34:53Z</time>
      </trkpt>
      <trkpt lat="44.93689" lon="3.9881">
        <ele>849.642</ele>
        <time>2016-06-07T18:35:13Z</time>
      </trkpt>
      <trkpt lat="44.93718" lon="3.98742">
        <ele>842.923</ele>
        <time>2016-06-07T18:35:33Z</time>
      </trkpt>
      <trkpt lat="44.9372" lon="3.98707">
        <ele>839.763</ele>
        <time>2016-06-07T18:35:53Z</time>
      </trkpt>
      <trkpt lat="44.93659" lon="3.98448">
        <ele>819.244</ele>
        <time>2016-06-07T18:36:13Z</time>
      </trkpt>
      <trkpt lat="44.93625" lon="3.9841">
        <ele>816.918</ele>
        <time>2016-06-07T18:36:33Z</time>
      </trkpt>
      <trkpt lat="44.93567" lon="3.98369">
        <ele>817.299</ele>
        <time>2016-06-07T18:37:13Z</time>
      </trkpt>
      <trkpt lat="44.93504" lon="3.98357">
        <ele>817.81</ele>
        <time>2016-06-07T18:37:33Z</time>
      </trkpt>
      <trkpt lat="44.93469" lon="3.98321">
        <ele>824.671</ele>
        <time>2016-06-07T18:37:53Z</time>
      </trkpt>
      <trkpt lat="44.93446" lon="3.98322">
        <ele>829.749</ele>
        <time>2016-06-07T18:38:13Z</time>
      </trkpt>
      <trkpt lat="44.93405" lon="3.98299">
        <ele>834.247</ele>
        <time>2016-06-07T18:38:33Z</time>
      </trkpt>
      <trkpt lat="44.93427" lon="3.98236">
        <ele>837.939</ele>
        <time>2016-06-07T18:38:53Z</time>
      </trkpt>
      <trkpt lat="44.9342" lon="3.98194">
        <ele>843.619</ele>
        <time>2016-06-07T18:39:13Z</time>
      </trkpt>
      <trkpt lat="44.93422" lon="3.98167">
        <ele>846.08</ele>
        <time>2016-06-07T18:39:33Z</time>
      </trkpt>
      <trkpt lat="44.93414" lon="3.98141">
        <ele>849.381</ele>
        <time>2016-06-07T18:39:53Z</time>
      </trkpt>
      <trkpt lat="44.93391" lon="3.98061">
        <ele>858.161</ele>
        <time>2019-03-25T15:08:51Z</time>
      </trkpt>
      <trkpt lat="44.93345" lon="3.98035">
        <ele>866.917</ele>
        <time>2019-03-25T15:09:11Z</time>
      </trkpt>
      <trkpt lat="44.93333" lon="3.97968">
        <ele>870.108</ele>
        <time>2019-03-25T15:09:31Z</time>
      </trkpt>
      <trkpt lat="44.93346" lon="3.97921">
        <ele>870.181</ele>
        <time>2019-03-25T15:09:51Z</time>
      </trkpt>
      <trkpt lat="44.9335" lon="3.97856">
        <ele>871.572</ele>
        <time>2016-06-07T18:41:33Z</time>
      </trkpt>
      <trkpt lat="44.93373" lon="3.97813">
        <ele>867.133</ele>
        <time>2016-06-07T18:41:53Z</time>
      </trkpt>
      <trkpt lat="44.93374" lon="3.97788">
        <ele>866.061</ele>
        <time>2016-06-07T18:42:13Z</time>
      </trkpt>
      <trkpt lat="44.93352" lon="3.97718">
        <ele>867.479</ele>
        <time>2016-06-07T18:42:33Z</time>
      </trkpt>
      <trkpt lat="44.93316" lon="3.9766">
        <ele>877.231</ele>
        <time>2016-06-07T18:42:53Z</time>
      </trkpt>
      <trkpt lat="44.93317" lon="3.97622">
        <ele>883.421</ele>
        <time>2016-06-07T18:43:13Z</time>
      </trkpt>
      <trkpt lat="44.9336" lon="3.97504">
        <ele>889.812</ele>
        <time>2016-06-07T18:43:33Z</time>
      </trkpt>
      <trkpt lat="44.93371" lon="3.9745">
        <ele>893.229</ele>
        <time>2016-06-07T18:43:53Z</time>
      </trkpt>
      <trkpt lat="44.93373" lon="3.9741">
        <ele>893</ele>
        <time>2016-06-07T18:44:13Z</time>
      </trkpt>
      <trkpt lat="44.93358" lon="3.97347">
        <ele>899.92</ele>
        <time>2016-06-07T18:44:33Z</time>
      </trkpt>
      <trkpt lat="44.93351" lon="3.97288">
        <ele>909.608</ele>
        <time>2016-06-07T18:44:53Z</time>
      </trkpt>
      <trkpt lat="44.93354" lon="3.9722">
        <ele>918.195</ele>
        <time>2016-06-07T18:45:13Z</time>
      </trkpt>
      <trkpt lat="44.93359" lon="3.97131">
        <ele>920.056</ele>
        <time>2016-06-07T18:45:33Z</time>
      </trkpt>
      <trkpt lat="44.93348" lon="3.97112">
        <ele>921.487</ele>
        <time>2016-06-07T18:45:53Z</time>
      </trkpt>
      <trkpt lat="44.93314" lon="3.97106">
        <ele>928.795</ele>
        <time>2016-06-07T18:46:13Z</time>
      </trkpt>
      <trkpt lat="44.93287" lon="3.97096">
        <ele>933.933</ele>
        <time>2016-06-07T18:46:33Z</time>
      </trkpt>
      <trkpt lat="44.93264" lon="3.97074">
        <ele>936.225</ele>
        <time>2016-06-07T18:46:53Z</time>
      </trkpt>
      <trkpt lat="44.93251" lon="3.97012">
        <ele>937.515</ele>
        <time>2016-06-07T18:47:13Z</time>
      </trkpt>
      <trkpt lat="44.93264" lon="3.96885">
        <ele>940.766</ele>
        <time>2016-06-07T18:47:33Z</time>
      </trkpt>
      <trkpt lat="44.93258" lon="3.9685">
        <ele>943.224</ele>
        <time>2016-06-07T18:47:53Z</time>
      </trkpt>
      <trkpt lat="44.93236" lon="3.96799">
        <ele>946.004</ele>
        <time>2016-06-07T18:48:13Z</time>
      </trkpt>
      <trkpt lat="44.93208" lon="3.96734">
        <ele>947.414</ele>
        <time>2016-06-07T18:48:33Z</time>
      </trkpt>
      <trkpt lat="44.93143" lon="3.96643">
        <ele>952.708</ele>
        <time>2016-06-07T18:48:53Z</time>
      </trkpt>
      <trkpt lat="44.93112" lon="3.96631">
        <ele>953.715</ele>
        <time>2016-06-07T18:49:13Z</time>
      </trkpt>
      <trkpt lat="44.93064" lon="3.96591">
        <ele>957.056</ele>
        <time>2016-06-07T18:49:33Z</time>
      </trkpt>
      <trkpt lat="44.93029" lon="3.96574">
        <ele>958.637</ele>
        <time>2016-06-07T18:49:53Z</time>
      </trkpt>
      <trkpt lat="44.93004" lon="3.96583">
        <ele>959.055</ele>
        <time>2016-06-07T18:50:13Z</time>
      </trkpt>
      <trkpt lat="44.92962" lon="3.96543">
        <ele>953.553</ele>
        <time>2016-06-07T18:50:33Z</time>
      </trkpt>
      <trkpt lat="44.92935" lon="3.96529">
        <ele>947.515</ele>
        <time>2016-06-07T18:50:53Z</time>
      </trkpt>
      <trkpt lat="44.92916" lon="3.96537">
        <ele>946.355</ele>
        <time>2016-06-07T18:51:13Z</time>
      </trkpt>
      <trkpt lat="44.92891" lon="3.96535">
        <ele>945.466</ele>
        <time>2016-06-07T18:51:33Z</time>
      </trkpt>
      <trkpt lat="44.92864" lon="3.96518">
        <ele>944.345</ele>
        <time>2016-06-07T18:51:53Z</time>
      </trkpt>
      <trkpt lat="44.92809" lon="3.96392">
        <ele>936.647</ele>
        <time>2016-06-07T18:52:13Z</time>
      </trkpt>
      <trkpt lat="44.92761" lon="3.96345">
        <ele>930.511</ele>
        <time>2016-06-07T18:52:33Z</time>
      </trkpt>
      <trkpt lat="44.92741" lon="3.96308">
        <ele>932.808</ele>
        <time>2016-06-07T18:52:53Z</time>
      </trkpt>
      <trkpt lat="44.92712" lon="3.96285">
        <ele>936.567</ele>
        <time>2016-06-07T18:53:13Z</time>
      </trkpt>
      <trkpt lat="44.9269" lon="3.96277">
        <ele>938.458</ele>
        <time>2016-06-07T18:53:33Z</time>
      </trkpt>
      <trkpt lat="44.92662" lon="3.9622">
        <ele>943.879</ele>
        <time>2016-06-07T18:53:53Z</time>
      </trkpt>
      <trkpt lat="44.92646" lon="3.9621">
        <ele>946.817</ele>
        <time>2016-06-07T18:54:13Z</time>
      </trkpt>
      <trkpt lat="44.92622" lon="3.96203">
        <ele>949.895</ele>
        <time>2016-06-07T18:54:33Z</time>
      </trkpt>
      <trkpt lat="44.92611" lon="3.96187">
        <ele>951.967</ele>
        <time>2016-06-07T18:54:53Z</time>
      </trkpt>
      <trkpt lat="44.92608" lon="3.96116">
        <ele>959.217</ele>
        <time>2016-06-07T18:55:13Z</time>
      </trkpt>
      <trkpt lat="44.92585" lon="3.96059">
        <ele>963.818</ele>
        <time>2016-06-07T18:55:33Z</time>
      </trkpt>
      <trkpt lat="44.92545" lon="3.95992">
        <ele>959.927</ele>
        <time>2016-06-07T18:55:53Z</time>
      </trkpt>
      <trkpt lat="44.92543" lon="3.95971">
        <ele>957.968</ele>
        <time>2016-06-07T18:56:13Z</time>
      </trkpt>
      <trkpt lat="44.92553" lon="3.95953">
        <ele>956.714</ele>
        <time>2016-06-07T18:56:33Z</time>
      </trkpt>
      <trkpt lat="44.92526" lon="3.95933">
        <ele>953.108</ele>
        <time>2016-06-07T18:56:53Z</time>
      </trkpt>
      <trkpt lat="44.92523" lon="3.95915">
        <ele>951.945</ele>
        <time>2016-06-07T18:57:13Z</time>
      </trkpt>
      <trkpt lat="44.92532" lon="3.95874">
        <ele>953.146</ele>
        <time>2016-06-07T18:57:33Z</time>
      </trkpt>
      <trkpt lat="44.92527" lon="3.95849">
        <ele>954.977</ele>
        <time>2016-06-07T18:57:53Z</time>
      </trkpt>
      <trkpt lat="44.92492" lon="3.95763">
        <ele>961.955</ele>
        <time>2016-06-07T18:58:13Z</time>
      </trkpt>
      <trkpt lat="44.92474" lon="3.95725">
        <ele>963.923</ele>
        <time>2016-06-07T18:58:33Z</time>
      </trkpt>
      <trkpt lat="44.92453" lon="3.95657">
        <ele>966.995</ele>
        <time>2016-06-07T18:58:53Z</time>
      </trkpt>
      <trkpt lat="44.92427" lon="3.95634">
        <ele>969.956</ele>
        <time>2016-06-07T18:59:33Z</time>
      </trkpt>
      <trkpt lat="44.92396" lon="3.95617">
        <ele>973.169</ele>
        <time>2016-06-07T18:59:53Z</time>
      </trkpt>
      <trkpt lat="44.9239" lon="3.95598">
        <ele>973.804</ele>
        <time>2016-06-07T19:00:13Z</time>
      </trkpt>
      <trkpt lat="44.92396" lon="3.95564">
        <ele>973.024</ele>
        <time>2016-06-07T19:00:33Z</time>
      </trkpt>
      <trkpt lat="44.92391" lon="3.95498">
        <ele>974.508</ele>
        <time>2016-06-07T19:00:53Z</time>
      </trkpt>
      <trkpt lat="44.92398" lon="3.9543">
        <ele>969.579</ele>
        <time>2019-03-25T15:29:51Z</time>
      </trkpt>
      <trkpt lat="44.92428" lon="3.95392">
        <ele>964.29</ele>
        <time>2019-03-25T15:30:11Z</time>
      </trkpt>
      <trkpt lat="44.92373" lon="3.95002">
        <ele>959.061</ele>
        <time>2016-06-07T19:02:53Z</time>
      </trkpt>
      <trkpt lat="44.92361" lon="3.94953">
        <ele>956.639</ele>
        <time>2016-06-07T19:03:13Z</time>
      </trkpt>
      <trkpt lat="44.92326" lon="3.94876">
        <ele>958.147</ele>
        <time>2016-06-07T19:03:33Z</time>
      </trkpt>
      <trkpt lat="44.92283" lon="3.94802">
        <ele>956.199</ele>
        <time>2016-06-07T19:03:53Z</time>
      </trkpt>
      <trkpt lat="44.9223" lon="3.94752">
        <ele>955.229</ele>
        <time>2016-06-07T19:04:13Z</time>
      </trkpt>
      <trkpt lat="44.92102" lon="3.94664">
        <ele>935.31</ele>
        <time>2016-06-07T19:04:33Z</time>
      </trkpt>
      <trkpt lat="44.92084" lon="3.94664">
        <ele>931.993</ele>
        <time>2016-06-07T19:04:53Z</time>
      </trkpt>
      <trkpt lat="44.92062" lon="3.94689">
        <ele>929.165</ele>
        <time>2016-06-07T19:05:13Z</time>
      </trkpt>
      <trkpt lat="44.92043" lon="3.94706">
        <ele>927.321</ele>
        <time>2016-06-07T19:05:33Z</time>
      </trkpt>
      <trkpt lat="44.9202" lon="3.94705">
        <ele>924.708</ele>
        <time>2016-06-07T19:05:53Z</time>
      </trkpt>
      <trkpt lat="44.9201" lon="3.94688">
        <ele>924.122</ele>
        <time>2016-06-07T19:06:13Z</time>
      </trkpt>
      <trkpt lat="44.92006" lon="3.94664">
        <ele>923.573</ele>
        <time>2016-06-07T19:06:33Z</time>
      </trkpt>
      <trkpt lat="44.92012" lon="3.94508">
        <ele>925.124</ele>
        <time>2016-06-07T19:06:53Z</time>
      </trkpt>
      <trkpt lat="44.91966" lon="3.94355">
        <ele>934.352</ele>
        <time>2016-06-07T19:07:13Z</time>
      </trkpt>
      <trkpt lat="44.91938" lon="3.94309">
        <ele>936.46</ele>
        <time>2016-06-07T19:07:33Z</time>
      </trkpt>
      <trkpt lat="44.91891" lon="3.94245">
        <ele>938.642</ele>
        <time>2016-06-07T19:07:53Z</time>
      </trkpt>
      <trkpt lat="44.91869" lon="3.94242">
        <ele>939.432</ele>
        <time>2016-06-07T19:08:13Z</time>
      </trkpt>
      <trkpt lat="44.9186" lon="3.94218">
        <ele>938.813</ele>
        <time>2016-06-07T19:08:33Z</time>
      </trkpt>
      <trkpt lat="44.91856" lon="3.94182">
        <ele>937.171</ele>
        <time>2016-06-07T19:08:53Z</time>
      </trkpt>
      <trkpt lat="44.9185" lon="3.94161">
        <ele>937.241</ele>
        <time>2016-06-07T19:09:13Z</time>
      </trkpt>
      <trkpt lat="44.91851" lon="3.94136">
        <ele>937.415</ele>
        <time>2016-06-07T19:09:33Z</time>
      </trkpt>
      <trkpt lat="44.91842" lon="3.94108">
        <ele>938.108</ele>
        <time>2016-06-07T19:09:53Z</time>
      </trkpt>
      <trkpt lat="44.91819" lon="3.94086">
        <ele>939.43</ele>
        <time>2016-06-07T19:10:13Z</time>
      </trkpt>
      <trkpt lat="44.91853" lon="3.94016">
        <ele>939.311</ele>
        <time>2016-06-07T19:10:33Z</time>
      </trkpt>
      <trkpt lat="44.91857" lon="3.93985">
        <ele>939.162</ele>
        <time>2016-06-07T19:10:53Z</time>
      </trkpt>
      <trkpt lat="44.91846" lon="3.93963">
        <ele>939.27</ele>
        <time>2016-06-07T19:11:13Z</time>
      </trkpt>
      <trkpt lat="44.9179" lon="3.93954">
        <ele>940.958</ele>
        <time>2016-06-07T19:11:33Z</time>
      </trkpt>
      <trkpt lat="44.91779" lon="3.93938">
        <ele>942.15</ele>
        <time>2016-06-07T19:11:53Z</time>
      </trkpt>
      <trkpt lat="44.91756" lon="3.93889">
        <ele>942.24</ele>
        <time>2016-06-07T19:12:13Z</time>
      </trkpt>
      <trkpt lat="44.91727" lon="3.93851">
        <ele>941.291</ele>
        <time>2016-06-07T19:12:33Z</time>
      </trkpt>
      <trkpt lat="44.9166" lon="3.93867">
        <ele>942.733</ele>
        <time>2016-06-07T19:12:53Z</time>
      </trkpt>
      <trkpt lat="44.91623" lon="3.93869">
        <ele>944.623</ele>
        <time>2016-06-07T19:13:13Z</time>
      </trkpt>
      <trkpt lat="44.91587" lon="3.93878">
        <ele>944.115</ele>
        <time>2016-06-07T19:13:33Z</time>
      </trkpt>
      <trkpt lat="44.91539" lon="3.93873">
        <ele>946.608</ele>
        <time>2016-06-07T19:13:53Z</time>
      </trkpt>
      <trkpt lat="44.91479" lon="3.93855">
        <ele>948.146</ele>
        <time>2016-06-07T19:14:13Z</time>
      </trkpt>
      <trkpt lat="44.91411" lon="3.93813">
        <ele>951.047</ele>
        <time>2016-06-07T19:14:33Z</time>
      </trkpt>
      <trkpt lat="44.91316" lon="3.93785">
        <ele>957.128</ele>
        <time>2016-06-07T19:14:53Z</time>
      </trkpt>
      <trkpt lat="44.9129" lon="3.93764">
        <ele>958.156</ele>
        <time>2016-06-07T19:15:13Z</time>
      </trkpt>
      <trkpt lat="44.91173" lon="3.93756">
        <ele>969.646</ele>
        <time>2016-06-07T19:15:53Z</time>
      </trkpt>
      <trkpt lat="44.91114" lon="3.93693">
        <ele>973.556</ele>
        <time>2016-06-07T19:16:13Z</time>
      </trkpt>
      <trkpt lat="44.91064" lon="3.93683">
        <ele>978.077</ele>
        <time>2016-06-07T19:16:33Z</time>
      </trkpt>
      <trkpt lat="44.90975" lon="3.93625">
        <ele>982.184</ele>
        <time>2016-06-07T19:16:53Z</time>
      </trkpt>
      <trkpt lat="44.90904" lon="3.93591">
        <ele>993.307</ele>
        <time>2016-06-07T19:17:13Z</time>
      </trkpt>
      <trkpt lat="44.90867" lon="3.93601">
        <ele>998.917</ele>
        <time>2016-06-07T19:17:33Z</time>
      </trkpt>
      <trkpt lat="44.90798" lon="3.93563">
        <ele>1002.008</ele>
        <time>2016-06-07T19:17:53Z</time>
      </trkpt>
      <trkpt lat="44.9075" lon="3.93569">
        <ele>1005.411</ele>
        <time>2016-06-07T19:18:33Z</time>
      </trkpt>
      <trkpt lat="44.9069" lon="3.93586">
        <ele>1012.632</ele>
        <time>2016-06-07T19:18:53Z</time>
      </trkpt>
      <trkpt lat="44.90583" lon="3.93578">
        <ele>1010.863</ele>
        <time>2016-06-07T19:19:13Z</time>
      </trkpt>
      <trkpt lat="44.9057" lon="3.93519">
        <ele>1007.941</ele>
        <time>2016-06-07T19:19:33Z</time>
      </trkpt>
      <trkpt lat="44.90561" lon="3.93518">
        <ele>1007.549</ele>
        <time>2016-06-07T19:19:53Z</time>
      </trkpt>
      <trkpt lat="44.90548" lon="3.935">
        <ele>1006.061</ele>
        <time>2016-06-07T19:20:13Z</time>
      </trkpt>
      <trkpt lat="44.90555" lon="3.9346">
        <ele>1003.171</ele>
        <time>2019-03-25T15:47:51Z</time>
      </trkpt>
      <trkpt lat="44.90527" lon="3.93453">
        <ele>1001.632</ele>
        <time>2019-03-25T15:48:11Z</time>
      </trkpt>
      <trkpt lat="44.90501" lon="3.93432">
        <ele>999.282</ele>
        <time>2016-06-07T19:21:13Z</time>
      </trkpt>
      <trkpt lat="44.90496" lon="3.93418">
        <ele>998.243</ele>
        <time>2016-06-07T19:21:33Z</time>
      </trkpt>
      <trkpt lat="44.90482" lon="3.93404">
        <ele>997.717</ele>
        <time>2016-06-07T19:21:53Z</time>
      </trkpt>
      <trkpt lat="44.90457" lon="3.93329">
        <ele>991.708</ele>
        <time>2016-06-07T19:22:13Z</time>
      </trkpt>
      <trkpt lat="44.90407" lon="3.93301">
        <ele>998.321</ele>
        <time>2016-06-07T19:22:33Z</time>
      </trkpt>
      <trkpt lat="44.90377" lon="3.93273">
        <ele>1000.692</ele>
        <time>2016-06-07T19:22:53Z</time>
      </trkpt>
      <trkpt lat="44.90337" lon="3.93212">
        <ele>999.143</ele>
        <time>2016-06-07T19:23:13Z</time>
      </trkpt>
      <trkpt lat="44.90264" lon="3.93142">
        <ele>999.361</ele>
        <time>2016-06-07T19:23:33Z</time>
      </trkpt>
      <trkpt lat="44.90058" lon="3.93103">
        <ele>1004</ele>
      </trkpt>
      <trkpt lat="44.89523" lon="3.93177">
        <ele>983.5</ele>
      </trkpt>
      <trkpt lat="44.89401" lon="3.93058">
        <ele>973</ele>
      </trkpt>
      <trkpt lat="44.89412" lon="3.92968">
        <ele>967.6</ele>
      </trkpt>
      <trkpt lat="44.89347" lon="3.92889">
        <ele>956.2</ele>
      </trkpt>
      <trkpt lat="44.89338" lon="3.92786">
        <ele>942</ele>
      </trkpt>
      <trkpt lat="44.8936" lon="3.92716">
        <ele>929.7</ele>
      </trkpt>
      <trkpt lat="44.8933" lon="3.92568">
        <ele>898</ele>
      </trkpt>
      <trkpt lat="44.89342" lon="3.92406">
        <ele>871</ele>
      </trkpt>
      <trkpt lat="44.89296" lon="3.92431">
        <ele>869</ele>
      </trkpt>
      <trkpt lat="44.89326" lon="3.9233">
        <ele>851</ele>
      </trkpt>
      <trkpt lat="44.89367" lon="3.92303">
        <ele>848.8</ele>
      </trkpt>
      <trkpt lat="44.8935" lon="3.92285">
        <ele>847</ele>
      </trkpt>
      <trkpt lat="44.89328" lon="3.92268">
        <ele>840.657</ele>
        <time>2016-06-07T19:35:53Z</time>
      </trkpt>
      <trkpt lat="44.89341" lon="3.92255">
        <ele>840.059</ele>
        <time>2016-06-07T19:36:13Z</time>
      </trkpt>
      <trkpt lat="44.89341" lon="3.92243">
        <ele>837.829</ele>
        <time>2016-06-07T19:36:33Z</time>
      </trkpt>
      <trkpt lat="44.89321" lon="3.92242">
        <ele>833.03</ele>
        <time>2016-06-07T19:36:53Z</time>
      </trkpt>
      <trkpt lat="44.8929" lon="3.92267">
        <ele>828.748</ele>
        <time>2016-06-07T19:37:13Z</time>
      </trkpt>
      <trkpt lat="44.89197" lon="3.92372">
        <ele>814.061</ele>
        <time>2016-06-07T19:37:33Z</time>
      </trkpt>
      <trkpt lat="44.89113" lon="3.92499">
        <ele>802.417</ele>
        <time>2016-06-07T19:37:53Z</time>
      </trkpt>
      <trkpt lat="44.891" lon="3.92507">
        <ele>799.908</ele>
        <time>2016-06-07T19:38:13Z</time>
      </trkpt>
      <trkpt lat="44.89091" lon="3.92494">
        <ele>796.557</ele>
        <time>2016-06-07T19:38:33Z</time>
      </trkpt>
      <trkpt lat="44.89074" lon="3.92477">
        <ele>790.978</ele>
        <time>2016-06-07T19:38:53Z</time>
      </trkpt>
      <trkpt lat="44.89006" lon="3.92447">
        <ele>776.289</ele>
        <time>2016-06-07T19:39:13Z</time>
      </trkpt>
      <trkpt lat="44.8898" lon="3.92473">
        <ele>776.237</ele>
        <time>2016-06-07T19:39:33Z</time>
      </trkpt>
      <trkpt lat="44.88915" lon="3.92459">
        <ele>771.565</ele>
        <time>2016-06-07T19:39:53Z</time>
      </trkpt>
      <trkpt lat="44.88926" lon="3.92405">
        <ele>768.997</ele>
        <time>2016-06-07T19:40:13Z</time>
      </trkpt>
      <trkpt lat="44.8892" lon="3.92351">
        <ele>769.357</ele>
        <time>2016-06-07T19:40:33Z</time>
      </trkpt>
      <trkpt lat="44.88931" lon="3.92307">
        <ele>766.358</ele>
        <time>2016-06-07T19:40:53Z</time>
      </trkpt>
      <trkpt lat="44.88888" lon="3.92248">
        <ele>770.999</ele>
        <time>2016-06-07T19:41:13Z</time>
      </trkpt>
      <trkpt lat="44.88892" lon="3.92229">
        <ele>768.407</ele>
        <time>2016-06-07T19:41:33Z</time>
      </trkpt>
      <trkpt lat="44.88935" lon="3.92196">
        <ele>763.027</ele>
        <time>2016-06-07T19:41:53Z</time>
      </trkpt>
      <trkpt lat="44.88966" lon="3.92184">
        <ele>766.008</ele>
        <time>2016-06-07T19:42:13Z</time>
      </trkpt>
      <trkpt lat="44.88982" lon="3.92109">
        <ele>773.312</ele>
        <time>2016-06-07T19:42:33Z</time>
      </trkpt>
      <trkpt lat="44.88983" lon="3.92062">
        <ele>780.373</ele>
        <time>2016-06-07T19:42:53Z</time>
      </trkpt>
      <trkpt lat="44.89019" lon="3.91904">
        <ele>792.244</ele>
        <time>2016-06-07T19:43:13Z</time>
      </trkpt>
      <trkpt lat="44.89048" lon="3.91643">
        <ele>795.192</ele>
        <time>2016-06-07T19:43:33Z</time>
      </trkpt>
      <trkpt lat="44.89034" lon="3.91636">
        <ele>795.76</ele>
        <time>2016-06-07T19:43:53Z</time>
      </trkpt>
      <trkpt lat="44.89022" lon="3.91583">
        <ele>795.422</ele>
        <time>2016-06-07T19:44:13Z</time>
      </trkpt>
      <trkpt lat="44.89023" lon="3.91459">
        <ele>796.992</ele>
        <time>2016-06-07T19:44:33Z</time>
      </trkpt>
      <trkpt lat="44.89027" lon="3.91433">
        <ele>798.753</ele>
        <time>2016-06-07T19:44:53Z</time>
      </trkpt>
      <trkpt lat="44.8902" lon="3.91408">
        <ele>803.474</ele>
        <time>2016-06-07T19:45:13Z</time>
      </trkpt>
      <trkpt lat="44.89004" lon="3.91417">
        <ele>804.456</ele>
        <time>2016-06-07T19:45:33Z</time>
      </trkpt>
      <trkpt lat="44.88973" lon="3.91408">
        <ele>817.921</ele>
        <time>2016-06-07T19:45:53Z</time>
      </trkpt>
      <trkpt lat="44.88968" lon="3.91382">
        <ele>830.108</ele>
        <time>2016-06-07T19:46:13Z</time>
      </trkpt>
      <trkpt lat="44.88934" lon="3.91386">
        <ele>836.34</ele>
        <time>2016-06-07T19:46:33Z</time>
      </trkpt>
      <trkpt lat="44.88921" lon="3.9137">
        <ele>842.061</ele>
        <time>2016-06-07T19:46:53Z</time>
      </trkpt>
      <trkpt lat="44.88898" lon="3.91366">
        <ele>845.722</ele>
        <time>2016-06-07T19:47:13Z</time>
      </trkpt>
      <trkpt lat="44.88836" lon="3.91348">
        <ele>856.89</ele>
        <time>2016-06-07T19:47:33Z</time>
      </trkpt>
      <trkpt lat="44.88721" lon="3.91327">
        <ele>886.318</ele>
        <time>2016-06-07T19:47:53Z</time>
      </trkpt>
      <trkpt lat="44.88705" lon="3.91336">
        <ele>887.61</ele>
        <time>2016-06-07T19:48:13Z</time>
      </trkpt>
      <trkpt lat="44.88672" lon="3.91374">
        <ele>887.86</ele>
        <time>2016-06-07T19:48:33Z</time>
      </trkpt>
      <trkpt lat="44.88638" lon="3.91392">
        <ele>891.271</ele>
        <time>2016-06-07T19:48:53Z</time>
      </trkpt>
      <trkpt lat="44.88587" lon="3.91397">
        <ele>890.723</ele>
        <time>2016-06-07T19:49:13Z</time>
      </trkpt>
      <trkpt lat="44.88572" lon="3.91383">
        <ele>890.183</ele>
        <time>2016-06-07T19:49:33Z</time>
      </trkpt>
      <trkpt lat="44.88566" lon="3.91365">
        <ele>890.311</ele>
        <time>2016-06-07T19:49:53Z</time>
      </trkpt>
      <trkpt lat="44.88564" lon="3.91334">
        <ele>894.008</ele>
        <time>2016-06-07T19:50:13Z</time>
      </trkpt>
      <trkpt lat="44.88574" lon="3.91297">
        <ele>902.485</ele>
        <time>2016-06-07T19:50:33Z</time>
      </trkpt>
      <trkpt lat="44.88576" lon="3.9125">
        <ele>908.246</ele>
        <time>2016-06-07T19:50:53Z</time>
      </trkpt>
      <trkpt lat="44.88583" lon="3.91204">
        <ele>917.027</ele>
        <time>2016-06-07T19:51:13Z</time>
      </trkpt>
      <trkpt lat="44.88574" lon="3.91179">
        <ele>923.265</ele>
        <time>2016-06-07T19:51:33Z</time>
      </trkpt>
      <trkpt lat="44.88545" lon="3.91153">
        <ele>931.263</ele>
        <time>2016-06-07T19:51:53Z</time>
      </trkpt>
      <trkpt lat="44.88574" lon="3.91154">
        <ele>931.475</ele>
        <time>2016-06-07T19:52:13Z</time>
      </trkpt>
      <trkpt lat="44.88612" lon="3.91146">
        <ele>937.035</ele>
        <time>2016-06-07T19:52:33Z</time>
      </trkpt>
      <trkpt lat="44.8862" lon="3.91127">
        <ele>939.276</ele>
        <time>2016-06-07T19:52:53Z</time>
      </trkpt>
      <trkpt lat="44.88615" lon="3.91031">
        <ele>948.418</ele>
        <time>2016-06-07T19:53:13Z</time>
      </trkpt>
      <trkpt lat="44.88617" lon="3.90905">
        <ele>955.298</ele>
        <time>2016-06-07T19:53:33Z</time>
      </trkpt>
      <trkpt lat="44.88622" lon="3.90862">
        <ele>956.017</ele>
        <time>2016-06-07T19:53:53Z</time>
      </trkpt>
      <trkpt lat="44.88613" lon="3.90815">
        <ele>955.408</ele>
        <time>2016-06-07T19:54:13Z</time>
      </trkpt>
      <trkpt lat="44.88619" lon="3.90792">
        <ele>955.264</ele>
        <time>2016-06-07T19:54:33Z</time>
      </trkpt>
      <trkpt lat="44.88622" lon="3.90715">
        <ele>953.885</ele>
        <time>2016-06-07T19:54:53Z</time>
      </trkpt>
      <trkpt lat="44.88616" lon="3.90661">
        <ele>954.686</ele>
        <time>2016-06-07T19:55:13Z</time>
      </trkpt>
      <trkpt lat="44.88592" lon="3.90618">
        <ele>949.584</ele>
        <time>2016-06-07T19:55:33Z</time>
      </trkpt>
      <trkpt lat="44.88582" lon="3.90572">
        <ele>946.472</ele>
        <time>2016-06-07T19:55:53Z</time>
      </trkpt>
      <trkpt lat="44.88588" lon="3.90523">
        <ele>948.734</ele>
        <time>2016-06-07T19:56:13Z</time>
      </trkpt>
      <trkpt lat="44.88688" lon="3.90491">
        <ele>952.8</ele>
      </trkpt>
      <trkpt lat="44.88876" lon="3.904">
        <ele>959.2</ele>
      </trkpt>
      <trkpt lat="44.88896" lon="3.90294">
        <ele>966.8</ele>
      </trkpt>
      <trkpt lat="44.88845" lon="3.90155">
        <ele>962.8</ele>
      </trkpt>
      <trkpt lat="44.88835" lon="3.9002">
        <ele>949</ele>
      </trkpt>
      <trkpt lat="44.88802" lon="3.8989">
        <ele>959.8</ele>
      </trkpt>
      <trkpt lat="44.88846" lon="3.89727">
        <ele>941</ele>
      </trkpt>
      <trkpt lat="44.88781" lon="3.89465">
        <ele>946.9</ele>
      </trkpt>
      <trkpt lat="44.88658" lon="3.89338">
        <ele>960</ele>
      </trkpt>
      <trkpt lat="44.88605" lon="3.89309">
        <ele>966</ele>
      </trkpt>
      <trkpt lat="44.8855" lon="3.89211">
        <ele>969</ele>
      </trkpt>
      <trkpt lat="44.88295" lon="3.89123">
        <ele>976.236</ele>
        <time>2019-03-25T16:30:11Z</time>
      </trkpt>
      <trkpt lat="44.88261" lon="3.8906">
        <ele>979.097</ele>
        <time>2016-06-07T20:03:33Z</time>
      </trkpt>
      <trkpt lat="44.88276" lon="3.89011">
        <ele>972.795</ele>
        <time>2016-06-07T20:03:53Z</time>
      </trkpt>
      <trkpt lat="44.88334" lon="3.89004">
        <ele>967.683</ele>
        <time>2016-06-07T20:04:13Z</time>
      </trkpt>
      <trkpt lat="44.88389" lon="3.88999">
        <ele>976.195</ele>
        <time>2019-03-25T16:31:31Z</time>
      </trkpt>
      <trkpt lat="44.88364" lon="3.88973">
        <ele>975.555</ele>
        <time>2019-03-25T16:31:51Z</time>
      </trkpt>
      <trkpt lat="44.88359" lon="3.88945">
        <ele>978.446</ele>
        <time>2019-03-25T16:32:11Z</time>
      </trkpt>
      <trkpt lat="44.88391" lon="3.88907">
        <ele>989.192</ele>
        <time>2019-03-25T16:32:31Z</time>
      </trkpt>
      <trkpt lat="44.88394" lon="3.88849">
        <ele>994.073</ele>
        <time>2019-03-25T16:32:51Z</time>
      </trkpt>
      <trkpt lat="44.88453" lon="3.8876">
        <ele>1002.02</ele>
        <time>2019-03-25T16:33:11Z</time>
      </trkpt>
      <trkpt lat="44.88507" lon="3.88637">
        <ele>1007.708</ele>
        <time>2019-03-25T16:33:31Z</time>
      </trkpt>
      <trkpt lat="44.88503" lon="3.88586">
        <ele>1008.082</ele>
        <time>2019-03-25T16:33:51Z</time>
      </trkpt>
      <trkpt lat="44.88538" lon="3.88558">
        <ele>1008.923</ele>
        <time>2019-03-25T16:34:11Z</time>
      </trkpt>
      <trkpt lat="44.88565" lon="3.88431">
        <ele>1014.084</ele>
        <time>2019-03-25T16:34:31Z</time>
      </trkpt>
      <trkpt lat="44.88566" lon="3.88394">
        <ele>1014.332</ele>
        <time>2019-03-25T16:34:51Z</time>
      </trkpt>
      <trkpt lat="44.88671" lon="3.88361">
        <ele>1013.07</ele>
        <time>2019-03-25T16:35:11Z</time>
      </trkpt>
      <trkpt lat="44.88663" lon="3.88286">
        <ele>1015.432</ele>
        <time>2019-03-25T16:35:31Z</time>
      </trkpt>
      <trkpt lat="44.88676" lon="3.88241">
        <ele>1018.782</ele>
        <time>2019-03-25T16:35:51Z</time>
      </trkpt>
      <trkpt lat="44.88749" lon="3.88242">
        <ele>1020.543</ele>
        <time>2016-06-07T20:07:33Z</time>
      </trkpt>
      <trkpt lat="44.88746" lon="3.8812">
        <ele>1027.974</ele>
        <time>2016-06-07T20:07:53Z</time>
      </trkpt>
      <trkpt lat="44.88716" lon="3.88072">
        <ele>1029.156</ele>
        <time>2019-03-25T16:36:51Z</time>
      </trkpt>
      <trkpt lat="44.88631" lon="3.88044">
        <ele>1027.721</ele>
        <time>2019-03-25T16:37:11Z</time>
      </trkpt>
      <trkpt lat="44.88572" lon="3.88002">
        <ele>1028.208</ele>
        <time>2016-06-07T20:08:53Z</time>
      </trkpt>
      <trkpt lat="44.88559" lon="3.87702">
        <ele>1037.23</ele>
        <time>2016-06-07T20:09:13Z</time>
      </trkpt>
      <trkpt lat="44.88563" lon="3.87671">
        <ele>1039.241</ele>
        <time>2019-03-25T16:38:11Z</time>
      </trkpt>
      <trkpt lat="44.885" lon="3.8757">
        <ele>1042.552</ele>
        <time>2019-03-25T16:38:31Z</time>
      </trkpt>
      <trkpt lat="44.88445" lon="3.87571">
        <ele>1042.04</ele>
        <time>2016-06-07T20:10:13Z</time>
      </trkpt>
      <trkpt lat="44.88431" lon="3.87463">
        <ele>1045.538</ele>
        <time>2016-06-07T20:10:33Z</time>
      </trkpt>
      <trkpt lat="44.8841" lon="3.87403">
        <ele>1045.49</ele>
        <time>2016-06-07T20:10:53Z</time>
      </trkpt>
      <trkpt lat="44.88428" lon="3.87242">
        <ele>1046.93</ele>
        <time>2016-06-07T20:11:13Z</time>
      </trkpt>
      <trkpt lat="44.8846" lon="3.87114">
        <ele>1044.521</ele>
        <time>2016-06-07T20:11:33Z</time>
      </trkpt>
      <trkpt lat="44.88431" lon="3.86946">
        <ele>1047.035</ele>
        <time>2016-06-07T20:11:53Z</time>
      </trkpt>
      <trkpt lat="44.88413" lon="3.86693">
        <ele>1053.086</ele>
        <time>2016-06-07T20:12:13Z</time>
      </trkpt>
      <trkpt lat="44.88346" lon="3.8633">
        <ele>1063.514</ele>
        <time>2016-06-07T20:12:33Z</time>
      </trkpt>
      <trkpt lat="44.88252" lon="3.86141">
        <ele>1071.808</ele>
        <time>2019-03-25T16:41:31Z</time>
      </trkpt>
      <trkpt lat="44.88198" lon="3.85942">
        <ele>1076.986</ele>
        <time>2019-03-25T16:41:51Z</time>
      </trkpt>
      <trkpt lat="44.88153" lon="3.85655">
        <ele>1087.777</ele>
        <time>2019-03-25T16:42:11Z</time>
      </trkpt>
      <trkpt lat="44.88074" lon="3.85373">
        <ele>1083.838</ele>
        <time>2016-06-07T20:13:53Z</time>
      </trkpt>
      <trkpt lat="44.88069" lon="3.85236">
        <ele>1081.856</ele>
        <time>2016-06-07T20:14:13Z</time>
      </trkpt>
      <trkpt lat="44.88044" lon="3.85072">
        <ele>1090.334</ele>
        <time>2019-03-25T16:43:11Z</time>
      </trkpt>
      <trkpt lat="44.88013" lon="3.84978">
        <ele>1095.776</ele>
        <time>2019-03-25T16:43:31Z</time>
      </trkpt>
      <trkpt lat="44.88026" lon="3.8491">
        <ele>1092.916</ele>
        <time>2019-03-25T16:43:51Z</time>
      </trkpt>
      <trkpt lat="44.87995" lon="3.84849">
        <ele>1092.997</ele>
        <time>2019-03-25T16:44:11Z</time>
      </trkpt>
      <trkpt lat="44.8798" lon="3.84766">
        <ele>1090.623</ele>
        <time>2019-03-25T16:44:31Z</time>
      </trkpt>
      <trkpt lat="44.88036" lon="3.84743">
        <ele>1086.583</ele>
        <time>2016-06-07T20:16:33Z</time>
      </trkpt>
      <trkpt lat="44.88042" lon="3.84729">
        <ele>1086.411</ele>
        <time>2016-06-07T20:16:53Z</time>
      </trkpt>
      <trkpt lat="44.88039" lon="3.84632">
        <ele>1088.708</ele>
        <time>2016-06-07T20:17:13Z</time>
      </trkpt>
      <trkpt lat="44.88054" lon="3.84618">
        <ele>1088.855</ele>
        <time>2016-06-07T20:17:33Z</time>
      </trkpt>
      <trkpt lat="44.88101" lon="3.84607">
        <ele>1089.296</ele>
        <time>2016-06-07T20:17:53Z</time>
      </trkpt>
      <trkpt lat="44.88153" lon="3.84556">
        <ele>1093.057</ele>
        <time>2016-06-07T20:18:13Z</time>
      </trkpt>
      <trkpt lat="44.88163" lon="3.84524">
        <ele>1094.445</ele>
        <time>2016-06-07T20:18:33Z</time>
      </trkpt>
      <trkpt lat="44.88181" lon="3.84472">
        <ele>1100.543</ele>
        <time>2016-06-07T20:18:53Z</time>
      </trkpt>
      <trkpt lat="44.88207" lon="3.84419">
        <ele>1103.995</ele>
        <time>2016-06-07T20:19:13Z</time>
      </trkpt>
      <trkpt lat="44.88261" lon="3.84346">
        <ele>1109.985</ele>
        <time>2016-06-07T20:19:33Z</time>
      </trkpt>
      <trkpt lat="44.88263" lon="3.84345">
        <ele>1110.086</ele>
        <time>2016-06-07T20:19:53Z</time>
      </trkpt>
      <trkpt lat="44.88295" lon="3.84279">
        <ele>1110.252</ele>
        <time>2016-06-07T20:20:13Z</time>
      </trkpt>
      <trkpt lat="44.88324" lon="3.84241">
        <ele>1111.553</ele>
        <time>2016-06-07T20:20:33Z</time>
      </trkpt>
      <trkpt lat="44.88362" lon="3.84201">
        <ele>1115.408</ele>
        <time>2016-06-07T20:20:53Z</time>
      </trkpt>
      <trkpt lat="44.88434" lon="3.84099">
        <ele>1127.708</ele>
        <time>2016-06-07T20:21:13Z</time>
      </trkpt>
      <trkpt lat="44.88453" lon="3.84053">
        <ele>1128.358</ele>
        <time>2016-06-07T20:21:33Z</time>
      </trkpt>
      <trkpt lat="44.88457" lon="3.83969">
        <ele>1126.549</ele>
        <time>2019-03-25T16:50:11Z</time>
      </trkpt>
      <trkpt lat="44.88503" lon="3.83736">
        <ele>1115.39</ele>
        <time>2019-03-25T16:50:31Z</time>
      </trkpt>
      <trkpt lat="44.88523" lon="3.83561">
        <ele>1119.528</ele>
        <time>2019-03-25T16:50:51Z</time>
      </trkpt>
      <trkpt lat="44.88567" lon="3.83393">
        <ele>1122.976</ele>
        <time>2016-06-07T20:23:13Z</time>
      </trkpt>
      <trkpt lat="44.88571" lon="3.83348">
        <ele>1126.838</ele>
        <time>2016-06-07T20:23:33Z</time>
      </trkpt>
      <trkpt lat="44.88583" lon="3.83282">
        <ele>1131.668</ele>
        <time>2016-06-07T20:23:53Z</time>
      </trkpt>
      <trkpt lat="44.88585" lon="3.83225">
        <ele>1133.839</ele>
        <time>2016-06-07T20:24:13Z</time>
      </trkpt>
      <trkpt lat="44.88592" lon="3.83149">
        <ele>1132.736</ele>
        <time>2016-06-07T20:24:33Z</time>
      </trkpt>
      <trkpt lat="44.88601" lon="3.83135">
        <ele>1132.417</ele>
        <time>2016-06-07T20:24:53Z</time>
      </trkpt>
      <trkpt lat="44.88606" lon="3.83082">
        <ele>1134.118</ele>
        <time>2016-06-07T20:25:13Z</time>
      </trkpt>
      <trkpt lat="44.88605" lon="3.83048">
        <ele>1136.208</ele>
        <time>2016-06-07T20:25:33Z</time>
      </trkpt>
      <trkpt lat="44.88617" lon="3.82953">
        <ele>1137.916</ele>
        <time>2016-06-07T20:25:53Z</time>
      </trkpt>
      <trkpt lat="44.88619" lon="3.82813">
        <ele>1140.537</ele>
        <time>2016-06-07T20:26:13Z</time>
      </trkpt>
      <trkpt lat="44.88611" lon="3.82755">
        <ele>1142.848</ele>
        <time>2016-06-07T20:26:33Z</time>
      </trkpt>
      <trkpt lat="44.88596" lon="3.82707">
        <ele>1147.486</ele>
        <time>2016-06-07T20:26:53Z</time>
      </trkpt>
      <trkpt lat="44.88594" lon="3.82666">
        <ele>1149.924</ele>
        <time>2016-06-07T20:27:13Z</time>
      </trkpt>
      <trkpt lat="44.88613" lon="3.8261">
        <ele>1150.976</ele>
        <time>2016-06-07T20:27:33Z</time>
      </trkpt>
      <trkpt lat="44.88624" lon="3.82561">
        <ele>1151.926</ele>
        <time>2016-06-07T20:27:53Z</time>
      </trkpt>
      <trkpt lat="44.88639" lon="3.82536">
        <ele>1151.097</ele>
        <time>2016-06-07T20:28:13Z</time>
      </trkpt>
      <trkpt lat="44.88654" lon="3.82487">
        <ele>1148.354</ele>
        <time>2016-06-07T20:28:33Z</time>
      </trkpt>
      <trkpt lat="44.88658" lon="3.82425">
        <ele>1150.356</ele>
        <time>2016-06-07T20:28:53Z</time>
      </trkpt>
      <trkpt lat="44.88673" lon="3.82315">
        <ele>1146.811</ele>
        <time>2016-06-07T20:29:13Z</time>
      </trkpt>
      <trkpt lat="44.88695" lon="3.82284">
        <ele>1144.108</ele>
        <time>2016-06-07T20:29:33Z</time>
      </trkpt>
      <trkpt lat="44.88718" lon="3.82237">
        <ele>1142.698</ele>
        <time>2016-06-07T20:29:53Z</time>
      </trkpt>
      <trkpt lat="44.88746" lon="3.82221">
        <ele>1143.099</ele>
        <time>2016-06-07T20:30:13Z</time>
      </trkpt>
      <trkpt lat="44.88815" lon="3.81992">
        <ele>1151.97</ele>
        <time>2016-06-07T20:30:33Z</time>
      </trkpt>
      <trkpt lat="44.88793" lon="3.81884">
        <ele>1153.118</ele>
        <time>2016-06-07T20:30:53Z</time>
      </trkpt>
      <trkpt lat="44.88815" lon="3.81797">
        <ele>1155.656</ele>
        <time>2016-06-07T20:31:13Z</time>
      </trkpt>
      <trkpt lat="44.88834" lon="3.81762">
        <ele>1157.078</ele>
        <time>2016-06-07T20:31:33Z</time>
      </trkpt>
      <trkpt lat="44.88843" lon="3.81549">
        <ele>1156.858</ele>
        <time>2016-06-07T20:31:53Z</time>
      </trkpt>
      <trkpt lat="44.8884" lon="3.81409">
        <ele>1158.829</ele>
        <time>2016-06-07T20:32:13Z</time>
      </trkpt>
      <trkpt lat="44.88862" lon="3.81372">
        <ele>1159.031</ele>
        <time>2016-06-07T20:32:33Z</time>
      </trkpt>
      <trkpt lat="44.889" lon="3.8129">
        <ele>1162.561</ele>
        <time>2016-06-07T20:32:53Z</time>
      </trkpt>
      <trkpt lat="44.88934" lon="3.81235">
        <ele>1167.307</ele>
        <time>2016-06-07T20:33:13Z</time>
      </trkpt>
      <trkpt lat="44.88942" lon="3.81154">
        <ele>1175.208</ele>
        <time>2016-06-07T20:33:33Z</time>
      </trkpt>
      <trkpt lat="44.88966" lon="3.8096">
        <ele>1191.976</ele>
        <time>2016-06-07T20:33:53Z</time>
      </trkpt>
      <trkpt lat="44.88983" lon="3.80902">
        <ele>1195.597</ele>
        <time>2016-06-07T20:34:13Z</time>
      </trkpt>
      <trkpt lat="44.88974" lon="3.80802">
        <ele>1204.838</ele>
        <time>2016-06-07T20:34:33Z</time>
      </trkpt>
      <trkpt lat="44.88978" lon="3.80719">
        <ele>1204.756</ele>
        <time>2016-06-07T20:34:53Z</time>
      </trkpt>
      <trkpt lat="44.8895" lon="3.80655">
        <ele>1205.554</ele>
        <time>2016-06-07T20:35:13Z</time>
      </trkpt>
      <trkpt lat="44.88931" lon="3.80553">
        <ele>1205.026</ele>
        <time>2016-06-07T20:35:33Z</time>
      </trkpt>
      <trkpt lat="44.88934" lon="3.80501">
        <ele>1204.876</ele>
        <time>2016-06-07T20:35:53Z</time>
      </trkpt>
      <trkpt lat="44.88926" lon="3.80457">
        <ele>1206.067</ele>
        <time>2016-06-07T20:36:13Z</time>
      </trkpt>
      <trkpt lat="44.88945" lon="3.80412">
        <ele>1206.831</ele>
        <time>2016-06-07T20:36:33Z</time>
      </trkpt>
      <trkpt lat="44.88984" lon="3.80287">
        <ele>1204.861</ele>
        <time>2016-06-07T20:36:53Z</time>
      </trkpt>
      <trkpt lat="44.89" lon="3.80204">
        <ele>1205.007</ele>
        <time>2016-06-07T20:37:13Z</time>
      </trkpt>
      <trkpt lat="44.88999" lon="3.80166">
        <ele>1205.108</ele>
        <time>2016-06-07T20:37:33Z</time>
      </trkpt>
      <trkpt lat="44.8892" lon="3.80115">
        <ele>1209.736</ele>
        <time>2016-06-07T20:37:53Z</time>
      </trkpt>
      <trkpt lat="44.88949" lon="3.79968">
        <ele>1209.287</ele>
        <time>2016-06-07T20:38:13Z</time>
      </trkpt>
      <trkpt lat="44.88992" lon="3.7963">
        <ele>1212.758</ele>
        <time>2016-06-07T20:38:33Z</time>
      </trkpt>
      <trkpt lat="44.89002" lon="3.79608">
        <ele>1212.956</ele>
        <time>2016-06-07T20:38:53Z</time>
      </trkpt>
      <trkpt lat="44.89039" lon="3.7958">
        <ele>1212.154</ele>
        <time>2016-06-07T20:39:13Z</time>
      </trkpt>
      <trkpt lat="44.89044" lon="3.79555">
        <ele>1213.036</ele>
        <time>2016-06-07T20:39:33Z</time>
      </trkpt>
      <trkpt lat="44.89047" lon="3.79491">
        <ele>1215</ele>
      </trkpt>
      <trkpt lat="44.89057" lon="3.79469">
        <ele>1214.7</ele>
      </trkpt>
      <trkpt lat="44.89074" lon="3.79484">
        <ele>1214</ele>
      </trkpt>
      <trkpt lat="44.8909" lon="3.79519">
        <ele>1214.4</ele>
      </trkpt>
      <trkpt lat="44.89127" lon="3.79576">
        <ele>1215</ele>
      </trkpt>
      <trkpt lat="44.8914" lon="3.79557">
        <ele>1215</ele>
      </trkpt>
    </trkseg>
  </trk>
  <trk>
    <name><![CDATA[18 juil]]></name>
    <extensions>
      <line xmlns="http://www.topografix.com/GPX/gpx_style/0/2">
        <color>ff0000</color>
        <opacity>1</opacity>
        <width>3</width>
      </line>
    </extensions>
    <trkseg>
      <trkpt lat="44.89121" lon="3.79555">
        <ele>1215</ele>
      </trkpt>
      <trkpt lat="44.89121" lon="3.79555">
        <ele>1215</ele>
      </trkpt>
      <trkpt lat="44.89121" lon="3.79555">
        <ele>1215</ele>
      </trkpt>
      <trkpt lat="44.89121" lon="3.79555">
        <ele>1215</ele>
      </trkpt>
      <trkpt lat="44.89121" lon="3.79555">
        <ele>1215</ele>
      </trkpt>
      <trkpt lat="44.89121" lon="3.79555">
        <ele>1215</ele>
      </trkpt>
      <trkpt lat="44.89121" lon="3.79555">
        <ele>1215</ele>
      </trkpt>
      <trkpt lat="44.89121" lon="3.79555">
        <ele>1215</ele>
      </trkpt>
      <trkpt lat="44.89121" lon="3.79555">
        <ele>1215</ele>
      </trkpt>
      <trkpt lat="44.89072" lon="3.79482">
        <ele>1214.5</ele>
      </trkpt>
      <trkpt lat="44.89001" lon="3.79187">
        <ele>1218.263</ele>
        <time>2016-06-07T20:40:33Z</time>
      </trkpt>
      <trkpt lat="44.88969" lon="3.79097">
        <ele>1217.944</ele>
        <time>2016-06-07T20:40:53Z</time>
      </trkpt>
      <trkpt lat="44.88834" lon="3.79003">
        <ele>1217.018</ele>
        <time>2016-06-07T20:41:13Z</time>
      </trkpt>
      <trkpt lat="44.88794" lon="3.79019">
        <ele>1216.908</ele>
        <time>2016-06-07T20:41:33Z</time>
      </trkpt>
      <trkpt lat="44.88682" lon="3.7904">
        <ele>1218.039</ele>
        <time>2016-06-07T20:41:53Z</time>
      </trkpt>
      <trkpt lat="44.88559" lon="3.79058">
        <ele>1218.99</ele>
        <time>2016-06-07T20:42:13Z</time>
      </trkpt>
      <trkpt lat="44.88443" lon="3.79083">
        <ele>1214.041</ele>
        <time>2016-06-07T20:42:33Z</time>
      </trkpt>
      <trkpt lat="44.88329" lon="3.79136">
        <ele>1212.259</ele>
        <time>2019-03-25T17:10:51Z</time>
      </trkpt>
      <trkpt lat="44.88107" lon="3.79221">
        <ele>1206.917</ele>
        <time>2016-06-07T20:43:13Z</time>
      </trkpt>
      <trkpt lat="44.88025" lon="3.7927">
        <ele>1204.269</ele>
        <time>2016-06-07T20:43:33Z</time>
      </trkpt>
      <trkpt lat="44.87842" lon="3.79401">
        <ele>1193.149</ele>
        <time>2016-06-07T20:43:53Z</time>
      </trkpt>
      <trkpt lat="44.87812" lon="3.79444">
        <ele>1192.86</ele>
        <time>2016-06-07T20:44:13Z</time>
      </trkpt>
      <trkpt lat="44.87684" lon="3.79581">
        <ele>1193.074</ele>
        <time>2016-06-07T20:44:33Z</time>
      </trkpt>
      <trkpt lat="44.87611" lon="3.7964">
        <ele>1193.056</ele>
        <time>2016-06-07T20:44:53Z</time>
      </trkpt>
      <trkpt lat="44.87572" lon="3.79654">
        <ele>1192.621</ele>
        <time>2016-06-07T20:45:13Z</time>
      </trkpt>
      <trkpt lat="44.87361" lon="3.79777">
        <ele>1193.908</ele>
        <time>2016-06-07T20:45:33Z</time>
      </trkpt>
      <trkpt lat="44.87207" lon="3.79868">
        <ele>1190.55</ele>
        <time>2016-06-07T20:45:53Z</time>
      </trkpt>
      <trkpt lat="44.87076" lon="3.79967">
        <ele>1179.871</ele>
        <time>2016-06-07T20:46:13Z</time>
      </trkpt>
      <trkpt lat="44.87031" lon="3.80007">
        <ele>1179.092</ele>
        <time>2016-06-07T20:46:33Z</time>
      </trkpt>
      <trkpt lat="44.86899" lon="3.80099">
        <ele>1172.56</ele>
        <time>2016-06-07T20:46:53Z</time>
      </trkpt>
      <trkpt lat="44.86867" lon="3.80126">
        <ele>1171.278</ele>
        <time>2016-06-07T20:47:13Z</time>
      </trkpt>
      <trkpt lat="44.86741" lon="3.80188">
        <ele>1168.08</ele>
        <time>2016-06-07T20:47:33Z</time>
      </trkpt>
      <trkpt lat="44.86686" lon="3.80226">
        <ele>1167.01</ele>
        <time>2016-06-07T20:47:53Z</time>
      </trkpt>
      <trkpt lat="44.86525" lon="3.80371">
        <ele>1160.381</ele>
        <time>2016-06-07T20:48:13Z</time>
      </trkpt>
      <trkpt lat="44.86491" lon="3.80389">
        <ele>1159.347</ele>
        <time>2016-06-07T20:48:33Z</time>
      </trkpt>
      <trkpt lat="44.86459" lon="3.80426">
        <ele>1160.829</ele>
        <time>2016-06-07T20:48:53Z</time>
      </trkpt>
      <trkpt lat="44.8644" lon="3.80492">
        <ele>1162.321</ele>
        <time>2016-06-07T20:49:13Z</time>
      </trkpt>
      <trkpt lat="44.86343" lon="3.8071">
        <ele>1155.908</ele>
        <time>2016-06-07T20:49:33Z</time>
      </trkpt>
      <trkpt lat="44.86273" lon="3.8081">
        <ele>1152.867</ele>
        <time>2016-06-07T20:49:53Z</time>
      </trkpt>
      <trkpt lat="44.86222" lon="3.80877">
        <ele>1152.098</ele>
        <time>2016-06-07T20:50:13Z</time>
      </trkpt>
      <trkpt lat="44.86193" lon="3.80938">
        <ele>1151.399</ele>
        <time>2016-06-07T20:50:33Z</time>
      </trkpt>
      <trkpt lat="44.86121" lon="3.80991">
        <ele>1150.327</ele>
        <time>2016-06-07T20:50:53Z</time>
      </trkpt>
      <trkpt lat="44.8608" lon="3.81019">
        <ele>1151.255</ele>
        <time>2016-06-07T20:51:13Z</time>
      </trkpt>
      <trkpt lat="44.86027" lon="3.81069">
        <ele>1151.597</ele>
        <time>2016-06-07T20:51:33Z</time>
      </trkpt>
      <trkpt lat="44.86006" lon="3.811">
        <ele>1150.927</ele>
        <time>2016-06-07T20:51:53Z</time>
      </trkpt>
      <trkpt lat="44.85984" lon="3.81148">
        <ele>1150.978</ele>
        <time>2016-06-07T20:52:13Z</time>
      </trkpt>
      <trkpt lat="44.85954" lon="3.81177">
        <ele>1150.058</ele>
        <time>2016-06-07T20:52:33Z</time>
      </trkpt>
      <trkpt lat="44.85901" lon="3.81196">
        <ele>1149.052</ele>
        <time>2016-06-07T20:52:53Z</time>
      </trkpt>
      <trkpt lat="44.8585" lon="3.81201">
        <ele>1148.917</ele>
        <time>2016-06-07T20:53:13Z</time>
      </trkpt>
      <trkpt lat="44.858" lon="3.81222">
        <ele>1148.008</ele>
        <time>2016-06-07T20:53:33Z</time>
      </trkpt>
      <trkpt lat="44.85748" lon="3.81234">
        <ele>1146.528</ele>
        <time>2016-06-07T20:53:53Z</time>
      </trkpt>
      <trkpt lat="44.85685" lon="3.81268">
        <ele>1145.059</ele>
        <time>2016-06-07T20:54:13Z</time>
      </trkpt>
      <trkpt lat="44.85592" lon="3.81338">
        <ele>1145.99</ele>
        <time>2016-06-07T20:54:33Z</time>
      </trkpt>
      <trkpt lat="44.85532" lon="3.81358">
        <ele>1145.098</ele>
        <time>2016-06-07T20:54:53Z</time>
      </trkpt>
      <trkpt lat="44.85474" lon="3.81401">
        <ele>1142.626</ele>
        <time>2016-06-07T20:55:13Z</time>
      </trkpt>
      <trkpt lat="44.85368" lon="3.8146">
        <ele>1143.088</ele>
        <time>2016-06-07T20:55:33Z</time>
      </trkpt>
      <trkpt lat="44.85309" lon="3.81496">
        <ele>1141.138</ele>
        <time>2016-06-07T20:55:53Z</time>
      </trkpt>
      <trkpt lat="44.85173" lon="3.81568">
        <ele>1138.659</ele>
        <time>2016-06-07T20:56:13Z</time>
      </trkpt>
      <trkpt lat="44.8514" lon="3.81598">
        <ele>1139.673</ele>
        <time>2016-06-07T20:56:33Z</time>
      </trkpt>
      <trkpt lat="44.85104" lon="3.81597">
        <ele>1139.385</ele>
        <time>2016-06-07T20:56:53Z</time>
      </trkpt>
      <trkpt lat="44.85047" lon="3.81713">
        <ele>1139.013</ele>
        <time>2016-06-07T20:57:13Z</time>
      </trkpt>
      <trkpt lat="44.84993" lon="3.81796">
        <ele>1139.208</ele>
        <time>2016-06-07T20:57:33Z</time>
      </trkpt>
      <trkpt lat="44.84951" lon="3.81948">
        <ele>1136.03</ele>
        <time>2016-06-07T20:57:53Z</time>
      </trkpt>
      <trkpt lat="44.84919" lon="3.82007">
        <ele>1137.831</ele>
        <time>2016-06-07T20:58:13Z</time>
      </trkpt>
      <trkpt lat="44.84903" lon="3.82052">
        <ele>1138.132</ele>
        <time>2016-06-07T20:58:33Z</time>
      </trkpt>
      <trkpt lat="44.84888" lon="3.82178">
        <ele>1134.63</ele>
        <time>2016-06-07T20:58:53Z</time>
      </trkpt>
      <trkpt lat="44.8488" lon="3.82256">
        <ele>1134.568</ele>
        <time>2016-06-07T20:59:13Z</time>
      </trkpt>
      <trkpt lat="44.84832" lon="3.82337">
        <ele>1129.73</ele>
        <time>2016-06-07T20:59:33Z</time>
      </trkpt>
      <trkpt lat="44.84805" lon="3.8237">
        <ele>1127.11</ele>
        <time>2016-06-07T20:59:53Z</time>
      </trkpt>
      <trkpt lat="44.84724" lon="3.82566">
        <ele>1116.531</ele>
        <time>2016-06-07T21:00:13Z</time>
      </trkpt>
      <trkpt lat="44.84699" lon="3.8262">
        <ele>1110.924</ele>
        <time>2016-06-07T21:00:33Z</time>
      </trkpt>
      <trkpt lat="44.84647" lon="3.82694">
        <ele>1104.004</ele>
        <time>2016-06-07T21:00:53Z</time>
      </trkpt>
      <trkpt lat="44.84622" lon="3.82726">
        <ele>1102.914</ele>
        <time>2016-06-07T21:01:13Z</time>
      </trkpt>
      <trkpt lat="44.84613" lon="3.82742">
        <ele>1102.308</ele>
        <time>2016-06-07T21:01:33Z</time>
      </trkpt>
      <trkpt lat="44.8461" lon="3.82763">
        <ele>1102.925</ele>
        <time>2016-06-07T21:01:53Z</time>
      </trkpt>
      <trkpt lat="44.84579" lon="3.82781">
        <ele>1102.086</ele>
        <time>2016-06-07T21:02:13Z</time>
      </trkpt>
      <trkpt lat="44.84539" lon="3.82816">
        <ele>1099.617</ele>
        <time>2016-06-07T21:02:33Z</time>
      </trkpt>
      <trkpt lat="44.8448" lon="3.82876">
        <ele>1095.935</ele>
        <time>2016-06-07T21:02:53Z</time>
      </trkpt>
      <trkpt lat="44.8446" lon="3.8289">
        <ele>1094.633</ele>
        <time>2016-06-07T21:03:13Z</time>
      </trkpt>
      <trkpt lat="44.8439" lon="3.8296">
        <ele>1093.645</ele>
        <time>2016-06-07T21:03:33Z</time>
      </trkpt>
      <trkpt lat="44.84378" lon="3.8298">
        <ele>1094.185</ele>
        <time>2016-06-07T21:03:53Z</time>
      </trkpt>
      <trkpt lat="44.84374" lon="3.83001">
        <ele>1095.586</ele>
        <time>2016-06-07T21:04:13Z</time>
      </trkpt>
      <trkpt lat="44.84306" lon="3.82993">
        <ele>1096.484</ele>
        <time>2016-06-07T21:04:33Z</time>
      </trkpt>
      <trkpt lat="44.84298" lon="3.82984">
        <ele>1096.207</ele>
        <time>2016-06-07T21:04:53Z</time>
      </trkpt>
      <trkpt lat="44.84265" lon="3.82998">
        <ele>1098.817</ele>
        <time>2016-06-07T21:05:13Z</time>
      </trkpt>
      <trkpt lat="44.84194" lon="3.82977">
        <ele>1096.508</ele>
        <time>2016-06-07T21:05:33Z</time>
      </trkpt>
      <trkpt lat="44.84168" lon="3.8298">
        <ele>1097.231</ele>
        <time>2016-06-07T21:05:53Z</time>
      </trkpt>
      <trkpt lat="44.84137" lon="3.82992">
        <ele>1096.652</ele>
        <time>2016-06-07T21:06:13Z</time>
      </trkpt>
      <trkpt lat="44.84107" lon="3.83021">
        <ele>1097.963</ele>
        <time>2016-06-07T21:06:33Z</time>
      </trkpt>
      <trkpt lat="44.84083" lon="3.83039">
        <ele>1096.871</ele>
        <time>2016-06-07T21:06:53Z</time>
      </trkpt>
      <trkpt lat="44.84065" lon="3.83062">
        <ele>1097.079</ele>
        <time>2016-06-07T21:07:13Z</time>
      </trkpt>
      <trkpt lat="44.84041" lon="3.83072">
        <ele>1094.551</ele>
        <time>2016-06-07T21:07:33Z</time>
      </trkpt>
      <trkpt lat="44.84026" lon="3.8309">
        <ele>1093.381</ele>
        <time>2016-06-07T21:07:53Z</time>
      </trkpt>
      <trkpt lat="44.84008" lon="3.8314">
        <ele>1096.772</ele>
        <time>2016-06-07T21:08:13Z</time>
      </trkpt>
      <trkpt lat="44.83963" lon="3.83188">
        <ele>1097.619</ele>
        <time>2016-06-07T21:08:33Z</time>
      </trkpt>
      <trkpt lat="44.83944" lon="3.8322">
        <ele>1099.609</ele>
        <time>2016-06-07T21:08:53Z</time>
      </trkpt>
      <trkpt lat="44.83899" lon="3.83265">
        <ele>1099.819</ele>
        <time>2016-06-07T21:09:13Z</time>
      </trkpt>
      <trkpt lat="44.83854" lon="3.83284">
        <ele>1099.208</ele>
        <time>2016-06-07T21:09:33Z</time>
      </trkpt>
      <trkpt lat="44.8383" lon="3.83279">
        <ele>1097.864</ele>
        <time>2016-06-07T21:09:53Z</time>
      </trkpt>
      <trkpt lat="44.83754" lon="3.83283">
        <ele>1097.195</ele>
        <time>2016-06-07T21:10:13Z</time>
      </trkpt>
      <trkpt lat="44.83669" lon="3.83296">
        <ele>1098.616</ele>
        <time>2016-06-07T21:10:33Z</time>
      </trkpt>
      <trkpt lat="44.83526" lon="3.83302">
        <ele>1102.974</ele>
        <time>2016-06-07T21:10:53Z</time>
      </trkpt>
      <trkpt lat="44.83494" lon="3.8332">
        <ele>1104.062</ele>
        <time>2016-06-07T21:11:13Z</time>
      </trkpt>
      <trkpt lat="44.83439" lon="3.83249">
        <ele>1105.054</ele>
        <time>2016-06-07T21:11:33Z</time>
      </trkpt>
      <trkpt lat="44.83396" lon="3.83196">
        <ele>1108.654</ele>
        <time>2016-06-07T21:11:53Z</time>
      </trkpt>
      <trkpt lat="44.83302" lon="3.83104">
        <ele>1114.245</ele>
        <time>2016-06-07T21:12:13Z</time>
      </trkpt>
      <trkpt lat="44.83244" lon="3.83058">
        <ele>1118.267</ele>
        <time>2016-06-07T21:12:33Z</time>
      </trkpt>
      <trkpt lat="44.83191" lon="3.83">
        <ele>1116.981</ele>
        <time>2016-06-07T21:12:53Z</time>
      </trkpt>
      <trkpt lat="44.83172" lon="3.82971">
        <ele>1115.919</ele>
        <time>2016-06-07T21:13:13Z</time>
      </trkpt>
      <trkpt lat="44.83144" lon="3.82938">
        <ele>1114.308</ele>
        <time>2016-06-07T21:13:33Z</time>
      </trkpt>
      <trkpt lat="44.83106" lon="3.8286">
        <ele>1111.899</ele>
        <time>2016-06-07T21:13:53Z</time>
      </trkpt>
      <trkpt lat="44.83063" lon="3.82735">
        <ele>1108.04</ele>
        <time>2016-06-07T21:14:13Z</time>
      </trkpt>
      <trkpt lat="44.83047" lon="3.82694">
        <ele>1109.171</ele>
        <time>2016-06-07T21:14:33Z</time>
      </trkpt>
      <trkpt lat="44.83025" lon="3.82601">
        <ele>1111.039</ele>
        <time>2016-06-07T21:14:53Z</time>
      </trkpt>
      <trkpt lat="44.82998" lon="3.82498">
        <ele>1111.997</ele>
        <time>2016-06-07T21:15:13Z</time>
      </trkpt>
      <trkpt lat="44.82914" lon="3.82375">
        <ele>1114.769</ele>
        <time>2016-06-07T21:15:33Z</time>
      </trkpt>
      <trkpt lat="44.82868" lon="3.82346">
        <ele>1113.029</ele>
        <time>2016-06-07T21:15:53Z</time>
      </trkpt>
      <trkpt lat="44.82769" lon="3.823">
        <ele>1106.76</ele>
        <time>2016-06-07T21:16:13Z</time>
      </trkpt>
      <trkpt lat="44.82707" lon="3.8223">
        <ele>1104.984</ele>
        <time>2016-06-07T21:16:33Z</time>
      </trkpt>
      <trkpt lat="44.82684" lon="3.82184">
        <ele>1103.007</ele>
        <time>2016-06-07T21:16:53Z</time>
      </trkpt>
      <trkpt lat="44.82571" lon="3.82019">
        <ele>1093.417</ele>
        <time>2016-06-07T21:17:13Z</time>
      </trkpt>
      <trkpt lat="44.82514" lon="3.81968">
        <ele>1090.308</ele>
        <time>2016-06-07T21:17:33Z</time>
      </trkpt>
      <trkpt lat="44.82468" lon="3.81936">
        <ele>1087.621</ele>
        <time>2016-06-07T21:17:53Z</time>
      </trkpt>
      <trkpt lat="44.82333" lon="3.81803">
        <ele>1080.812</ele>
        <time>2016-06-07T21:18:13Z</time>
      </trkpt>
      <trkpt lat="44.82272" lon="3.81693">
        <ele>1072.013</ele>
        <time>2016-06-07T21:18:33Z</time>
      </trkpt>
      <trkpt lat="44.82214" lon="3.8155">
        <ele>1068.571</ele>
        <time>2016-06-07T21:18:53Z</time>
      </trkpt>
      <trkpt lat="44.82202" lon="3.81498">
        <ele>1067.639</ele>
        <time>2016-06-07T21:19:13Z</time>
      </trkpt>
      <trkpt lat="44.82192" lon="3.81456">
        <ele>1064.851</ele>
        <time>2016-06-07T21:19:33Z</time>
      </trkpt>
      <trkpt lat="44.82185" lon="3.81409">
        <ele>1061.641</ele>
        <time>2016-06-07T21:19:53Z</time>
      </trkpt>
      <trkpt lat="44.82153" lon="3.81338">
        <ele>1059.082</ele>
        <time>2016-06-07T21:20:13Z</time>
      </trkpt>
      <trkpt lat="44.82145" lon="3.81278">
        <ele>1058.824</ele>
        <time>2016-06-07T21:20:33Z</time>
      </trkpt>
      <trkpt lat="44.82112" lon="3.81189">
        <ele>1049.904</ele>
        <time>2016-06-07T21:20:53Z</time>
      </trkpt>
      <trkpt lat="44.82096" lon="3.81204">
        <ele>1049.714</ele>
        <time>2016-06-07T21:21:13Z</time>
      </trkpt>
      <trkpt lat="44.82051" lon="3.81212">
        <ele>1047.908</ele>
        <time>2016-06-07T21:21:33Z</time>
      </trkpt>
      <trkpt lat="44.82018" lon="3.81195">
        <ele>1048.425</ele>
        <time>2016-06-07T21:21:53Z</time>
      </trkpt>
      <trkpt lat="44.81946" lon="3.81128">
        <ele>1046.256</ele>
        <time>2016-06-07T21:22:13Z</time>
      </trkpt>
      <trkpt lat="44.81929" lon="3.81126">
        <ele>1045.887</ele>
        <time>2016-06-07T21:22:33Z</time>
      </trkpt>
      <trkpt lat="44.81884" lon="3.81149">
        <ele>1046.275</ele>
        <time>2016-06-07T21:22:53Z</time>
      </trkpt>
      <trkpt lat="44.81822" lon="3.81188">
        <ele>1039.913</ele>
        <time>2016-06-07T21:23:13Z</time>
      </trkpt>
      <trkpt lat="44.81823" lon="3.8121">
        <ele>1037.445</ele>
        <time>2016-06-07T21:23:33Z</time>
      </trkpt>
      <trkpt lat="44.8185" lon="3.81253">
        <ele>1038.975</ele>
        <time>2016-06-07T21:23:53Z</time>
      </trkpt>
      <trkpt lat="44.81886" lon="3.81348">
        <ele>1036.096</ele>
        <time>2016-06-07T21:24:13Z</time>
      </trkpt>
      <trkpt lat="44.81894" lon="3.81392">
        <ele>1033.835</ele>
        <time>2016-06-07T21:24:33Z</time>
      </trkpt>
      <trkpt lat="44.81892" lon="3.81455">
        <ele>1032.386</ele>
        <time>2016-06-07T21:24:53Z</time>
      </trkpt>
      <trkpt lat="44.81859" lon="3.81511">
        <ele>1023.914</ele>
        <time>2016-06-07T21:25:13Z</time>
      </trkpt>
      <trkpt lat="44.81829" lon="3.81568">
        <ele>1022.008</ele>
        <time>2016-06-07T21:25:33Z</time>
      </trkpt>
      <trkpt lat="44.81813" lon="3.81571">
        <ele>1024.246</ele>
        <time>2016-06-07T21:25:53Z</time>
      </trkpt>
      <trkpt lat="44.81792" lon="3.81558">
        <ele>1026.217</ele>
        <time>2016-06-07T21:26:13Z</time>
      </trkpt>
      <trkpt lat="44.8176" lon="3.81527">
        <ele>1031.228</ele>
        <time>2016-06-07T21:26:33Z</time>
      </trkpt>
      <trkpt lat="44.81726" lon="3.81503">
        <ele>1034.916</ele>
        <time>2016-06-07T21:26:53Z</time>
      </trkpt>
      <trkpt lat="44.81689" lon="3.81469">
        <ele>1037.354</ele>
        <time>2016-06-07T21:27:13Z</time>
      </trkpt>
      <trkpt lat="44.81667" lon="3.81461">
        <ele>1039.726</ele>
        <time>2016-06-07T21:27:33Z</time>
      </trkpt>
      <trkpt lat="44.81648" lon="3.81439">
        <ele>1039.316</ele>
        <time>2016-06-07T21:27:53Z</time>
      </trkpt>
      <trkpt lat="44.81619" lon="3.81436">
        <ele>1041.437</ele>
        <time>2016-06-07T21:28:13Z</time>
      </trkpt>
      <trkpt lat="44.81549" lon="3.81445">
        <ele>1041.854</ele>
        <time>2016-06-07T21:28:33Z</time>
      </trkpt>
      <trkpt lat="44.81508" lon="3.81443">
        <ele>1041.056</ele>
        <time>2016-06-07T21:28:53Z</time>
      </trkpt>
      <trkpt lat="44.81478" lon="3.81454">
        <ele>1040.511</ele>
        <time>2016-06-07T21:29:13Z</time>
      </trkpt>
      <trkpt lat="44.81443" lon="3.81475">
        <ele>1040.108</ele>
        <time>2016-06-07T21:29:33Z</time>
      </trkpt>
      <trkpt lat="44.81415" lon="3.8147">
        <ele>1039.988</ele>
        <time>2016-06-07T21:29:53Z</time>
      </trkpt>
      <trkpt lat="44.81324" lon="3.81612">
        <ele>1042.889</ele>
        <time>2016-06-07T21:30:13Z</time>
      </trkpt>
      <trkpt lat="44.81295" lon="3.81638">
        <ele>1042.66</ele>
        <time>2016-06-07T21:30:33Z</time>
      </trkpt>
      <trkpt lat="44.81254" lon="3.81648">
        <ele>1041.298</ele>
        <time>2016-06-07T21:30:53Z</time>
      </trkpt>
      <trkpt lat="44.81189" lon="3.8175">
        <ele>1039.826</ele>
        <time>2016-06-07T21:31:13Z</time>
      </trkpt>
      <trkpt lat="44.81177" lon="3.81756">
        <ele>1039.488</ele>
        <time>2016-06-07T21:31:33Z</time>
      </trkpt>
      <trkpt lat="44.81152" lon="3.81728">
        <ele>1037.998</ele>
        <time>2016-06-07T21:31:53Z</time>
      </trkpt>
      <trkpt lat="44.81141" lon="3.81729">
        <ele>1037.239</ele>
        <time>2016-06-07T21:32:13Z</time>
      </trkpt>
      <trkpt lat="44.81086" lon="3.81843">
        <ele>1037.031</ele>
        <time>2016-06-07T21:32:33Z</time>
      </trkpt>
      <trkpt lat="44.81064" lon="3.8188">
        <ele>1036.361</ele>
        <time>2016-06-07T21:32:53Z</time>
      </trkpt>
      <trkpt lat="44.8104" lon="3.81948">
        <ele>1036.507</ele>
        <time>2016-06-07T21:33:13Z</time>
      </trkpt>
      <trkpt lat="44.81007" lon="3.82003">
        <ele>1035.308</ele>
        <time>2016-06-07T21:33:33Z</time>
      </trkpt>
      <trkpt lat="44.80921" lon="3.82214">
        <ele>1023.266</ele>
        <time>2016-06-07T21:33:53Z</time>
      </trkpt>
      <trkpt lat="44.80897" lon="3.82247">
        <ele>1020.057</ele>
        <time>2016-06-07T21:34:13Z</time>
      </trkpt>
      <trkpt lat="44.80902" lon="3.82281">
        <ele>1020.598</ele>
        <time>2016-06-07T21:34:33Z</time>
      </trkpt>
      <trkpt lat="44.80899" lon="3.82332">
        <ele>1022.736</ele>
        <time>2016-06-07T21:34:53Z</time>
      </trkpt>
      <trkpt lat="44.80813" lon="3.82344">
        <ele>1018.094</ele>
        <time>2016-06-07T21:35:13Z</time>
      </trkpt>
      <trkpt lat="44.80747" lon="3.82342">
        <ele>1014.156</ele>
        <time>2016-06-07T21:35:33Z</time>
      </trkpt>
      <trkpt lat="44.80688" lon="3.82378">
        <ele>1006.246</ele>
        <time>2016-06-07T21:35:53Z</time>
      </trkpt>
      <trkpt lat="44.80685" lon="3.82486">
        <ele>1008.547</ele>
        <time>2016-06-07T21:36:13Z</time>
      </trkpt>
      <trkpt lat="44.80673" lon="3.82534">
        <ele>1005.671</ele>
        <time>2016-06-07T21:36:33Z</time>
      </trkpt>
      <trkpt lat="44.80673" lon="3.82582">
        <ele>995.941</ele>
        <time>2016-06-07T21:36:53Z</time>
      </trkpt>
      <trkpt lat="44.80684" lon="3.82608">
        <ele>992.715</ele>
        <time>2016-06-07T21:37:13Z</time>
      </trkpt>
      <trkpt lat="44.80722" lon="3.82647">
        <ele>994.208</ele>
        <time>2016-06-07T21:37:33Z</time>
      </trkpt>
      <trkpt lat="44.80737" lon="3.82674">
        <ele>994.17</ele>
        <time>2016-06-07T21:37:53Z</time>
      </trkpt>
      <trkpt lat="44.80752" lon="3.82755">
        <ele>986.631</ele>
        <time>2016-06-07T21:38:13Z</time>
      </trkpt>
      <trkpt lat="44.80743" lon="3.82783">
        <ele>987.652</ele>
        <time>2016-06-07T21:38:33Z</time>
      </trkpt>
      <trkpt lat="44.80728" lon="3.82792">
        <ele>990.34</ele>
        <time>2016-06-07T21:38:53Z</time>
      </trkpt>
      <trkpt lat="44.80676" lon="3.82766">
        <ele>987.228</ele>
        <time>2016-06-07T21:39:13Z</time>
      </trkpt>
      <trkpt lat="44.8065" lon="3.82746">
        <ele>985.18</ele>
        <time>2016-06-07T21:39:33Z</time>
      </trkpt>
      <trkpt lat="44.80591" lon="3.82745">
        <ele>991.67</ele>
        <time>2016-06-07T21:39:53Z</time>
      </trkpt>
      <trkpt lat="44.80546" lon="3.82765">
        <ele>1006.421</ele>
        <time>2016-06-07T21:40:13Z</time>
      </trkpt>
      <trkpt lat="44.80468" lon="3.82786">
        <ele>1008.582</ele>
        <time>2016-06-07T21:40:33Z</time>
      </trkpt>
      <trkpt lat="44.80421" lon="3.82829">
        <ele>1008.943</ele>
        <time>2016-06-07T21:40:53Z</time>
      </trkpt>
      <trkpt lat="44.80408" lon="3.82871">
        <ele>1010.417</ele>
        <time>2019-03-25T18:09:11Z</time>
      </trkpt>
      <trkpt lat="44.80346" lon="3.82927">
        <ele>1014.308</ele>
        <time>2019-03-25T18:09:31Z</time>
      </trkpt>
      <trkpt lat="44.80326" lon="3.8297">
        <ele>1019.541</ele>
        <time>2016-06-07T21:45:13Z</time>
      </trkpt>
      <trkpt lat="44.80331" lon="3.83033">
        <ele>1024.322</ele>
        <time>2019-03-25T18:10:11Z</time>
      </trkpt>
      <trkpt lat="44.80405" lon="3.83019">
        <ele>1023.633</ele>
        <time>2016-06-07T21:45:53Z</time>
      </trkpt>
      <trkpt lat="44.80497" lon="3.83038">
        <ele>1029.291</ele>
        <time>2016-06-07T21:46:13Z</time>
      </trkpt>
      <trkpt lat="44.80618" lon="3.83085">
        <ele>1035.419</ele>
        <time>2016-06-07T21:46:33Z</time>
      </trkpt>
      <trkpt lat="44.80668" lon="3.83088">
        <ele>1036.741</ele>
        <time>2016-06-07T21:47:13Z</time>
      </trkpt>
      <trkpt lat="44.80656" lon="3.83137">
        <ele>1045.422</ele>
        <time>2016-06-07T21:47:33Z</time>
      </trkpt>
      <trkpt lat="44.80642" lon="3.83245">
        <ele>1059.563</ele>
        <time>2016-06-07T21:47:53Z</time>
      </trkpt>
      <trkpt lat="44.80613" lon="3.83347">
        <ele>1066.544</ele>
        <time>2016-06-07T21:48:13Z</time>
      </trkpt>
      <trkpt lat="44.80583" lon="3.83399">
        <ele>1074.718</ele>
        <time>2016-06-07T21:48:33Z</time>
      </trkpt>
      <trkpt lat="44.80548" lon="3.83447">
        <ele>1080.008</ele>
        <time>2016-06-07T21:48:53Z</time>
      </trkpt>
      <trkpt lat="44.80498" lon="3.83533">
        <ele>1083.679</ele>
        <time>2016-06-07T21:49:13Z</time>
      </trkpt>
      <trkpt lat="44.80477" lon="3.83556">
        <ele>1085.42</ele>
        <time>2016-06-07T21:49:33Z</time>
      </trkpt>
      <trkpt lat="44.80388" lon="3.83722">
        <ele>1099.091</ele>
        <time>2016-06-07T21:49:53Z</time>
      </trkpt>
      <trkpt lat="44.80373" lon="3.83776">
        <ele>1100.599</ele>
        <time>2016-06-07T21:50:13Z</time>
      </trkpt>
      <trkpt lat="44.80372" lon="3.83807">
        <ele>1101.367</ele>
        <time>2016-06-07T21:50:33Z</time>
      </trkpt>
      <trkpt lat="44.80297" lon="3.83972">
        <ele>1113.089</ele>
        <time>2016-06-07T21:50:53Z</time>
      </trkpt>
      <trkpt lat="44.80241" lon="3.84104">
        <ele>1125.319</ele>
        <time>2016-06-07T21:51:13Z</time>
      </trkpt>
      <trkpt lat="44.80213" lon="3.842">
        <ele>1131.14</ele>
        <time>2016-06-07T21:51:33Z</time>
      </trkpt>
      <trkpt lat="44.80197" lon="3.84309">
        <ele>1142.464</ele>
        <time>2016-06-07T21:51:53Z</time>
      </trkpt>
      <trkpt lat="44.80169" lon="3.84363">
        <ele>1144.906</ele>
        <time>2016-06-07T21:52:13Z</time>
      </trkpt>
      <trkpt lat="44.80133" lon="3.84454">
        <ele>1150.716</ele>
        <time>2016-06-07T21:52:33Z</time>
      </trkpt>
      <trkpt lat="44.80117" lon="3.84515">
        <ele>1153.008</ele>
        <time>2016-06-07T21:52:53Z</time>
      </trkpt>
      <trkpt lat="44.80098" lon="3.84561">
        <ele>1153.119</ele>
        <time>2016-06-07T21:53:13Z</time>
      </trkpt>
      <trkpt lat="44.80092" lon="3.84633">
        <ele>1152.57</ele>
        <time>2016-06-07T21:53:33Z</time>
      </trkpt>
      <trkpt lat="44.80066" lon="3.84696">
        <ele>1148.091</ele>
        <time>2016-06-07T21:53:53Z</time>
      </trkpt>
      <trkpt lat="44.80069" lon="3.8482">
        <ele>1145.459</ele>
        <time>2016-06-07T21:54:13Z</time>
      </trkpt>
      <trkpt lat="44.80082" lon="3.84972">
        <ele>1142.987</ele>
        <time>2016-06-07T21:54:33Z</time>
      </trkpt>
      <trkpt lat="44.80076" lon="3.85033">
        <ele>1138.639</ele>
        <time>2016-06-07T21:54:53Z</time>
      </trkpt>
      <trkpt lat="44.80069" lon="3.85053">
        <ele>1138.989</ele>
        <time>2016-06-07T21:55:13Z</time>
      </trkpt>
      <trkpt lat="44.80075" lon="3.85083">
        <ele>1139.37</ele>
        <time>2016-06-07T21:55:33Z</time>
      </trkpt>
      <trkpt lat="44.80018" lon="3.85159">
        <ele>1143.997</ele>
        <time>2016-06-07T21:55:53Z</time>
      </trkpt>
      <trkpt lat="44.80003" lon="3.8517">
        <ele>1143.323</ele>
        <time>2016-06-07T21:56:13Z</time>
      </trkpt>
      <trkpt lat="44.79914" lon="3.853">
        <ele>1144.625</ele>
        <time>2016-06-07T21:56:33Z</time>
      </trkpt>
      <trkpt lat="44.79768" lon="3.85435">
        <ele>1149.208</ele>
        <time>2016-06-07T21:56:53Z</time>
      </trkpt>
      <trkpt lat="44.79731" lon="3.8548">
        <ele>1150.892</ele>
        <time>2016-06-07T21:57:13Z</time>
      </trkpt>
      <trkpt lat="44.79706" lon="3.85524">
        <ele>1152.863</ele>
        <time>2016-06-07T21:57:33Z</time>
      </trkpt>
      <trkpt lat="44.79651" lon="3.85549">
        <ele>1153.234</ele>
        <time>2016-06-07T21:57:53Z</time>
      </trkpt>
      <trkpt lat="44.79525" lon="3.8565">
        <ele>1150.652</ele>
        <time>2016-06-07T21:58:13Z</time>
      </trkpt>
      <trkpt lat="44.79487" lon="3.85689">
        <ele>1149.37</ele>
        <time>2016-06-07T21:58:33Z</time>
      </trkpt>
      <trkpt lat="44.79424" lon="3.858">
        <ele>1153.052</ele>
        <time>2016-06-07T21:58:53Z</time>
      </trkpt>
      <trkpt lat="44.79376" lon="3.85859">
        <ele>1154.882</ele>
        <time>2016-06-07T21:59:13Z</time>
      </trkpt>
      <trkpt lat="44.79355" lon="3.85874">
        <ele>1156.813</ele>
        <time>2016-06-07T21:59:33Z</time>
      </trkpt>
      <trkpt lat="44.79343" lon="3.85867">
        <ele>1157.085</ele>
        <time>2016-06-07T21:59:53Z</time>
      </trkpt>
      <trkpt lat="44.79277" lon="3.8589">
        <ele>1158.089</ele>
        <time>2016-06-07T22:00:13Z</time>
      </trkpt>
      <trkpt lat="44.79202" lon="3.85873">
        <ele>1157.317</ele>
        <time>2016-06-07T22:00:33Z</time>
      </trkpt>
      <trkpt lat="44.79143" lon="3.8588">
        <ele>1156.408</ele>
        <time>2016-06-07T22:00:53Z</time>
      </trkpt>
      <trkpt lat="44.79096" lon="3.85904">
        <ele>1158.251</ele>
        <time>2016-06-07T22:01:13Z</time>
      </trkpt>
      <trkpt lat="44.79043" lon="3.85918">
        <ele>1159.252</ele>
        <time>2016-06-07T22:01:33Z</time>
      </trkpt>
      <trkpt lat="44.79006" lon="3.85937">
        <ele>1156.053</ele>
        <time>2016-06-07T22:01:53Z</time>
      </trkpt>
      <trkpt lat="44.78969" lon="3.85967">
        <ele>1154.771</ele>
        <time>2016-06-07T22:02:13Z</time>
      </trkpt>
      <trkpt lat="44.78962" lon="3.85999">
        <ele>1156.089</ele>
        <time>2016-06-07T22:02:33Z</time>
      </trkpt>
      <trkpt lat="44.78965" lon="3.86027">
        <ele>1156.431</ele>
        <time>2016-06-07T22:02:53Z</time>
      </trkpt>
      <trkpt lat="44.78959" lon="3.86072">
        <ele>1153.851</ele>
        <time>2016-06-07T22:03:13Z</time>
      </trkpt>
      <trkpt lat="44.78945" lon="3.86095">
        <ele>1152.592</ele>
        <time>2016-06-07T22:03:33Z</time>
      </trkpt>
      <trkpt lat="44.7893" lon="3.86106">
        <ele>1153.086</ele>
        <time>2016-06-07T22:03:53Z</time>
      </trkpt>
      <trkpt lat="44.78885" lon="3.86051">
        <ele>1149.46</ele>
        <time>2016-06-07T22:04:13Z</time>
      </trkpt>
      <trkpt lat="44.78864" lon="3.86036">
        <ele>1151.626</ele>
        <time>2016-06-07T22:04:33Z</time>
      </trkpt>
      <trkpt lat="44.78853" lon="3.86052">
        <ele>1154.208</ele>
        <time>2016-06-07T22:04:53Z</time>
      </trkpt>
      <trkpt lat="44.78823" lon="3.86069">
        <ele>1158.721</ele>
        <time>2016-06-07T22:05:13Z</time>
      </trkpt>
      <trkpt lat="44.78796" lon="3.86082">
        <ele>1162.962</ele>
        <time>2016-06-07T22:05:33Z</time>
      </trkpt>
      <trkpt lat="44.78742" lon="3.86138">
        <ele>1176.233</ele>
        <time>2016-06-07T22:05:53Z</time>
      </trkpt>
      <trkpt lat="44.78725" lon="3.86147">
        <ele>1176.341</ele>
        <time>2016-06-07T22:06:13Z</time>
      </trkpt>
      <trkpt lat="44.78646" lon="3.86345">
        <ele>1191.499</ele>
        <time>2016-06-07T22:06:33Z</time>
      </trkpt>
      <trkpt lat="44.78551" lon="3.86531">
        <ele>1207.231</ele>
        <time>2016-06-07T22:06:53Z</time>
      </trkpt>
      <trkpt lat="44.78537" lon="3.8658">
        <ele>1210.231</ele>
        <time>2016-06-07T22:07:13Z</time>
      </trkpt>
      <trkpt lat="44.78394" lon="3.86763">
        <ele>1213.272</ele>
        <time>2016-06-07T22:07:33Z</time>
      </trkpt>
      <trkpt lat="44.78372" lon="3.86802">
        <ele>1215.232</ele>
        <time>2016-06-07T22:07:53Z</time>
      </trkpt>
      <trkpt lat="44.78315" lon="3.86934">
        <ele>1225.392</ele>
        <time>2016-06-07T22:08:13Z</time>
      </trkpt>
      <trkpt lat="44.78248" lon="3.87062">
        <ele>1232.111</ele>
        <time>2016-06-07T22:08:33Z</time>
      </trkpt>
      <trkpt lat="44.78241" lon="3.8709">
        <ele>1232.808</ele>
        <time>2016-06-07T22:08:53Z</time>
      </trkpt>
      <trkpt lat="44.78244" lon="3.87121">
        <ele>1233.576</ele>
        <time>2016-06-07T22:09:13Z</time>
      </trkpt>
      <trkpt lat="44.78304" lon="3.87251">
        <ele>1232.877</ele>
        <time>2016-06-07T22:09:33Z</time>
      </trkpt>
      <trkpt lat="44.78278" lon="3.87502">
        <ele>1227.8</ele>
      </trkpt>
      <trkpt lat="44.783" lon="3.87604">
        <ele>1228.968</ele>
        <time>2016-06-07T22:12:13Z</time>
      </trkpt>
      <trkpt lat="44.78279" lon="3.87626">
        <ele>1230.014</ele>
        <time>2016-06-07T22:12:33Z</time>
      </trkpt>
      <trkpt lat="44.7825" lon="3.87648">
        <ele>1231.308</ele>
        <time>2016-06-07T22:12:53Z</time>
      </trkpt>
      <trkpt lat="44.7814" lon="3.87686">
        <ele>1224.819</ele>
        <time>2016-06-07T22:13:13Z</time>
      </trkpt>
      <trkpt lat="44.78104" lon="3.87691">
        <ele>1218.61</ele>
        <time>2016-06-07T22:13:33Z</time>
      </trkpt>
      <trkpt lat="44.78066" lon="3.87735">
        <ele>1215.081</ele>
        <time>2016-06-07T22:13:53Z</time>
      </trkpt>
      <trkpt lat="44.7801" lon="3.87769">
        <ele>1206.939</ele>
        <time>2016-06-07T22:14:13Z</time>
      </trkpt>
      <trkpt lat="44.77988" lon="3.87843">
        <ele>1208.557</ele>
        <time>2016-06-07T22:14:33Z</time>
      </trkpt>
      <trkpt lat="44.77972" lon="3.87859">
        <ele>1208.989</ele>
        <time>2016-06-07T22:14:53Z</time>
      </trkpt>
      <trkpt lat="44.7795" lon="3.87862">
        <ele>1205.199</ele>
        <time>2016-06-07T22:15:13Z</time>
      </trkpt>
      <trkpt lat="44.77909" lon="3.87857">
        <ele>1196.51</ele>
        <time>2016-06-07T22:15:33Z</time>
      </trkpt>
      <trkpt lat="44.77884" lon="3.87884">
        <ele>1188.241</ele>
        <time>2016-06-07T22:15:53Z</time>
      </trkpt>
      <trkpt lat="44.77872" lon="3.87913">
        <ele>1185.481</ele>
        <time>2016-06-07T22:16:13Z</time>
      </trkpt>
      <trkpt lat="44.77833" lon="3.87985">
        <ele>1179.709</ele>
        <time>2016-06-07T22:16:33Z</time>
      </trkpt>
      <trkpt lat="44.77721" lon="3.88152">
        <ele>1153.308</ele>
        <time>2016-06-07T22:16:53Z</time>
      </trkpt>
      <trkpt lat="44.77656" lon="3.88304">
        <ele>1149.057</ele>
        <time>2019-03-25T18:41:51Z</time>
      </trkpt>
      <trkpt lat="44.77634" lon="3.88329">
        <ele>1146.578</ele>
        <time>2019-03-25T18:42:11Z</time>
      </trkpt>
      <trkpt lat="44.77614" lon="3.88318">
        <ele>1144.569</ele>
        <time>2019-03-25T18:42:31Z</time>
      </trkpt>
      <trkpt lat="44.77563" lon="3.88208">
        <ele>1141.317</ele>
        <time>2019-03-25T18:42:51Z</time>
      </trkpt>
      <trkpt lat="44.77501" lon="3.88163">
        <ele>1138.545</ele>
        <time>2019-03-25T18:43:11Z</time>
      </trkpt>
      <trkpt lat="44.77469" lon="3.88203">
        <ele>1145.337</ele>
        <time>2019-03-25T18:43:31Z</time>
      </trkpt>
      <trkpt lat="44.77382" lon="3.88276">
        <ele>1149.757</ele>
        <time>2019-03-25T18:43:51Z</time>
      </trkpt>
      <trkpt lat="44.77304" lon="3.88285">
        <ele>1148.538</ele>
        <time>2019-03-25T18:44:11Z</time>
      </trkpt>
      <trkpt lat="44.77278" lon="3.88303">
        <ele>1153.532</ele>
        <time>2019-03-25T18:44:31Z</time>
      </trkpt>
      <trkpt lat="44.77279" lon="3.88318">
        <ele>1156.392</ele>
        <time>2019-03-25T18:44:51Z</time>
      </trkpt>
      <trkpt lat="44.77173" lon="3.88366">
        <ele>1167.611</ele>
        <time>2016-06-07T22:20:13Z</time>
      </trkpt>
      <trkpt lat="44.77063" lon="3.88303">
        <ele>1159.908</ele>
        <time>2016-06-07T22:20:33Z</time>
      </trkpt>
      <trkpt lat="44.77033" lon="3.883">
        <ele>1155</ele>
      </trkpt>
      <trkpt lat="44.76987" lon="3.8832">
        <ele>1155.4</ele>
      </trkpt>
      <trkpt lat="44.76968" lon="3.88315">
        <ele>1154</ele>
      </trkpt>
      <trkpt lat="44.76946" lon="3.88278">
        <ele>1152.7</ele>
      </trkpt>
    </trkseg>
  </trk>
  <trk>
    <name><![CDATA[19 juil]]></name>
    <extensions>
      <line xmlns="http://www.topografix.com/GPX/gpx_style/0/2">
        <color>000000</color>
        <width>4</width>
      </line>
    </extensions>
    <trkseg>
      <trkpt lat="44.76943" lon="3.8828">
        <ele>1152.8</ele>
      </trkpt>
      <trkpt lat="44.7694" lon="3.88275">
        <ele>1152.6</ele>
      </trkpt>
      <trkpt lat="44.76936" lon="3.88259">
        <ele>1152.1</ele>
      </trkpt>
      <trkpt lat="44.7692" lon="3.88236">
        <ele>1151.316</ele>
        <time>2019-03-25T18:47:31Z</time>
      </trkpt>
      <trkpt lat="44.76896" lon="3.88224">
        <ele>1150.386</ele>
        <time>2019-03-25T18:47:51Z</time>
      </trkpt>
      <trkpt lat="44.76782" lon="3.88278">
        <ele>1134.867</ele>
        <time>2019-03-25T18:48:11Z</time>
      </trkpt>
      <trkpt lat="44.76725" lon="3.88325">
        <ele>1128.794</ele>
        <time>2019-03-25T18:48:31Z</time>
      </trkpt>
      <trkpt lat="44.76662" lon="3.88324">
        <ele>1123.157</ele>
        <time>2016-06-07T22:25:13Z</time>
      </trkpt>
      <trkpt lat="44.7664" lon="3.88311">
        <ele>1122.722</ele>
        <time>2016-06-07T22:25:33Z</time>
      </trkpt>
      <trkpt lat="44.76558" lon="3.88257">
        <ele>1114.508</ele>
        <time>2016-06-07T22:25:53Z</time>
      </trkpt>
      <trkpt lat="44.76446" lon="3.88194">
        <ele>1104.182</ele>
        <time>2016-06-07T22:26:13Z</time>
      </trkpt>
      <trkpt lat="44.76328" lon="3.88143">
        <ele>1096.273</ele>
        <time>2016-06-07T22:26:33Z</time>
      </trkpt>
      <trkpt lat="44.76189" lon="3.88016">
        <ele>1084.844</ele>
        <time>2016-06-07T22:26:53Z</time>
      </trkpt>
      <trkpt lat="44.76168" lon="3.87984">
        <ele>1082.692</ele>
        <time>2016-06-07T22:27:13Z</time>
      </trkpt>
      <trkpt lat="44.76154" lon="3.8794">
        <ele>1080.06</ele>
        <time>2016-06-07T22:27:33Z</time>
      </trkpt>
      <trkpt lat="44.76131" lon="3.87889">
        <ele>1076.142</ele>
        <time>2016-06-07T22:27:53Z</time>
      </trkpt>
      <trkpt lat="44.76121" lon="3.87848">
        <ele>1070.622</ele>
        <time>2016-06-07T22:28:13Z</time>
      </trkpt>
      <trkpt lat="44.76081" lon="3.87761">
        <ele>1064.413</ele>
        <time>2016-06-07T22:28:33Z</time>
      </trkpt>
      <trkpt lat="44.76024" lon="3.87657">
        <ele>1063.147</ele>
        <time>2016-06-07T22:28:53Z</time>
      </trkpt>
      <trkpt lat="44.75986" lon="3.87507">
        <ele>1053.929</ele>
        <time>2016-06-07T22:29:13Z</time>
      </trkpt>
      <trkpt lat="44.75964" lon="3.87468">
        <ele>1050.121</ele>
        <time>2016-06-07T22:29:33Z</time>
      </trkpt>
      <trkpt lat="44.7585" lon="3.87369">
        <ele>1038.208</ele>
        <time>2016-06-07T22:29:53Z</time>
      </trkpt>
      <trkpt lat="44.75669" lon="3.87236">
        <ele>1024.457</ele>
        <time>2016-06-07T22:30:13Z</time>
      </trkpt>
      <trkpt lat="44.75628" lon="3.87188">
        <ele>1021.128</ele>
        <time>2016-06-07T22:30:33Z</time>
      </trkpt>
      <trkpt lat="44.75522" lon="3.87033">
        <ele>1015.019</ele>
        <time>2016-06-07T22:30:53Z</time>
      </trkpt>
      <trkpt lat="44.755" lon="3.86955">
        <ele>1014.467</ele>
        <time>2016-06-07T22:31:13Z</time>
      </trkpt>
      <trkpt lat="44.75454" lon="3.86873">
        <ele>1011.365</ele>
        <time>2016-06-07T22:31:33Z</time>
      </trkpt>
      <trkpt lat="44.75397" lon="3.86796">
        <ele>1008.597</ele>
        <time>2016-06-07T22:31:53Z</time>
      </trkpt>
      <trkpt lat="44.7531" lon="3.86723">
        <ele>1010.827</ele>
        <time>2016-06-07T22:32:13Z</time>
      </trkpt>
      <trkpt lat="44.75214" lon="3.86587">
        <ele>1014.518</ele>
        <time>2016-06-07T22:32:33Z</time>
      </trkpt>
      <trkpt lat="44.75155" lon="3.86479">
        <ele>1016.258</ele>
        <time>2016-06-07T22:32:53Z</time>
      </trkpt>
      <trkpt lat="44.75108" lon="3.86364">
        <ele>1008.152</ele>
        <time>2016-06-07T22:33:13Z</time>
      </trkpt>
      <trkpt lat="44.74973" lon="3.86205">
        <ele>1008.117</ele>
        <time>2016-06-07T22:33:33Z</time>
      </trkpt>
      <trkpt lat="44.74875" lon="3.86169">
        <ele>1004.108</ele>
        <time>2016-06-07T22:33:53Z</time>
      </trkpt>
      <trkpt lat="44.74805" lon="3.86136">
        <ele>997.828</ele>
        <time>2016-06-07T22:34:13Z</time>
      </trkpt>
      <trkpt lat="44.74751" lon="3.86097">
        <ele>991.699</ele>
        <time>2016-06-07T22:34:33Z</time>
      </trkpt>
      <trkpt lat="44.74712" lon="3.86051">
        <ele>986.05</ele>
        <time>2016-06-07T22:34:53Z</time>
      </trkpt>
      <trkpt lat="44.74573" lon="3.85942">
        <ele>975.378</ele>
        <time>2016-06-07T22:35:13Z</time>
      </trkpt>
      <trkpt lat="44.74551" lon="3.85935">
        <ele>974.746</ele>
        <time>2016-06-07T22:35:33Z</time>
      </trkpt>
      <trkpt lat="44.74529" lon="3.85947">
        <ele>973.778</ele>
        <time>2016-06-07T22:35:53Z</time>
      </trkpt>
      <trkpt lat="44.74478" lon="3.85998">
        <ele>969.848</ele>
        <time>2016-06-07T22:36:13Z</time>
      </trkpt>
      <trkpt lat="44.7445" lon="3.86013">
        <ele>969.519</ele>
        <time>2016-06-07T22:36:33Z</time>
      </trkpt>
      <trkpt lat="44.74414" lon="3.86013">
        <ele>968.543</ele>
        <time>2016-06-07T22:36:53Z</time>
      </trkpt>
      <trkpt lat="44.74271" lon="3.85969">
        <ele>969.764</ele>
        <time>2016-06-07T22:37:13Z</time>
      </trkpt>
      <trkpt lat="44.74229" lon="3.85942">
        <ele>965.71</ele>
        <time>2016-06-07T22:37:33Z</time>
      </trkpt>
      <trkpt lat="44.742" lon="3.85904">
        <ele>961.808</ele>
        <time>2016-06-07T22:37:53Z</time>
      </trkpt>
      <trkpt lat="44.74182" lon="3.85846">
        <ele>960.057</ele>
        <time>2016-06-07T22:38:13Z</time>
      </trkpt>
      <trkpt lat="44.7418" lon="3.85789">
        <ele>958.178</ele>
        <time>2016-06-07T22:38:33Z</time>
      </trkpt>
      <trkpt lat="44.74167" lon="3.85756">
        <ele>956.899</ele>
        <time>2016-06-07T22:38:53Z</time>
      </trkpt>
      <trkpt lat="44.74137" lon="3.85723">
        <ele>954.547</ele>
        <time>2016-06-07T22:39:13Z</time>
      </trkpt>
      <trkpt lat="44.74086" lon="3.85698">
        <ele>948.015</ele>
        <time>2016-06-07T22:39:33Z</time>
      </trkpt>
      <trkpt lat="44.7404" lon="3.85656">
        <ele>941.947</ele>
        <time>2016-06-07T22:39:53Z</time>
      </trkpt>
      <trkpt lat="44.7402" lon="3.85652">
        <ele>939.877</ele>
        <time>2016-06-07T22:40:13Z</time>
      </trkpt>
      <trkpt lat="44.73957" lon="3.85686">
        <ele>932.058</ele>
        <time>2016-06-07T22:40:33Z</time>
      </trkpt>
      <trkpt lat="44.73904" lon="3.85739">
        <ele>920.548</ele>
        <time>2016-06-07T22:40:53Z</time>
      </trkpt>
      <trkpt lat="44.73882" lon="3.85744">
        <ele>917.361</ele>
        <time>2016-06-07T22:41:13Z</time>
      </trkpt>
      <trkpt lat="44.73721" lon="3.85697">
        <ele>903.917</ele>
        <time>2016-06-07T22:41:33Z</time>
      </trkpt>
      <trkpt lat="44.73697" lon="3.85765">
        <ele>905.508</ele>
        <time>2016-06-07T22:41:53Z</time>
      </trkpt>
      <trkpt lat="44.73653" lon="3.85761">
        <ele>906.097</ele>
        <time>2016-06-07T22:42:13Z</time>
      </trkpt>
      <trkpt lat="44.7355" lon="3.85845">
        <ele>907.318</ele>
        <time>2016-06-07T22:42:33Z</time>
      </trkpt>
      <trkpt lat="44.73514" lon="3.85836">
        <ele>905.379</ele>
        <time>2016-06-07T22:42:53Z</time>
      </trkpt>
      <trkpt lat="44.73465" lon="3.85733">
        <ele>900.617</ele>
        <time>2016-06-07T22:43:13Z</time>
      </trkpt>
      <trkpt lat="44.73439" lon="3.85712">
        <ele>902.375</ele>
        <time>2016-06-07T22:43:33Z</time>
      </trkpt>
      <trkpt lat="44.73388" lon="3.85719">
        <ele>904.437</ele>
        <time>2019-03-25T19:07:31Z</time>
      </trkpt>
      <trkpt lat="44.73347" lon="3.85752">
        <ele>907.037</ele>
        <time>2019-03-25T19:07:51Z</time>
      </trkpt>
      <trkpt lat="44.73292" lon="3.85832">
        <ele>906.158</ele>
        <time>2019-03-25T19:08:11Z</time>
      </trkpt>
      <trkpt lat="44.7322" lon="3.85846">
        <ele>904.822</ele>
        <time>2019-03-25T19:08:31Z</time>
      </trkpt>
      <trkpt lat="44.73162" lon="3.85834">
        <ele>908.662</ele>
        <time>2019-03-25T19:08:51Z</time>
      </trkpt>
      <trkpt lat="44.73106" lon="3.8579">
        <ele>906.808</ele>
        <time>2019-03-25T19:09:11Z</time>
      </trkpt>
      <trkpt lat="44.73033" lon="3.85689">
        <ele>909.608</ele>
        <time>2019-03-25T19:09:31Z</time>
      </trkpt>
      <trkpt lat="44.72957" lon="3.8567">
        <ele>908.215</ele>
        <time>2019-03-25T19:09:51Z</time>
      </trkpt>
      <trkpt lat="44.72818" lon="3.85642">
        <ele>910.5</ele>
      </trkpt>
      <trkpt lat="44.72696" lon="3.8562">
        <ele>912.183</ele>
        <time>2016-06-07T22:49:53Z</time>
      </trkpt>
      <trkpt lat="44.72676" lon="3.85617">
        <ele>911.995</ele>
        <time>2016-06-07T22:50:13Z</time>
      </trkpt>
      <trkpt lat="44.72646" lon="3.85597">
        <ele>911.875</ele>
        <time>2016-06-07T22:50:33Z</time>
      </trkpt>
      <trkpt lat="44.72626" lon="3.85563">
        <ele>912.716</ele>
        <time>2016-06-07T22:50:53Z</time>
      </trkpt>
      <trkpt lat="44.72567" lon="3.85633">
        <ele>910.135</ele>
        <time>2016-06-07T22:51:13Z</time>
      </trkpt>
      <trkpt lat="44.72546" lon="3.85641">
        <ele>910.086</ele>
        <time>2016-06-07T22:51:33Z</time>
      </trkpt>
      <trkpt lat="44.72534" lon="3.85653">
        <ele>910.014</ele>
        <time>2016-06-07T22:51:53Z</time>
      </trkpt>
      <trkpt lat="44.72519" lon="3.85638">
        <ele>910.908</ele>
        <time>2016-06-07T22:52:13Z</time>
      </trkpt>
      <trkpt lat="44.72486" lon="3.85656">
        <ele>916.126</ele>
        <time>2016-06-07T22:52:33Z</time>
      </trkpt>
      <trkpt lat="44.72476" lon="3.85634">
        <ele>916.097</ele>
        <time>2016-06-07T22:52:53Z</time>
      </trkpt>
      <trkpt lat="44.72437" lon="3.85599">
        <ele>915.938</ele>
        <time>2016-06-07T22:53:13Z</time>
      </trkpt>
      <trkpt lat="44.723" lon="3.85627">
        <ele>926.746</ele>
        <time>2016-06-07T22:53:33Z</time>
      </trkpt>
      <trkpt lat="44.72278" lon="3.85597">
        <ele>924.564</ele>
        <time>2016-06-07T22:53:53Z</time>
      </trkpt>
      <trkpt lat="44.72245" lon="3.85562">
        <ele>927.696</ele>
        <time>2016-06-07T22:54:13Z</time>
      </trkpt>
      <trkpt lat="44.7221" lon="3.8555">
        <ele>931.816</ele>
        <time>2016-06-07T22:54:33Z</time>
      </trkpt>
      <trkpt lat="44.72151" lon="3.85558">
        <ele>937.267</ele>
        <time>2016-06-07T22:54:53Z</time>
      </trkpt>
      <trkpt lat="44.72078" lon="3.85586">
        <ele>942.297</ele>
        <time>2016-06-07T22:55:13Z</time>
      </trkpt>
      <trkpt lat="44.7198" lon="3.8558">
        <ele>943.423</ele>
        <time>2016-06-07T22:55:33Z</time>
      </trkpt>
      <trkpt lat="44.71886" lon="3.85614">
        <ele>949.125</ele>
        <time>2016-06-07T22:55:53Z</time>
      </trkpt>
      <trkpt lat="44.71726" lon="3.85599">
        <ele>956.608</ele>
        <time>2016-06-07T22:56:13Z</time>
      </trkpt>
      <trkpt lat="44.71652" lon="3.85598">
        <ele>961.682</ele>
        <time>2016-06-07T22:56:33Z</time>
      </trkpt>
      <trkpt lat="44.7155" lon="3.85629">
        <ele>962.523</ele>
        <time>2016-06-07T22:56:53Z</time>
      </trkpt>
      <trkpt lat="44.71445" lon="3.85643">
        <ele>960.744</ele>
        <time>2016-06-07T22:57:13Z</time>
      </trkpt>
      <trkpt lat="44.71406" lon="3.85656">
        <ele>960.052</ele>
        <time>2016-06-07T22:57:33Z</time>
      </trkpt>
      <trkpt lat="44.71214" lon="3.85667">
        <ele>969.96</ele>
        <time>2016-06-07T22:57:53Z</time>
      </trkpt>
      <trkpt lat="44.71146" lon="3.85649">
        <ele>971.282</ele>
        <time>2016-06-07T22:58:13Z</time>
      </trkpt>
      <trkpt lat="44.71008" lon="3.85639">
        <ele>970.012</ele>
        <time>2016-06-07T22:58:33Z</time>
      </trkpt>
      <trkpt lat="44.70799" lon="3.85688">
        <ele>978.163</ele>
        <time>2016-06-07T22:58:53Z</time>
      </trkpt>
      <trkpt lat="44.70721" lon="3.85696">
        <ele>980.997</ele>
        <time>2016-06-07T22:59:13Z</time>
      </trkpt>
      <trkpt lat="44.70662" lon="3.85685">
        <ele>977.423</ele>
        <time>2016-06-07T22:59:33Z</time>
      </trkpt>
      <trkpt lat="44.70612" lon="3.85645">
        <ele>974.125</ele>
        <time>2016-06-07T22:59:53Z</time>
      </trkpt>
      <trkpt lat="44.70591" lon="3.85645">
        <ele>973.808</ele>
        <time>2016-06-07T23:00:13Z</time>
      </trkpt>
      <trkpt lat="44.70535" lon="3.85663">
        <ele>972.252</ele>
        <time>2016-06-07T23:00:33Z</time>
      </trkpt>
      <trkpt lat="44.70456" lon="3.85679">
        <ele>974.793</ele>
        <time>2016-06-07T23:00:53Z</time>
      </trkpt>
      <trkpt lat="44.70422" lon="3.85675">
        <ele>979.324</ele>
        <time>2016-06-07T23:01:13Z</time>
      </trkpt>
      <trkpt lat="44.70353" lon="3.85681">
        <ele>984.812</ele>
        <time>2016-06-07T23:01:33Z</time>
      </trkpt>
      <trkpt lat="44.70104" lon="3.85775">
        <ele>1000.27</ele>
        <time>2016-06-07T23:01:53Z</time>
      </trkpt>
      <trkpt lat="44.70005" lon="3.85793">
        <ele>1004.092</ele>
        <time>2016-06-07T23:02:13Z</time>
      </trkpt>
      <trkpt lat="44.69921" lon="3.85818">
        <ele>1005.862</ele>
        <time>2016-06-07T23:02:33Z</time>
      </trkpt>
      <trkpt lat="44.69881" lon="3.85772">
        <ele>1008.633</ele>
        <time>2016-06-07T23:02:53Z</time>
      </trkpt>
      <trkpt lat="44.69849" lon="3.85711">
        <ele>1010.266</ele>
        <time>2016-06-07T23:03:13Z</time>
      </trkpt>
      <trkpt lat="44.69796" lon="3.8564">
        <ele>1015.029</ele>
        <time>2016-06-07T23:03:33Z</time>
      </trkpt>
      <trkpt lat="44.69754" lon="3.85586">
        <ele>1021.621</ele>
        <time>2016-06-07T23:03:53Z</time>
      </trkpt>
      <trkpt lat="44.69725" lon="3.85496">
        <ele>1027.008</ele>
        <time>2016-06-07T23:04:13Z</time>
      </trkpt>
      <trkpt lat="44.69684" lon="3.85407">
        <ele>1030.129</ele>
        <time>2016-06-07T23:04:33Z</time>
      </trkpt>
      <trkpt lat="44.6963" lon="3.85328">
        <ele>1035.03</ele>
        <time>2016-06-07T23:04:53Z</time>
      </trkpt>
      <trkpt lat="44.69659" lon="3.85271">
        <ele>1037.361</ele>
        <time>2016-06-07T23:05:13Z</time>
      </trkpt>
      <trkpt lat="44.69681" lon="3.85222">
        <ele>1033.929</ele>
        <time>2016-06-07T23:05:33Z</time>
      </trkpt>
      <trkpt lat="44.69748" lon="3.85157">
        <ele>1030.127</ele>
        <time>2016-06-07T23:05:53Z</time>
      </trkpt>
      <trkpt lat="44.69793" lon="3.85133">
        <ele>1027.889</ele>
        <time>2016-06-07T23:06:13Z</time>
      </trkpt>
      <trkpt lat="44.69807" lon="3.85085">
        <ele>1028.029</ele>
        <time>2016-06-07T23:06:33Z</time>
      </trkpt>
      <trkpt lat="44.6982" lon="3.85006">
        <ele>1026.75</ele>
        <time>2016-06-07T23:06:53Z</time>
      </trkpt>
      <trkpt lat="44.6985" lon="3.84908">
        <ele>1023.877</ele>
        <time>2016-06-07T23:07:13Z</time>
      </trkpt>
      <trkpt lat="44.69879" lon="3.84737">
        <ele>1020.961</ele>
        <time>2016-06-07T23:07:33Z</time>
      </trkpt>
      <trkpt lat="44.69876" lon="3.84652">
        <ele>1017.127</ele>
        <time>2016-06-07T23:07:53Z</time>
      </trkpt>
      <trkpt lat="44.69861" lon="3.84581">
        <ele>1013.908</ele>
        <time>2016-06-07T23:08:13Z</time>
      </trkpt>
      <trkpt lat="44.69895" lon="3.84481">
        <ele>1008.64</ele>
        <time>2016-06-07T23:08:33Z</time>
      </trkpt>
      <trkpt lat="44.699" lon="3.84441">
        <ele>1012.151</ele>
        <time>2016-06-07T23:08:53Z</time>
      </trkpt>
      <trkpt lat="44.69937" lon="3.84344">
        <ele>1014.922</ele>
        <time>2016-06-07T23:09:13Z</time>
      </trkpt>
      <trkpt lat="44.69946" lon="3.84292">
        <ele>1016.83</ele>
        <time>2016-06-07T23:09:33Z</time>
      </trkpt>
      <trkpt lat="44.69934" lon="3.84222">
        <ele>1018.428</ele>
        <time>2016-06-07T23:09:53Z</time>
      </trkpt>
      <trkpt lat="44.69944" lon="3.8418">
        <ele>1015.58</ele>
        <time>2016-06-07T23:10:13Z</time>
      </trkpt>
      <trkpt lat="44.69962" lon="3.84156">
        <ele>1014.09</ele>
        <time>2016-06-07T23:10:33Z</time>
      </trkpt>
      <trkpt lat="44.69985" lon="3.8415">
        <ele>1013.641</ele>
        <time>2016-06-07T23:10:53Z</time>
      </trkpt>
      <trkpt lat="44.69958" lon="3.84129">
        <ele>1014.772</ele>
        <time>2016-06-07T23:11:13Z</time>
      </trkpt>
      <trkpt lat="44.6994" lon="3.84093">
        <ele>1014.813</ele>
        <time>2016-06-07T23:11:33Z</time>
      </trkpt>
      <trkpt lat="44.69921" lon="3.84068">
        <ele>1012.914</ele>
        <time>2016-06-07T23:11:53Z</time>
      </trkpt>
      <trkpt lat="44.69876" lon="3.84065">
        <ele>1007.508</ele>
        <time>2016-06-07T23:12:13Z</time>
      </trkpt>
      <trkpt lat="44.69844" lon="3.84048">
        <ele>1007.7</ele>
      </trkpt>
      <trkpt lat="44.6974" lon="3.83901">
        <ele>990.631</ele>
        <time>2019-03-25T19:34:11Z</time>
      </trkpt>
      <trkpt lat="44.69714" lon="3.83781">
        <ele>971.492</ele>
        <time>2016-06-07T23:15:53Z</time>
      </trkpt>
      <trkpt lat="44.69661" lon="3.83752">
        <ele>966.33</ele>
        <time>2016-06-07T23:16:13Z</time>
      </trkpt>
      <trkpt lat="44.69649" lon="3.83726">
        <ele>966.288</ele>
        <time>2016-06-07T23:16:33Z</time>
      </trkpt>
      <trkpt lat="44.69654" lon="3.83703">
        <ele>966.93</ele>
        <time>2016-06-07T23:16:53Z</time>
      </trkpt>
      <trkpt lat="44.69676" lon="3.83676">
        <ele>962.25</ele>
        <time>2016-06-07T23:17:13Z</time>
      </trkpt>
      <trkpt lat="44.69686" lon="3.83655">
        <ele>958.051</ele>
        <time>2016-06-07T23:17:33Z</time>
      </trkpt>
      <trkpt lat="44.69677" lon="3.83642">
        <ele>958.521</ele>
        <time>2016-06-07T23:17:53Z</time>
      </trkpt>
      <trkpt lat="44.69645" lon="3.83622">
        <ele>962.841</ele>
        <time>2016-06-07T23:18:13Z</time>
      </trkpt>
      <trkpt lat="44.69621" lon="3.83574">
        <ele>960.305</ele>
        <time>2016-06-07T23:18:33Z</time>
      </trkpt>
      <trkpt lat="44.6958" lon="3.83441">
        <ele>961.508</ele>
        <time>2016-06-07T23:18:53Z</time>
      </trkpt>
      <trkpt lat="44.69654" lon="3.83426">
        <ele>958.495</ele>
        <time>2016-06-07T23:19:13Z</time>
      </trkpt>
      <trkpt lat="44.69733" lon="3.83438">
        <ele>970.336</ele>
        <time>2016-06-07T23:19:33Z</time>
      </trkpt>
      <trkpt lat="44.69772" lon="3.83467">
        <ele>971.927</ele>
        <time>2016-06-07T23:19:53Z</time>
      </trkpt>
      <trkpt lat="44.69779" lon="3.83457">
        <ele>974.445</ele>
        <time>2016-06-07T23:20:13Z</time>
      </trkpt>
      <trkpt lat="44.69754" lon="3.83346">
        <ele>993.313</ele>
        <time>2016-06-07T23:20:33Z</time>
      </trkpt>
      <trkpt lat="44.69711" lon="3.8322">
        <ele>1005.085</ele>
        <time>2016-06-07T23:20:53Z</time>
      </trkpt>
      <trkpt lat="44.69651" lon="3.83121">
        <ele>1015.895</ele>
        <time>2016-06-07T23:21:13Z</time>
      </trkpt>
      <trkpt lat="44.6961" lon="3.83017">
        <ele>1024.956</ele>
        <time>2016-06-07T23:21:33Z</time>
      </trkpt>
      <trkpt lat="44.69613" lon="3.82938">
        <ele>1033.529</ele>
        <time>2016-06-07T23:21:53Z</time>
      </trkpt>
      <trkpt lat="44.69596" lon="3.82855">
        <ele>1036.3</ele>
        <time>2016-06-07T23:22:13Z</time>
      </trkpt>
      <trkpt lat="44.69585" lon="3.82715">
        <ele>1043.32</ele>
        <time>2016-06-07T23:22:33Z</time>
      </trkpt>
      <trkpt lat="44.69592" lon="3.82621">
        <ele>1047.608</ele>
        <time>2016-06-07T23:22:53Z</time>
      </trkpt>
      <trkpt lat="44.69582" lon="3.82573">
        <ele>1050.345</ele>
        <time>2016-06-07T23:23:13Z</time>
      </trkpt>
      <trkpt lat="44.69466" lon="3.82516">
        <ele>1050.426</ele>
        <time>2016-06-07T23:23:33Z</time>
      </trkpt>
      <trkpt lat="44.69427" lon="3.82483">
        <ele>1050.217</ele>
        <time>2016-06-07T23:23:53Z</time>
      </trkpt>
      <trkpt lat="44.69384" lon="3.82454">
        <ele>1048.685</ele>
        <time>2016-06-07T23:24:13Z</time>
      </trkpt>
      <trkpt lat="44.69317" lon="3.8235">
        <ele>1045.543</ele>
        <time>2016-06-07T23:24:33Z</time>
      </trkpt>
      <trkpt lat="44.69283" lon="3.8228">
        <ele>1044.095</ele>
        <time>2016-06-07T23:24:53Z</time>
      </trkpt>
      <trkpt lat="44.69261" lon="3.82257">
        <ele>1044.365</ele>
        <time>2016-06-07T23:25:13Z</time>
      </trkpt>
      <trkpt lat="44.69087" lon="3.82238">
        <ele>1050.726</ele>
        <time>2019-03-25T19:44:11Z</time>
      </trkpt>
      <trkpt lat="44.68898" lon="3.82512">
        <ele>1070.618</ele>
        <time>2019-03-25T19:44:31Z</time>
      </trkpt>
      <trkpt lat="44.688" lon="3.8258">
        <ele>1064.398</ele>
        <time>2019-03-25T19:44:51Z</time>
      </trkpt>
      <trkpt lat="44.68657" lon="3.82641">
        <ele>1056.817</ele>
        <time>2019-03-25T19:45:11Z</time>
      </trkpt>
      <trkpt lat="44.68539" lon="3.82625">
        <ele>1058.208</ele>
        <time>2019-03-25T19:45:31Z</time>
      </trkpt>
      <trkpt lat="44.68522" lon="3.82571">
        <ele>1061.574</ele>
        <time>2019-03-25T19:45:51Z</time>
      </trkpt>
      <trkpt lat="44.68517" lon="3.82535">
        <ele>1065.675</ele>
        <time>2019-03-25T19:46:11Z</time>
      </trkpt>
      <trkpt lat="44.68494" lon="3.82516">
        <ele>1067.746</ele>
        <time>2019-03-25T19:46:31Z</time>
      </trkpt>
      <trkpt lat="44.68451" lon="3.82491">
        <ele>1067.544</ele>
        <time>2019-03-25T19:46:51Z</time>
      </trkpt>
      <trkpt lat="44.68397" lon="3.82407">
        <ele>1083.032</ele>
        <time>2019-03-25T19:47:11Z</time>
      </trkpt>
      <trkpt lat="44.68358" lon="3.82322">
        <ele>1089.774</ele>
        <time>2019-03-25T19:47:31Z</time>
      </trkpt>
      <trkpt lat="44.68348" lon="3.82251">
        <ele>1099.594</ele>
        <time>2019-03-25T19:47:51Z</time>
      </trkpt>
      <trkpt lat="44.68287" lon="3.82204">
        <ele>1110.315</ele>
        <time>2019-03-25T19:48:11Z</time>
      </trkpt>
      <trkpt lat="44.68229" lon="3.82176">
        <ele>1115.448</ele>
        <time>2019-03-25T19:48:31Z</time>
      </trkpt>
      <trkpt lat="44.68204" lon="3.8213">
        <ele>1121.061</ele>
        <time>2019-03-25T19:48:51Z</time>
      </trkpt>
      <trkpt lat="44.68192" lon="3.82029">
        <ele>1128.717</ele>
        <time>2019-03-25T19:49:11Z</time>
      </trkpt>
      <trkpt lat="44.68192" lon="3.81921">
        <ele>1129.908</ele>
        <time>2019-03-25T19:49:31Z</time>
      </trkpt>
      <trkpt lat="44.68211" lon="3.8186">
        <ele>1137.167</ele>
        <time>2019-03-25T19:49:51Z</time>
      </trkpt>
      <trkpt lat="44.68161" lon="3.81864">
        <ele>1136.488</ele>
        <time>2019-03-25T19:50:11Z</time>
      </trkpt>
      <trkpt lat="44.68158" lon="3.81866">
        <ele>1135.999</ele>
        <time>2016-06-07T23:33:33Z</time>
      </trkpt>
      <trkpt lat="44.68127" lon="3.81864">
        <ele>1135.637</ele>
        <time>2016-06-07T23:33:53Z</time>
      </trkpt>
      <trkpt lat="44.68052" lon="3.81664">
        <ele>1143.025</ele>
        <time>2016-06-07T23:34:13Z</time>
      </trkpt>
      <trkpt lat="44.6805" lon="3.81636">
        <ele>1143.647</ele>
        <time>2016-06-07T23:34:33Z</time>
      </trkpt>
      <trkpt lat="44.68041" lon="3.81624">
        <ele>1142.997</ele>
        <time>2016-06-07T23:34:53Z</time>
      </trkpt>
      <trkpt lat="44.68042" lon="3.81601">
        <ele>1143.068</ele>
        <time>2016-06-07T23:35:13Z</time>
      </trkpt>
      <trkpt lat="44.68035" lon="3.81565">
        <ele>1142.596</ele>
        <time>2016-06-07T23:35:33Z</time>
      </trkpt>
      <trkpt lat="44.68016" lon="3.8152">
        <ele>1139.731</ele>
        <time>2016-06-07T23:35:53Z</time>
      </trkpt>
      <trkpt lat="44.68015" lon="3.81352">
        <ele>1136.424</ele>
        <time>2016-06-07T23:36:13Z</time>
      </trkpt>
      <trkpt lat="44.67988" lon="3.81259">
        <ele>1140.608</ele>
        <time>2016-06-07T23:36:33Z</time>
      </trkpt>
      <trkpt lat="44.67984" lon="3.81221">
        <ele>1142.242</ele>
        <time>2016-06-07T23:36:53Z</time>
      </trkpt>
      <trkpt lat="44.67971" lon="3.81165">
        <ele>1141.073</ele>
        <time>2016-06-07T23:37:13Z</time>
      </trkpt>
      <trkpt lat="44.67955" lon="3.81116">
        <ele>1139.434</ele>
        <time>2016-06-07T23:37:33Z</time>
      </trkpt>
      <trkpt lat="44.67938" lon="3.81084">
        <ele>1139.322</ele>
        <time>2016-06-07T23:37:53Z</time>
      </trkpt>
      <trkpt lat="44.67933" lon="3.81055">
        <ele>1139.41</ele>
        <time>2016-06-07T23:38:13Z</time>
      </trkpt>
      <trkpt lat="44.67926" lon="3.81039">
        <ele>1139.312</ele>
        <time>2016-06-07T23:38:33Z</time>
      </trkpt>
      <trkpt lat="44.67921" lon="3.81012">
        <ele>1138.562</ele>
        <time>2016-06-07T23:38:53Z</time>
      </trkpt>
      <trkpt lat="44.67958" lon="3.80965">
        <ele>1139.663</ele>
        <time>2016-06-07T23:39:13Z</time>
      </trkpt>
      <trkpt lat="44.67976" lon="3.80927">
        <ele>1141.139</ele>
        <time>2016-06-07T23:39:33Z</time>
      </trkpt>
      <trkpt lat="44.67917" lon="3.80863">
        <ele>1140.001</ele>
        <time>2016-06-07T23:39:53Z</time>
      </trkpt>
      <trkpt lat="44.67864" lon="3.80817">
        <ele>1142.621</ele>
        <time>2016-06-07T23:40:13Z</time>
      </trkpt>
      <trkpt lat="44.67831" lon="3.80753">
        <ele>1149.708</ele>
        <time>2016-06-07T23:40:33Z</time>
      </trkpt>
      <trkpt lat="44.67814" lon="3.80693">
        <ele>1153.186</ele>
        <time>2016-06-07T23:40:53Z</time>
      </trkpt>
      <trkpt lat="44.67807" lon="3.80613">
        <ele>1155.927</ele>
        <time>2016-06-07T23:41:13Z</time>
      </trkpt>
      <trkpt lat="44.67772" lon="3.80518">
        <ele>1154.968</ele>
        <time>2016-06-07T23:41:33Z</time>
      </trkpt>
      <trkpt lat="44.67741" lon="3.80468">
        <ele>1155.336</ele>
        <time>2016-06-07T23:41:53Z</time>
      </trkpt>
      <trkpt lat="44.67714" lon="3.80446">
        <ele>1157.234</ele>
        <time>2016-06-07T23:42:13Z</time>
      </trkpt>
      <trkpt lat="44.67671" lon="3.80426">
        <ele>1159.956</ele>
        <time>2016-06-07T23:42:33Z</time>
      </trkpt>
      <trkpt lat="44.67666" lon="3.80393">
        <ele>1162.756</ele>
        <time>2016-06-07T23:42:53Z</time>
      </trkpt>
      <trkpt lat="44.67641" lon="3.80365">
        <ele>1164.037</ele>
        <time>2016-06-07T23:43:13Z</time>
      </trkpt>
      <trkpt lat="44.67596" lon="3.80291">
        <ele>1167.659</ele>
        <time>2016-06-07T23:43:33Z</time>
      </trkpt>
      <trkpt lat="44.67568" lon="3.80214">
        <ele>1171.503</ele>
        <time>2016-06-07T23:43:53Z</time>
      </trkpt>
      <trkpt lat="44.67535" lon="3.8016">
        <ele>1175.523</ele>
        <time>2016-06-07T23:44:13Z</time>
      </trkpt>
      <trkpt lat="44.67492" lon="3.80117">
        <ele>1176.008</ele>
        <time>2016-06-07T23:44:33Z</time>
      </trkpt>
      <trkpt lat="44.67475" lon="3.80081">
        <ele>1177.878</ele>
        <time>2016-06-07T23:44:53Z</time>
      </trkpt>
      <trkpt lat="44.6746" lon="3.80028">
        <ele>1178.589</ele>
        <time>2016-06-07T23:45:13Z</time>
      </trkpt>
      <trkpt lat="44.67412" lon="3.79957">
        <ele>1175.14</ele>
        <time>2016-06-07T23:45:33Z</time>
      </trkpt>
      <trkpt lat="44.67374" lon="3.79934">
        <ele>1177.018</ele>
        <time>2016-06-07T23:45:53Z</time>
      </trkpt>
      <trkpt lat="44.67302" lon="3.79909">
        <ele>1173.346</ele>
        <time>2016-06-07T23:46:13Z</time>
      </trkpt>
      <trkpt lat="44.67186" lon="3.79848">
        <ele>1171.738</ele>
        <time>2016-06-07T23:46:33Z</time>
      </trkpt>
      <trkpt lat="44.67086" lon="3.79775">
        <ele>1170.978</ele>
        <time>2016-06-07T23:46:53Z</time>
      </trkpt>
      <trkpt lat="44.67013" lon="3.79704">
        <ele>1169.219</ele>
        <time>2016-06-07T23:47:13Z</time>
      </trkpt>
      <trkpt lat="44.66922" lon="3.79593">
        <ele>1171.658</ele>
        <time>2016-06-07T23:47:33Z</time>
      </trkpt>
      <trkpt lat="44.66906" lon="3.79558">
        <ele>1172.452</ele>
        <time>2016-06-07T23:47:53Z</time>
      </trkpt>
      <trkpt lat="44.66805" lon="3.79394">
        <ele>1185.317</ele>
        <time>2016-06-07T23:48:13Z</time>
      </trkpt>
      <trkpt lat="44.6675" lon="3.79347">
        <ele>1194.008</ele>
        <time>2016-06-07T23:48:33Z</time>
      </trkpt>
      <trkpt lat="44.66716" lon="3.79324">
        <ele>1197.868</ele>
        <time>2016-06-07T23:48:53Z</time>
      </trkpt>
      <trkpt lat="44.66672" lon="3.79278">
        <ele>1204.259</ele>
        <time>2016-06-07T23:49:13Z</time>
      </trkpt>
      <trkpt lat="44.66648" lon="3.79238">
        <ele>1208.92</ele>
        <time>2016-06-07T23:49:33Z</time>
      </trkpt>
      <trkpt lat="44.66616" lon="3.792">
        <ele>1211.548</ele>
        <time>2016-06-07T23:49:53Z</time>
      </trkpt>
      <trkpt lat="44.66606" lon="3.79173">
        <ele>1212.026</ele>
        <time>2016-06-07T23:50:13Z</time>
      </trkpt>
      <trkpt lat="44.66591" lon="3.79146">
        <ele>1211.478</ele>
        <time>2016-06-07T23:50:33Z</time>
      </trkpt>
      <trkpt lat="44.6658" lon="3.7911">
        <ele>1212.768</ele>
        <time>2016-06-07T23:50:53Z</time>
      </trkpt>
      <trkpt lat="44.66525" lon="3.79035">
        <ele>1212.899</ele>
        <time>2016-06-07T23:51:13Z</time>
      </trkpt>
      <trkpt lat="44.66501" lon="3.78985">
        <ele>1213.778</ele>
        <time>2016-06-07T23:51:33Z</time>
      </trkpt>
      <trkpt lat="44.66458" lon="3.78918">
        <ele>1215.333</ele>
        <time>2016-06-07T23:51:53Z</time>
      </trkpt>
      <trkpt lat="44.66418" lon="3.7888">
        <ele>1218.326</ele>
        <time>2016-06-07T23:52:13Z</time>
      </trkpt>
      <trkpt lat="44.66412" lon="3.78865">
        <ele>1218.708</ele>
        <time>2016-06-07T23:52:33Z</time>
      </trkpt>
      <trkpt lat="44.66344" lon="3.78818">
        <ele>1217.04</ele>
        <time>2016-06-07T23:52:53Z</time>
      </trkpt>
      <trkpt lat="44.66314" lon="3.78746">
        <ele>1217.721</ele>
        <time>2016-06-07T23:53:13Z</time>
      </trkpt>
      <trkpt lat="44.66297" lon="3.78692">
        <ele>1217.492</ele>
        <time>2016-06-07T23:53:33Z</time>
      </trkpt>
      <trkpt lat="44.66189" lon="3.7849">
        <ele>1215.12</ele>
        <time>2016-06-07T23:53:53Z</time>
      </trkpt>
      <trkpt lat="44.66142" lon="3.78431">
        <ele>1217.858</ele>
        <time>2016-06-07T23:54:13Z</time>
      </trkpt>
      <trkpt lat="44.66097" lon="3.78399">
        <ele>1220.59</ele>
        <time>2016-06-07T23:54:33Z</time>
      </trkpt>
      <trkpt lat="44.66069" lon="3.78324">
        <ele>1220.53</ele>
        <time>2016-06-07T23:54:53Z</time>
      </trkpt>
      <trkpt lat="44.66072" lon="3.78269">
        <ele>1220.891</ele>
        <time>2016-06-07T23:55:13Z</time>
      </trkpt>
      <trkpt lat="44.66038" lon="3.78172">
        <ele>1217.681</ele>
        <time>2016-06-07T23:55:33Z</time>
      </trkpt>
      <trkpt lat="44.66001" lon="3.78086">
        <ele>1220.961</ele>
        <time>2016-06-07T23:55:53Z</time>
      </trkpt>
      <trkpt lat="44.65979" lon="3.78051">
        <ele>1222.317</ele>
        <time>2016-06-07T23:56:13Z</time>
      </trkpt>
      <trkpt lat="44.65946" lon="3.77926">
        <ele>1219.908</ele>
        <time>2019-03-25T20:13:31Z</time>
      </trkpt>
      <trkpt lat="44.65852" lon="3.77977">
        <ele>1226.721</ele>
        <time>2019-03-25T20:13:51Z</time>
      </trkpt>
      <trkpt lat="44.65752" lon="3.78096">
        <ele>1226.412</ele>
        <time>2016-06-07T23:57:33Z</time>
      </trkpt>
      <trkpt lat="44.65716" lon="3.78143">
        <ele>1229.623</ele>
        <time>2016-06-07T23:57:53Z</time>
      </trkpt>
      <trkpt lat="44.65675" lon="3.78231">
        <ele>1229.551</ele>
        <time>2016-06-07T23:58:13Z</time>
      </trkpt>
      <trkpt lat="44.65629" lon="3.78306">
        <ele>1232.449</ele>
        <time>2016-06-07T23:58:33Z</time>
      </trkpt>
      <trkpt lat="44.65602" lon="3.78399">
        <ele>1235.051</ele>
        <time>2016-06-07T23:58:53Z</time>
      </trkpt>
      <trkpt lat="44.65599" lon="3.78471">
        <ele>1235.361</ele>
        <time>2016-06-07T23:59:13Z</time>
      </trkpt>
      <trkpt lat="44.65585" lon="3.78589">
        <ele>1235.722</ele>
        <time>2016-06-07T23:59:33Z</time>
      </trkpt>
      <trkpt lat="44.65563" lon="3.7879">
        <ele>1225.576</ele>
        <time>2016-06-07T23:59:53Z</time>
      </trkpt>
      <trkpt lat="44.65538" lon="3.78909">
        <ele>1218.99</ele>
        <time>2016-06-08T00:00:13Z</time>
      </trkpt>
      <trkpt lat="44.65507" lon="3.79201">
        <ele>1217.919</ele>
        <time>2016-06-08T00:00:33Z</time>
      </trkpt>
      <trkpt lat="44.6552" lon="3.79257">
        <ele>1213.508</ele>
        <time>2016-06-08T00:00:53Z</time>
      </trkpt>
      <trkpt lat="44.65515" lon="3.79328">
        <ele>1211.69</ele>
        <time>2016-06-08T00:01:13Z</time>
      </trkpt>
      <trkpt lat="44.65501" lon="3.79391">
        <ele>1208.841</ele>
        <time>2016-06-08T00:01:33Z</time>
      </trkpt>
      <trkpt lat="44.65489" lon="3.79488">
        <ele>1200.752</ele>
        <time>2016-06-08T00:01:53Z</time>
      </trkpt>
      <trkpt lat="44.65487" lon="3.7953">
        <ele>1200.31</ele>
        <time>2016-06-08T00:02:13Z</time>
      </trkpt>
      <trkpt lat="44.65538" lon="3.79645">
        <ele>1191.098</ele>
        <time>2019-03-25T20:19:11Z</time>
      </trkpt>
      <trkpt lat="44.65586" lon="3.79744">
        <ele>1186.1</ele>
      </trkpt>
      <trkpt lat="44.65559" lon="3.79772">
        <ele>1185</ele>
      </trkpt>
      <trkpt lat="44.65482" lon="3.79814">
        <ele>1184.29</ele>
        <time>2019-03-25T20:19:51Z</time>
      </trkpt>
      <trkpt lat="44.65425" lon="3.7983">
        <ele>1182.431</ele>
        <time>2019-03-25T20:20:11Z</time>
      </trkpt>
      <trkpt lat="44.65362" lon="3.79892">
        <ele>1172.556</ele>
        <time>2016-06-08T00:03:33Z</time>
      </trkpt>
      <trkpt lat="44.65322" lon="3.79915">
        <ele>1170.259</ele>
        <time>2016-06-08T00:03:53Z</time>
      </trkpt>
      <trkpt lat="44.65305" lon="3.79938">
        <ele>1167.714</ele>
        <time>2016-06-08T00:04:13Z</time>
      </trkpt>
      <trkpt lat="44.65296" lon="3.79981">
        <ele>1162.908</ele>
        <time>2016-06-08T00:04:33Z</time>
      </trkpt>
      <trkpt lat="44.65234" lon="3.8008">
        <ele>1154.188</ele>
        <time>2016-06-08T00:04:53Z</time>
      </trkpt>
      <trkpt lat="44.65231" lon="3.80115">
        <ele>1148.979</ele>
        <time>2016-06-08T00:05:13Z</time>
      </trkpt>
      <trkpt lat="44.65234" lon="3.80156">
        <ele>1146.43</ele>
        <time>2016-06-08T00:05:33Z</time>
      </trkpt>
      <trkpt lat="44.65229" lon="3.80194">
        <ele>1147.548</ele>
        <time>2016-06-08T00:05:53Z</time>
      </trkpt>
      <trkpt lat="44.65208" lon="3.80226">
        <ele>1147.456</ele>
        <time>2016-06-08T00:06:13Z</time>
      </trkpt>
      <trkpt lat="44.65111" lon="3.80281">
        <ele>1140.028</ele>
        <time>2016-06-08T00:06:53Z</time>
      </trkpt>
      <trkpt lat="44.64995" lon="3.80325">
        <ele>1131.599</ele>
        <time>2019-03-25T20:24:11Z</time>
      </trkpt>
      <trkpt lat="44.64861" lon="3.80329">
        <ele>1119.654</ele>
        <time>2016-06-08T00:07:53Z</time>
      </trkpt>
      <trkpt lat="44.64813" lon="3.80338">
        <ele>1117.856</ele>
        <time>2016-06-08T00:08:13Z</time>
      </trkpt>
      <trkpt lat="44.6478" lon="3.80325">
        <ele>1119.211</ele>
        <time>2016-06-08T00:08:33Z</time>
      </trkpt>
    </trkseg>
  </trk>
  <trk>
    <name><![CDATA[20 juil]]></name>
    <extensions>
      <line xmlns="http://www.topografix.com/GPX/gpx_style/0/2">
        <color>ff0000</color>
        <width>4</width>
      </line>
    </extensions>
    <trkseg>
      <trkpt lat="44.64768" lon="3.80321">
        <ele>1121</ele>
      </trkpt>
      <trkpt lat="44.64768" lon="3.80321">
        <ele>1121</ele>
      </trkpt>
      <trkpt lat="44.64768" lon="3.80321">
        <ele>1121</ele>
      </trkpt>
      <trkpt lat="44.64768" lon="3.80321">
        <ele>1121</ele>
      </trkpt>
      <trkpt lat="44.64768" lon="3.80321">
        <ele>1121</ele>
      </trkpt>
      <trkpt lat="44.64752" lon="3.80325">
        <ele>1120</ele>
      </trkpt>
      <trkpt lat="44.64743" lon="3.80327">
        <ele>1121.1</ele>
      </trkpt>
      <trkpt lat="44.64738" lon="3.80327">
        <ele>1121.8</ele>
      </trkpt>
      <trkpt lat="44.64727" lon="3.80328">
        <ele>1123.1</ele>
      </trkpt>
      <trkpt lat="44.64711" lon="3.80326">
        <ele>1124.3</ele>
      </trkpt>
      <trkpt lat="44.64674" lon="3.80336">
        <ele>1122.4</ele>
      </trkpt>
      <trkpt lat="44.64656" lon="3.80335">
        <ele>1123.1</ele>
      </trkpt>
      <trkpt lat="44.64636" lon="3.80325">
        <ele>1126.6</ele>
      </trkpt>
      <trkpt lat="44.64626" lon="3.80322">
        <ele>1126.8</ele>
      </trkpt>
      <trkpt lat="44.64619" lon="3.80324">
        <ele>1126.5</ele>
      </trkpt>
      <trkpt lat="44.64607" lon="3.80337">
        <ele>1122.9</ele>
      </trkpt>
      <trkpt lat="44.64605" lon="3.80344">
        <ele>1123</ele>
      </trkpt>
      <trkpt lat="44.64597" lon="3.80355">
        <ele>1123.1</ele>
      </trkpt>
      <trkpt lat="44.64585" lon="3.8037">
        <ele>1123.5</ele>
      </trkpt>
      <trkpt lat="44.64579" lon="3.80379">
        <ele>1129.7</ele>
      </trkpt>
      <trkpt lat="44.64576" lon="3.80388">
        <ele>1129.8</ele>
      </trkpt>
      <trkpt lat="44.64577" lon="3.80402">
        <ele>1128.9</ele>
      </trkpt>
      <trkpt lat="44.64582" lon="3.80419">
        <ele>1127.1</ele>
      </trkpt>
      <trkpt lat="44.64583" lon="3.80427">
        <ele>1129.4</ele>
      </trkpt>
      <trkpt lat="44.64582" lon="3.80433">
        <ele>1130.8</ele>
      </trkpt>
      <trkpt lat="44.64579" lon="3.80438">
        <ele>1131.9</ele>
      </trkpt>
      <trkpt lat="44.64521" lon="3.80522">
        <ele>1141.4</ele>
      </trkpt>
      <trkpt lat="44.64505" lon="3.80554">
        <ele>1142.1</ele>
      </trkpt>
      <trkpt lat="44.64503" lon="3.8057">
        <ele>1141.3</ele>
      </trkpt>
      <trkpt lat="44.64502" lon="3.80598">
        <ele>1146.9</ele>
      </trkpt>
      <trkpt lat="44.645" lon="3.80603">
        <ele>1148.4</ele>
      </trkpt>
      <trkpt lat="44.64496" lon="3.80625">
        <ele>1150.7</ele>
      </trkpt>
      <trkpt lat="44.64487" lon="3.80671">
        <ele>1153.3</ele>
      </trkpt>
      <trkpt lat="44.64491" lon="3.80725">
        <ele>1155.7</ele>
      </trkpt>
      <trkpt lat="44.6449" lon="3.80738">
        <ele>1156.1</ele>
      </trkpt>
      <trkpt lat="44.64486" lon="3.8075">
        <ele>1157.4</ele>
      </trkpt>
      <trkpt lat="44.64478" lon="3.8076">
        <ele>1157.5</ele>
      </trkpt>
      <trkpt lat="44.64466" lon="3.80769">
        <ele>1157.4</ele>
      </trkpt>
      <trkpt lat="44.64459" lon="3.80778">
        <ele>1157.3</ele>
      </trkpt>
      <trkpt lat="44.64453" lon="3.8079">
        <ele>1157.3</ele>
      </trkpt>
      <trkpt lat="44.64447" lon="3.80807">
        <ele>1157.1</ele>
      </trkpt>
      <trkpt lat="44.64431" lon="3.80861">
        <ele>1162.2</ele>
      </trkpt>
      <trkpt lat="44.64422" lon="3.80879">
        <ele>1163.6</ele>
      </trkpt>
      <trkpt lat="44.6441" lon="3.80894">
        <ele>1160.2</ele>
      </trkpt>
      <trkpt lat="44.64384" lon="3.80922">
        <ele>1164.9</ele>
      </trkpt>
      <trkpt lat="44.64378" lon="3.80926">
        <ele>1164.9</ele>
      </trkpt>
      <trkpt lat="44.64361" lon="3.80939">
        <ele>1164.9</ele>
      </trkpt>
      <trkpt lat="44.64344" lon="3.80955">
        <ele>1165.4</ele>
      </trkpt>
      <trkpt lat="44.64324" lon="3.80966">
        <ele>1167.7</ele>
      </trkpt>
      <trkpt lat="44.64313" lon="3.80968">
        <ele>1168.3</ele>
      </trkpt>
      <trkpt lat="44.64292" lon="3.80966">
        <ele>1169.6</ele>
      </trkpt>
      <trkpt lat="44.64274" lon="3.80967">
        <ele>1170.8</ele>
      </trkpt>
      <trkpt lat="44.64138" lon="3.8102">
        <ele>1184.2</ele>
      </trkpt>
      <trkpt lat="44.64123" lon="3.81023">
        <ele>1184.8</ele>
      </trkpt>
      <trkpt lat="44.64106" lon="3.81024">
        <ele>1184.7</ele>
      </trkpt>
      <trkpt lat="44.64094" lon="3.81027">
        <ele>1184.8</ele>
      </trkpt>
      <trkpt lat="44.64048" lon="3.81054">
        <ele>1188.9</ele>
      </trkpt>
      <trkpt lat="44.64024" lon="3.81064">
        <ele>1190.1</ele>
      </trkpt>
      <trkpt lat="44.63963" lon="3.81068">
        <ele>1193.6</ele>
      </trkpt>
      <trkpt lat="44.63925" lon="3.81066">
        <ele>1195.7</ele>
      </trkpt>
      <trkpt lat="44.63898" lon="3.81067">
        <ele>1197.1</ele>
      </trkpt>
      <trkpt lat="44.63873" lon="3.81074">
        <ele>1196.8</ele>
      </trkpt>
      <trkpt lat="44.6386" lon="3.8108">
        <ele>1196.8</ele>
        <extensions>
          <visugpx:TrkExtension xmlns:visugpx="https://www.visugpx.com/editgpx/">
            <visugpx:node>2</visugpx:node>
            </visugpx:TrkExtension>
        </extensions>
      </trkpt>
      <trkpt lat="44.63835" lon="3.81091">
        <ele>1199.5</ele>
      </trkpt>
      <trkpt lat="44.63792" lon="3.81156">
        <ele>1204.1</ele>
      </trkpt>
      <trkpt lat="44.63781" lon="3.81185">
        <ele>1210.5</ele>
      </trkpt>
      <trkpt lat="44.63769" lon="3.81242">
        <ele>1213.4</ele>
      </trkpt>
      <trkpt lat="44.63762" lon="3.81266">
        <ele>1218.8</ele>
      </trkpt>
      <trkpt lat="44.63749" lon="3.81281">
        <ele>1216.1</ele>
      </trkpt>
      <trkpt lat="44.6372" lon="3.8132">
        <ele>1218.9</ele>
      </trkpt>
      <trkpt lat="44.63696" lon="3.81359">
        <ele>1227.8</ele>
      </trkpt>
      <trkpt lat="44.63675" lon="3.81417">
        <ele>1236.3</ele>
      </trkpt>
      <trkpt lat="44.63657" lon="3.81481">
        <ele>1239</ele>
      </trkpt>
      <trkpt lat="44.63655" lon="3.81526">
        <ele>1244.9</ele>
      </trkpt>
      <trkpt lat="44.63661" lon="3.81547">
        <ele>1246</ele>
      </trkpt>
      <trkpt lat="44.63666" lon="3.81558">
        <ele>1246.9</ele>
      </trkpt>
      <trkpt lat="44.63672" lon="3.81564">
        <ele>1247.5</ele>
      </trkpt>
      <trkpt lat="44.63681" lon="3.81565">
        <ele>1247.2</ele>
      </trkpt>
      <trkpt lat="44.6373" lon="3.81551">
        <ele>1245.4</ele>
      </trkpt>
      <trkpt lat="44.63792" lon="3.81539">
        <ele>1241.5</ele>
      </trkpt>
      <trkpt lat="44.63801" lon="3.8154">
        <ele>1241.2</ele>
        <extensions>
          <visugpx:TrkExtension xmlns:visugpx="https://www.visugpx.com/editgpx/">
            <visugpx:node>4</visugpx:node>
            </visugpx:TrkExtension>
        </extensions>
      </trkpt>
      <trkpt lat="44.63807" lon="3.81543">
        <ele>1241.1</ele>
      </trkpt>
      <trkpt lat="44.63818" lon="3.81553">
        <ele>1240.8</ele>
      </trkpt>
      <trkpt lat="44.6387" lon="3.81619">
        <ele>1236</ele>
      </trkpt>
      <trkpt lat="44.63949" lon="3.81713">
        <ele>1225.9</ele>
      </trkpt>
      <trkpt lat="44.64027" lon="3.81809">
        <ele>1220.4</ele>
      </trkpt>
      <trkpt lat="44.64034" lon="3.81821">
        <ele>1220.4</ele>
      </trkpt>
      <trkpt lat="44.64052" lon="3.81873">
        <ele>1217.4</ele>
      </trkpt>
      <trkpt lat="44.64052" lon="3.81881">
        <ele>1217.2</ele>
        <extensions>
          <visugpx:TrkExtension xmlns:visugpx="https://www.visugpx.com/editgpx/">
            <visugpx:node>5</visugpx:node>
            </visugpx:TrkExtension>
        </extensions>
      </trkpt>
      <trkpt lat="44.6405" lon="3.81888">
        <ele>1216.9</ele>
      </trkpt>
      <trkpt lat="44.64045" lon="3.81892">
        <ele>1216.5</ele>
      </trkpt>
      <trkpt lat="44.64039" lon="3.81893">
        <ele>1216</ele>
      </trkpt>
      <trkpt lat="44.64011" lon="3.81883">
        <ele>1214.7</ele>
      </trkpt>
      <trkpt lat="44.63981" lon="3.81879">
        <ele>1208.9</ele>
      </trkpt>
      <trkpt lat="44.63949" lon="3.81881">
        <ele>1207.4</ele>
      </trkpt>
      <trkpt lat="44.63941" lon="3.81877">
        <ele>1207.3</ele>
      </trkpt>
      <trkpt lat="44.63935" lon="3.8187">
        <ele>1207.8</ele>
      </trkpt>
      <trkpt lat="44.63926" lon="3.81851">
        <ele>1209.6</ele>
      </trkpt>
      <trkpt lat="44.63921" lon="3.81846">
        <ele>1210.2</ele>
      </trkpt>
      <trkpt lat="44.63913" lon="3.81844">
        <ele>1211.3</ele>
      </trkpt>
      <trkpt lat="44.63907" lon="3.81845">
        <ele>1211.3</ele>
      </trkpt>
      <trkpt lat="44.63902" lon="3.81848">
        <ele>1211.2</ele>
      </trkpt>
      <trkpt lat="44.63898" lon="3.81861">
        <ele>1210.4</ele>
      </trkpt>
      <trkpt lat="44.63893" lon="3.81879">
        <ele>1208.8</ele>
      </trkpt>
      <trkpt lat="44.6388" lon="3.819">
        <ele>1207.8</ele>
      </trkpt>
      <trkpt lat="44.63855" lon="3.81947">
        <ele>1196.8</ele>
      </trkpt>
      <trkpt lat="44.6385" lon="3.81954">
        <ele>1196</ele>
        <extensions>
          <visugpx:TrkExtension xmlns:visugpx="https://www.visugpx.com/editgpx/">
            <visugpx:node>6</visugpx:node>
            </visugpx:TrkExtension>
        </extensions>
      </trkpt>
      <trkpt lat="44.63841" lon="3.81965">
        <ele>1194.7</ele>
      </trkpt>
      <trkpt lat="44.63825" lon="3.82">
        <ele>1193.9</ele>
      </trkpt>
      <trkpt lat="44.63777" lon="3.82088">
        <ele>1180.7</ele>
      </trkpt>
      <trkpt lat="44.63761" lon="3.82137">
        <ele>1176.8</ele>
      </trkpt>
      <trkpt lat="44.63755" lon="3.82164">
        <ele>1175.9</ele>
      </trkpt>
      <trkpt lat="44.63747" lon="3.82185">
        <ele>1172.8</ele>
      </trkpt>
      <trkpt lat="44.6374" lon="3.82195">
        <ele>1171.4</ele>
      </trkpt>
      <trkpt lat="44.63729" lon="3.82203">
        <ele>1170.5</ele>
      </trkpt>
      <trkpt lat="44.63725" lon="3.8221">
        <ele>1169.7</ele>
      </trkpt>
      <trkpt lat="44.63724" lon="3.82219">
        <ele>1168.7</ele>
      </trkpt>
      <trkpt lat="44.63727" lon="3.82225">
        <ele>1167.7</ele>
      </trkpt>
      <trkpt lat="44.6377" lon="3.82241">
        <ele>1160.4</ele>
        <extensions>
          <visugpx:TrkExtension xmlns:visugpx="https://www.visugpx.com/editgpx/">
            <visugpx:node>7</visugpx:node>
            </visugpx:TrkExtension>
        </extensions>
      </trkpt>
      <trkpt lat="44.63779" lon="3.82244">
        <ele>1160.1</ele>
      </trkpt>
      <trkpt lat="44.63791" lon="3.82246">
        <ele>1159.3</ele>
      </trkpt>
      <trkpt lat="44.63803" lon="3.82244">
        <ele>1158.3</ele>
      </trkpt>
      <trkpt lat="44.63811" lon="3.82238">
        <ele>1157.6</ele>
      </trkpt>
      <trkpt lat="44.63814" lon="3.82231">
        <ele>1158</ele>
      </trkpt>
      <trkpt lat="44.63819" lon="3.82182">
        <ele>1161.6</ele>
      </trkpt>
      <trkpt lat="44.6383" lon="3.82146">
        <ele>1168.7</ele>
      </trkpt>
      <trkpt lat="44.63839" lon="3.82129">
        <ele>1167.6</ele>
      </trkpt>
      <trkpt lat="44.63848" lon="3.82123">
        <ele>1168.3</ele>
      </trkpt>
      <trkpt lat="44.63856" lon="3.82121">
        <ele>1168.5</ele>
      </trkpt>
      <trkpt lat="44.63867" lon="3.82125">
        <ele>1168.5</ele>
      </trkpt>
      <trkpt lat="44.63876" lon="3.82132">
        <ele>1168.4</ele>
      </trkpt>
      <trkpt lat="44.63883" lon="3.82146">
        <ele>1168.1</ele>
      </trkpt>
      <trkpt lat="44.63892" lon="3.82168">
        <ele>1162.4</ele>
      </trkpt>
      <trkpt lat="44.63902" lon="3.82187">
        <ele>1162</ele>
      </trkpt>
      <trkpt lat="44.63953" lon="3.82254">
        <ele>1162.2</ele>
      </trkpt>
      <trkpt lat="44.63969" lon="3.82289">
        <ele>1162.9</ele>
      </trkpt>
      <trkpt lat="44.63972" lon="3.82304">
        <ele>1162.3</ele>
      </trkpt>
      <trkpt lat="44.63974" lon="3.82365">
        <ele>1153.2</ele>
      </trkpt>
      <trkpt lat="44.63992" lon="3.82477">
        <ele>1144.6</ele>
      </trkpt>
      <trkpt lat="44.64" lon="3.82511">
        <ele>1150.4</ele>
      </trkpt>
      <trkpt lat="44.64015" lon="3.8255">
        <ele>1151.3</ele>
      </trkpt>
      <trkpt lat="44.6402" lon="3.82564">
        <ele>1150.1</ele>
      </trkpt>
      <trkpt lat="44.64022" lon="3.82577">
        <ele>1149</ele>
      </trkpt>
      <trkpt lat="44.64022" lon="3.82596">
        <ele>1145</ele>
      </trkpt>
      <trkpt lat="44.64017" lon="3.82647">
        <ele>1141.8</ele>
      </trkpt>
      <trkpt lat="44.64017" lon="3.82696">
        <ele>1137</ele>
      </trkpt>
      <trkpt lat="44.64021" lon="3.82721">
        <ele>1136</ele>
      </trkpt>
      <trkpt lat="44.64032" lon="3.82762">
        <ele>1129.1</ele>
      </trkpt>
      <trkpt lat="44.64041" lon="3.82817">
        <ele>1126.9</ele>
        <extensions>
          <visugpx:TrkExtension xmlns:visugpx="https://www.visugpx.com/editgpx/">
            <visugpx:node>8</visugpx:node>
            </visugpx:TrkExtension>
        </extensions>
      </trkpt>
      <trkpt lat="44.64044" lon="3.82837">
        <ele>1117.5</ele>
      </trkpt>
      <trkpt lat="44.64049" lon="3.82851">
        <ele>1117.6</ele>
      </trkpt>
      <trkpt lat="44.64054" lon="3.8286">
        <ele>1117.5</ele>
      </trkpt>
      <trkpt lat="44.64074" lon="3.8288">
        <ele>1116.9</ele>
      </trkpt>
      <trkpt lat="44.64091" lon="3.82888">
        <ele>1124.2</ele>
      </trkpt>
      <trkpt lat="44.64124" lon="3.82892">
        <ele>1125.4</ele>
      </trkpt>
      <trkpt lat="44.64203" lon="3.82906">
        <ele>1123.8</ele>
      </trkpt>
      <trkpt lat="44.64229" lon="3.82909">
        <ele>1121.5</ele>
      </trkpt>
      <trkpt lat="44.64267" lon="3.82918">
        <ele>1108.3</ele>
      </trkpt>
      <trkpt lat="44.64278" lon="3.82918">
        <ele>1105.9</ele>
      </trkpt>
      <trkpt lat="44.64299" lon="3.82909">
        <ele>1111.1</ele>
      </trkpt>
      <trkpt lat="44.64313" lon="3.82898">
        <ele>1109.7</ele>
      </trkpt>
      <trkpt lat="44.64333" lon="3.8287">
        <ele>1111.1</ele>
      </trkpt>
      <trkpt lat="44.64354" lon="3.82843">
        <ele>1106.4</ele>
      </trkpt>
      <trkpt lat="44.64349" lon="3.8288">
        <ele>1104.5</ele>
      </trkpt>
      <trkpt lat="44.64338" lon="3.82926">
        <ele>1100.3</ele>
        <extensions>
          <visugpx:TrkExtension xmlns:visugpx="https://www.visugpx.com/editgpx/">
            <visugpx:node>9</visugpx:node>
            </visugpx:TrkExtension>
        </extensions>
      </trkpt>
      <trkpt lat="44.64336" lon="3.82934">
        <ele>1099.9</ele>
      </trkpt>
      <trkpt lat="44.64318" lon="3.82987">
        <ele>1097.5</ele>
      </trkpt>
      <trkpt lat="44.64311" lon="3.82999">
        <ele>1097.5</ele>
      </trkpt>
      <trkpt lat="44.643" lon="3.83009">
        <ele>1091</ele>
      </trkpt>
      <trkpt lat="44.64278" lon="3.83016">
        <ele>1091.4</ele>
      </trkpt>
      <trkpt lat="44.6427" lon="3.83022">
        <ele>1091.4</ele>
      </trkpt>
      <trkpt lat="44.64262" lon="3.8303">
        <ele>1090.8</ele>
      </trkpt>
      <trkpt lat="44.64257" lon="3.83043">
        <ele>1089.4</ele>
      </trkpt>
      <trkpt lat="44.64254" lon="3.83058">
        <ele>1087.5</ele>
      </trkpt>
      <trkpt lat="44.64253" lon="3.8308">
        <ele>1084.1</ele>
      </trkpt>
      <trkpt lat="44.64259" lon="3.83113">
        <ele>1082.6</ele>
      </trkpt>
      <trkpt lat="44.64267" lon="3.8315">
        <ele>1082.3</ele>
      </trkpt>
      <trkpt lat="44.64266" lon="3.83158">
        <ele>1082.2</ele>
      </trkpt>
      <trkpt lat="44.64263" lon="3.83175">
        <ele>1082.8</ele>
      </trkpt>
      <trkpt lat="44.64259" lon="3.8319">
        <ele>1083.2</ele>
      </trkpt>
      <trkpt lat="44.64245" lon="3.83224">
        <ele>1086.7</ele>
      </trkpt>
      <trkpt lat="44.64244" lon="3.83235">
        <ele>1086.7</ele>
      </trkpt>
      <trkpt lat="44.64246" lon="3.83246">
        <ele>1086.4</ele>
      </trkpt>
      <trkpt lat="44.64253" lon="3.83258">
        <ele>1088</ele>
      </trkpt>
      <trkpt lat="44.64261" lon="3.83268">
        <ele>1090.1</ele>
      </trkpt>
      <trkpt lat="44.64277" lon="3.83281">
        <ele>1092</ele>
      </trkpt>
      <trkpt lat="44.64283" lon="3.83285">
        <ele>1092.5</ele>
      </trkpt>
      <trkpt lat="44.64288" lon="3.83296">
        <ele>1093.5</ele>
      </trkpt>
      <trkpt lat="44.64298" lon="3.83317">
        <ele>1095.6</ele>
      </trkpt>
      <trkpt lat="44.64303" lon="3.83323">
        <ele>1096.4</ele>
      </trkpt>
      <trkpt lat="44.64309" lon="3.83325">
        <ele>1097.2</ele>
        <extensions>
          <visugpx:TrkExtension xmlns:visugpx="https://www.visugpx.com/editgpx/">
            <visugpx:node>10</visugpx:node>
            </visugpx:TrkExtension>
        </extensions>
      </trkpt>
      <trkpt lat="44.6432" lon="3.83329">
        <ele>1099.4</ele>
      </trkpt>
      <trkpt lat="44.64336" lon="3.83349">
        <ele>1110.1</ele>
      </trkpt>
      <trkpt lat="44.64345" lon="3.83355">
        <ele>1112.3</ele>
      </trkpt>
      <trkpt lat="44.64351" lon="3.83354">
        <ele>1112.7</ele>
      </trkpt>
      <trkpt lat="44.6437" lon="3.83368">
        <ele>1116</ele>
      </trkpt>
      <trkpt lat="44.64382" lon="3.83371">
        <ele>1116.9</ele>
      </trkpt>
      <trkpt lat="44.64404" lon="3.83388">
        <ele>1120.5</ele>
      </trkpt>
      <trkpt lat="44.64444" lon="3.83406">
        <ele>1127</ele>
      </trkpt>
      <trkpt lat="44.64454" lon="3.83413">
        <ele>1127.5</ele>
      </trkpt>
      <trkpt lat="44.6447" lon="3.8342">
        <ele>1140</ele>
      </trkpt>
      <trkpt lat="44.64477" lon="3.83421">
        <ele>1140</ele>
      </trkpt>
      <trkpt lat="44.64486" lon="3.83419">
        <ele>1139.3</ele>
      </trkpt>
      <trkpt lat="44.64497" lon="3.83413">
        <ele>1134.7</ele>
      </trkpt>
      <trkpt lat="44.64512" lon="3.83409">
        <ele>1135.1</ele>
      </trkpt>
      <trkpt lat="44.64551" lon="3.8341">
        <ele>1136.9</ele>
      </trkpt>
      <trkpt lat="44.64563" lon="3.83407">
        <ele>1138.8</ele>
      </trkpt>
      <trkpt lat="44.64581" lon="3.83399">
        <ele>1139.9</ele>
      </trkpt>
      <trkpt lat="44.64602" lon="3.83387">
        <ele>1145.6</ele>
      </trkpt>
      <trkpt lat="44.64656" lon="3.83368">
        <ele>1147.5</ele>
      </trkpt>
      <trkpt lat="44.64665" lon="3.83363">
        <ele>1147</ele>
        <extensions>
          <visugpx:TrkExtension xmlns:visugpx="https://www.visugpx.com/editgpx/">
            <visugpx:node>11</visugpx:node>
            </visugpx:TrkExtension>
        </extensions>
      </trkpt>
      <trkpt lat="44.64702" lon="3.83343">
        <ele>1156.5</ele>
      </trkpt>
      <trkpt lat="44.64762" lon="3.8333">
        <ele>1155.9</ele>
      </trkpt>
      <trkpt lat="44.64828" lon="3.83296">
        <ele>1156.9</ele>
      </trkpt>
      <trkpt lat="44.64848" lon="3.8329">
        <ele>1161.4</ele>
      </trkpt>
      <trkpt lat="44.64871" lon="3.8329">
        <ele>1161.8</ele>
      </trkpt>
      <trkpt lat="44.64887" lon="3.83298">
        <ele>1162.6</ele>
      </trkpt>
      <trkpt lat="44.64905" lon="3.83312">
        <ele>1163.9</ele>
      </trkpt>
      <trkpt lat="44.64916" lon="3.83326">
        <ele>1165.8</ele>
      </trkpt>
      <trkpt lat="44.64946" lon="3.83381">
        <ele>1163.6</ele>
      </trkpt>
      <trkpt lat="44.64976" lon="3.8345">
        <ele>1165.9</ele>
      </trkpt>
      <trkpt lat="44.64993" lon="3.83495">
        <ele>1165</ele>
        <extensions>
          <visugpx:TrkExtension xmlns:visugpx="https://www.visugpx.com/editgpx/">
            <visugpx:node>12</visugpx:node>
            </visugpx:TrkExtension>
        </extensions>
      </trkpt>
      <trkpt lat="44.65" lon="3.83513">
        <ele>1167.7</ele>
      </trkpt>
      <trkpt lat="44.6501" lon="3.83529">
        <ele>1166.3</ele>
      </trkpt>
      <trkpt lat="44.65033" lon="3.83546">
        <ele>1167.1</ele>
      </trkpt>
      <trkpt lat="44.65066" lon="3.83563">
        <ele>1168.1</ele>
      </trkpt>
      <trkpt lat="44.6509" lon="3.83582">
        <ele>1169</ele>
      </trkpt>
      <trkpt lat="44.65139" lon="3.83635">
        <ele>1174.8</ele>
      </trkpt>
      <trkpt lat="44.65145" lon="3.83641">
        <ele>1175</ele>
      </trkpt>
      <trkpt lat="44.65155" lon="3.83656">
        <ele>1175.5</ele>
      </trkpt>
      <trkpt lat="44.65157" lon="3.83659">
        <ele>1175.6</ele>
        <extensions>
          <visugpx:TrkExtension xmlns:visugpx="https://www.visugpx.com/editgpx/">
            <visugpx:node>13</visugpx:node>
            </visugpx:TrkExtension>
        </extensions>
      </trkpt>
      <trkpt lat="44.65155" lon="3.83656">
        <ele>1175.5</ele>
      </trkpt>
      <trkpt lat="44.65145" lon="3.83641">
        <ele>1175</ele>
      </trkpt>
      <trkpt lat="44.65129" lon="3.83641">
        <ele>1175.7</ele>
      </trkpt>
      <trkpt lat="44.65084" lon="3.8365">
        <ele>1181</ele>
      </trkpt>
      <trkpt lat="44.65055" lon="3.83661">
        <ele>1181.9</ele>
      </trkpt>
      <trkpt lat="44.65028" lon="3.83678">
        <ele>1188.4</ele>
      </trkpt>
      <trkpt lat="44.64995" lon="3.83702">
        <ele>1189.5</ele>
      </trkpt>
      <trkpt lat="44.64921" lon="3.8374">
        <ele>1193.3</ele>
      </trkpt>
      <trkpt lat="44.6487" lon="3.83776">
        <ele>1199.5</ele>
      </trkpt>
      <trkpt lat="44.64862" lon="3.83795">
        <ele>1200.1</ele>
      </trkpt>
      <trkpt lat="44.64838" lon="3.83856">
        <ele>1203.1</ele>
      </trkpt>
      <trkpt lat="44.64827" lon="3.83888">
        <ele>1204.1</ele>
      </trkpt>
      <trkpt lat="44.64821" lon="3.83912">
        <ele>1203.8</ele>
      </trkpt>
      <trkpt lat="44.64818" lon="3.83933">
        <ele>1204</ele>
      </trkpt>
      <trkpt lat="44.64817" lon="3.83968">
        <ele>1204</ele>
      </trkpt>
      <trkpt lat="44.64805" lon="3.84033">
        <ele>1203</ele>
      </trkpt>
      <trkpt lat="44.64801" lon="3.84113">
        <ele>1200.3</ele>
        <extensions>
          <visugpx:TrkExtension xmlns:visugpx="https://www.visugpx.com/editgpx/">
            <visugpx:node>14</visugpx:node>
            </visugpx:TrkExtension>
        </extensions>
      </trkpt>
      <trkpt lat="44.64789" lon="3.84178">
        <ele>1197.4</ele>
      </trkpt>
      <trkpt lat="44.64788" lon="3.84196">
        <ele>1197.1</ele>
      </trkpt>
      <trkpt lat="44.64788" lon="3.84227">
        <ele>1196.5</ele>
      </trkpt>
      <trkpt lat="44.64778" lon="3.84298">
        <ele>1192.5</ele>
      </trkpt>
      <trkpt lat="44.64775" lon="3.84338">
        <ele>1188.6</ele>
      </trkpt>
      <trkpt lat="44.64776" lon="3.84367">
        <ele>1187</ele>
      </trkpt>
      <trkpt lat="44.64773" lon="3.84384">
        <ele>1186.3</ele>
      </trkpt>
      <trkpt lat="44.64762" lon="3.84419">
        <ele>1183.5</ele>
      </trkpt>
      <trkpt lat="44.64738" lon="3.84475">
        <ele>1184.7</ele>
      </trkpt>
      <trkpt lat="44.64727" lon="3.84507">
        <ele>1184</ele>
      </trkpt>
      <trkpt lat="44.64714" lon="3.8454">
        <ele>1186.3</ele>
      </trkpt>
      <trkpt lat="44.64705" lon="3.84577">
        <ele>1187.7</ele>
      </trkpt>
      <trkpt lat="44.64688" lon="3.84621">
        <ele>1191.1</ele>
      </trkpt>
      <trkpt lat="44.64687" lon="3.84657">
        <ele>1192.9</ele>
      </trkpt>
      <trkpt lat="44.64684" lon="3.84686">
        <ele>1193</ele>
      </trkpt>
      <trkpt lat="44.64659" lon="3.84884">
        <ele>1197.5</ele>
      </trkpt>
      <trkpt lat="44.64652" lon="3.84929">
        <ele>1194.8</ele>
      </trkpt>
      <trkpt lat="44.6464" lon="3.84981">
        <ele>1196.3</ele>
      </trkpt>
      <trkpt lat="44.64636" lon="3.85028">
        <ele>1196.3</ele>
      </trkpt>
      <trkpt lat="44.6462" lon="3.85167">
        <ele>1194.8</ele>
      </trkpt>
      <trkpt lat="44.64616" lon="3.85235">
        <ele>1194</ele>
      </trkpt>
      <trkpt lat="44.64614" lon="3.8531">
        <ele>1194.2</ele>
        <extensions>
          <visugpx:TrkExtension xmlns:visugpx="https://www.visugpx.com/editgpx/">
            <visugpx:node>15</visugpx:node>
            </visugpx:TrkExtension>
        </extensions>
      </trkpt>
      <trkpt lat="44.64613" lon="3.85335">
        <ele>1195.1</ele>
      </trkpt>
      <trkpt lat="44.64609" lon="3.85355">
        <ele>1195.1</ele>
      </trkpt>
      <trkpt lat="44.64609" lon="3.85369">
        <ele>1195.3</ele>
      </trkpt>
      <trkpt lat="44.64604" lon="3.85375">
        <ele>1195.3</ele>
      </trkpt>
      <trkpt lat="44.64591" lon="3.85413">
        <ele>1195.2</ele>
      </trkpt>
      <trkpt lat="44.64553" lon="3.85496">
        <ele>1199.2</ele>
      </trkpt>
      <trkpt lat="44.64541" lon="3.85516">
        <ele>1199.8</ele>
      </trkpt>
      <trkpt lat="44.64523" lon="3.85538">
        <ele>1200.8</ele>
      </trkpt>
      <trkpt lat="44.64506" lon="3.85553">
        <ele>1201.2</ele>
      </trkpt>
      <trkpt lat="44.64459" lon="3.85577">
        <ele>1209.6</ele>
      </trkpt>
      <trkpt lat="44.64373" lon="3.85632">
        <ele>1210.7</ele>
      </trkpt>
      <trkpt lat="44.64348" lon="3.85643">
        <ele>1211.1</ele>
      </trkpt>
      <trkpt lat="44.64336" lon="3.85652">
        <ele>1211.1</ele>
      </trkpt>
      <trkpt lat="44.64324" lon="3.85665">
        <ele>1212</ele>
      </trkpt>
      <trkpt lat="44.64298" lon="3.85672">
        <ele>1210.7</ele>
      </trkpt>
      <trkpt lat="44.64268" lon="3.85676">
        <ele>1211</ele>
        <extensions>
          <visugpx:TrkExtension xmlns:visugpx="https://www.visugpx.com/editgpx/">
            <visugpx:node>16</visugpx:node>
            </visugpx:TrkExtension>
        </extensions>
      </trkpt>
      <trkpt lat="44.64259" lon="3.85677">
        <ele>1211.2</ele>
      </trkpt>
      <trkpt lat="44.64244" lon="3.8567">
        <ele>1212</ele>
      </trkpt>
      <trkpt lat="44.64232" lon="3.85672">
        <ele>1212.2</ele>
      </trkpt>
      <trkpt lat="44.64227" lon="3.85675">
        <ele>1212.2</ele>
      </trkpt>
      <trkpt lat="44.64224" lon="3.85679">
        <ele>1212.2</ele>
      </trkpt>
      <trkpt lat="44.64222" lon="3.85685">
        <ele>1212.2</ele>
      </trkpt>
      <trkpt lat="44.64224" lon="3.85691">
        <ele>1212.1</ele>
      </trkpt>
      <trkpt lat="44.64229" lon="3.85713">
        <ele>1211.5</ele>
      </trkpt>
      <trkpt lat="44.64236" lon="3.85728">
        <ele>1210.9</ele>
      </trkpt>
      <trkpt lat="44.64244" lon="3.85763">
        <ele>1209.8</ele>
      </trkpt>
      <trkpt lat="44.64252" lon="3.85778">
        <ele>1210</ele>
      </trkpt>
      <trkpt lat="44.64259" lon="3.85805">
        <ele>1210.6</ele>
      </trkpt>
      <trkpt lat="44.64268" lon="3.85845">
        <ele>1213.2</ele>
      </trkpt>
      <trkpt lat="44.64274" lon="3.85858">
        <ele>1214</ele>
      </trkpt>
      <trkpt lat="44.6432" lon="3.85971">
        <ele>1221.4</ele>
        <extensions>
          <visugpx:TrkExtension xmlns:visugpx="https://www.visugpx.com/editgpx/">
            <visugpx:node>17</visugpx:node>
            </visugpx:TrkExtension>
        </extensions>
      </trkpt>
      <trkpt lat="44.64455" lon="3.85963">
        <ele>1224.8</ele>
      </trkpt>
      <trkpt lat="44.64489" lon="3.85981">
        <ele>1226.6</ele>
      </trkpt>
      <trkpt lat="44.64513" lon="3.86001">
        <ele>1231</ele>
      </trkpt>
      <trkpt lat="44.64551" lon="3.86047">
        <ele>1232.7</ele>
      </trkpt>
      <trkpt lat="44.64572" lon="3.86074">
        <ele>1233</ele>
      </trkpt>
      <trkpt lat="44.64586" lon="3.86081">
        <ele>1232.7</ele>
      </trkpt>
      <trkpt lat="44.64615" lon="3.8609">
        <ele>1235</ele>
      </trkpt>
      <trkpt lat="44.64674" lon="3.86115">
        <ele>1234.5</ele>
        <extensions>
          <visugpx:TrkExtension xmlns:visugpx="https://www.visugpx.com/editgpx/">
            <visugpx:node>18</visugpx:node>
            </visugpx:TrkExtension>
        </extensions>
      </trkpt>
      <trkpt lat="44.64705" lon="3.86128">
        <ele>1234.3</ele>
      </trkpt>
      <trkpt lat="44.64747" lon="3.8615">
        <ele>1233.6</ele>
      </trkpt>
      <trkpt lat="44.64767" lon="3.86158">
        <ele>1231.2</ele>
      </trkpt>
      <trkpt lat="44.64795" lon="3.86169">
        <ele>1229.6</ele>
      </trkpt>
      <trkpt lat="44.64814" lon="3.86179">
        <ele>1228.5</ele>
      </trkpt>
      <trkpt lat="44.64843" lon="3.86204">
        <ele>1225.6</ele>
      </trkpt>
      <trkpt lat="44.64885" lon="3.86251">
        <ele>1225.1</ele>
      </trkpt>
      <trkpt lat="44.64923" lon="3.86325">
        <ele>1225.8</ele>
      </trkpt>
      <trkpt lat="44.6494" lon="3.86365">
        <ele>1227.1</ele>
      </trkpt>
      <trkpt lat="44.64949" lon="3.86393">
        <ele>1227.3</ele>
      </trkpt>
      <trkpt lat="44.64952" lon="3.86417">
        <ele>1227.1</ele>
      </trkpt>
      <trkpt lat="44.64955" lon="3.86469">
        <ele>1227.4</ele>
        <extensions>
          <visugpx:TrkExtension xmlns:visugpx="https://www.visugpx.com/editgpx/">
            <visugpx:node>19</visugpx:node>
            </visugpx:TrkExtension>
        </extensions>
      </trkpt>
      <trkpt lat="44.6496" lon="3.86556">
        <ele>1228.2</ele>
      </trkpt>
      <trkpt lat="44.64962" lon="3.86635">
        <ele>1229.9</ele>
      </trkpt>
      <trkpt lat="44.6496" lon="3.86712">
        <ele>1232.2</ele>
      </trkpt>
      <trkpt lat="44.64958" lon="3.86734">
        <ele>1232.4</ele>
      </trkpt>
      <trkpt lat="44.64936" lon="3.86816">
        <ele>1233.4</ele>
      </trkpt>
      <trkpt lat="44.64933" lon="3.86838">
        <ele>1233.6</ele>
      </trkpt>
      <trkpt lat="44.64921" lon="3.8694">
        <ele>1234.9</ele>
      </trkpt>
      <trkpt lat="44.64921" lon="3.86943">
        <ele>1234.9</ele>
      </trkpt>
      <trkpt lat="44.6492" lon="3.86965">
        <ele>1234.8</ele>
      </trkpt>
      <trkpt lat="44.64918" lon="3.86993">
        <ele>1234.9</ele>
      </trkpt>
      <trkpt lat="44.64922" lon="3.87068">
        <ele>1233</ele>
      </trkpt>
      <trkpt lat="44.64923" lon="3.87156">
        <ele>1231.2</ele>
      </trkpt>
      <trkpt lat="44.64923" lon="3.87203">
        <ele>1228.7</ele>
      </trkpt>
      <trkpt lat="44.64921" lon="3.87228">
        <ele>1228.6</ele>
      </trkpt>
      <trkpt lat="44.64917" lon="3.87251">
        <ele>1229.8</ele>
      </trkpt>
      <trkpt lat="44.64901" lon="3.87292">
        <ele>1230.3</ele>
      </trkpt>
      <trkpt lat="44.64897" lon="3.87305">
        <ele>1230</ele>
      </trkpt>
      <trkpt lat="44.64898" lon="3.87321">
        <ele>1229.2</ele>
      </trkpt>
      <trkpt lat="44.6491" lon="3.8741">
        <ele>1225.5</ele>
        <extensions>
          <visugpx:TrkExtension xmlns:visugpx="https://www.visugpx.com/editgpx/">
            <visugpx:node>20</visugpx:node>
            </visugpx:TrkExtension>
        </extensions>
      </trkpt>
      <trkpt lat="44.64929" lon="3.87554">
        <ele>1219.2</ele>
      </trkpt>
      <trkpt lat="44.64934" lon="3.87571">
        <ele>1219.2</ele>
      </trkpt>
      <trkpt lat="44.64942" lon="3.87579">
        <ele>1218.8</ele>
      </trkpt>
      <trkpt lat="44.6495" lon="3.87579">
        <ele>1218.2</ele>
      </trkpt>
      <trkpt lat="44.64966" lon="3.87571">
        <ele>1217.2</ele>
      </trkpt>
      <trkpt lat="44.64981" lon="3.87562">
        <ele>1216.4</ele>
      </trkpt>
      <trkpt lat="44.64995" lon="3.87573">
        <ele>1214.8</ele>
      </trkpt>
      <trkpt lat="44.64998" lon="3.8758">
        <ele>1213.7</ele>
      </trkpt>
      <trkpt lat="44.65" lon="3.8759">
        <ele>1213.6</ele>
      </trkpt>
      <trkpt lat="44.65008" lon="3.87603">
        <ele>1211.1</ele>
      </trkpt>
      <trkpt lat="44.6501" lon="3.87613">
        <ele>1210.6</ele>
      </trkpt>
      <trkpt lat="44.65014" lon="3.87622">
        <ele>1210.2</ele>
      </trkpt>
      <trkpt lat="44.65025" lon="3.87635">
        <ele>1209.6</ele>
        <extensions>
          <visugpx:TrkExtension xmlns:visugpx="https://www.visugpx.com/editgpx/">
            <visugpx:node>21</visugpx:node>
            </visugpx:TrkExtension>
        </extensions>
      </trkpt>
      <trkpt lat="44.65034" lon="3.87645">
        <ele>1209.2</ele>
      </trkpt>
      <trkpt lat="44.65049" lon="3.87656">
        <ele>1208.3</ele>
      </trkpt>
      <trkpt lat="44.65057" lon="3.87665">
        <ele>1207.6</ele>
      </trkpt>
      <trkpt lat="44.65073" lon="3.87686">
        <ele>1203.5</ele>
      </trkpt>
      <trkpt lat="44.65086" lon="3.87704">
        <ele>1197.7</ele>
      </trkpt>
      <trkpt lat="44.65106" lon="3.87739">
        <ele>1195.1</ele>
      </trkpt>
      <trkpt lat="44.65114" lon="3.87762">
        <ele>1187.3</ele>
      </trkpt>
      <trkpt lat="44.65119" lon="3.87768">
        <ele>1186.5</ele>
      </trkpt>
      <trkpt lat="44.65123" lon="3.8777">
        <ele>1186</ele>
      </trkpt>
      <trkpt lat="44.65153" lon="3.87768">
        <ele>1184.5</ele>
      </trkpt>
      <trkpt lat="44.65172" lon="3.87761">
        <ele>1178.4</ele>
      </trkpt>
      <trkpt lat="44.65175" lon="3.87759">
        <ele>1178.4</ele>
        <extensions>
          <visugpx:TrkExtension xmlns:visugpx="https://www.visugpx.com/editgpx/">
            <visugpx:node>22</visugpx:node>
            </visugpx:TrkExtension>
        </extensions>
      </trkpt>
      <trkpt lat="44.65196" lon="3.87744">
        <ele>1182.1</ele>
      </trkpt>
      <trkpt lat="44.65215" lon="3.87716">
        <ele>1181.5</ele>
      </trkpt>
      <trkpt lat="44.65218" lon="3.87715">
        <ele>1181.2</ele>
      </trkpt>
      <trkpt lat="44.6522" lon="3.87717">
        <ele>1180.7</ele>
      </trkpt>
      <trkpt lat="44.6522" lon="3.87722">
        <ele>1180.1</ele>
      </trkpt>
      <trkpt lat="44.65196" lon="3.87844">
        <ele>1157.8</ele>
      </trkpt>
      <trkpt lat="44.65194" lon="3.87862">
        <ele>1156</ele>
      </trkpt>
      <trkpt lat="44.65175" lon="3.87899">
        <ele>1154.6</ele>
      </trkpt>
      <trkpt lat="44.65153" lon="3.87923">
        <ele>1155.4</ele>
      </trkpt>
      <trkpt lat="44.6513" lon="3.87958">
        <ele>1153.7</ele>
      </trkpt>
      <trkpt lat="44.65112" lon="3.87994">
        <ele>1152.7</ele>
      </trkpt>
      <trkpt lat="44.65107" lon="3.8801">
        <ele>1142.7</ele>
      </trkpt>
      <trkpt lat="44.651" lon="3.88024">
        <ele>1142</ele>
      </trkpt>
      <trkpt lat="44.65094" lon="3.88072">
        <ele>1138.6</ele>
      </trkpt>
      <trkpt lat="44.65093" lon="3.88098">
        <ele>1132.3</ele>
      </trkpt>
      <trkpt lat="44.65097" lon="3.88112">
        <ele>1128.8</ele>
      </trkpt>
      <trkpt lat="44.65097" lon="3.88123">
        <ele>1127.6</ele>
      </trkpt>
      <trkpt lat="44.65095" lon="3.88135">
        <ele>1127.4</ele>
      </trkpt>
      <trkpt lat="44.65097" lon="3.88156">
        <ele>1128.4</ele>
      </trkpt>
      <trkpt lat="44.65114" lon="3.88259">
        <ele>1115.1</ele>
      </trkpt>
      <trkpt lat="44.65116" lon="3.88266">
        <ele>1114.1</ele>
      </trkpt>
      <trkpt lat="44.65118" lon="3.88271">
        <ele>1113.3</ele>
      </trkpt>
      <trkpt lat="44.6512" lon="3.88287">
        <ele>1112.1</ele>
      </trkpt>
      <trkpt lat="44.65118" lon="3.8831">
        <ele>1112.1</ele>
      </trkpt>
      <trkpt lat="44.65118" lon="3.8834">
        <ele>1107</ele>
      </trkpt>
      <trkpt lat="44.65113" lon="3.88377">
        <ele>1105</ele>
      </trkpt>
      <trkpt lat="44.65112" lon="3.88414">
        <ele>1104</ele>
      </trkpt>
      <trkpt lat="44.65109" lon="3.88427">
        <ele>1098.4</ele>
        <extensions>
          <visugpx:TrkExtension xmlns:visugpx="https://www.visugpx.com/editgpx/">
            <visugpx:node>23</visugpx:node>
            </visugpx:TrkExtension>
        </extensions>
      </trkpt>
      <trkpt lat="44.65101" lon="3.88468">
        <ele>1095.6</ele>
      </trkpt>
      <trkpt lat="44.651" lon="3.88484">
        <ele>1095.5</ele>
      </trkpt>
      <trkpt lat="44.65087" lon="3.88558">
        <ele>1087.1</ele>
      </trkpt>
      <trkpt lat="44.65076" lon="3.88592">
        <ele>1090</ele>
      </trkpt>
      <trkpt lat="44.65069" lon="3.88608">
        <ele>1089.5</ele>
      </trkpt>
      <trkpt lat="44.65066" lon="3.88624">
        <ele>1088.2</ele>
      </trkpt>
      <trkpt lat="44.65062" lon="3.88634">
        <ele>1087.3</ele>
      </trkpt>
      <trkpt lat="44.65058" lon="3.88641">
        <ele>1086.8</ele>
      </trkpt>
      <trkpt lat="44.65047" lon="3.88667">
        <ele>1076.5</ele>
      </trkpt>
      <trkpt lat="44.6503" lon="3.88679">
        <ele>1077.4</ele>
      </trkpt>
      <trkpt lat="44.65022" lon="3.88692">
        <ele>1076.8</ele>
      </trkpt>
      <trkpt lat="44.65021" lon="3.88698">
        <ele>1076.1</ele>
      </trkpt>
      <trkpt lat="44.65022" lon="3.88706">
        <ele>1075.1</ele>
      </trkpt>
      <trkpt lat="44.65058" lon="3.88732">
        <ele>1071</ele>
        <extensions>
          <visugpx:TrkExtension xmlns:visugpx="https://www.visugpx.com/editgpx/">
            <visugpx:node>24</visugpx:node>
            </visugpx:TrkExtension>
        </extensions>
      </trkpt>
      <trkpt lat="44.65079" lon="3.88748">
        <ele>1065.7</ele>
      </trkpt>
      <trkpt lat="44.65094" lon="3.88763">
        <ele>1059</ele>
      </trkpt>
      <trkpt lat="44.65099" lon="3.8877">
        <ele>1057.5</ele>
      </trkpt>
      <trkpt lat="44.65108" lon="3.88776">
        <ele>1056.1</ele>
      </trkpt>
      <trkpt lat="44.65131" lon="3.88787">
        <ele>1054.3</ele>
      </trkpt>
      <trkpt lat="44.6516" lon="3.88805">
        <ele>1052.7</ele>
      </trkpt>
      <trkpt lat="44.65166" lon="3.88809">
        <ele>1052.4</ele>
      </trkpt>
      <trkpt lat="44.65171" lon="3.88827">
        <ele>1049</ele>
      </trkpt>
      <trkpt lat="44.65179" lon="3.88874">
        <ele>1046.6</ele>
      </trkpt>
      <trkpt lat="44.65179" lon="3.88888">
        <ele>1046.3</ele>
      </trkpt>
      <trkpt lat="44.65177" lon="3.88901">
        <ele>1046.2</ele>
      </trkpt>
      <trkpt lat="44.65173" lon="3.88916">
        <ele>1046</ele>
      </trkpt>
      <trkpt lat="44.65164" lon="3.88929">
        <ele>1040.4</ele>
      </trkpt>
      <trkpt lat="44.65162" lon="3.88934">
        <ele>1038.7</ele>
      </trkpt>
      <trkpt lat="44.65162" lon="3.88942">
        <ele>1036.8</ele>
      </trkpt>
      <trkpt lat="44.65166" lon="3.88958">
        <ele>1033.8</ele>
      </trkpt>
      <trkpt lat="44.65165" lon="3.88961">
        <ele>1033.2</ele>
        <extensions>
          <visugpx:TrkExtension xmlns:visugpx="https://www.visugpx.com/editgpx/">
            <visugpx:node>25</visugpx:node>
            </visugpx:TrkExtension>
        </extensions>
      </trkpt>
      <trkpt lat="44.65164" lon="3.88965">
        <ele>1032.6</ele>
      </trkpt>
      <trkpt lat="44.6516" lon="3.88968">
        <ele>1032.1</ele>
      </trkpt>
      <trkpt lat="44.65149" lon="3.88966">
        <ele>1032.1</ele>
      </trkpt>
      <trkpt lat="44.65146" lon="3.88969">
        <ele>1031.7</ele>
      </trkpt>
      <trkpt lat="44.65136" lon="3.88971">
        <ele>1031.2</ele>
      </trkpt>
      <trkpt lat="44.65099" lon="3.88974">
        <ele>1028.4</ele>
      </trkpt>
      <trkpt lat="44.65083" lon="3.88972">
        <ele>1023.8</ele>
      </trkpt>
      <trkpt lat="44.65061" lon="3.88963">
        <ele>1024.8</ele>
      </trkpt>
      <trkpt lat="44.65056" lon="3.88966">
        <ele>1024.4</ele>
      </trkpt>
      <trkpt lat="44.65048" lon="3.88974">
        <ele>1023.4</ele>
      </trkpt>
      <trkpt lat="44.65031" lon="3.88994">
        <ele>1021.1</ele>
      </trkpt>
      <trkpt lat="44.65014" lon="3.89004">
        <ele>1012.6</ele>
      </trkpt>
      <trkpt lat="44.65012" lon="3.89007">
        <ele>1012.6</ele>
      </trkpt>
      <trkpt lat="44.64998" lon="3.89006">
        <ele>1012.2</ele>
      </trkpt>
      <trkpt lat="44.64987" lon="3.89007">
        <ele>1010.4</ele>
      </trkpt>
      <trkpt lat="44.64979" lon="3.89008">
        <ele>1009.3</ele>
      </trkpt>
      <trkpt lat="44.64964" lon="3.89012">
        <ele>1007.8</ele>
      </trkpt>
      <trkpt lat="44.64935" lon="3.8902">
        <ele>1006.3</ele>
        <extensions>
          <visugpx:TrkExtension xmlns:visugpx="https://www.visugpx.com/editgpx/">
            <visugpx:node>26</visugpx:node>
            </visugpx:TrkExtension>
        </extensions>
      </trkpt>
      <trkpt lat="44.64932" lon="3.89021">
        <ele>1006.3</ele>
      </trkpt>
      <trkpt lat="44.64927" lon="3.89024">
        <ele>1006.1</ele>
      </trkpt>
      <trkpt lat="44.64926" lon="3.89033">
        <ele>1005.6</ele>
      </trkpt>
      <trkpt lat="44.64877" lon="3.89025">
        <ele>1005.3</ele>
      </trkpt>
      <trkpt lat="44.64849" lon="3.89058">
        <ele>1003.7</ele>
      </trkpt>
      <trkpt lat="44.64788" lon="3.89114">
        <ele>1003</ele>
      </trkpt>
      <trkpt lat="44.6465" lon="3.89171">
        <ele>1006</ele>
      </trkpt>
      <trkpt lat="44.64551" lon="3.89312">
        <ele>1002</ele>
      </trkpt>
      <trkpt lat="44.64447" lon="3.89393">
        <ele>992.8</ele>
      </trkpt>
      <trkpt lat="44.64338" lon="3.8944">
        <ele>982.4</ele>
      </trkpt>
      <trkpt lat="44.64273" lon="3.89413">
        <ele>987</ele>
      </trkpt>
      <trkpt lat="44.64199" lon="3.89359">
        <ele>982.1</ele>
      </trkpt>
      <trkpt lat="44.64088" lon="3.89253">
        <ele>980.7</ele>
      </trkpt>
      <trkpt lat="44.63954" lon="3.89242">
        <ele>978.6</ele>
      </trkpt>
      <trkpt lat="44.63814" lon="3.89248">
        <ele>980.9</ele>
      </trkpt>
      <trkpt lat="44.63757" lon="3.89297">
        <ele>979.1</ele>
      </trkpt>
      <trkpt lat="44.63736" lon="3.89354">
        <ele>978</ele>
      </trkpt>
      <trkpt lat="44.63572" lon="3.89393">
        <ele>977.5</ele>
      </trkpt>
      <trkpt lat="44.63476" lon="3.89418">
        <ele>973.9</ele>
      </trkpt>
      <trkpt lat="44.63473" lon="3.89497">
        <ele>973.8</ele>
      </trkpt>
      <trkpt lat="44.63448" lon="3.89485">
        <ele>973.6</ele>
      </trkpt>
      <trkpt lat="44.6342" lon="3.89472">
        <ele>973.4</ele>
      </trkpt>
      <trkpt lat="44.63399" lon="3.89462">
        <ele>972.8</ele>
      </trkpt>
      <trkpt lat="44.63354" lon="3.8945">
        <ele>972.6</ele>
      </trkpt>
      <trkpt lat="44.63336" lon="3.89447">
        <ele>972.4</ele>
      </trkpt>
      <trkpt lat="44.63315" lon="3.89443">
        <ele>973.3</ele>
      </trkpt>
      <trkpt lat="44.63278" lon="3.89446">
        <ele>974</ele>
      </trkpt>
      <trkpt lat="44.63182" lon="3.89478">
        <ele>974.2</ele>
      </trkpt>
      <trkpt lat="44.63144" lon="3.8949">
        <ele>974</ele>
      </trkpt>
      <trkpt lat="44.63065" lon="3.8949">
        <ele>974.4</ele>
      </trkpt>
      <trkpt lat="44.63047" lon="3.8949">
        <ele>974.5</ele>
      </trkpt>
      <trkpt lat="44.63027" lon="3.89525">
        <ele>975.9</ele>
      </trkpt>
      <trkpt lat="44.63017" lon="3.89538">
        <ele>976.2</ele>
      </trkpt>
      <trkpt lat="44.63005" lon="3.89547">
        <ele>976.5</ele>
      </trkpt>
      <trkpt lat="44.62999" lon="3.89556">
        <ele>976.9</ele>
      </trkpt>
      <trkpt lat="44.62992" lon="3.89571">
        <ele>977.4</ele>
      </trkpt>
      <trkpt lat="44.6298" lon="3.89622">
        <ele>980.8</ele>
      </trkpt>
      <trkpt lat="44.62974" lon="3.89638">
        <ele>981.3</ele>
      </trkpt>
      <trkpt lat="44.62961" lon="3.89659">
        <ele>981.8</ele>
      </trkpt>
      <trkpt lat="44.6295" lon="3.89688">
        <ele>985.8</ele>
      </trkpt>
      <trkpt lat="44.62938" lon="3.89713">
        <ele>986.7</ele>
      </trkpt>
      <trkpt lat="44.6292" lon="3.89727">
        <ele>987.4</ele>
      </trkpt>
      <trkpt lat="44.62909" lon="3.89738">
        <ele>988.4</ele>
      </trkpt>
      <trkpt lat="44.62863" lon="3.89826">
        <ele>995.8</ele>
      </trkpt>
      <trkpt lat="44.62849" lon="3.89846">
        <ele>998.6</ele>
      </trkpt>
      <trkpt lat="44.62827" lon="3.8987">
        <ele>1000</ele>
      </trkpt>
      <trkpt lat="44.62802" lon="3.89893">
        <ele>1000.1</ele>
      </trkpt>
      <trkpt lat="44.62787" lon="3.89897">
        <ele>1000.2</ele>
      </trkpt>
      <trkpt lat="44.62773" lon="3.89897">
        <ele>1000.5</ele>
      </trkpt>
      <trkpt lat="44.62756" lon="3.89904">
        <ele>1001.4</ele>
      </trkpt>
      <trkpt lat="44.62734" lon="3.89922">
        <ele>1001.4</ele>
      </trkpt>
      <trkpt lat="44.627" lon="3.89957">
        <ele>999.8</ele>
      </trkpt>
      <trkpt lat="44.62676" lon="3.8999">
        <ele>1000</ele>
      </trkpt>
      <trkpt lat="44.62664" lon="3.90015">
        <ele>999</ele>
      </trkpt>
      <trkpt lat="44.62608" lon="3.90084">
        <ele>998.2</ele>
      </trkpt>
      <trkpt lat="44.62602" lon="3.90094">
        <ele>997.7</ele>
      </trkpt>
      <trkpt lat="44.62598" lon="3.90108">
        <ele>998.3</ele>
      </trkpt>
      <trkpt lat="44.62595" lon="3.90144">
        <ele>998.9</ele>
      </trkpt>
      <trkpt lat="44.62578" lon="3.90206">
        <ele>995.7</ele>
      </trkpt>
      <trkpt lat="44.62576" lon="3.90226">
        <ele>996.3</ele>
      </trkpt>
      <trkpt lat="44.62561" lon="3.90421">
        <ele>1003.6</ele>
      </trkpt>
      <trkpt lat="44.6256" lon="3.90511">
        <ele>1004.6</ele>
      </trkpt>
      <trkpt lat="44.62537" lon="3.90513">
        <ele>1002.4</ele>
      </trkpt>
      <trkpt lat="44.62524" lon="3.90516">
        <ele>1001.3</ele>
      </trkpt>
      <trkpt lat="44.62515" lon="3.90523">
        <ele>1000.8</ele>
      </trkpt>
      <trkpt lat="44.6248" lon="3.90563">
        <ele>1000.4</ele>
      </trkpt>
      <trkpt lat="44.62442" lon="3.90591">
        <ele>1002.1</ele>
      </trkpt>
      <trkpt lat="44.62329" lon="3.90656">
        <ele>1019.4</ele>
      </trkpt>
      <trkpt lat="44.62291" lon="3.90689">
        <ele>1023</ele>
      </trkpt>
      <trkpt lat="44.62279" lon="3.90704">
        <ele>1024</ele>
      </trkpt>
      <trkpt lat="44.62257" lon="3.9074">
        <ele>1028</ele>
      </trkpt>
      <trkpt lat="44.62162" lon="3.90839">
        <ele>1046.9</ele>
      </trkpt>
      <trkpt lat="44.62148" lon="3.90861">
        <ele>1052.3</ele>
      </trkpt>
      <trkpt lat="44.62139" lon="3.90887">
        <ele>1054</ele>
      </trkpt>
      <trkpt lat="44.62134" lon="3.90902">
        <ele>1054.6</ele>
      </trkpt>
      <trkpt lat="44.62082" lon="3.91064">
        <ele>1073</ele>
      </trkpt>
      <trkpt lat="44.62068" lon="3.91123">
        <ele>1076</ele>
      </trkpt>
      <trkpt lat="44.62058" lon="3.9114">
        <ele>1077</ele>
      </trkpt>
      <trkpt lat="44.62047" lon="3.91153">
        <ele>1078.5</ele>
      </trkpt>
      <trkpt lat="44.62045" lon="3.91159">
        <ele>1078.9</ele>
      </trkpt>
      <trkpt lat="44.6205" lon="3.91222">
        <ele>1083</ele>
      </trkpt>
      <trkpt lat="44.62059" lon="3.9128">
        <ele>1087.1</ele>
      </trkpt>
      <trkpt lat="44.62059" lon="3.9131">
        <ele>1088.3</ele>
      </trkpt>
      <trkpt lat="44.6205" lon="3.91359">
        <ele>1090.5</ele>
      </trkpt>
      <trkpt lat="44.62052" lon="3.91409">
        <ele>1090.4</ele>
      </trkpt>
      <trkpt lat="44.6205" lon="3.91435">
        <ele>1087.3</ele>
      </trkpt>
      <trkpt lat="44.62047" lon="3.91442">
        <ele>1087.1</ele>
      </trkpt>
      <trkpt lat="44.62032" lon="3.91459">
        <ele>1086.1</ele>
      </trkpt>
      <trkpt lat="44.6203" lon="3.91464">
        <ele>1085.7</ele>
      </trkpt>
      <trkpt lat="44.62035" lon="3.91503">
        <ele>1079.9</ele>
      </trkpt>
      <trkpt lat="44.62032" lon="3.91521">
        <ele>1079.4</ele>
      </trkpt>
      <trkpt lat="44.6203" lon="3.9156">
        <ele>1077.6</ele>
      </trkpt>
      <trkpt lat="44.62025" lon="3.9158">
        <ele>1075.7</ele>
      </trkpt>
      <trkpt lat="44.62018" lon="3.91596">
        <ele>1073.3</ele>
      </trkpt>
      <trkpt lat="44.61997" lon="3.91623">
        <ele>1062.6</ele>
      </trkpt>
      <trkpt lat="44.61988" lon="3.91641">
        <ele>1062.1</ele>
      </trkpt>
      <trkpt lat="44.61985" lon="3.91656">
        <ele>1062.3</ele>
      </trkpt>
      <trkpt lat="44.61976" lon="3.91744">
        <ele>1057.1</ele>
      </trkpt>
      <trkpt lat="44.61971" lon="3.91741">
        <ele>1056.4</ele>
      </trkpt>
      <trkpt lat="44.61943" lon="3.91729">
        <ele>1053.3</ele>
      </trkpt>
      <trkpt lat="44.61933" lon="3.9172">
        <ele>1052.9</ele>
        <extensions>
          <visugpx:TrkExtension xmlns:visugpx="https://www.visugpx.com/editgpx/">
            <visugpx:node>38</visugpx:node>
            </visugpx:TrkExtension>
        </extensions>
      </trkpt>
      <trkpt lat="44.61924" lon="3.91703">
        <ele>1053.1</ele>
      </trkpt>
      <trkpt lat="44.61909" lon="3.91655">
        <ele>1050.3</ele>
      </trkpt>
      <trkpt lat="44.61901" lon="3.91642">
        <ele>1050.6</ele>
      </trkpt>
      <trkpt lat="44.61898" lon="3.91637">
        <ele>1050.7</ele>
      </trkpt>
      <trkpt lat="44.61877" lon="3.91573">
        <ele>1054</ele>
      </trkpt>
      <trkpt lat="44.61867" lon="3.91555">
        <ele>1053.7</ele>
      </trkpt>
      <trkpt lat="44.61854" lon="3.91539">
        <ele>1053.5</ele>
      </trkpt>
      <trkpt lat="44.61824" lon="3.9151">
        <ele>1047.7</ele>
      </trkpt>
      <trkpt lat="44.61799" lon="3.91492">
        <ele>1048.3</ele>
      </trkpt>
      <trkpt lat="44.6178" lon="3.91471">
        <ele>1047.2</ele>
      </trkpt>
      <trkpt lat="44.61764" lon="3.91446">
        <ele>1046.4</ele>
      </trkpt>
      <trkpt lat="44.61753" lon="3.91425">
        <ele>1042.9</ele>
      </trkpt>
      <trkpt lat="44.61746" lon="3.91404">
        <ele>1039.1</ele>
      </trkpt>
      <trkpt lat="44.61737" lon="3.91392">
        <ele>1038.7</ele>
      </trkpt>
      <trkpt lat="44.61728" lon="3.91383">
        <ele>1038.5</ele>
      </trkpt>
      <trkpt lat="44.6172" lon="3.91382">
        <ele>1037.8</ele>
      </trkpt>
      <trkpt lat="44.61714" lon="3.91376">
        <ele>1037.6</ele>
      </trkpt>
      <trkpt lat="44.61711" lon="3.9137">
        <ele>1037.5</ele>
      </trkpt>
      <trkpt lat="44.61707" lon="3.91328">
        <ele>1042.3</ele>
      </trkpt>
      <trkpt lat="44.61703" lon="3.91318">
        <ele>1041.8</ele>
      </trkpt>
      <trkpt lat="44.61701" lon="3.91317">
        <ele>1041.5</ele>
      </trkpt>
      <trkpt lat="44.61698" lon="3.91321">
        <ele>1040.7</ele>
      </trkpt>
      <trkpt lat="44.61696" lon="3.91326">
        <ele>1040.1</ele>
      </trkpt>
      <trkpt lat="44.61696" lon="3.91355">
        <ele>1036.2</ele>
      </trkpt>
      <trkpt lat="44.61695" lon="3.91359">
        <ele>1036</ele>
      </trkpt>
      <trkpt lat="44.61694" lon="3.91362">
        <ele>1035.9</ele>
      </trkpt>
      <trkpt lat="44.61689" lon="3.91367">
        <ele>1035.3</ele>
      </trkpt>
      <trkpt lat="44.61685" lon="3.91368">
        <ele>1034.9</ele>
      </trkpt>
      <trkpt lat="44.61682" lon="3.91366">
        <ele>1034.7</ele>
      </trkpt>
      <trkpt lat="44.61679" lon="3.91362">
        <ele>1034.4</ele>
      </trkpt>
      <trkpt lat="44.61673" lon="3.91352">
        <ele>1033.6</ele>
      </trkpt>
      <trkpt lat="44.61658" lon="3.91326">
        <ele>1033.2</ele>
      </trkpt>
      <trkpt lat="44.61639" lon="3.91274">
        <ele>1037.2</ele>
      </trkpt>
      <trkpt lat="44.61597" lon="3.91183">
        <ele>1036</ele>
      </trkpt>
      <trkpt lat="44.61582" lon="3.91128">
        <ele>1036.4</ele>
      </trkpt>
      <trkpt lat="44.61578" lon="3.91102">
        <ele>1033</ele>
      </trkpt>
      <trkpt lat="44.61573" lon="3.91094">
        <ele>1031.9</ele>
      </trkpt>
      <trkpt lat="44.61558" lon="3.9108">
        <ele>1033.3</ele>
      </trkpt>
      <trkpt lat="44.61551" lon="3.9107">
        <ele>1035.1</ele>
      </trkpt>
      <trkpt lat="44.61551" lon="3.91059">
        <ele>1035.4</ele>
      </trkpt>
      <trkpt lat="44.61555" lon="3.91041">
        <ele>1035</ele>
      </trkpt>
      <trkpt lat="44.61555" lon="3.91032">
        <ele>1034.8</ele>
      </trkpt>
      <trkpt lat="44.61553" lon="3.91027">
        <ele>1035</ele>
      </trkpt>
      <trkpt lat="44.61554" lon="3.91023">
        <ele>1034.6</ele>
      </trkpt>
      <trkpt lat="44.61557" lon="3.91013">
        <ele>1033.5</ele>
      </trkpt>
      <trkpt lat="44.61554" lon="3.90968">
        <ele>1033.5</ele>
      </trkpt>
      <trkpt lat="44.61545" lon="3.90942">
        <ele>1034.4</ele>
      </trkpt>
      <trkpt lat="44.61537" lon="3.90929">
        <ele>1035.5</ele>
      </trkpt>
      <trkpt lat="44.61533" lon="3.9092">
        <ele>1036.3</ele>
      </trkpt>
      <trkpt lat="44.61533" lon="3.90908">
        <ele>1036.4</ele>
      </trkpt>
      <trkpt lat="44.61537" lon="3.90894">
        <ele>1035.8</ele>
      </trkpt>
      <trkpt lat="44.61548" lon="3.90874">
        <ele>1034.7</ele>
      </trkpt>
      <trkpt lat="44.61557" lon="3.90846">
        <ele>1033.5</ele>
      </trkpt>
      <trkpt lat="44.61563" lon="3.90816">
        <ele>1036</ele>
      </trkpt>
      <trkpt lat="44.61575" lon="3.90723">
        <ele>1037.3</ele>
      </trkpt>
      <trkpt lat="44.61576" lon="3.90704">
        <ele>1037.3</ele>
      </trkpt>
      <trkpt lat="44.61561" lon="3.90663">
        <ele>1033.2</ele>
      </trkpt>
      <trkpt lat="44.61553" lon="3.90626">
        <ele>1034.6</ele>
      </trkpt>
      <trkpt lat="44.61537" lon="3.9059">
        <ele>1036.1</ele>
      </trkpt>
      <trkpt lat="44.61535" lon="3.90594">
        <ele>1036.7</ele>
      </trkpt>
      <trkpt lat="44.61536" lon="3.90602">
        <ele>1036.6</ele>
      </trkpt>
      <trkpt lat="44.61541" lon="3.90616">
        <ele>1036.1</ele>
      </trkpt>
      <trkpt lat="44.61543" lon="3.90633">
        <ele>1036.7</ele>
      </trkpt>
      <trkpt lat="44.61546" lon="3.90644">
        <ele>1036.6</ele>
      </trkpt>
      <trkpt lat="44.6155" lon="3.90649">
        <ele>1035.8</ele>
      </trkpt>
      <trkpt lat="44.61553" lon="3.90664">
        <ele>1035.2</ele>
      </trkpt>
      <trkpt lat="44.61553" lon="3.90712">
        <ele>1040.6</ele>
      </trkpt>
      <trkpt lat="44.6155" lon="3.90729">
        <ele>1041.1</ele>
      </trkpt>
      <trkpt lat="44.61527" lon="3.90779">
        <ele>1043.7</ele>
      </trkpt>
      <trkpt lat="44.61518" lon="3.90796">
        <ele>1043.7</ele>
      </trkpt>
      <trkpt lat="44.61504" lon="3.90807">
        <ele>1044.6</ele>
      </trkpt>
      <trkpt lat="44.61494" lon="3.90811">
        <ele>1056.3</ele>
      </trkpt>
      <trkpt lat="44.61477" lon="3.90811">
        <ele>1058.4</ele>
      </trkpt>
      <trkpt lat="44.61473" lon="3.90807">
        <ele>1059.4</ele>
      </trkpt>
      <trkpt lat="44.61472" lon="3.90801">
        <ele>1060</ele>
      </trkpt>
      <trkpt lat="44.61477" lon="3.90794">
        <ele>1060.1</ele>
      </trkpt>
      <trkpt lat="44.61479" lon="3.90788">
        <ele>1060.4</ele>
      </trkpt>
      <trkpt lat="44.61475" lon="3.90723">
        <ele>1065.7</ele>
      </trkpt>
      <trkpt lat="44.61461" lon="3.9067">
        <ele>1067.4</ele>
      </trkpt>
      <trkpt lat="44.61441" lon="3.90613">
        <ele>1064.3</ele>
      </trkpt>
      <trkpt lat="44.61438" lon="3.90611">
        <ele>1064.5</ele>
      </trkpt>
      <trkpt lat="44.61435" lon="3.90612">
        <ele>1064.8</ele>
      </trkpt>
      <trkpt lat="44.61435" lon="3.90641">
        <ele>1067.6</ele>
      </trkpt>
      <trkpt lat="44.61429" lon="3.907">
        <ele>1071.7</ele>
      </trkpt>
      <trkpt lat="44.61424" lon="3.90712">
        <ele>1071.8</ele>
      </trkpt>
      <trkpt lat="44.61414" lon="3.90727">
        <ele>1078.3</ele>
      </trkpt>
      <trkpt lat="44.61397" lon="3.90742">
        <ele>1078.3</ele>
      </trkpt>
      <trkpt lat="44.6137" lon="3.90762">
        <ele>1078.5</ele>
      </trkpt>
      <trkpt lat="44.61343" lon="3.90777">
        <ele>1079.6</ele>
      </trkpt>
      <trkpt lat="44.61335" lon="3.90786">
        <ele>1079.7</ele>
      </trkpt>
      <trkpt lat="44.61319" lon="3.90815">
        <ele>1081.8</ele>
      </trkpt>
      <trkpt lat="44.61309" lon="3.90841">
        <ele>1089</ele>
      </trkpt>
      <trkpt lat="44.61306" lon="3.90862">
        <ele>1090.6</ele>
      </trkpt>
      <trkpt lat="44.61306" lon="3.90879">
        <ele>1091.9</ele>
      </trkpt>
      <trkpt lat="44.6131" lon="3.90914">
        <ele>1093.5</ele>
      </trkpt>
      <trkpt lat="44.61311" lon="3.90939">
        <ele>1100.8</ele>
      </trkpt>
      <trkpt lat="44.61309" lon="3.90964">
        <ele>1102.6</ele>
      </trkpt>
      <trkpt lat="44.61301" lon="3.90991">
        <ele>1104.1</ele>
      </trkpt>
      <trkpt lat="44.61284" lon="3.91034">
        <ele>1110.2</ele>
      </trkpt>
      <trkpt lat="44.61233" lon="3.91099">
        <ele>1119.6</ele>
      </trkpt>
      <trkpt lat="44.61204" lon="3.91141">
        <ele>1120.1</ele>
      </trkpt>
      <trkpt lat="44.61178" lon="3.91217">
        <ele>1124.3</ele>
      </trkpt>
      <trkpt lat="44.61171" lon="3.91241">
        <ele>1126.9</ele>
      </trkpt>
      <trkpt lat="44.61165" lon="3.91285">
        <ele>1126.3</ele>
      </trkpt>
      <trkpt lat="44.61163" lon="3.91292">
        <ele>1126.4</ele>
      </trkpt>
      <trkpt lat="44.61159" lon="3.91299">
        <ele>1126.6</ele>
      </trkpt>
      <trkpt lat="44.61157" lon="3.91313">
        <ele>1127.8</ele>
      </trkpt>
      <trkpt lat="44.61156" lon="3.91334">
        <ele>1133.1</ele>
      </trkpt>
      <trkpt lat="44.61158" lon="3.914">
        <ele>1137</ele>
      </trkpt>
      <trkpt lat="44.61157" lon="3.9141">
        <ele>1137.9</ele>
      </trkpt>
      <trkpt lat="44.61153" lon="3.91425">
        <ele>1140.9</ele>
      </trkpt>
      <trkpt lat="44.61146" lon="3.91441">
        <ele>1141.5</ele>
      </trkpt>
      <trkpt lat="44.61137" lon="3.91455">
        <ele>1142</ele>
      </trkpt>
      <trkpt lat="44.61118" lon="3.91471">
        <ele>1143.3</ele>
      </trkpt>
      <trkpt lat="44.61104" lon="3.91488">
        <ele>1145.8</ele>
      </trkpt>
      <trkpt lat="44.61082" lon="3.91506">
        <ele>1152.8</ele>
      </trkpt>
      <trkpt lat="44.61051" lon="3.91548">
        <ele>1155.7</ele>
      </trkpt>
      <trkpt lat="44.61035" lon="3.91575">
        <ele>1157.1</ele>
      </trkpt>
      <trkpt lat="44.61024" lon="3.91589">
        <ele>1160.5</ele>
      </trkpt>
      <trkpt lat="44.61019" lon="3.91593">
        <ele>1160.7</ele>
      </trkpt>
      <trkpt lat="44.61015" lon="3.91601">
        <ele>1160.9</ele>
      </trkpt>
      <trkpt lat="44.60974" lon="3.91706">
        <ele>1169.1</ele>
      </trkpt>
      <trkpt lat="44.60957" lon="3.91757">
        <ele>1175.9</ele>
      </trkpt>
      <trkpt lat="44.60933" lon="3.91895">
        <ele>1188.3</ele>
      </trkpt>
      <trkpt lat="44.60928" lon="3.9193">
        <ele>1192.3</ele>
      </trkpt>
      <trkpt lat="44.60921" lon="3.91949">
        <ele>1193.2</ele>
      </trkpt>
      <trkpt lat="44.60893" lon="3.92011">
        <ele>1207.2</ele>
      </trkpt>
      <trkpt lat="44.60877" lon="3.9203">
        <ele>1209</ele>
      </trkpt>
      <trkpt lat="44.60873" lon="3.92041">
        <ele>1209.8</ele>
      </trkpt>
      <trkpt lat="44.60869" lon="3.92067">
        <ele>1211.5</ele>
      </trkpt>
      <trkpt lat="44.60864" lon="3.92083">
        <ele>1212.5</ele>
      </trkpt>
      <trkpt lat="44.60854" lon="3.92105">
        <ele>1216.2</ele>
      </trkpt>
      <trkpt lat="44.60857" lon="3.92117">
        <ele>1216.1</ele>
      </trkpt>
      <trkpt lat="44.6086" lon="3.9214">
        <ele>1216.3</ele>
      </trkpt>
      <trkpt lat="44.60864" lon="3.92243">
        <ele>1213.4</ele>
      </trkpt>
      <trkpt lat="44.60874" lon="3.92319">
        <ele>1210.1</ele>
      </trkpt>
      <trkpt lat="44.60872" lon="3.92347">
        <ele>1210.7</ele>
      </trkpt>
      <trkpt lat="44.60867" lon="3.92385">
        <ele>1211.3</ele>
      </trkpt>
      <trkpt lat="44.60862" lon="3.92404">
        <ele>1211.7</ele>
      </trkpt>
      <trkpt lat="44.60853" lon="3.92427">
        <ele>1213.8</ele>
      </trkpt>
      <trkpt lat="44.60846" lon="3.92457">
        <ele>1214.6</ele>
      </trkpt>
      <trkpt lat="44.60816" lon="3.92544">
        <ele>1215.8</ele>
      </trkpt>
      <trkpt lat="44.6081" lon="3.9257">
        <ele>1216.8</ele>
      </trkpt>
      <trkpt lat="44.60808" lon="3.92606">
        <ele>1220.5</ele>
      </trkpt>
      <trkpt lat="44.60804" lon="3.92637">
        <ele>1221</ele>
      </trkpt>
      <trkpt lat="44.60797" lon="3.92667">
        <ele>1222.9</ele>
      </trkpt>
      <trkpt lat="44.60781" lon="3.92709">
        <ele>1223.7</ele>
      </trkpt>
      <trkpt lat="44.60771" lon="3.92747">
        <ele>1225.1</ele>
      </trkpt>
      <trkpt lat="44.60767" lon="3.92775">
        <ele>1224.8</ele>
      </trkpt>
      <trkpt lat="44.60769" lon="3.92796">
        <ele>1224.5</ele>
      </trkpt>
      <trkpt lat="44.60764" lon="3.92847">
        <ele>1225</ele>
      </trkpt>
      <trkpt lat="44.60765" lon="3.92864">
        <ele>1224.2</ele>
        <extensions>
          <visugpx:TrkExtension xmlns:visugpx="https://www.visugpx.com/editgpx/">
            <visugpx:node>39</visugpx:node>
            </visugpx:TrkExtension>
        </extensions>
      </trkpt>
      <trkpt lat="44.60766" lon="3.92883">
        <ele>1224.1</ele>
      </trkpt>
      <trkpt lat="44.60766" lon="3.92944">
        <ele>1224.1</ele>
      </trkpt>
      <trkpt lat="44.60771" lon="3.92994">
        <ele>1224.4</ele>
      </trkpt>
      <trkpt lat="44.60778" lon="3.93022">
        <ele>1224.4</ele>
      </trkpt>
      <trkpt lat="44.60807" lon="3.9308">
        <ele>1223.6</ele>
      </trkpt>
      <trkpt lat="44.60823" lon="3.93119">
        <ele>1223.6</ele>
      </trkpt>
      <trkpt lat="44.60828" lon="3.93133">
        <ele>1223.8</ele>
      </trkpt>
      <trkpt lat="44.6083" lon="3.93154">
        <ele>1224.3</ele>
      </trkpt>
      <trkpt lat="44.60825" lon="3.93181">
        <ele>1223</ele>
      </trkpt>
      <trkpt lat="44.60819" lon="3.93208">
        <ele>1221.9</ele>
      </trkpt>
      <trkpt lat="44.60815" lon="3.93236">
        <ele>1222.6</ele>
      </trkpt>
      <trkpt lat="44.60799" lon="3.93301">
        <ele>1220.3</ele>
      </trkpt>
      <trkpt lat="44.6079" lon="3.9332">
        <ele>1219.6</ele>
      </trkpt>
      <trkpt lat="44.60768" lon="3.93362">
        <ele>1221.4</ele>
      </trkpt>
      <trkpt lat="44.60736" lon="3.93435">
        <ele>1213.7</ele>
      </trkpt>
      <trkpt lat="44.6073" lon="3.93468">
        <ele>1211.5</ele>
      </trkpt>
      <trkpt lat="44.60729" lon="3.93496">
        <ele>1213.9</ele>
      </trkpt>
      <trkpt lat="44.60733" lon="3.93529">
        <ele>1208.7</ele>
      </trkpt>
      <trkpt lat="44.60736" lon="3.93542">
        <ele>1207.4</ele>
      </trkpt>
      <trkpt lat="44.60748" lon="3.93579">
        <ele>1209.7</ele>
      </trkpt>
      <trkpt lat="44.6078" lon="3.9365">
        <ele>1211.8</ele>
      </trkpt>
      <trkpt lat="44.60789" lon="3.93682">
        <ele>1206.3</ele>
      </trkpt>
      <trkpt lat="44.60795" lon="3.93708">
        <ele>1206.2</ele>
      </trkpt>
      <trkpt lat="44.60798" lon="3.93741">
        <ele>1205.7</ele>
      </trkpt>
      <trkpt lat="44.608" lon="3.93829">
        <ele>1199.9</ele>
      </trkpt>
      <trkpt lat="44.60803" lon="3.93855">
        <ele>1196.3</ele>
      </trkpt>
      <trkpt lat="44.60804" lon="3.93873">
        <ele>1195.4</ele>
      </trkpt>
      <trkpt lat="44.60857" lon="3.93938">
        <ele>1203.6</ele>
      </trkpt>
      <trkpt lat="44.60941" lon="3.94028">
        <ele>1209.2</ele>
      </trkpt>
      <trkpt lat="44.60937" lon="3.94071">
        <ele>1207.9</ele>
      </trkpt>
      <trkpt lat="44.60904" lon="3.94089">
        <ele>1199.7</ele>
      </trkpt>
      <trkpt lat="44.60838" lon="3.94038">
        <ele>1193.1</ele>
      </trkpt>
      <trkpt lat="44.60837" lon="3.94042">
        <ele>1192.9</ele>
      </trkpt>
      <trkpt lat="44.60751" lon="3.9391">
        <ele>1184</ele>
      </trkpt>
      <trkpt lat="44.60614" lon="3.93672">
        <ele>1154.9</ele>
      </trkpt>
      <trkpt lat="44.6058" lon="3.9362">
        <ele>1140.7</ele>
      </trkpt>
      <trkpt lat="44.60576" lon="3.93513">
        <ele>1147.2</ele>
      </trkpt>
      <trkpt lat="44.60587" lon="3.93464">
        <ele>1166.5</ele>
      </trkpt>
      <trkpt lat="44.60565" lon="3.93432">
        <ele>1153.4</ele>
      </trkpt>
      <trkpt lat="44.60331" lon="3.9343">
        <ele>1128.7</ele>
      </trkpt>
      <trkpt lat="44.60274" lon="3.93429">
        <ele>1121.4</ele>
      </trkpt>
      <trkpt lat="44.60163" lon="3.93363">
        <ele>1115</ele>
      </trkpt>
      <trkpt lat="44.60073" lon="3.93336">
        <ele>1105.2</ele>
      </trkpt>
      <trkpt lat="44.59998" lon="3.93511">
        <ele>1088.2</ele>
      </trkpt>
      <trkpt lat="44.59979" lon="3.93624">
        <ele>1092</ele>
      </trkpt>
      <trkpt lat="44.59993" lon="3.93683">
        <ele>1093.1</ele>
      </trkpt>
      <trkpt lat="44.59966" lon="3.93635">
        <ele>1094.2</ele>
      </trkpt>
      <trkpt lat="44.59991" lon="3.93431">
        <ele>1090.7</ele>
      </trkpt>
      <trkpt lat="44.59976" lon="3.93402">
        <ele>1090.1</ele>
      </trkpt>
      <trkpt lat="44.59953" lon="3.93329">
        <ele>1087.9</ele>
      </trkpt>
      <trkpt lat="44.59952" lon="3.93307">
        <ele>1087.9</ele>
      </trkpt>
      <trkpt lat="44.59961" lon="3.93231">
        <ele>1089.4</ele>
      </trkpt>
      <trkpt lat="44.59962" lon="3.93211">
        <ele>1089.8</ele>
      </trkpt>
      <trkpt lat="44.59947" lon="3.93103">
        <ele>1091.5</ele>
      </trkpt>
      <trkpt lat="44.59943" lon="3.93057">
        <ele>1092.6</ele>
        <extensions>
          <visugpx:TrkExtension xmlns:visugpx="https://www.visugpx.com/editgpx/">
            <visugpx:node>41</visugpx:node>
            </visugpx:TrkExtension>
        </extensions>
      </trkpt>
      <trkpt lat="44.59942" lon="3.93035">
        <ele>1092.8</ele>
      </trkpt>
      <trkpt lat="44.5994" lon="3.93">
        <ele>1092</ele>
      </trkpt>
      <trkpt lat="44.59936" lon="3.9298">
        <ele>1093.7</ele>
      </trkpt>
      <trkpt lat="44.5993" lon="3.92972">
        <ele>1093.8</ele>
      </trkpt>
      <trkpt lat="44.59887" lon="3.9295">
        <ele>1086.5</ele>
      </trkpt>
      <trkpt lat="44.5985" lon="3.92923">
        <ele>1085.8</ele>
      </trkpt>
      <trkpt lat="44.59826" lon="3.92891">
        <ele>1084.5</ele>
      </trkpt>
      <trkpt lat="44.5982" lon="3.92877">
        <ele>1084.5</ele>
      </trkpt>
      <trkpt lat="44.59817" lon="3.92862">
        <ele>1084.9</ele>
      </trkpt>
      <trkpt lat="44.59816" lon="3.92804">
        <ele>1084.9</ele>
      </trkpt>
      <trkpt lat="44.59822" lon="3.92745">
        <ele>1086.8</ele>
      </trkpt>
      <trkpt lat="44.59827" lon="3.92716">
        <ele>1084.9</ele>
      </trkpt>
      <trkpt lat="44.59843" lon="3.92664">
        <ele>1094.1</ele>
      </trkpt>
      <trkpt lat="44.59844" lon="3.92645">
        <ele>1096.6</ele>
      </trkpt>
      <trkpt lat="44.59841" lon="3.92635">
        <ele>1097.5</ele>
      </trkpt>
      <trkpt lat="44.59835" lon="3.92623">
        <ele>1098.3</ele>
      </trkpt>
      <trkpt lat="44.59823" lon="3.92612">
        <ele>1089.7</ele>
      </trkpt>
      <trkpt lat="44.59791" lon="3.926">
        <ele>1086.2</ele>
      </trkpt>
      <trkpt lat="44.59769" lon="3.92585">
        <ele>1082.8</ele>
      </trkpt>
      <trkpt lat="44.59759" lon="3.92574">
        <ele>1084.5</ele>
      </trkpt>
      <trkpt lat="44.59753" lon="3.92562">
        <ele>1086.4</ele>
      </trkpt>
      <trkpt lat="44.5975" lon="3.9254">
        <ele>1075.4</ele>
      </trkpt>
      <trkpt lat="44.59748" lon="3.92512">
        <ele>1080.8</ele>
      </trkpt>
      <trkpt lat="44.59736" lon="3.92443">
        <ele>1078.1</ele>
      </trkpt>
      <trkpt lat="44.59725" lon="3.92404">
        <ele>1077.9</ele>
      </trkpt>
      <trkpt lat="44.59682" lon="3.92322">
        <ele>1068.9</ele>
      </trkpt>
      <trkpt lat="44.59672" lon="3.92292">
        <ele>1069.5</ele>
      </trkpt>
      <trkpt lat="44.59665" lon="3.92262">
        <ele>1061.7</ele>
      </trkpt>
      <trkpt lat="44.59663" lon="3.92247">
        <ele>1062.1</ele>
      </trkpt>
      <trkpt lat="44.59665" lon="3.92223">
        <ele>1057.2</ele>
      </trkpt>
      <trkpt lat="44.59673" lon="3.92212">
        <ele>1061.6</ele>
      </trkpt>
      <trkpt lat="44.59684" lon="3.92201">
        <ele>1060.9</ele>
      </trkpt>
      <trkpt lat="44.59699" lon="3.92191">
        <ele>1060.7</ele>
      </trkpt>
      <trkpt lat="44.59736" lon="3.92187">
        <ele>1060.9</ele>
      </trkpt>
      <trkpt lat="44.59742" lon="3.92183">
        <ele>1060.2</ele>
      </trkpt>
      <trkpt lat="44.59744" lon="3.92175">
        <ele>1059</ele>
      </trkpt>
      <trkpt lat="44.59742" lon="3.92166">
        <ele>1056.9</ele>
      </trkpt>
      <trkpt lat="44.59735" lon="3.92163">
        <ele>1056.7</ele>
      </trkpt>
      <trkpt lat="44.59721" lon="3.92163">
        <ele>1056.5</ele>
      </trkpt>
      <trkpt lat="44.59699" lon="3.92167">
        <ele>1059.4</ele>
      </trkpt>
      <trkpt lat="44.59659" lon="3.9217">
        <ele>1053.9</ele>
      </trkpt>
      <trkpt lat="44.59639" lon="3.92169">
        <ele>1053.1</ele>
      </trkpt>
      <trkpt lat="44.5961" lon="3.92158">
        <ele>1049.2</ele>
      </trkpt>
      <trkpt lat="44.59598" lon="3.92149">
        <ele>1048.7</ele>
      </trkpt>
      <trkpt lat="44.59595" lon="3.92141">
        <ele>1048.9</ele>
      </trkpt>
      <trkpt lat="44.59586" lon="3.921">
        <ele>1048.6</ele>
      </trkpt>
      <trkpt lat="44.59584" lon="3.92068">
        <ele>1049.5</ele>
      </trkpt>
      <trkpt lat="44.59602" lon="3.91972">
        <ele>1052.8</ele>
      </trkpt>
      <trkpt lat="44.59617" lon="3.91931">
        <ele>1053.5</ele>
      </trkpt>
      <trkpt lat="44.59622" lon="3.91917">
        <ele>1053.9</ele>
      </trkpt>
      <trkpt lat="44.59627" lon="3.91908">
        <ele>1053.7</ele>
      </trkpt>
      <trkpt lat="44.59645" lon="3.91899">
        <ele>1055.6</ele>
      </trkpt>
      <trkpt lat="44.59653" lon="3.9189">
        <ele>1055.8</ele>
      </trkpt>
      <trkpt lat="44.59661" lon="3.91871">
        <ele>1055.6</ele>
      </trkpt>
      <trkpt lat="44.5968" lon="3.91806">
        <ele>1060.5</ele>
      </trkpt>
      <trkpt lat="44.59691" lon="3.91773">
        <ele>1059.9</ele>
      </trkpt>
      <trkpt lat="44.5971" lon="3.91743">
        <ele>1057.9</ele>
      </trkpt>
      <trkpt lat="44.59722" lon="3.9173">
        <ele>1058.5</ele>
      </trkpt>
      <trkpt lat="44.59736" lon="3.91717">
        <ele>1058.6</ele>
      </trkpt>
      <trkpt lat="44.59756" lon="3.9171">
        <ele>1063.7</ele>
        <extensions>
          <visugpx:TrkExtension xmlns:visugpx="https://www.visugpx.com/editgpx/">
            <visugpx:node>42</visugpx:node>
            </visugpx:TrkExtension>
        </extensions>
      </trkpt>
      <trkpt lat="44.59826" lon="3.91703">
        <ele>1065.9</ele>
      </trkpt>
      <trkpt lat="44.59859" lon="3.91704">
        <ele>1072.3</ele>
      </trkpt>
      <trkpt lat="44.59908" lon="3.91711">
        <ele>1075.2</ele>
      </trkpt>
      <trkpt lat="44.59918" lon="3.91708">
        <ele>1083.3</ele>
      </trkpt>
      <trkpt lat="44.59928" lon="3.91699">
        <ele>1083.2</ele>
      </trkpt>
      <trkpt lat="44.59932" lon="3.91691">
        <ele>1082.8</ele>
      </trkpt>
      <trkpt lat="44.59933" lon="3.91684">
        <ele>1082.2</ele>
      </trkpt>
      <trkpt lat="44.59932" lon="3.91674">
        <ele>1080.8</ele>
      </trkpt>
      <trkpt lat="44.59926" lon="3.91658">
        <ele>1079</ele>
      </trkpt>
      <trkpt lat="44.59924" lon="3.91645">
        <ele>1080.6</ele>
      </trkpt>
      <trkpt lat="44.59925" lon="3.91619">
        <ele>1082</ele>
      </trkpt>
      <trkpt lat="44.59923" lon="3.91603">
        <ele>1081.3</ele>
      </trkpt>
      <trkpt lat="44.59917" lon="3.91587">
        <ele>1078.9</ele>
      </trkpt>
      <trkpt lat="44.59909" lon="3.91571">
        <ele>1078.2</ele>
      </trkpt>
      <trkpt lat="44.59871" lon="3.91521">
        <ele>1079.3</ele>
      </trkpt>
      <trkpt lat="44.59857" lon="3.91485">
        <ele>1086</ele>
      </trkpt>
      <trkpt lat="44.59839" lon="3.91459">
        <ele>1087.1</ele>
      </trkpt>
      <trkpt lat="44.59824" lon="3.91429">
        <ele>1083.2</ele>
      </trkpt>
      <trkpt lat="44.5982" lon="3.91414">
        <ele>1086.8</ele>
      </trkpt>
      <trkpt lat="44.5981" lon="3.91366">
        <ele>1088.6</ele>
      </trkpt>
      <trkpt lat="44.59807" lon="3.91359">
        <ele>1089</ele>
      </trkpt>
      <trkpt lat="44.59801" lon="3.9135">
        <ele>1088.9</ele>
      </trkpt>
      <trkpt lat="44.59795" lon="3.9134">
        <ele>1088.6</ele>
      </trkpt>
      <trkpt lat="44.59784" lon="3.91331">
        <ele>1092.8</ele>
      </trkpt>
      <trkpt lat="44.59759" lon="3.91318">
        <ele>1089.8</ele>
      </trkpt>
      <trkpt lat="44.59744" lon="3.91314">
        <ele>1085.7</ele>
      </trkpt>
      <trkpt lat="44.59714" lon="3.91315">
        <ele>1085.8</ele>
      </trkpt>
      <trkpt lat="44.59697" lon="3.91305">
        <ele>1085.8</ele>
        <extensions>
          <visugpx:TrkExtension xmlns:visugpx="https://www.visugpx.com/editgpx/">
            <visugpx:node>43</visugpx:node>
            </visugpx:TrkExtension>
        </extensions>
      </trkpt>
      <trkpt lat="44.59674" lon="3.91279">
        <ele>1085.8</ele>
      </trkpt>
      <trkpt lat="44.59627" lon="3.9122">
        <ele>1079.4</ele>
      </trkpt>
      <trkpt lat="44.59606" lon="3.91196">
        <ele>1077.7</ele>
      </trkpt>
      <trkpt lat="44.59591" lon="3.91176">
        <ele>1075.3</ele>
      </trkpt>
      <trkpt lat="44.59578" lon="3.91163">
        <ele>1072.4</ele>
      </trkpt>
      <trkpt lat="44.59445" lon="3.90986">
        <ele>1062.3</ele>
      </trkpt>
      <trkpt lat="44.59396" lon="3.90929">
        <ele>1059.9</ele>
      </trkpt>
      <trkpt lat="44.59384" lon="3.90916">
        <ele>1054.4</ele>
      </trkpt>
      <trkpt lat="44.59381" lon="3.90901">
        <ele>1053.9</ele>
      </trkpt>
      <trkpt lat="44.59325" lon="3.90829">
        <ele>1044.1</ele>
      </trkpt>
      <trkpt lat="44.59305" lon="3.90769">
        <ele>1037.3</ele>
      </trkpt>
      <trkpt lat="44.593" lon="3.90759">
        <ele>1036.8</ele>
      </trkpt>
      <trkpt lat="44.59297" lon="3.90748">
        <ele>1029.8</ele>
      </trkpt>
      <trkpt lat="44.59297" lon="3.90728">
        <ele>1028.8</ele>
      </trkpt>
      <trkpt lat="44.59296" lon="3.90706">
        <ele>1027.1</ele>
      </trkpt>
      <trkpt lat="44.59296" lon="3.90693">
        <ele>1026.2</ele>
      </trkpt>
      <trkpt lat="44.59294" lon="3.90683">
        <ele>1025.5</ele>
      </trkpt>
      <trkpt lat="44.59289" lon="3.90671">
        <ele>1025</ele>
      </trkpt>
      <trkpt lat="44.59269" lon="3.9064">
        <ele>1019.3</ele>
      </trkpt>
      <trkpt lat="44.59263" lon="3.90635">
        <ele>1019.2</ele>
      </trkpt>
      <trkpt lat="44.59256" lon="3.90628">
        <ele>1018.9</ele>
      </trkpt>
      <trkpt lat="44.59234" lon="3.90608">
        <ele>1020.3</ele>
      </trkpt>
      <trkpt lat="44.5923" lon="3.90603">
        <ele>1020.3</ele>
      </trkpt>
    </trkseg>
  </trk>
  <trk>
    <name><![CDATA[21 juil]]></name>
    <extensions>
      <line xmlns="http://www.topografix.com/GPX/gpx_style/0/2">
        <color>050505</color>
        <opacity>1</opacity>
        <width>2</width>
      </line>
    </extensions>
    <trkseg>
      <trkpt lat="44.59205" lon="3.9059">
        <ele>1021</ele>
      </trkpt>
      <trkpt lat="44.59205" lon="3.9059">
        <ele>1021</ele>
      </trkpt>
      <trkpt lat="44.59205" lon="3.9059">
        <ele>1021</ele>
      </trkpt>
      <trkpt lat="44.59205" lon="3.9059">
        <ele>1021</ele>
      </trkpt>
      <trkpt lat="44.59205" lon="3.9059">
        <ele>1021</ele>
      </trkpt>
      <trkpt lat="44.59205" lon="3.9059">
        <ele>1021</ele>
      </trkpt>
      <trkpt lat="44.59205" lon="3.9059">
        <ele>1021</ele>
      </trkpt>
      <trkpt lat="44.59205" lon="3.9059">
        <ele>1021</ele>
      </trkpt>
      <trkpt lat="44.59198" lon="3.90604">
        <ele>1022</ele>
      </trkpt>
      <trkpt lat="44.59201" lon="3.90586">
        <ele>1021.5</ele>
      </trkpt>
      <trkpt lat="44.59179" lon="3.90583">
        <ele>1022</ele>
      </trkpt>
      <trkpt lat="44.59175" lon="3.90554">
        <ele>1021.408</ele>
        <time>2016-06-08T03:07:33Z</time>
      </trkpt>
      <trkpt lat="44.592" lon="3.90471">
        <ele>1020.3</ele>
      </trkpt>
      <trkpt lat="44.59236" lon="3.90445">
        <ele>1020.532</ele>
        <time>2016-06-08T03:08:13Z</time>
      </trkpt>
      <trkpt lat="44.59332" lon="3.90466">
        <ele>1021.663</ele>
        <time>2016-06-08T03:08:33Z</time>
      </trkpt>
      <trkpt lat="44.59356" lon="3.90443">
        <ele>1024.181</ele>
        <time>2016-06-08T03:08:53Z</time>
      </trkpt>
      <trkpt lat="44.59441" lon="3.90415">
        <ele>1027.239</ele>
        <time>2016-06-08T03:09:13Z</time>
      </trkpt>
      <trkpt lat="44.59435" lon="3.90393">
        <ele>1029</ele>
      </trkpt>
      <trkpt lat="44.59395" lon="3.90373">
        <ele>1031.061</ele>
        <time>2016-06-08T03:09:33Z</time>
      </trkpt>
      <trkpt lat="44.59397" lon="3.90287">
        <ele>1041.031</ele>
        <time>2016-06-08T03:09:53Z</time>
      </trkpt>
      <trkpt lat="44.5941" lon="3.90249">
        <ele>1046.892</ele>
        <time>2016-06-08T03:10:13Z</time>
      </trkpt>
      <trkpt lat="44.59402" lon="3.90239">
        <ele>1050.892</ele>
        <time>2016-06-08T03:10:33Z</time>
      </trkpt>
      <trkpt lat="44.59357" lon="3.90281">
        <ele>1050.573</ele>
        <time>2016-06-08T03:10:53Z</time>
      </trkpt>
      <trkpt lat="44.59314" lon="3.90267">
        <ele>1054.32</ele>
        <time>2016-06-08T03:11:13Z</time>
      </trkpt>
      <trkpt lat="44.59242" lon="3.90204">
        <ele>1068.108</ele>
        <time>2016-06-08T03:11:33Z</time>
      </trkpt>
      <trkpt lat="44.59166" lon="3.90163">
        <ele>1074.932</ele>
        <time>2016-06-08T03:11:53Z</time>
      </trkpt>
      <trkpt lat="44.5902" lon="3.90059">
        <ele>1082.123</ele>
        <time>2016-06-08T03:12:13Z</time>
      </trkpt>
      <trkpt lat="44.58952" lon="3.89996">
        <ele>1086.054</ele>
        <time>2016-06-08T03:12:33Z</time>
      </trkpt>
      <trkpt lat="44.58952" lon="3.89965">
        <ele>1086.632</ele>
        <time>2016-06-08T03:12:53Z</time>
      </trkpt>
      <trkpt lat="44.58999" lon="3.89913">
        <ele>1090.22</ele>
        <time>2016-06-08T03:13:13Z</time>
      </trkpt>
      <trkpt lat="44.59124" lon="3.89861">
        <ele>1107.072</ele>
        <time>2016-06-08T03:13:33Z</time>
      </trkpt>
      <trkpt lat="44.59221" lon="3.89847">
        <ele>1117.282</ele>
        <time>2016-06-08T03:13:53Z</time>
      </trkpt>
      <trkpt lat="44.59309" lon="3.89774">
        <ele>1126.083</ele>
        <time>2016-06-08T03:14:13Z</time>
      </trkpt>
      <trkpt lat="44.59376" lon="3.89699">
        <ele>1132.229</ele>
        <time>2016-06-08T03:14:33Z</time>
      </trkpt>
      <trkpt lat="44.59292" lon="3.89535">
        <ele>1142.8</ele>
        <time>2016-06-08T03:14:53Z</time>
      </trkpt>
      <trkpt lat="44.59268" lon="3.89449">
        <ele>1153.52</ele>
        <time>2016-06-08T03:15:13Z</time>
      </trkpt>
      <trkpt lat="44.59253" lon="3.89267">
        <ele>1164.608</ele>
        <time>2016-06-08T03:15:33Z</time>
      </trkpt>
      <trkpt lat="44.59259" lon="3.89184">
        <ele>1176.095</ele>
        <time>2016-06-08T03:15:53Z</time>
      </trkpt>
      <trkpt lat="44.59246" lon="3.89147">
        <ele>1179.786</ele>
        <time>2016-06-08T03:16:13Z</time>
      </trkpt>
      <trkpt lat="44.59195" lon="3.89058">
        <ele>1192.487</ele>
        <time>2016-06-08T03:16:33Z</time>
      </trkpt>
      <trkpt lat="44.59139" lon="3.88994">
        <ele>1197.375</ele>
        <time>2016-06-08T03:16:53Z</time>
      </trkpt>
      <trkpt lat="44.59028" lon="3.88916">
        <ele>1205.143</ele>
        <time>2016-06-08T03:17:13Z</time>
      </trkpt>
      <trkpt lat="44.58992" lon="3.88846">
        <ele>1207.675</ele>
        <time>2016-06-08T03:17:33Z</time>
      </trkpt>
      <trkpt lat="44.58986" lon="3.88752">
        <ele>1218.725</ele>
        <time>2016-06-08T03:17:53Z</time>
      </trkpt>
      <trkpt lat="44.5897" lon="3.88634">
        <ele>1236.466</ele>
        <time>2016-06-08T03:18:13Z</time>
      </trkpt>
      <trkpt lat="44.58942" lon="3.88562">
        <ele>1246.935</ele>
        <time>2016-06-08T03:18:33Z</time>
      </trkpt>
      <trkpt lat="44.58922" lon="3.88557">
        <ele>1244.686</ele>
        <time>2016-06-08T03:18:53Z</time>
      </trkpt>
      <trkpt lat="44.58894" lon="3.88587">
        <ele>1235.614</ele>
        <time>2016-06-08T03:19:13Z</time>
      </trkpt>
      <trkpt lat="44.58804" lon="3.88617">
        <ele>1246.908</ele>
        <time>2016-06-08T03:19:33Z</time>
      </trkpt>
      <trkpt lat="44.58776" lon="3.88604">
        <ele>1247.266</ele>
        <time>2016-06-08T03:19:53Z</time>
      </trkpt>
      <trkpt lat="44.58685" lon="3.88482">
        <ele>1273.067</ele>
        <time>2016-06-08T03:20:13Z</time>
      </trkpt>
      <trkpt lat="44.58668" lon="3.88485">
        <ele>1273.888</ele>
        <time>2016-06-08T03:20:33Z</time>
      </trkpt>
      <trkpt lat="44.58635" lon="3.88502">
        <ele>1270.096</ele>
        <time>2016-06-08T03:20:53Z</time>
      </trkpt>
      <trkpt lat="44.5859" lon="3.88483">
        <ele>1269.744</ele>
        <time>2016-06-08T03:21:13Z</time>
      </trkpt>
      <trkpt lat="44.58547" lon="3.88449">
        <ele>1272.536</ele>
        <time>2016-06-08T03:21:33Z</time>
      </trkpt>
      <trkpt lat="44.58538" lon="3.88414">
        <ele>1274.446</ele>
        <time>2016-06-08T03:21:53Z</time>
      </trkpt>
      <trkpt lat="44.58537" lon="3.88354">
        <ele>1277.757</ele>
        <time>2016-06-08T03:22:13Z</time>
      </trkpt>
      <trkpt lat="44.58523" lon="3.8825">
        <ele>1286.075</ele>
        <time>2016-06-08T03:22:33Z</time>
      </trkpt>
      <trkpt lat="44.58504" lon="3.8821">
        <ele>1286.028</ele>
        <time>2016-06-08T03:22:53Z</time>
      </trkpt>
      <trkpt lat="44.58363" lon="3.88079">
        <ele>1291.62</ele>
        <time>2016-06-08T03:23:13Z</time>
      </trkpt>
      <trkpt lat="44.58346" lon="3.88038">
        <ele>1295.208</ele>
        <time>2016-06-08T03:23:33Z</time>
      </trkpt>
      <trkpt lat="44.58345" lon="3.87982">
        <ele>1300.84</ele>
        <time>2016-06-08T03:23:53Z</time>
      </trkpt>
      <trkpt lat="44.58401" lon="3.87961">
        <ele>1305.441</ele>
        <time>2016-06-08T03:24:13Z</time>
      </trkpt>
      <trkpt lat="44.58458" lon="3.87923">
        <ele>1308.082</ele>
        <time>2016-06-08T03:24:33Z</time>
      </trkpt>
      <trkpt lat="44.58551" lon="3.87824">
        <ele>1309.38</ele>
        <time>2016-06-08T03:24:53Z</time>
      </trkpt>
      <trkpt lat="44.58611" lon="3.87485">
        <ele>1311.518</ele>
        <time>2016-06-08T03:25:13Z</time>
      </trkpt>
      <trkpt lat="44.58629" lon="3.87416">
        <ele>1311.25</ele>
        <time>2016-06-08T03:25:33Z</time>
      </trkpt>
      <trkpt lat="44.58634" lon="3.87271">
        <ele>1309.89</ele>
        <time>2016-06-08T03:25:53Z</time>
      </trkpt>
      <trkpt lat="44.58619" lon="3.87106">
        <ele>1307.241</ele>
        <time>2016-06-08T03:26:13Z</time>
      </trkpt>
      <trkpt lat="44.58594" lon="3.87021">
        <ele>1308.941</ele>
        <time>2016-06-08T03:26:33Z</time>
      </trkpt>
      <trkpt lat="44.58569" lon="3.8691">
        <ele>1307.681</ele>
        <time>2016-06-08T03:26:53Z</time>
      </trkpt>
      <trkpt lat="44.58524" lon="3.86793">
        <ele>1307.609</ele>
        <time>2016-06-08T03:27:13Z</time>
      </trkpt>
      <trkpt lat="44.58482" lon="3.86641">
        <ele>1306.708</ele>
        <time>2016-06-08T03:27:33Z</time>
      </trkpt>
      <trkpt lat="44.5854" lon="3.86422">
        <ele>1305.017</ele>
        <time>2016-06-08T03:27:53Z</time>
      </trkpt>
      <trkpt lat="44.58534" lon="3.8632">
        <ele>1308.398</ele>
        <time>2016-06-08T03:28:13Z</time>
      </trkpt>
      <trkpt lat="44.58538" lon="3.86193">
        <ele>1308.639</ele>
        <time>2016-06-08T03:28:33Z</time>
      </trkpt>
      <trkpt lat="44.58478" lon="3.86043">
        <ele>1298.947</ele>
        <time>2016-06-08T03:28:53Z</time>
      </trkpt>
      <trkpt lat="44.58437" lon="3.85965">
        <ele>1294.385</ele>
        <time>2016-06-08T03:29:13Z</time>
      </trkpt>
      <trkpt lat="44.58419" lon="3.85865">
        <ele>1289.117</ele>
        <time>2016-06-08T03:29:33Z</time>
      </trkpt>
      <trkpt lat="44.58357" lon="3.85727">
        <ele>1285.257</ele>
        <time>2016-06-08T03:29:53Z</time>
      </trkpt>
      <trkpt lat="44.58247" lon="3.85643">
        <ele>1288.328</ele>
        <time>2016-06-08T03:30:13Z</time>
      </trkpt>
      <trkpt lat="44.58186" lon="3.85524">
        <ele>1290.843</ele>
        <time>2016-06-08T03:30:33Z</time>
      </trkpt>
      <trkpt lat="44.58121" lon="3.85357">
        <ele>1298.364</ele>
        <time>2016-06-08T03:30:53Z</time>
      </trkpt>
      <trkpt lat="44.58052" lon="3.85209">
        <ele>1304.81</ele>
        <time>2016-06-08T03:31:13Z</time>
      </trkpt>
      <trkpt lat="44.58009" lon="3.85001">
        <ele>1306.708</ele>
        <time>2016-06-08T03:31:33Z</time>
      </trkpt>
      <trkpt lat="44.58001" lon="3.84877">
        <ele>1301.417</ele>
        <time>2016-06-08T03:31:53Z</time>
      </trkpt>
      <trkpt lat="44.57989" lon="3.84847">
        <ele>1302.298</ele>
        <time>2016-06-08T03:32:13Z</time>
      </trkpt>
      <trkpt lat="44.57935" lon="3.84779">
        <ele>1304.039</ele>
        <time>2016-06-08T03:32:33Z</time>
      </trkpt>
      <trkpt lat="44.57894" lon="3.84815">
        <ele>1304.177</ele>
        <time>2016-06-08T03:32:53Z</time>
      </trkpt>
      <trkpt lat="44.57837" lon="3.84846">
        <ele>1299.315</ele>
        <time>2016-06-08T03:33:13Z</time>
      </trkpt>
      <trkpt lat="44.57649" lon="3.84898">
        <ele>1281.567</ele>
        <time>2016-06-08T03:33:33Z</time>
      </trkpt>
      <trkpt lat="44.57611" lon="3.84894">
        <ele>1276.627</ele>
        <time>2016-06-08T03:33:53Z</time>
      </trkpt>
      <trkpt lat="44.57406" lon="3.84969">
        <ele>1257.948</ele>
        <time>2016-06-08T03:34:13Z</time>
      </trkpt>
      <trkpt lat="44.57316" lon="3.84966">
        <ele>1246.281</ele>
        <time>2016-06-08T03:34:33Z</time>
      </trkpt>
      <trkpt lat="44.57261" lon="3.84931">
        <ele>1239.161</ele>
        <time>2016-06-08T03:34:53Z</time>
      </trkpt>
      <trkpt lat="44.57121" lon="3.8477">
        <ele>1220.217</ele>
        <time>2016-06-08T03:35:13Z</time>
      </trkpt>
      <trkpt lat="44.56997" lon="3.84742">
        <ele>1205.808</ele>
        <time>2016-06-08T03:35:33Z</time>
      </trkpt>
      <trkpt lat="44.56866" lon="3.84664">
        <ele>1191.391</ele>
        <time>2016-06-08T03:35:53Z</time>
      </trkpt>
      <trkpt lat="44.56794" lon="3.84646">
        <ele>1183.782</ele>
        <time>2016-06-08T03:36:13Z</time>
      </trkpt>
      <trkpt lat="44.56744" lon="3.84654">
        <ele>1179.113</ele>
        <time>2016-06-08T03:36:33Z</time>
      </trkpt>
      <trkpt lat="44.5669" lon="3.84684">
        <ele>1171.511</ele>
        <time>2016-06-08T03:36:53Z</time>
      </trkpt>
      <trkpt lat="44.56593" lon="3.8482">
        <ele>1158.279</ele>
        <time>2016-06-08T03:37:13Z</time>
      </trkpt>
      <trkpt lat="44.56558" lon="3.84852">
        <ele>1153.241</ele>
        <time>2016-06-08T03:37:33Z</time>
      </trkpt>
      <trkpt lat="44.56525" lon="3.84916">
        <ele>1152.341</ele>
        <time>2016-06-08T03:37:53Z</time>
      </trkpt>
      <trkpt lat="44.56515" lon="3.84979">
        <ele>1149.282</ele>
        <time>2016-06-08T03:38:13Z</time>
      </trkpt>
      <trkpt lat="44.5655" lon="3.85083">
        <ele>1150.495</ele>
        <time>2016-06-08T03:38:33Z</time>
      </trkpt>
      <trkpt lat="44.5657" lon="3.85199">
        <ele>1141.949</ele>
        <time>2016-06-08T03:38:53Z</time>
      </trkpt>
      <trkpt lat="44.5657" lon="3.85265">
        <ele>1139.323</ele>
        <time>2016-06-08T03:39:13Z</time>
      </trkpt>
      <trkpt lat="44.56563" lon="3.85332">
        <ele>1139.508</ele>
        <time>2016-06-08T03:39:33Z</time>
      </trkpt>
      <trkpt lat="44.56547" lon="3.85298">
        <ele>1136.652</ele>
        <time>2016-06-08T03:39:53Z</time>
      </trkpt>
      <trkpt lat="44.5654" lon="3.85203">
        <ele>1135.093</ele>
        <time>2016-06-08T03:40:13Z</time>
      </trkpt>
      <trkpt lat="44.56506" lon="3.85122">
        <ele>1132.164</ele>
        <time>2016-06-08T03:40:33Z</time>
      </trkpt>
      <trkpt lat="44.5646" lon="3.85071">
        <ele>1124.872</ele>
        <time>2016-06-08T03:40:53Z</time>
      </trkpt>
      <trkpt lat="44.56386" lon="3.85041">
        <ele>1124.22</ele>
        <time>2016-06-08T03:41:13Z</time>
      </trkpt>
      <trkpt lat="44.56324" lon="3.85044">
        <ele>1133.192</ele>
        <time>2016-06-08T03:41:33Z</time>
      </trkpt>
      <trkpt lat="44.5629" lon="3.84988">
        <ele>1129.822</ele>
        <time>2016-06-08T03:41:53Z</time>
      </trkpt>
      <trkpt lat="44.5625" lon="3.84959">
        <ele>1134.083</ele>
        <time>2016-06-08T03:42:13Z</time>
      </trkpt>
      <trkpt lat="44.56195" lon="3.84938">
        <ele>1136.079</ele>
        <time>2016-06-08T03:42:33Z</time>
      </trkpt>
      <trkpt lat="44.56138" lon="3.84883">
        <ele>1133.105</ele>
        <time>2016-06-08T03:42:53Z</time>
      </trkpt>
      <trkpt lat="44.56071" lon="3.84833">
        <ele>1139.025</ele>
        <time>2016-06-08T03:43:13Z</time>
      </trkpt>
      <trkpt lat="44.56048" lon="3.84773">
        <ele>1145.108</ele>
        <time>2016-06-08T03:43:33Z</time>
      </trkpt>
      <trkpt lat="44.55987" lon="3.8472">
        <ele>1151.59</ele>
        <time>2016-06-08T03:43:53Z</time>
      </trkpt>
      <trkpt lat="44.5593" lon="3.84706">
        <ele>1154.991</ele>
        <time>2016-06-08T03:44:13Z</time>
      </trkpt>
      <trkpt lat="44.55868" lon="3.84704">
        <ele>1159.462</ele>
        <time>2016-06-08T03:44:33Z</time>
      </trkpt>
      <trkpt lat="44.55822" lon="3.84686">
        <ele>1163.37</ele>
        <time>2016-06-08T03:44:53Z</time>
      </trkpt>
      <trkpt lat="44.55771" lon="3.84643">
        <ele>1167.328</ele>
        <time>2016-06-08T03:45:13Z</time>
      </trkpt>
      <trkpt lat="44.55726" lon="3.84578">
        <ele>1168.69</ele>
        <time>2016-06-08T03:45:33Z</time>
      </trkpt>
      <trkpt lat="44.55709" lon="3.84532">
        <ele>1167.18</ele>
        <time>2016-06-08T03:45:53Z</time>
      </trkpt>
      <trkpt lat="44.55697" lon="3.84375">
        <ele>1168.271</ele>
        <time>2016-06-08T03:46:13Z</time>
      </trkpt>
      <trkpt lat="44.55666" lon="3.84187">
        <ele>1172.133</ele>
        <time>2016-06-08T03:46:33Z</time>
      </trkpt>
      <trkpt lat="44.55671" lon="3.84034">
        <ele>1177.223</ele>
        <time>2016-06-08T03:46:53Z</time>
      </trkpt>
      <trkpt lat="44.55641" lon="3.83917">
        <ele>1173.208</ele>
        <time>2016-06-08T03:47:33Z</time>
      </trkpt>
      <trkpt lat="44.55624" lon="3.83875">
        <ele>1172.726</ele>
        <time>2016-06-08T03:47:53Z</time>
      </trkpt>
      <trkpt lat="44.55559" lon="3.83839">
        <ele>1171.087</ele>
        <time>2016-06-08T03:48:13Z</time>
      </trkpt>
      <trkpt lat="44.5545" lon="3.83939">
        <ele>1172.488</ele>
        <time>2016-06-08T03:48:33Z</time>
      </trkpt>
      <trkpt lat="44.55278" lon="3.83514">
        <ele>1168.056</ele>
        <time>2016-06-08T03:48:53Z</time>
      </trkpt>
      <trkpt lat="44.55203" lon="3.83474">
        <ele>1167.484</ele>
        <time>2016-06-08T03:49:13Z</time>
      </trkpt>
      <trkpt lat="44.55183" lon="3.83436">
        <ele>1163.696</ele>
        <time>2016-06-08T03:49:33Z</time>
      </trkpt>
      <trkpt lat="44.55181" lon="3.83353">
        <ele>1160.556</ele>
        <time>2016-06-08T03:49:53Z</time>
      </trkpt>
      <trkpt lat="44.55162" lon="3.83294">
        <ele>1162.4</ele>
      </trkpt>
      <trkpt lat="44.55119" lon="3.83124">
        <ele>1171.4</ele>
      </trkpt>
      <trkpt lat="44.55109" lon="3.82905">
        <ele>1177.2</ele>
      </trkpt>
      <trkpt lat="44.55126" lon="3.82733">
        <ele>1172.5</ele>
      </trkpt>
      <trkpt lat="44.55129" lon="3.82677">
        <ele>1171.1</ele>
      </trkpt>
      <trkpt lat="44.55122" lon="3.82667">
        <ele>1169</ele>
      </trkpt>
      <trkpt lat="44.55132" lon="3.8263">
        <ele>1168.8</ele>
      </trkpt>
      <trkpt lat="44.5516" lon="3.82601">
        <ele>1169.8</ele>
      </trkpt>
      <trkpt lat="44.55152" lon="3.8258">
        <ele>1171</ele>
      </trkpt>
      <trkpt lat="44.55115" lon="3.82556">
        <ele>1169.474</ele>
        <time>2016-06-08T03:53:33Z</time>
      </trkpt>
      <trkpt lat="44.55111" lon="3.82517">
        <ele>1174.184</ele>
        <time>2016-06-08T03:53:53Z</time>
      </trkpt>
      <trkpt lat="44.55117" lon="3.82498">
        <ele>1176.455</ele>
        <time>2016-06-08T03:54:13Z</time>
      </trkpt>
      <trkpt lat="44.55122" lon="3.82456">
        <ele>1178.156</ele>
        <time>2016-06-08T03:54:33Z</time>
      </trkpt>
      <trkpt lat="44.55108" lon="3.82416">
        <ele>1178.959</ele>
        <time>2016-06-08T03:54:53Z</time>
      </trkpt>
      <trkpt lat="44.55099" lon="3.82324">
        <ele>1180.114</ele>
        <time>2016-06-08T03:55:13Z</time>
      </trkpt>
      <trkpt lat="44.55092" lon="3.82137">
        <ele>1167.008</ele>
        <time>2016-06-08T03:55:33Z</time>
      </trkpt>
      <trkpt lat="44.551" lon="3.82039">
        <ele>1159.858</ele>
        <time>2016-06-08T03:55:53Z</time>
      </trkpt>
      <trkpt lat="44.55091" lon="3.81948">
        <ele>1155.529</ele>
        <time>2016-06-08T03:56:13Z</time>
      </trkpt>
      <trkpt lat="44.55075" lon="3.81911">
        <ele>1152.05</ele>
        <time>2016-06-08T03:56:33Z</time>
      </trkpt>
      <trkpt lat="44.54955" lon="3.81755">
        <ele>1134.886</ele>
        <time>2016-06-08T03:57:13Z</time>
      </trkpt>
      <trkpt lat="44.54937" lon="3.81643">
        <ele>1122.038</ele>
        <time>2016-06-08T03:57:33Z</time>
      </trkpt>
      <trkpt lat="44.54948" lon="3.81614">
        <ele>1121.838</ele>
        <time>2016-06-08T03:57:53Z</time>
      </trkpt>
      <trkpt lat="44.54923" lon="3.81603">
        <ele>1115.659</ele>
        <time>2016-06-08T03:58:13Z</time>
      </trkpt>
      <trkpt lat="44.54917" lon="3.8158">
        <ele>1112.633</ele>
        <time>2016-06-08T03:58:33Z</time>
      </trkpt>
      <trkpt lat="44.54948" lon="3.81561">
        <ele>1113.823</ele>
        <time>2016-06-08T03:58:53Z</time>
      </trkpt>
      <trkpt lat="44.54981" lon="3.81557">
        <ele>1114.215</ele>
        <time>2016-06-08T03:59:13Z</time>
      </trkpt>
      <trkpt lat="44.54972" lon="3.8154">
        <ele>1111.908</ele>
        <time>2016-06-08T03:59:33Z</time>
      </trkpt>
      <trkpt lat="44.54912" lon="3.81528">
        <ele>1103.426</ele>
        <time>2016-06-08T03:59:53Z</time>
      </trkpt>
      <trkpt lat="44.5485" lon="3.81454">
        <ele>1094.657</ele>
        <time>2016-06-08T04:00:13Z</time>
      </trkpt>
      <trkpt lat="44.5481" lon="3.81473">
        <ele>1094.818</ele>
        <time>2016-06-08T04:00:33Z</time>
      </trkpt>
      <trkpt lat="44.54794" lon="3.81514">
        <ele>1096.636</ele>
        <time>2016-06-08T04:00:53Z</time>
      </trkpt>
      <trkpt lat="44.54745" lon="3.81542">
        <ele>1099.954</ele>
        <time>2016-06-08T04:01:13Z</time>
      </trkpt>
      <trkpt lat="44.54693" lon="3.8151">
        <ele>1106.256</ele>
        <time>2019-03-26T00:19:31Z</time>
      </trkpt>
      <trkpt lat="44.54642" lon="3.81517">
        <ele>1107.046</ele>
        <time>2019-03-26T00:19:51Z</time>
      </trkpt>
      <trkpt lat="44.54592" lon="3.81506">
        <ele>1114.017</ele>
        <time>2019-03-26T00:20:11Z</time>
      </trkpt>
      <trkpt lat="44.54569" lon="3.81472">
        <ele>1119.177</ele>
        <time>2019-03-26T00:20:31Z</time>
      </trkpt>
      <trkpt lat="44.54511" lon="3.81424">
        <ele>1125.861</ele>
        <time>2019-03-26T00:20:51Z</time>
      </trkpt>
      <trkpt lat="44.5448" lon="3.81381">
        <ele>1128.727</ele>
        <time>2019-03-26T00:21:11Z</time>
      </trkpt>
      <trkpt lat="44.54501" lon="3.81315">
        <ele>1127.908</ele>
        <time>2016-06-08T04:04:13Z</time>
      </trkpt>
      <trkpt lat="44.54511" lon="3.81298">
        <ele>1127.08</ele>
        <time>2016-06-08T04:04:33Z</time>
      </trkpt>
      <trkpt lat="44.54502" lon="3.81243">
        <ele>1121.911</ele>
        <time>2016-06-08T04:04:53Z</time>
      </trkpt>
      <trkpt lat="44.54454" lon="3.81167">
        <ele>1112.772</ele>
        <time>2016-06-08T04:05:13Z</time>
      </trkpt>
      <trkpt lat="44.54379" lon="3.81134">
        <ele>1112.56</ele>
        <time>2016-06-08T04:05:33Z</time>
      </trkpt>
      <trkpt lat="44.54371" lon="3.81111">
        <ele>1111.648</ele>
        <time>2016-06-08T04:05:53Z</time>
      </trkpt>
      <trkpt lat="44.54386" lon="3.81083">
        <ele>1112.03</ele>
        <time>2016-06-08T04:06:13Z</time>
      </trkpt>
      <trkpt lat="44.54507" lon="3.80976">
        <ele>1126.29</ele>
        <time>2016-06-08T04:06:33Z</time>
      </trkpt>
      <trkpt lat="44.54514" lon="3.8094">
        <ele>1127.771</ele>
        <time>2016-06-08T04:06:53Z</time>
      </trkpt>
      <trkpt lat="44.54514" lon="3.80873">
        <ele>1130.532</ele>
        <time>2016-06-08T04:07:13Z</time>
      </trkpt>
      <trkpt lat="44.54535" lon="3.80705">
        <ele>1129.692</ele>
        <time>2016-06-08T04:07:33Z</time>
      </trkpt>
      <trkpt lat="44.54535" lon="3.80585">
        <ele>1127.311</ele>
        <time>2016-06-08T04:07:53Z</time>
      </trkpt>
      <trkpt lat="44.54513" lon="3.80499">
        <ele>1129.008</ele>
        <time>2016-06-08T04:08:13Z</time>
      </trkpt>
      <trkpt lat="44.54466" lon="3.80418">
        <ele>1133.076</ele>
        <time>2016-06-08T04:08:33Z</time>
      </trkpt>
      <trkpt lat="44.54423" lon="3.80378">
        <ele>1134.517</ele>
        <time>2016-06-08T04:08:53Z</time>
      </trkpt>
      <trkpt lat="44.54364" lon="3.80351">
        <ele>1138.768</ele>
        <time>2016-06-08T04:09:13Z</time>
      </trkpt>
      <trkpt lat="44.54302" lon="3.80332">
        <ele>1144.576</ele>
        <time>2016-06-08T04:09:33Z</time>
      </trkpt>
      <trkpt lat="44.54282" lon="3.80313">
        <ele>1144.154</ele>
        <time>2016-06-08T04:09:53Z</time>
      </trkpt>
      <trkpt lat="44.54224" lon="3.80286">
        <ele>1141.786</ele>
        <time>2016-06-08T04:10:13Z</time>
      </trkpt>
      <trkpt lat="44.5418" lon="3.80279">
        <ele>1143.796</ele>
        <time>2016-06-08T04:10:33Z</time>
      </trkpt>
      <trkpt lat="44.54106" lon="3.80282">
        <ele>1149.077</ele>
        <time>2016-06-08T04:10:53Z</time>
      </trkpt>
      <trkpt lat="44.54042" lon="3.80198">
        <ele>1155.962</ele>
        <time>2016-06-08T04:11:13Z</time>
      </trkpt>
      <trkpt lat="44.54037" lon="3.80149">
        <ele>1156.283</ele>
        <time>2016-06-08T04:11:33Z</time>
      </trkpt>
      <trkpt lat="44.54003" lon="3.80064">
        <ele>1163.611</ele>
        <time>2016-06-08T04:11:53Z</time>
      </trkpt>
      <trkpt lat="44.53998" lon="3.80011">
        <ele>1164.508</ele>
        <time>2016-06-08T04:12:13Z</time>
      </trkpt>
      <trkpt lat="44.53956" lon="3.79979">
        <ele>1175.8</ele>
      </trkpt>
      <trkpt lat="44.53921" lon="3.79904">
        <ele>1184.9</ele>
      </trkpt>
      <trkpt lat="44.5394" lon="3.7984">
        <ele>1189.4</ele>
      </trkpt>
      <trkpt lat="44.53925" lon="3.79781">
        <ele>1197.608</ele>
        <time>2016-06-08T04:16:13Z</time>
      </trkpt>
      <trkpt lat="44.5392" lon="3.79717">
        <ele>1202.294</ele>
        <time>2016-06-08T04:16:33Z</time>
      </trkpt>
      <trkpt lat="44.53886" lon="3.79656">
        <ele>1205.475</ele>
        <time>2016-06-08T04:16:53Z</time>
      </trkpt>
      <trkpt lat="44.53831" lon="3.79613">
        <ele>1219.144</ele>
        <time>2016-06-08T04:17:33Z</time>
      </trkpt>
      <trkpt lat="44.53738" lon="3.79519">
        <ele>1244.612</ele>
        <time>2016-06-08T04:17:53Z</time>
      </trkpt>
      <trkpt lat="44.53725" lon="3.79495">
        <ele>1244.514</ele>
        <time>2016-06-08T04:18:13Z</time>
      </trkpt>
      <trkpt lat="44.53596" lon="3.79435">
        <ele>1270.884</ele>
        <time>2016-06-08T04:18:33Z</time>
      </trkpt>
      <trkpt lat="44.53442" lon="3.79474">
        <ele>1307.825</ele>
        <time>2016-06-08T04:18:53Z</time>
      </trkpt>
      <trkpt lat="44.53388" lon="3.79482">
        <ele>1324.389</ele>
        <time>2016-06-08T04:19:13Z</time>
      </trkpt>
      <trkpt lat="44.53357" lon="3.79428">
        <ele>1330.406</ele>
        <time>2016-06-08T04:19:33Z</time>
      </trkpt>
      <trkpt lat="44.53348" lon="3.7945">
        <ele>1334.226</ele>
        <time>2016-06-08T04:19:53Z</time>
      </trkpt>
      <trkpt lat="44.53357" lon="3.79511">
        <ele>1336.708</ele>
        <time>2016-06-08T04:20:13Z</time>
      </trkpt>
      <trkpt lat="44.53426" lon="3.79593">
        <ele>1340.781</ele>
        <time>2016-06-08T04:20:33Z</time>
      </trkpt>
      <trkpt lat="44.53451" lon="3.79651">
        <ele>1345.482</ele>
        <time>2016-06-08T04:20:53Z</time>
      </trkpt>
      <trkpt lat="44.53425" lon="3.79617">
        <ele>1345.793</ele>
        <time>2016-06-08T04:21:13Z</time>
      </trkpt>
      <trkpt lat="44.53371" lon="3.79594">
        <ele>1350.751</ele>
        <time>2016-06-08T04:21:33Z</time>
      </trkpt>
      <trkpt lat="44.5333" lon="3.79564">
        <ele>1355.269</ele>
        <time>2016-06-08T04:21:53Z</time>
      </trkpt>
      <trkpt lat="44.53257" lon="3.79463">
        <ele>1364.281</ele>
        <time>2016-06-08T04:22:13Z</time>
      </trkpt>
      <trkpt lat="44.53212" lon="3.79377">
        <ele>1371.721</ele>
        <time>2016-06-08T04:22:33Z</time>
      </trkpt>
      <trkpt lat="44.53208" lon="3.79336">
        <ele>1373.412</ele>
        <time>2016-06-08T04:22:53Z</time>
      </trkpt>
      <trkpt lat="44.53233" lon="3.79287">
        <ele>1372.219</ele>
        <time>2016-06-08T04:23:13Z</time>
      </trkpt>
      <trkpt lat="44.53252" lon="3.79201">
        <ele>1377.009</ele>
        <time>2016-06-08T04:23:33Z</time>
      </trkpt>
      <trkpt lat="44.53252" lon="3.79122">
        <ele>1381.019</ele>
        <time>2016-06-08T04:23:53Z</time>
      </trkpt>
      <trkpt lat="44.53245" lon="3.78968">
        <ele>1385.508</ele>
        <time>2016-06-08T04:24:13Z</time>
      </trkpt>
      <trkpt lat="44.53232" lon="3.78898">
        <ele>1391.324</ele>
        <time>2016-06-08T04:24:33Z</time>
      </trkpt>
      <trkpt lat="44.53234" lon="3.7881">
        <ele>1396.255</ele>
        <time>2016-06-08T04:24:53Z</time>
      </trkpt>
      <trkpt lat="44.53222" lon="3.78738">
        <ele>1396.146</ele>
        <time>2016-06-08T04:25:13Z</time>
      </trkpt>
      <trkpt lat="44.53198" lon="3.78701">
        <ele>1399.664</ele>
        <time>2016-06-08T04:25:33Z</time>
      </trkpt>
      <trkpt lat="44.5313" lon="3.78641">
        <ele>1406.462</ele>
        <time>2016-06-08T04:25:53Z</time>
      </trkpt>
      <trkpt lat="44.53069" lon="3.7859">
        <ele>1410.444</ele>
        <time>2016-06-08T04:26:13Z</time>
      </trkpt>
      <trkpt lat="44.53014" lon="3.78517">
        <ele>1413.594</ele>
        <time>2016-06-08T04:26:33Z</time>
      </trkpt>
      <trkpt lat="44.52756" lon="3.7827">
        <ele>1423.9</ele>
      </trkpt>
      <trkpt lat="44.52729" lon="3.78192">
        <ele>1419</ele>
      </trkpt>
      <trkpt lat="44.52824" lon="3.78008">
        <ele>1422</ele>
      </trkpt>
      <trkpt lat="44.52895" lon="3.77844">
        <ele>1425</ele>
      </trkpt>
      <trkpt lat="44.52888" lon="3.77758">
        <ele>1424</ele>
      </trkpt>
      <trkpt lat="44.52867" lon="3.77694">
        <ele>1426.8</ele>
      </trkpt>
      <trkpt lat="44.5282" lon="3.77624">
        <ele>1425</ele>
      </trkpt>
      <trkpt lat="44.52762" lon="3.77594">
        <ele>1424.2</ele>
      </trkpt>
      <trkpt lat="44.52751" lon="3.77452">
        <ele>1409.3</ele>
      </trkpt>
      <trkpt lat="44.52743" lon="3.77364">
        <ele>1391</ele>
      </trkpt>
      <trkpt lat="44.52721" lon="3.77288">
        <ele>1377.4</ele>
      </trkpt>
      <trkpt lat="44.52751" lon="3.7728">
        <ele>1380</ele>
      </trkpt>
      <trkpt lat="44.52814" lon="3.77209">
        <ele>1371</ele>
      </trkpt>
      <trkpt lat="44.52863" lon="3.77147">
        <ele>1375.9</ele>
      </trkpt>
      <trkpt lat="44.52837" lon="3.77127">
        <ele>1375</ele>
      </trkpt>
      <trkpt lat="44.52776" lon="3.77147">
        <ele>1362</ele>
      </trkpt>
      <trkpt lat="44.52702" lon="3.77128">
        <ele>1353</ele>
      </trkpt>
      <trkpt lat="44.526" lon="3.77137">
        <ele>1347.2</ele>
      </trkpt>
      <trkpt lat="44.52432" lon="3.77057">
        <ele>1331</ele>
      </trkpt>
      <trkpt lat="44.52323" lon="3.7697">
        <ele>1321.8</ele>
      </trkpt>
      <trkpt lat="44.52284" lon="3.76874">
        <ele>1308</ele>
      </trkpt>
      <trkpt lat="44.52273" lon="3.76767">
        <ele>1296</ele>
      </trkpt>
      <trkpt lat="44.5223" lon="3.76589">
        <ele>1282.3</ele>
      </trkpt>
      <trkpt lat="44.52207" lon="3.76483">
        <ele>1266</ele>
      </trkpt>
      <trkpt lat="44.52172" lon="3.76401">
        <ele>1259.7</ele>
      </trkpt>
      <trkpt lat="44.52091" lon="3.76203">
        <ele>1250</ele>
      </trkpt>
      <trkpt lat="44.5208" lon="3.76044">
        <ele>1235</ele>
      </trkpt>
      <trkpt lat="44.51989" lon="3.75939">
        <ele>1223</ele>
      </trkpt>
      <trkpt lat="44.51946" lon="3.75811">
        <ele>1230.4</ele>
      </trkpt>
      <trkpt lat="44.51804" lon="3.7569">
        <ele>1218.6</ele>
      </trkpt>
    </trkseg>
  </trk>
  <trk>
    <name><![CDATA[22 juil]]></name>
    <extensions>
      <line xmlns="http://www.topografix.com/GPX/gpx_style/0/2">
        <color>ff0000</color>
        <opacity>1</opacity>
        <width>3</width>
      </line>
    </extensions>
    <trkseg>
      <trkpt lat="44.51804" lon="3.7569">
        <ele>1218.6</ele>
      </trkpt>
      <trkpt lat="44.51804" lon="3.7569">
        <ele>1218.6</ele>
      </trkpt>
      <trkpt lat="44.51804" lon="3.7569">
        <ele>1218.6</ele>
      </trkpt>
      <trkpt lat="44.51804" lon="3.7569">
        <ele>1218.6</ele>
      </trkpt>
      <trkpt lat="44.51804" lon="3.7569">
        <ele>1218.6</ele>
      </trkpt>
      <trkpt lat="44.51804" lon="3.7569">
        <ele>1218.6</ele>
      </trkpt>
      <trkpt lat="44.51804" lon="3.7569">
        <ele>1218.6</ele>
      </trkpt>
      <trkpt lat="44.51804" lon="3.7569">
        <ele>1218.6</ele>
      </trkpt>
      <trkpt lat="44.51771" lon="3.75654">
        <ele>1226.9</ele>
      </trkpt>
      <trkpt lat="44.51715" lon="3.75486">
        <ele>1229</ele>
      </trkpt>
      <trkpt lat="44.51926" lon="3.75153">
        <ele>1248</ele>
      </trkpt>
      <trkpt lat="44.51901" lon="3.75109">
        <ele>1244.7</ele>
      </trkpt>
      <trkpt lat="44.516" lon="3.75251">
        <ele>1230.8</ele>
      </trkpt>
      <trkpt lat="44.51484" lon="3.75044">
        <ele>1233</ele>
      </trkpt>
      <trkpt lat="44.51394" lon="3.74884">
        <ele>1231.3</ele>
      </trkpt>
      <trkpt lat="44.51369" lon="3.74767">
        <ele>1245.2</ele>
      </trkpt>
      <trkpt lat="44.51312" lon="3.74796">
        <ele>1225</ele>
      </trkpt>
      <trkpt lat="44.51228" lon="3.74807">
        <ele>1208</ele>
      </trkpt>
      <trkpt lat="44.51191" lon="3.74717">
        <ele>1217.2</ele>
      </trkpt>
      <trkpt lat="44.51192" lon="3.74573">
        <ele>1244</ele>
      </trkpt>
      <trkpt lat="44.51088" lon="3.74706">
        <ele>1207</ele>
      </trkpt>
      <trkpt lat="44.50763" lon="3.74655">
        <ele>1179.6</ele>
      </trkpt>
      <trkpt lat="44.50564" lon="3.74465">
        <ele>1172</ele>
      </trkpt>
      <trkpt lat="44.50505" lon="3.74386">
        <ele>1178</ele>
      </trkpt>
      <trkpt lat="44.50456" lon="3.74444">
        <ele>1159</ele>
      </trkpt>
      <trkpt lat="44.50369" lon="3.74396">
        <ele>1173</ele>
      </trkpt>
      <trkpt lat="44.50228" lon="3.7446">
        <ele>1151</ele>
      </trkpt>
      <trkpt lat="44.50107" lon="3.74454">
        <ele>1144.2</ele>
      </trkpt>
      <trkpt lat="44.49915" lon="3.74366">
        <ele>1129</ele>
      </trkpt>
      <trkpt lat="44.49742" lon="3.74354">
        <ele>1113</ele>
      </trkpt>
      <trkpt lat="44.49643" lon="3.74346">
        <ele>1104</ele>
      </trkpt>
      <trkpt lat="44.4957" lon="3.74264">
        <ele>1103</ele>
      </trkpt>
      <trkpt lat="44.49484" lon="3.74157">
        <ele>1097</ele>
      </trkpt>
      <trkpt lat="44.49373" lon="3.74082">
        <ele>1095</ele>
      </trkpt>
      <trkpt lat="44.49304" lon="3.74017">
        <ele>1087</ele>
      </trkpt>
      <trkpt lat="44.49268" lon="3.73992">
        <ele>1088.9</ele>
      </trkpt>
      <trkpt lat="44.49155" lon="3.7396">
        <ele>1078.5</ele>
      </trkpt>
      <trkpt lat="44.49104" lon="3.73915">
        <ele>1079.9</ele>
      </trkpt>
      <trkpt lat="44.49073" lon="3.73919">
        <ele>1075</ele>
      </trkpt>
      <trkpt lat="44.49064" lon="3.73944">
        <ele>1073</ele>
      </trkpt>
      <trkpt lat="44.49051" lon="3.73985">
        <ele>1072</ele>
      </trkpt>
      <trkpt lat="44.49072" lon="3.74046">
        <ele>1070.9</ele>
      </trkpt>
      <trkpt lat="44.49057" lon="3.74013">
        <ele>1071</ele>
      </trkpt>
      <trkpt lat="44.49027" lon="3.73995">
        <ele>1070.131</ele>
        <time>2016-06-08T05:14:53Z</time>
      </trkpt>
      <trkpt lat="44.49016" lon="3.73952">
        <ele>1070.934</ele>
        <time>2016-06-08T05:15:13Z</time>
      </trkpt>
      <trkpt lat="44.48922" lon="3.73925">
        <ele>1064.555</ele>
        <time>2016-06-08T05:15:33Z</time>
      </trkpt>
      <trkpt lat="44.48899" lon="3.73837">
        <ele>1069.61</ele>
        <time>2016-06-08T05:15:53Z</time>
      </trkpt>
      <trkpt lat="44.48851" lon="3.73801">
        <ele>1077.2</ele>
      </trkpt>
      <trkpt lat="44.48808" lon="3.73748">
        <ele>1084.1</ele>
      </trkpt>
      <trkpt lat="44.48762" lon="3.73677">
        <ele>1087.526</ele>
        <time>2016-06-08T05:17:33Z</time>
      </trkpt>
      <trkpt lat="44.48729" lon="3.73658">
        <ele>1091.074</ele>
        <time>2016-06-08T05:17:53Z</time>
      </trkpt>
      <trkpt lat="44.4868" lon="3.73659">
        <ele>1096.366</ele>
        <time>2016-06-08T05:18:13Z</time>
      </trkpt>
      <trkpt lat="44.48618" lon="3.7373">
        <ele>1106.846</ele>
        <time>2016-06-08T05:18:33Z</time>
      </trkpt>
      <trkpt lat="44.48632" lon="3.73757">
        <ele>1109.067</ele>
        <time>2016-06-08T05:18:53Z</time>
      </trkpt>
      <trkpt lat="44.48566" lon="3.73807">
        <ele>1113.952</ele>
        <time>2016-06-08T05:19:13Z</time>
      </trkpt>
      <trkpt lat="44.48355" lon="3.74017">
        <ele>1131.353</ele>
        <time>2016-06-08T05:19:33Z</time>
      </trkpt>
      <trkpt lat="44.48329" lon="3.74015">
        <ele>1134.308</ele>
        <time>2016-06-08T05:19:53Z</time>
      </trkpt>
      <trkpt lat="44.48279" lon="3.73899">
        <ele>1146.108</ele>
        <time>2016-06-08T05:20:13Z</time>
      </trkpt>
      <trkpt lat="44.48252" lon="3.73891">
        <ele>1145.438</ele>
        <time>2016-06-08T05:20:33Z</time>
      </trkpt>
      <trkpt lat="44.48205" lon="3.73904">
        <ele>1147.389</ele>
        <time>2016-06-08T05:20:53Z</time>
      </trkpt>
      <trkpt lat="44.4816" lon="3.73939">
        <ele>1156.23</ele>
        <time>2016-06-08T05:21:13Z</time>
      </trkpt>
      <trkpt lat="44.48062" lon="3.7397">
        <ele>1167.938</ele>
        <time>2016-06-08T05:21:33Z</time>
      </trkpt>
      <trkpt lat="44.47934" lon="3.74038">
        <ele>1188.286</ele>
        <time>2016-06-08T05:21:53Z</time>
      </trkpt>
      <trkpt lat="44.47864" lon="3.74046">
        <ele>1186.878</ele>
        <time>2016-06-08T05:22:13Z</time>
      </trkpt>
      <trkpt lat="44.4776" lon="3.74044">
        <ele>1184.498</ele>
        <time>2016-06-08T05:22:33Z</time>
      </trkpt>
      <trkpt lat="44.47707" lon="3.74017">
        <ele>1184.829</ele>
        <time>2016-06-08T05:22:53Z</time>
      </trkpt>
      <trkpt lat="44.47641" lon="3.73999">
        <ele>1190.081</ele>
        <time>2016-06-08T05:23:13Z</time>
      </trkpt>
      <trkpt lat="44.47581" lon="3.73992">
        <ele>1192.261</ele>
        <time>2016-06-08T05:23:33Z</time>
      </trkpt>
      <trkpt lat="44.4754" lon="3.73975">
        <ele>1194.717</ele>
        <time>2016-06-08T05:23:53Z</time>
      </trkpt>
      <trkpt lat="44.47505" lon="3.73936">
        <ele>1194.641</ele>
        <time>2016-06-08T05:24:33Z</time>
      </trkpt>
      <trkpt lat="44.47456" lon="3.73869">
        <ele>1192.782</ele>
        <time>2016-06-08T05:24:53Z</time>
      </trkpt>
      <trkpt lat="44.47355" lon="3.73828">
        <ele>1196.253</ele>
        <time>2016-06-08T05:25:13Z</time>
      </trkpt>
      <trkpt lat="44.47297" lon="3.73832">
        <ele>1205.051</ele>
        <time>2016-06-08T05:25:33Z</time>
      </trkpt>
      <trkpt lat="44.47237" lon="3.73808">
        <ele>1219.329</ele>
        <time>2016-06-08T05:25:53Z</time>
      </trkpt>
      <trkpt lat="44.47185" lon="3.7381">
        <ele>1226.121</ele>
        <time>2016-06-08T05:26:13Z</time>
      </trkpt>
      <trkpt lat="44.47094" lon="3.73853">
        <ele>1241.811</ele>
        <time>2016-06-08T05:26:33Z</time>
      </trkpt>
      <trkpt lat="44.47051" lon="3.73955">
        <ele>1249.762</ele>
        <time>2016-06-08T05:26:53Z</time>
      </trkpt>
      <trkpt lat="44.47008" lon="3.74019">
        <ele>1254.243</ele>
        <time>2016-06-08T05:27:13Z</time>
      </trkpt>
      <trkpt lat="44.46881" lon="3.74161">
        <ele>1266.864</ele>
        <time>2016-06-08T05:27:33Z</time>
      </trkpt>
      <trkpt lat="44.46845" lon="3.74236">
        <ele>1276.11</ele>
        <time>2016-06-08T05:27:53Z</time>
      </trkpt>
      <trkpt lat="44.46865" lon="3.74414">
        <ele>1277.308</ele>
        <time>2016-06-08T05:28:13Z</time>
      </trkpt>
      <trkpt lat="44.46857" lon="3.74449">
        <ele>1280.847</ele>
        <time>2016-06-08T05:28:33Z</time>
      </trkpt>
      <trkpt lat="44.46751" lon="3.74578">
        <ele>1302.268</ele>
        <time>2016-06-08T05:28:53Z</time>
      </trkpt>
      <trkpt lat="44.46678" lon="3.74639">
        <ele>1325.859</ele>
        <time>2016-06-08T05:29:13Z</time>
      </trkpt>
      <trkpt lat="44.46576" lon="3.74672">
        <ele>1340.937</ele>
        <time>2016-06-08T05:29:33Z</time>
      </trkpt>
      <trkpt lat="44.46535" lon="3.74723">
        <ele>1342.045</ele>
        <time>2016-06-08T05:29:53Z</time>
      </trkpt>
      <trkpt lat="44.46483" lon="3.74769">
        <ele>1348.647</ele>
        <time>2016-06-08T05:30:13Z</time>
      </trkpt>
      <trkpt lat="44.46399" lon="3.74825">
        <ele>1369.567</ele>
        <time>2016-06-08T05:30:33Z</time>
      </trkpt>
      <trkpt lat="44.46313" lon="3.74829">
        <ele>1381.198</ele>
        <time>2016-06-08T05:30:53Z</time>
      </trkpt>
      <trkpt lat="44.46247" lon="3.74811">
        <ele>1391.279</ele>
        <time>2016-06-08T05:31:13Z</time>
      </trkpt>
      <trkpt lat="44.46147" lon="3.74789">
        <ele>1401.405</ele>
        <time>2016-06-08T05:31:33Z</time>
      </trkpt>
      <trkpt lat="44.46002" lon="3.74827">
        <ele>1409.025</ele>
        <time>2016-06-08T05:31:53Z</time>
      </trkpt>
      <trkpt lat="44.45822" lon="3.74883">
        <ele>1405.808</ele>
        <time>2016-06-08T05:32:13Z</time>
      </trkpt>
      <trkpt lat="44.45686" lon="3.74952">
        <ele>1401.24</ele>
        <time>2016-06-08T05:32:33Z</time>
      </trkpt>
      <trkpt lat="44.45639" lon="3.74941">
        <ele>1402.841</ele>
        <time>2016-06-08T05:32:53Z</time>
      </trkpt>
      <trkpt lat="44.45424" lon="3.74929">
        <ele>1413.372</ele>
        <time>2016-06-08T05:33:13Z</time>
      </trkpt>
      <trkpt lat="44.4536" lon="3.7491">
        <ele>1416.33</ele>
        <time>2016-06-08T05:33:33Z</time>
      </trkpt>
      <trkpt lat="44.45289" lon="3.74855">
        <ele>1417.018</ele>
        <time>2016-06-08T05:33:53Z</time>
      </trkpt>
      <trkpt lat="44.45164" lon="3.74782">
        <ele>1412.18</ele>
        <time>2016-06-08T05:34:13Z</time>
      </trkpt>
      <trkpt lat="44.45144" lon="3.74766">
        <ele>1412.23</ele>
        <time>2016-06-08T05:34:33Z</time>
      </trkpt>
      <trkpt lat="44.45041" lon="3.74741">
        <ele>1418.921</ele>
        <time>2019-03-26T01:52:11Z</time>
      </trkpt>
      <trkpt lat="44.44892" lon="3.74677">
        <ele>1434.085</ele>
        <time>2019-03-26T01:52:31Z</time>
      </trkpt>
      <trkpt lat="44.44757" lon="3.74679">
        <ele>1441.589</ele>
        <time>2016-06-08T05:36:13Z</time>
      </trkpt>
      <trkpt lat="44.44527" lon="3.74756">
        <ele>1474.417</ele>
        <time>2016-06-08T05:36:33Z</time>
      </trkpt>
      <trkpt lat="44.44511" lon="3.74808">
        <ele>1476.908</ele>
        <time>2016-06-08T05:36:53Z</time>
      </trkpt>
      <trkpt lat="44.44403" lon="3.74829">
        <ele>1490.481</ele>
        <time>2016-06-08T05:37:13Z</time>
      </trkpt>
      <trkpt lat="44.44342" lon="3.74886">
        <ele>1498.282</ele>
        <time>2016-06-08T05:37:33Z</time>
      </trkpt>
      <trkpt lat="44.44261" lon="3.74938">
        <ele>1512.353</ele>
        <time>2016-06-08T05:37:53Z</time>
      </trkpt>
      <trkpt lat="44.44174" lon="3.7495">
        <ele>1519.711</ele>
        <time>2016-06-08T05:38:13Z</time>
      </trkpt>
      <trkpt lat="44.43903" lon="3.74936">
        <ele>1538.219</ele>
        <time>2016-06-08T05:38:33Z</time>
      </trkpt>
      <trkpt lat="44.43669" lon="3.74919">
        <ele>1557.231</ele>
        <time>2016-06-08T05:38:53Z</time>
      </trkpt>
      <trkpt lat="44.4358" lon="3.7493">
        <ele>1561.171</ele>
        <time>2016-06-08T05:39:13Z</time>
      </trkpt>
      <trkpt lat="44.43401" lon="3.74886">
        <ele>1569.162</ele>
        <time>2016-06-08T05:39:33Z</time>
      </trkpt>
      <trkpt lat="44.43304" lon="3.74887">
        <ele>1573.197</ele>
        <time>2016-06-08T05:39:53Z</time>
      </trkpt>
      <trkpt lat="44.4314" lon="3.74922">
        <ele>1592.523</ele>
        <time>2016-06-08T05:40:13Z</time>
      </trkpt>
      <trkpt lat="44.42946" lon="3.75">
        <ele>1614.825</ele>
        <time>2016-06-08T05:40:33Z</time>
      </trkpt>
      <trkpt lat="44.42689" lon="3.75118">
        <ele>1631.808</ele>
        <time>2016-06-08T05:41:33Z</time>
      </trkpt>
      <trkpt lat="44.42635" lon="3.75141">
        <ele>1632.362</ele>
        <time>2016-06-08T05:41:53Z</time>
      </trkpt>
      <trkpt lat="44.42667" lon="3.74721">
        <ele>1670</ele>
      </trkpt>
      <trkpt lat="44.42674" lon="3.74614">
        <ele>1677</ele>
      </trkpt>
      <trkpt lat="44.42729" lon="3.74508">
        <ele>1681.1</ele>
      </trkpt>
      <trkpt lat="44.42669" lon="3.74304">
        <ele>1676</ele>
      </trkpt>
      <trkpt lat="44.42644" lon="3.74111">
        <ele>1687.2</ele>
      </trkpt>
      <trkpt lat="44.42611" lon="3.74017">
        <ele>1694</ele>
      </trkpt>
      <trkpt lat="44.42615" lon="3.73908">
        <ele>1696.8</ele>
      </trkpt>
      <trkpt lat="44.42486" lon="3.73868">
        <ele>1691.1</ele>
      </trkpt>
      <trkpt lat="44.42274" lon="3.73879">
        <ele>1665.9</ele>
      </trkpt>
      <trkpt lat="44.42224" lon="3.74083">
        <ele>1658.308</ele>
        <time>2016-06-08T05:45:53Z</time>
      </trkpt>
      <trkpt lat="44.42171" lon="3.7408">
        <ele>1651.9</ele>
      </trkpt>
      <trkpt lat="44.4205" lon="3.7412">
        <ele>1639.9</ele>
      </trkpt>
      <trkpt lat="44.41967" lon="3.74133">
        <ele>1625.6</ele>
      </trkpt>
      <trkpt lat="44.41931" lon="3.74154">
        <ele>1622.8</ele>
      </trkpt>
      <trkpt lat="44.41905" lon="3.74127">
        <ele>1609.8</ele>
      </trkpt>
      <trkpt lat="44.41847" lon="3.74166">
        <ele>1604.8</ele>
      </trkpt>
      <trkpt lat="44.41802" lon="3.74193">
        <ele>1598.729</ele>
        <time>2019-03-26T02:03:31Z</time>
      </trkpt>
      <trkpt lat="44.41743" lon="3.74339">
        <ele>1583</ele>
      </trkpt>
      <trkpt lat="44.4169" lon="3.74339">
        <ele>1573.2</ele>
      </trkpt>
      <trkpt lat="44.41639" lon="3.74298">
        <ele>1561</ele>
      </trkpt>
      <trkpt lat="44.41589" lon="3.74186">
        <ele>1545.55</ele>
        <time>2019-03-26T02:04:11Z</time>
      </trkpt>
      <trkpt lat="44.4158" lon="3.74134">
        <ele>1538.959</ele>
        <time>2019-03-26T02:04:31Z</time>
      </trkpt>
      <trkpt lat="44.41559" lon="3.74096">
        <ele>1530.1</ele>
      </trkpt>
      <trkpt lat="44.41539" lon="3.74015">
        <ele>1520.3</ele>
      </trkpt>
      <trkpt lat="44.41533" lon="3.73942">
        <ele>1508.808</ele>
        <time>2019-03-26T02:05:31Z</time>
      </trkpt>
      <trkpt lat="44.41524" lon="3.73892">
        <ele>1500.618</ele>
        <time>2019-03-26T02:05:51Z</time>
      </trkpt>
      <trkpt lat="44.41523" lon="3.73845">
        <ele>1496.389</ele>
        <time>2019-03-26T02:06:11Z</time>
      </trkpt>
      <trkpt lat="44.41498" lon="3.73832">
        <ele>1490.62</ele>
        <time>2019-03-26T02:06:31Z</time>
      </trkpt>
      <trkpt lat="44.41486" lon="3.73769">
        <ele>1483.968</ele>
        <time>2016-06-08T05:48:13Z</time>
      </trkpt>
      <trkpt lat="44.41519" lon="3.73692">
        <ele>1477.536</ele>
        <time>2016-06-08T05:48:33Z</time>
      </trkpt>
      <trkpt lat="44.41306" lon="3.73805">
        <ele>1462.018</ele>
        <time>2016-06-08T05:48:53Z</time>
      </trkpt>
      <trkpt lat="44.41277" lon="3.73876">
        <ele>1460.358</ele>
        <time>2016-06-08T05:49:13Z</time>
      </trkpt>
      <trkpt lat="44.41264" lon="3.73869">
        <ele>1458.269</ele>
        <time>2016-06-08T05:49:33Z</time>
      </trkpt>
      <trkpt lat="44.41219" lon="3.73779">
        <ele>1452.985</ele>
        <time>2016-06-08T05:49:53Z</time>
      </trkpt>
      <trkpt lat="44.41161" lon="3.73636">
        <ele>1449.789</ele>
        <time>2016-06-08T05:50:13Z</time>
      </trkpt>
      <trkpt lat="44.41094" lon="3.73499">
        <ele>1444.817</ele>
        <time>2019-03-26T02:09:11Z</time>
      </trkpt>
      <trkpt lat="44.4104" lon="3.73414">
        <ele>1436.808</ele>
        <time>2019-03-26T02:09:31Z</time>
      </trkpt>
      <trkpt lat="44.40853" lon="3.73296">
        <ele>1431.281</ele>
        <time>2016-06-08T05:51:13Z</time>
      </trkpt>
      <trkpt lat="44.40759" lon="3.73165">
        <ele>1423.172</ele>
        <time>2016-06-08T05:51:33Z</time>
      </trkpt>
      <trkpt lat="44.40721" lon="3.73147">
        <ele>1422.163</ele>
        <time>2016-06-08T05:51:53Z</time>
      </trkpt>
      <trkpt lat="44.40617" lon="3.7313">
        <ele>1417.791</ele>
        <time>2016-06-08T05:52:13Z</time>
      </trkpt>
      <trkpt lat="44.40548" lon="3.7314">
        <ele>1412.959</ele>
        <time>2016-06-08T05:52:33Z</time>
      </trkpt>
      <trkpt lat="44.40545" lon="3.72951">
        <ele>1407.771</ele>
        <time>2016-06-08T05:52:53Z</time>
      </trkpt>
      <trkpt lat="44.40435" lon="3.72904">
        <ele>1388.941</ele>
        <time>2016-06-08T05:53:13Z</time>
      </trkpt>
      <trkpt lat="44.40363" lon="3.72893">
        <ele>1377.482</ele>
        <time>2016-06-08T05:53:33Z</time>
      </trkpt>
      <trkpt lat="44.40304" lon="3.72876">
        <ele>1370.038</ele>
        <time>2016-06-08T05:53:53Z</time>
      </trkpt>
      <trkpt lat="44.40235" lon="3.72885">
        <ele>1356.07</ele>
        <time>2016-06-08T05:54:13Z</time>
      </trkpt>
      <trkpt lat="44.40194" lon="3.72909">
        <ele>1351.217</ele>
        <time>2016-06-08T05:54:33Z</time>
      </trkpt>
      <trkpt lat="44.40208" lon="3.73074">
        <ele>1339.308</ele>
        <time>2016-06-08T05:54:53Z</time>
      </trkpt>
      <trkpt lat="44.40186" lon="3.73197">
        <ele>1330.296</ele>
        <time>2016-06-08T05:55:13Z</time>
      </trkpt>
      <trkpt lat="44.40144" lon="3.7332">
        <ele>1318.997</ele>
        <time>2016-06-08T05:55:33Z</time>
      </trkpt>
      <trkpt lat="44.40132" lon="3.73441">
        <ele>1308.398</ele>
        <time>2016-06-08T05:55:53Z</time>
      </trkpt>
      <trkpt lat="44.4016" lon="3.73562">
        <ele>1305.154</ele>
        <time>2016-06-08T05:56:33Z</time>
      </trkpt>
      <trkpt lat="44.40147" lon="3.73713">
        <ele>1292.656</ele>
        <time>2016-06-08T05:56:53Z</time>
      </trkpt>
      <trkpt lat="44.40206" lon="3.74032">
        <ele>1265.836</ele>
        <time>2016-06-08T05:57:13Z</time>
      </trkpt>
      <trkpt lat="44.40229" lon="3.74071">
        <ele>1264.257</ele>
        <time>2016-06-08T05:57:33Z</time>
      </trkpt>
      <trkpt lat="44.40266" lon="3.74092">
        <ele>1263.578</ele>
        <time>2016-06-08T05:57:53Z</time>
      </trkpt>
      <trkpt lat="44.40309" lon="3.74181">
        <ele>1255.233</ele>
        <time>2016-06-08T05:58:13Z</time>
      </trkpt>
      <trkpt lat="44.40349" lon="3.74228">
        <ele>1251.126</ele>
        <time>2016-06-08T05:58:33Z</time>
      </trkpt>
      <trkpt lat="44.40371" lon="3.74272">
        <ele>1251.208</ele>
        <time>2016-06-08T05:58:53Z</time>
      </trkpt>
      <trkpt lat="44.40414" lon="3.74307">
        <ele>1254.58</ele>
        <time>2016-06-08T05:59:13Z</time>
      </trkpt>
      <trkpt lat="44.40433" lon="3.74364">
        <ele>1251.781</ele>
        <time>2016-06-08T05:59:33Z</time>
      </trkpt>
      <trkpt lat="44.40423" lon="3.74416">
        <ele>1244.012</ele>
        <time>2016-06-08T05:59:53Z</time>
      </trkpt>
      <trkpt lat="44.40406" lon="3.7442">
        <ele>1240.61</ele>
        <time>2016-06-08T06:00:13Z</time>
      </trkpt>
      <trkpt lat="44.4042" lon="3.74464">
        <ele>1241.018</ele>
        <time>2016-06-08T06:00:33Z</time>
      </trkpt>
      <trkpt lat="44.40407" lon="3.74507">
        <ele>1235.71</ele>
        <time>2016-06-08T06:00:53Z</time>
      </trkpt>
      <trkpt lat="44.40363" lon="3.74538">
        <ele>1230.4</ele>
      </trkpt>
      <trkpt lat="44.40349" lon="3.74648">
        <ele>1226.6</ele>
      </trkpt>
    </trkseg>
  </trk>
  <trk>
    <name><![CDATA[23 juil]]></name>
    <extensions>
      <line xmlns="http://www.topografix.com/GPX/gpx_style/0/2">
        <color>000000</color>
        <width>3</width>
      </line>
    </extensions>
    <trkseg>
      <trkpt lat="44.40346" lon="3.74647">
        <ele>1226.4</ele>
      </trkpt>
      <trkpt lat="44.40346" lon="3.74647">
        <ele>1226.4</ele>
      </trkpt>
      <trkpt lat="44.40346" lon="3.74647">
        <ele>1226.4</ele>
      </trkpt>
      <trkpt lat="44.40346" lon="3.74647">
        <ele>1226.4</ele>
      </trkpt>
      <trkpt lat="44.40346" lon="3.74647">
        <ele>1226.4</ele>
      </trkpt>
      <trkpt lat="44.40346" lon="3.74647">
        <ele>1226.4</ele>
      </trkpt>
      <trkpt lat="44.40349" lon="3.74626">
        <ele>1227.1</ele>
      </trkpt>
      <trkpt lat="44.40346" lon="3.74617">
        <ele>1226.9</ele>
      </trkpt>
      <trkpt lat="44.40347" lon="3.7461">
        <ele>1226.7</ele>
      </trkpt>
      <trkpt lat="44.40344" lon="3.74596">
        <ele>1225.7</ele>
      </trkpt>
      <trkpt lat="44.4034" lon="3.74589">
        <ele>1224.7</ele>
      </trkpt>
      <trkpt lat="44.40332" lon="3.74581">
        <ele>1222.7</ele>
      </trkpt>
      <trkpt lat="44.40328" lon="3.74573">
        <ele>1222</ele>
      </trkpt>
      <trkpt lat="44.40316" lon="3.74572">
        <ele>1221.3</ele>
      </trkpt>
      <trkpt lat="44.40307" lon="3.74482">
        <ele>1226.8</ele>
      </trkpt>
      <trkpt lat="44.403" lon="3.74483">
        <ele>1226.3</ele>
      </trkpt>
      <trkpt lat="44.40291" lon="3.74485">
        <ele>1225.6</ele>
      </trkpt>
      <trkpt lat="44.40276" lon="3.74483">
        <ele>1224.3</ele>
      </trkpt>
      <trkpt lat="44.40209" lon="3.74437">
        <ele>1217.7</ele>
      </trkpt>
      <trkpt lat="44.40194" lon="3.74431">
        <ele>1216.7</ele>
      </trkpt>
      <trkpt lat="44.40182" lon="3.7443">
        <ele>1216</ele>
      </trkpt>
      <trkpt lat="44.40139" lon="3.74432">
        <ele>1209.5</ele>
      </trkpt>
      <trkpt lat="44.40102" lon="3.74426">
        <ele>1207.5</ele>
        <extensions>
          <visugpx:TrkExtension xmlns:visugpx="https://www.visugpx.com/editgpx/">
            <visugpx:node>1</visugpx:node>
            </visugpx:TrkExtension>
        </extensions>
      </trkpt>
      <trkpt lat="44.40095" lon="3.7442">
        <ele>1207.3</ele>
      </trkpt>
      <trkpt lat="44.40091" lon="3.74413">
        <ele>1209</ele>
      </trkpt>
      <trkpt lat="44.40086" lon="3.7439">
        <ele>1211.4</ele>
      </trkpt>
      <trkpt lat="44.40081" lon="3.74381">
        <ele>1207.2</ele>
      </trkpt>
      <trkpt lat="44.40073" lon="3.74377">
        <ele>1207.2</ele>
      </trkpt>
      <trkpt lat="44.4005" lon="3.74375">
        <ele>1206.6</ele>
      </trkpt>
      <trkpt lat="44.4003" lon="3.74368">
        <ele>1206.1</ele>
      </trkpt>
      <trkpt lat="44.39821" lon="3.7429">
        <ele>1205.1</ele>
      </trkpt>
      <trkpt lat="44.39782" lon="3.7445">
        <ele>1191.9</ele>
      </trkpt>
      <trkpt lat="44.39771" lon="3.74477">
        <ele>1190.7</ele>
      </trkpt>
      <trkpt lat="44.39755" lon="3.74503">
        <ele>1187.7</ele>
      </trkpt>
      <trkpt lat="44.39751" lon="3.74508">
        <ele>1187.5</ele>
      </trkpt>
      <trkpt lat="44.39743" lon="3.7451">
        <ele>1186.5</ele>
      </trkpt>
      <trkpt lat="44.39713" lon="3.7451">
        <ele>1184.9</ele>
      </trkpt>
      <trkpt lat="44.3969" lon="3.74506">
        <ele>1184.6</ele>
      </trkpt>
      <trkpt lat="44.39674" lon="3.74509">
        <ele>1184.6</ele>
      </trkpt>
      <trkpt lat="44.39664" lon="3.74513">
        <ele>1183.3</ele>
      </trkpt>
      <trkpt lat="44.39655" lon="3.74512">
        <ele>1183</ele>
      </trkpt>
      <trkpt lat="44.39644" lon="3.74505">
        <ele>1182.6</ele>
      </trkpt>
      <trkpt lat="44.39634" lon="3.74504">
        <ele>1182.1</ele>
      </trkpt>
      <trkpt lat="44.39604" lon="3.74518">
        <ele>1181.1</ele>
      </trkpt>
      <trkpt lat="44.39502" lon="3.74532">
        <ele>1176.8</ele>
      </trkpt>
      <trkpt lat="44.39481" lon="3.74538">
        <ele>1173.4</ele>
      </trkpt>
      <trkpt lat="44.39457" lon="3.74549">
        <ele>1172.8</ele>
      </trkpt>
      <trkpt lat="44.3944" lon="3.74561">
        <ele>1172.7</ele>
      </trkpt>
      <trkpt lat="44.39423" lon="3.74579">
        <ele>1172.9</ele>
      </trkpt>
      <trkpt lat="44.39408" lon="3.7459">
        <ele>1170.6</ele>
      </trkpt>
      <trkpt lat="44.39404" lon="3.74596">
        <ele>1169.5</ele>
      </trkpt>
      <trkpt lat="44.39399" lon="3.74606">
        <ele>1168.4</ele>
      </trkpt>
      <trkpt lat="44.39389" lon="3.74614">
        <ele>1167.4</ele>
      </trkpt>
      <trkpt lat="44.3938" lon="3.74615">
        <ele>1166.9</ele>
      </trkpt>
      <trkpt lat="44.39371" lon="3.74613">
        <ele>1166.3</ele>
      </trkpt>
      <trkpt lat="44.39364" lon="3.74607">
        <ele>1165.8</ele>
      </trkpt>
      <trkpt lat="44.3936" lon="3.74598">
        <ele>1165.3</ele>
      </trkpt>
      <trkpt lat="44.39356" lon="3.74581">
        <ele>1162.8</ele>
      </trkpt>
      <trkpt lat="44.39355" lon="3.74551">
        <ele>1162.2</ele>
      </trkpt>
      <trkpt lat="44.39358" lon="3.74533">
        <ele>1161.4</ele>
      </trkpt>
      <trkpt lat="44.39392" lon="3.74451">
        <ele>1158.1</ele>
      </trkpt>
      <trkpt lat="44.39392" lon="3.74437">
        <ele>1157.8</ele>
      </trkpt>
      <trkpt lat="44.39389" lon="3.74421">
        <ele>1157.4</ele>
      </trkpt>
      <trkpt lat="44.39381" lon="3.74409">
        <ele>1157.2</ele>
      </trkpt>
      <trkpt lat="44.39362" lon="3.7439">
        <ele>1156.6</ele>
      </trkpt>
      <trkpt lat="44.39357" lon="3.7438">
        <ele>1156.8</ele>
      </trkpt>
      <trkpt lat="44.39351" lon="3.74362">
        <ele>1157.4</ele>
      </trkpt>
      <trkpt lat="44.39343" lon="3.74349">
        <ele>1157.7</ele>
      </trkpt>
      <trkpt lat="44.39325" lon="3.74342">
        <ele>1155.7</ele>
      </trkpt>
      <trkpt lat="44.39219" lon="3.74355">
        <ele>1148.5</ele>
      </trkpt>
      <trkpt lat="44.39209" lon="3.7435">
        <ele>1148.3</ele>
      </trkpt>
      <trkpt lat="44.39204" lon="3.74343">
        <ele>1148.4</ele>
      </trkpt>
      <trkpt lat="44.39196" lon="3.7432">
        <ele>1154</ele>
      </trkpt>
      <trkpt lat="44.3919" lon="3.74309">
        <ele>1154.6</ele>
      </trkpt>
      <trkpt lat="44.3918" lon="3.74303">
        <ele>1155.1</ele>
      </trkpt>
      <trkpt lat="44.39164" lon="3.743">
        <ele>1158.6</ele>
      </trkpt>
      <trkpt lat="44.39145" lon="3.74301">
        <ele>1159.3</ele>
      </trkpt>
      <trkpt lat="44.39136" lon="3.74305">
        <ele>1159.3</ele>
      </trkpt>
      <trkpt lat="44.39125" lon="3.74315">
        <ele>1158.8</ele>
      </trkpt>
      <trkpt lat="44.39104" lon="3.74342">
        <ele>1148.6</ele>
      </trkpt>
      <trkpt lat="44.39061" lon="3.74363">
        <ele>1149.1</ele>
      </trkpt>
      <trkpt lat="44.39039" lon="3.74378">
        <ele>1148.3</ele>
      </trkpt>
      <trkpt lat="44.39026" lon="3.74398">
        <ele>1146.5</ele>
      </trkpt>
      <trkpt lat="44.39003" lon="3.74423">
        <ele>1140.9</ele>
      </trkpt>
      <trkpt lat="44.3899" lon="3.74432">
        <ele>1141.7</ele>
      </trkpt>
      <trkpt lat="44.38978" lon="3.74445">
        <ele>1141.5</ele>
      </trkpt>
      <trkpt lat="44.3894" lon="3.74469">
        <ele>1141.5</ele>
      </trkpt>
      <trkpt lat="44.3892" lon="3.74474">
        <ele>1141.6</ele>
      </trkpt>
      <trkpt lat="44.38901" lon="3.74475">
        <ele>1142.5</ele>
      </trkpt>
      <trkpt lat="44.38885" lon="3.74474">
        <ele>1142.7</ele>
      </trkpt>
      <trkpt lat="44.3886" lon="3.74468">
        <ele>1142.8</ele>
      </trkpt>
      <trkpt lat="44.38847" lon="3.74468">
        <ele>1142.7</ele>
      </trkpt>
      <trkpt lat="44.38815" lon="3.74475">
        <ele>1141.6</ele>
      </trkpt>
      <trkpt lat="44.38781" lon="3.74487">
        <ele>1140.6</ele>
      </trkpt>
      <trkpt lat="44.38758" lon="3.74492">
        <ele>1138.4</ele>
      </trkpt>
      <trkpt lat="44.38741" lon="3.74499">
        <ele>1137.5</ele>
      </trkpt>
      <trkpt lat="44.38725" lon="3.74509">
        <ele>1135.7</ele>
      </trkpt>
      <trkpt lat="44.38703" lon="3.74532">
        <ele>1135.7</ele>
      </trkpt>
      <trkpt lat="44.38677" lon="3.74544">
        <ele>1135.8</ele>
      </trkpt>
      <trkpt lat="44.38667" lon="3.74545">
        <ele>1135.8</ele>
      </trkpt>
      <trkpt lat="44.38657" lon="3.74543">
        <ele>1135.2</ele>
      </trkpt>
      <trkpt lat="44.38623" lon="3.74532">
        <ele>1134.4</ele>
      </trkpt>
      <trkpt lat="44.38614" lon="3.74527">
        <ele>1134</ele>
        <extensions>
          <visugpx:TrkExtension xmlns:visugpx="https://www.visugpx.com/editgpx/">
            <visugpx:node>2</visugpx:node>
            </visugpx:TrkExtension>
        </extensions>
      </trkpt>
      <trkpt lat="44.38603" lon="3.74522">
        <ele>1133.5</ele>
      </trkpt>
      <trkpt lat="44.38561" lon="3.74482">
        <ele>1131.7</ele>
      </trkpt>
      <trkpt lat="44.38548" lon="3.74467">
        <ele>1132</ele>
      </trkpt>
      <trkpt lat="44.38529" lon="3.74462">
        <ele>1131.9</ele>
      </trkpt>
      <trkpt lat="44.38519" lon="3.74462">
        <ele>1131.7</ele>
      </trkpt>
      <trkpt lat="44.38482" lon="3.74476">
        <ele>1128.1</ele>
      </trkpt>
      <trkpt lat="44.38444" lon="3.74478">
        <ele>1126.9</ele>
      </trkpt>
      <trkpt lat="44.38438" lon="3.74476">
        <ele>1126.8</ele>
      </trkpt>
      <trkpt lat="44.38419" lon="3.74463">
        <ele>1127.4</ele>
      </trkpt>
      <trkpt lat="44.3841" lon="3.7446">
        <ele>1124.9</ele>
      </trkpt>
      <trkpt lat="44.38391" lon="3.74455">
        <ele>1124.9</ele>
      </trkpt>
      <trkpt lat="44.38353" lon="3.74456">
        <ele>1123.8</ele>
      </trkpt>
      <trkpt lat="44.38342" lon="3.74453">
        <ele>1123.9</ele>
      </trkpt>
      <trkpt lat="44.3833" lon="3.74445">
        <ele>1123.1</ele>
      </trkpt>
      <trkpt lat="44.3832" lon="3.74443">
        <ele>1123.1</ele>
      </trkpt>
      <trkpt lat="44.38313" lon="3.74445">
        <ele>1122.9</ele>
      </trkpt>
      <trkpt lat="44.38299" lon="3.74459">
        <ele>1122.2</ele>
      </trkpt>
      <trkpt lat="44.38282" lon="3.74485">
        <ele>1121.6</ele>
      </trkpt>
      <trkpt lat="44.38277" lon="3.7449">
        <ele>1121.5</ele>
      </trkpt>
      <trkpt lat="44.38255" lon="3.74496">
        <ele>1121.2</ele>
      </trkpt>
      <trkpt lat="44.38245" lon="3.74502">
        <ele>1119.8</ele>
      </trkpt>
      <trkpt lat="44.38226" lon="3.7452">
        <ele>1116.7</ele>
      </trkpt>
      <trkpt lat="44.3822" lon="3.7452">
        <ele>1116.4</ele>
      </trkpt>
      <trkpt lat="44.382" lon="3.74514">
        <ele>1116.2</ele>
      </trkpt>
      <trkpt lat="44.38187" lon="3.74507">
        <ele>1116.5</ele>
      </trkpt>
      <trkpt lat="44.38175" lon="3.74505">
        <ele>1117.1</ele>
      </trkpt>
      <trkpt lat="44.38158" lon="3.74493">
        <ele>1117.2</ele>
      </trkpt>
      <trkpt lat="44.38148" lon="3.7449">
        <ele>1116.6</ele>
      </trkpt>
      <trkpt lat="44.38135" lon="3.74488">
        <ele>1115.9</ele>
      </trkpt>
      <trkpt lat="44.38128" lon="3.74485">
        <ele>1115.6</ele>
      </trkpt>
      <trkpt lat="44.38109" lon="3.74467">
        <ele>1114.9</ele>
      </trkpt>
      <trkpt lat="44.38097" lon="3.74471">
        <ele>1114.3</ele>
      </trkpt>
      <trkpt lat="44.38092" lon="3.7447">
        <ele>1114.2</ele>
      </trkpt>
      <trkpt lat="44.38085" lon="3.74464">
        <ele>1114.2</ele>
      </trkpt>
      <trkpt lat="44.38081" lon="3.74464">
        <ele>1109.9</ele>
      </trkpt>
      <trkpt lat="44.38077" lon="3.74466">
        <ele>1109.8</ele>
      </trkpt>
      <trkpt lat="44.38071" lon="3.7448">
        <ele>1109.7</ele>
      </trkpt>
      <trkpt lat="44.38067" lon="3.74484">
        <ele>1109.6</ele>
      </trkpt>
      <trkpt lat="44.38061" lon="3.74484">
        <ele>1109.3</ele>
      </trkpt>
      <trkpt lat="44.38057" lon="3.74478">
        <ele>1109.1</ele>
      </trkpt>
      <trkpt lat="44.38053" lon="3.74455">
        <ele>1109.2</ele>
      </trkpt>
      <trkpt lat="44.3805" lon="3.74449">
        <ele>1109.3</ele>
      </trkpt>
      <trkpt lat="44.3804" lon="3.74444">
        <ele>1109</ele>
      </trkpt>
      <trkpt lat="44.38033" lon="3.74447">
        <ele>1108.7</ele>
      </trkpt>
      <trkpt lat="44.38024" lon="3.7445">
        <ele>1108.3</ele>
      </trkpt>
      <trkpt lat="44.38015" lon="3.74451">
        <ele>1108</ele>
      </trkpt>
      <trkpt lat="44.38007" lon="3.74448">
        <ele>1108</ele>
      </trkpt>
      <trkpt lat="44.37978" lon="3.74456">
        <ele>1105</ele>
      </trkpt>
      <trkpt lat="44.37972" lon="3.74455">
        <ele>1105</ele>
      </trkpt>
      <trkpt lat="44.37962" lon="3.74442">
        <ele>1105.5</ele>
      </trkpt>
      <trkpt lat="44.37955" lon="3.7444">
        <ele>1105.5</ele>
      </trkpt>
      <trkpt lat="44.37913" lon="3.74445">
        <ele>1105.6</ele>
      </trkpt>
      <trkpt lat="44.37902" lon="3.74445">
        <ele>1105.5</ele>
      </trkpt>
      <trkpt lat="44.37895" lon="3.74442">
        <ele>1105.7</ele>
      </trkpt>
      <trkpt lat="44.37882" lon="3.74416">
        <ele>1111.6</ele>
      </trkpt>
      <trkpt lat="44.37878" lon="3.74412">
        <ele>1111.7</ele>
      </trkpt>
      <trkpt lat="44.37868" lon="3.74409">
        <ele>1111.7</ele>
      </trkpt>
      <trkpt lat="44.37865" lon="3.74403">
        <ele>1111.9</ele>
      </trkpt>
      <trkpt lat="44.37861" lon="3.74388">
        <ele>1112.5</ele>
      </trkpt>
      <trkpt lat="44.37857" lon="3.74354">
        <ele>1114.4</ele>
      </trkpt>
      <trkpt lat="44.37855" lon="3.7435">
        <ele>1114.6</ele>
      </trkpt>
      <trkpt lat="44.37848" lon="3.74346">
        <ele>1115</ele>
      </trkpt>
      <trkpt lat="44.37842" lon="3.74324">
        <ele>1119.2</ele>
      </trkpt>
      <trkpt lat="44.37838" lon="3.74321">
        <ele>1119.3</ele>
      </trkpt>
      <trkpt lat="44.3783" lon="3.74317">
        <ele>1119.1</ele>
      </trkpt>
      <trkpt lat="44.37811" lon="3.74316">
        <ele>1119.7</ele>
      </trkpt>
      <trkpt lat="44.37802" lon="3.74318">
        <ele>1119.8</ele>
      </trkpt>
      <trkpt lat="44.37793" lon="3.74322">
        <ele>1119.7</ele>
      </trkpt>
      <trkpt lat="44.37779" lon="3.74334">
        <ele>1115.1</ele>
      </trkpt>
      <trkpt lat="44.37763" lon="3.7436">
        <ele>1114.7</ele>
      </trkpt>
      <trkpt lat="44.37747" lon="3.74382">
        <ele>1113.1</ele>
      </trkpt>
      <trkpt lat="44.37705" lon="3.74366">
        <ele>1113</ele>
      </trkpt>
      <trkpt lat="44.37684" lon="3.74363">
        <ele>1112.8</ele>
      </trkpt>
      <trkpt lat="44.37627" lon="3.7436">
        <ele>1104.1</ele>
      </trkpt>
      <trkpt lat="44.37617" lon="3.74355">
        <ele>1103</ele>
      </trkpt>
      <trkpt lat="44.37613" lon="3.74347">
        <ele>1102.5</ele>
      </trkpt>
      <trkpt lat="44.3761" lon="3.74332">
        <ele>1105.3</ele>
      </trkpt>
      <trkpt lat="44.37598" lon="3.74312">
        <ele>1104.9</ele>
      </trkpt>
      <trkpt lat="44.37595" lon="3.74297">
        <ele>1106.3</ele>
      </trkpt>
      <trkpt lat="44.37585" lon="3.74267">
        <ele>1106.6</ele>
      </trkpt>
      <trkpt lat="44.37579" lon="3.74254">
        <ele>1104.4</ele>
      </trkpt>
      <trkpt lat="44.37574" lon="3.7425">
        <ele>1104.2</ele>
      </trkpt>
      <trkpt lat="44.37569" lon="3.74251">
        <ele>1103.9</ele>
      </trkpt>
      <trkpt lat="44.37565" lon="3.74255">
        <ele>1103.7</ele>
      </trkpt>
      <trkpt lat="44.37546" lon="3.74285">
        <ele>1102.2</ele>
        <extensions>
          <visugpx:TrkExtension xmlns:visugpx="https://www.visugpx.com/editgpx/">
            <visugpx:node>3</visugpx:node>
            </visugpx:TrkExtension>
        </extensions>
      </trkpt>
      <trkpt lat="44.37533" lon="3.74285">
        <ele>1102.4</ele>
      </trkpt>
      <trkpt lat="44.37515" lon="3.7429">
        <ele>1102.2</ele>
      </trkpt>
      <trkpt lat="44.37498" lon="3.74307">
        <ele>1100.3</ele>
      </trkpt>
      <trkpt lat="44.37458" lon="3.74334">
        <ele>1093</ele>
      </trkpt>
      <trkpt lat="44.37439" lon="3.74358">
        <ele>1093</ele>
      </trkpt>
      <trkpt lat="44.37429" lon="3.74366">
        <ele>1092.7</ele>
      </trkpt>
      <trkpt lat="44.37426" lon="3.74394">
        <ele>1090.3</ele>
      </trkpt>
      <trkpt lat="44.37396" lon="3.74452">
        <ele>1082.9</ele>
      </trkpt>
      <trkpt lat="44.37392" lon="3.74465">
        <ele>1081.7</ele>
      </trkpt>
      <trkpt lat="44.37375" lon="3.74491">
        <ele>1081</ele>
      </trkpt>
      <trkpt lat="44.37364" lon="3.74503">
        <ele>1073.5</ele>
      </trkpt>
      <trkpt lat="44.3734" lon="3.74518">
        <ele>1075.1</ele>
      </trkpt>
      <trkpt lat="44.37319" lon="3.74528">
        <ele>1072.5</ele>
      </trkpt>
      <trkpt lat="44.37307" lon="3.74526">
        <ele>1071.7</ele>
      </trkpt>
      <trkpt lat="44.37296" lon="3.74527">
        <ele>1070.7</ele>
      </trkpt>
      <trkpt lat="44.37293" lon="3.74524">
        <ele>1070.7</ele>
      </trkpt>
      <trkpt lat="44.37277" lon="3.74526">
        <ele>1069.6</ele>
      </trkpt>
      <trkpt lat="44.37261" lon="3.74523">
        <ele>1069</ele>
      </trkpt>
      <trkpt lat="44.37254" lon="3.74526">
        <ele>1068.7</ele>
      </trkpt>
      <trkpt lat="44.37241" lon="3.74542">
        <ele>1059</ele>
      </trkpt>
      <trkpt lat="44.37221" lon="3.74577">
        <ele>1057.6</ele>
      </trkpt>
      <trkpt lat="44.37198" lon="3.74596">
        <ele>1050.9</ele>
      </trkpt>
      <trkpt lat="44.37186" lon="3.74614">
        <ele>1049.4</ele>
      </trkpt>
      <trkpt lat="44.37181" lon="3.74616">
        <ele>1049.1</ele>
      </trkpt>
      <trkpt lat="44.37145" lon="3.74604">
        <ele>1038.6</ele>
      </trkpt>
      <trkpt lat="44.37141" lon="3.74605">
        <ele>1037.9</ele>
      </trkpt>
      <trkpt lat="44.37138" lon="3.74608">
        <ele>1037.3</ele>
      </trkpt>
      <trkpt lat="44.37137" lon="3.74622">
        <ele>1036.4</ele>
      </trkpt>
      <trkpt lat="44.37133" lon="3.74623">
        <ele>1036</ele>
      </trkpt>
      <trkpt lat="44.37129" lon="3.74622">
        <ele>1035.5</ele>
      </trkpt>
      <trkpt lat="44.37124" lon="3.74612">
        <ele>1035.2</ele>
      </trkpt>
      <trkpt lat="44.3712" lon="3.74608">
        <ele>1034.7</ele>
      </trkpt>
      <trkpt lat="44.37108" lon="3.74614">
        <ele>1033.2</ele>
      </trkpt>
      <trkpt lat="44.37088" lon="3.74617">
        <ele>1031.5</ele>
      </trkpt>
      <trkpt lat="44.37085" lon="3.74613">
        <ele>1031.2</ele>
      </trkpt>
      <trkpt lat="44.37086" lon="3.74607">
        <ele>1030.9</ele>
      </trkpt>
      <trkpt lat="44.37095" lon="3.7459">
        <ele>1029.9</ele>
      </trkpt>
      <trkpt lat="44.37109" lon="3.7453">
        <ele>1031.7</ele>
      </trkpt>
      <trkpt lat="44.37112" lon="3.74513">
        <ele>1031</ele>
      </trkpt>
      <trkpt lat="44.3711" lon="3.74508">
        <ele>1030.4</ele>
      </trkpt>
      <trkpt lat="44.37108" lon="3.74507">
        <ele>1029.9</ele>
      </trkpt>
      <trkpt lat="44.37105" lon="3.74509">
        <ele>1029.3</ele>
      </trkpt>
      <trkpt lat="44.37096" lon="3.74504">
        <ele>1026.5</ele>
      </trkpt>
      <trkpt lat="44.37088" lon="3.74503">
        <ele>1023.7</ele>
      </trkpt>
      <trkpt lat="44.37079" lon="3.74503">
        <ele>1019.8</ele>
      </trkpt>
      <trkpt lat="44.37072" lon="3.74506">
        <ele>1018.4</ele>
      </trkpt>
      <trkpt lat="44.37047" lon="3.74505">
        <ele>1014.7</ele>
      </trkpt>
      <trkpt lat="44.37036" lon="3.745">
        <ele>1013.1</ele>
      </trkpt>
      <trkpt lat="44.37021" lon="3.7449">
        <ele>1015.8</ele>
      </trkpt>
      <trkpt lat="44.37013" lon="3.74486">
        <ele>1014.7</ele>
      </trkpt>
      <trkpt lat="44.37009" lon="3.74487">
        <ele>1013.5</ele>
      </trkpt>
      <trkpt lat="44.37005" lon="3.74484">
        <ele>1013.8</ele>
      </trkpt>
      <trkpt lat="44.36976" lon="3.74493">
        <ele>1003.5</ele>
      </trkpt>
      <trkpt lat="44.36975" lon="3.74495">
        <ele>1003.3</ele>
      </trkpt>
      <trkpt lat="44.36971" lon="3.74496">
        <ele>1002.7</ele>
      </trkpt>
      <trkpt lat="44.36964" lon="3.74496">
        <ele>1001.6</ele>
      </trkpt>
      <trkpt lat="44.36949" lon="3.74488">
        <ele>999.1</ele>
      </trkpt>
      <trkpt lat="44.36923" lon="3.74484">
        <ele>993.1</ele>
      </trkpt>
      <trkpt lat="44.36915" lon="3.74478">
        <ele>982.9</ele>
      </trkpt>
      <trkpt lat="44.36902" lon="3.74465">
        <ele>983.7</ele>
      </trkpt>
      <trkpt lat="44.36893" lon="3.74458">
        <ele>983.8</ele>
      </trkpt>
      <trkpt lat="44.36867" lon="3.74448">
        <ele>981.4</ele>
      </trkpt>
      <trkpt lat="44.36846" lon="3.74442">
        <ele>979.8</ele>
      </trkpt>
      <trkpt lat="44.36821" lon="3.7444">
        <ele>964.5</ele>
      </trkpt>
      <trkpt lat="44.36822" lon="3.74448">
        <ele>962.5</ele>
      </trkpt>
      <trkpt lat="44.36814" lon="3.74448">
        <ele>961.3</ele>
      </trkpt>
      <trkpt lat="44.36779" lon="3.74433">
        <ele>957</ele>
      </trkpt>
      <trkpt lat="44.36768" lon="3.74425">
        <ele>955.8</ele>
      </trkpt>
      <trkpt lat="44.36763" lon="3.74411">
        <ele>965.1</ele>
      </trkpt>
      <trkpt lat="44.36755" lon="3.74405">
        <ele>964.3</ele>
      </trkpt>
      <trkpt lat="44.36749" lon="3.74406">
        <ele>956.8</ele>
      </trkpt>
      <trkpt lat="44.367" lon="3.74429">
        <ele>938.4</ele>
      </trkpt>
      <trkpt lat="44.36677" lon="3.74435">
        <ele>936.9</ele>
      </trkpt>
      <trkpt lat="44.36663" lon="3.74436">
        <ele>929.4</ele>
      </trkpt>
      <trkpt lat="44.36649" lon="3.74434">
        <ele>927.8</ele>
      </trkpt>
      <trkpt lat="44.36637" lon="3.74427">
        <ele>926.4</ele>
      </trkpt>
      <trkpt lat="44.36623" lon="3.74429">
        <ele>924.2</ele>
      </trkpt>
      <trkpt lat="44.36617" lon="3.74428">
        <ele>923.6</ele>
      </trkpt>
      <trkpt lat="44.36607" lon="3.74431">
        <ele>922.8</ele>
      </trkpt>
      <trkpt lat="44.36603" lon="3.74433">
        <ele>922.5</ele>
      </trkpt>
      <trkpt lat="44.36602" lon="3.74436">
        <ele>922.2</ele>
      </trkpt>
      <trkpt lat="44.36599" lon="3.74439">
        <ele>921.8</ele>
      </trkpt>
      <trkpt lat="44.3659" lon="3.74437">
        <ele>921.8</ele>
      </trkpt>
      <trkpt lat="44.36587" lon="3.74437">
        <ele>921.8</ele>
      </trkpt>
      <trkpt lat="44.3658" lon="3.74439">
        <ele>914.6</ele>
      </trkpt>
      <trkpt lat="44.36573" lon="3.74439">
        <ele>914</ele>
      </trkpt>
      <trkpt lat="44.36529" lon="3.74417">
        <ele>909.9</ele>
      </trkpt>
      <trkpt lat="44.36517" lon="3.74415">
        <ele>916.5</ele>
      </trkpt>
      <trkpt lat="44.365" lon="3.74404">
        <ele>914.9</ele>
      </trkpt>
      <trkpt lat="44.36486" lon="3.74408">
        <ele>905.8</ele>
      </trkpt>
      <trkpt lat="44.36478" lon="3.74407">
        <ele>904.7</ele>
      </trkpt>
      <trkpt lat="44.36462" lon="3.74411">
        <ele>902.2</ele>
      </trkpt>
      <trkpt lat="44.36457" lon="3.74409">
        <ele>901.4</ele>
      </trkpt>
      <trkpt lat="44.36434" lon="3.74371">
        <ele>900</ele>
      </trkpt>
      <trkpt lat="44.36428" lon="3.74367">
        <ele>899.3</ele>
      </trkpt>
      <trkpt lat="44.36421" lon="3.74371">
        <ele>898.7</ele>
      </trkpt>
      <trkpt lat="44.36416" lon="3.74378">
        <ele>886.3</ele>
      </trkpt>
      <trkpt lat="44.36409" lon="3.74382">
        <ele>886</ele>
      </trkpt>
      <trkpt lat="44.36389" lon="3.74373">
        <ele>884.9</ele>
      </trkpt>
      <trkpt lat="44.36382" lon="3.74352">
        <ele>884.5</ele>
      </trkpt>
      <trkpt lat="44.36378" lon="3.74327">
        <ele>883.4</ele>
      </trkpt>
      <trkpt lat="44.36374" lon="3.74318">
        <ele>882.8</ele>
      </trkpt>
      <trkpt lat="44.36367" lon="3.74335">
        <ele>882.5</ele>
      </trkpt>
      <trkpt lat="44.36344" lon="3.74351">
        <ele>879.9</ele>
      </trkpt>
      <trkpt lat="44.36339" lon="3.74357">
        <ele>880.2</ele>
      </trkpt>
      <trkpt lat="44.3633" lon="3.7436">
        <ele>877.9</ele>
      </trkpt>
      <trkpt lat="44.36324" lon="3.74356">
        <ele>877.8</ele>
      </trkpt>
      <trkpt lat="44.36294" lon="3.74344">
        <ele>879.3</ele>
      </trkpt>
      <trkpt lat="44.36285" lon="3.74339">
        <ele>880.1</ele>
      </trkpt>
      <trkpt lat="44.36277" lon="3.74361">
        <ele>880.1</ele>
      </trkpt>
      <trkpt lat="44.36266" lon="3.74353">
        <ele>881.1</ele>
      </trkpt>
      <trkpt lat="44.36265" lon="3.74346">
        <ele>881.6</ele>
      </trkpt>
      <trkpt lat="44.36261" lon="3.74342">
        <ele>882.3</ele>
      </trkpt>
      <trkpt lat="44.36252" lon="3.74334">
        <ele>884.5</ele>
      </trkpt>
      <trkpt lat="44.36245" lon="3.74338">
        <ele>886.9</ele>
      </trkpt>
      <trkpt lat="44.36232" lon="3.74354">
        <ele>890.2</ele>
      </trkpt>
      <trkpt lat="44.36226" lon="3.74342">
        <ele>891</ele>
      </trkpt>
      <trkpt lat="44.36243" lon="3.74285">
        <ele>905.7</ele>
      </trkpt>
      <trkpt lat="44.36242" lon="3.74279">
        <ele>906.4</ele>
      </trkpt>
      <trkpt lat="44.36206" lon="3.74318">
        <ele>907.2</ele>
      </trkpt>
      <trkpt lat="44.3619" lon="3.74346">
        <ele>899.1</ele>
      </trkpt>
      <trkpt lat="44.36179" lon="3.74359">
        <ele>898.9</ele>
      </trkpt>
      <trkpt lat="44.36168" lon="3.74368">
        <ele>897.9</ele>
      </trkpt>
      <trkpt lat="44.36142" lon="3.74377">
        <ele>910.2</ele>
        <extensions>
          <visugpx:TrkExtension xmlns:visugpx="https://www.visugpx.com/editgpx/">
            <visugpx:node>4</visugpx:node>
            </visugpx:TrkExtension>
        </extensions>
      </trkpt>
      <trkpt lat="44.36136" lon="3.74379">
        <ele>910.6</ele>
      </trkpt>
      <trkpt lat="44.36085" lon="3.74381">
        <ele>914.2</ele>
      </trkpt>
      <trkpt lat="44.36074" lon="3.74373">
        <ele>921.6</ele>
      </trkpt>
      <trkpt lat="44.36069" lon="3.74363">
        <ele>923.7</ele>
      </trkpt>
      <trkpt lat="44.36069" lon="3.74361">
        <ele>924.2</ele>
      </trkpt>
      <trkpt lat="44.36073" lon="3.74361">
        <ele>924.3</ele>
      </trkpt>
      <trkpt lat="44.36082" lon="3.74365">
        <ele>923.5</ele>
      </trkpt>
      <trkpt lat="44.36091" lon="3.74361">
        <ele>918.8</ele>
      </trkpt>
      <trkpt lat="44.36101" lon="3.7434">
        <ele>922.5</ele>
      </trkpt>
      <trkpt lat="44.36099" lon="3.74334">
        <ele>924</ele>
      </trkpt>
      <trkpt lat="44.36089" lon="3.74329">
        <ele>934.1</ele>
      </trkpt>
      <trkpt lat="44.36087" lon="3.74322">
        <ele>934.5</ele>
      </trkpt>
      <trkpt lat="44.3609" lon="3.74313">
        <ele>935.2</ele>
      </trkpt>
      <trkpt lat="44.36103" lon="3.74303">
        <ele>935.6</ele>
      </trkpt>
      <trkpt lat="44.36106" lon="3.74299">
        <ele>935.9</ele>
      </trkpt>
      <trkpt lat="44.36103" lon="3.74296">
        <ele>936.6</ele>
      </trkpt>
      <trkpt lat="44.36088" lon="3.74297">
        <ele>937.5</ele>
      </trkpt>
      <trkpt lat="44.36085" lon="3.74294">
        <ele>938.1</ele>
      </trkpt>
      <trkpt lat="44.3609" lon="3.74289">
        <ele>938.9</ele>
      </trkpt>
      <trkpt lat="44.36108" lon="3.74262">
        <ele>941.9</ele>
      </trkpt>
      <trkpt lat="44.36128" lon="3.74202">
        <ele>959.3</ele>
      </trkpt>
      <trkpt lat="44.36139" lon="3.74185">
        <ele>960.1</ele>
      </trkpt>
      <trkpt lat="44.36152" lon="3.74146">
        <ele>972.5</ele>
      </trkpt>
      <trkpt lat="44.36165" lon="3.74118">
        <ele>976.6</ele>
      </trkpt>
      <trkpt lat="44.36178" lon="3.74101">
        <ele>965.7</ele>
      </trkpt>
      <trkpt lat="44.36173" lon="3.74097">
        <ele>968.5</ele>
      </trkpt>
      <trkpt lat="44.36167" lon="3.74099">
        <ele>968.4</ele>
      </trkpt>
      <trkpt lat="44.36157" lon="3.7411">
        <ele>977.9</ele>
      </trkpt>
      <trkpt lat="44.3605" lon="3.74149">
        <ele>993.9</ele>
      </trkpt>
      <trkpt lat="44.36025" lon="3.74146">
        <ele>996.4</ele>
      </trkpt>
      <trkpt lat="44.35953" lon="3.74129">
        <ele>1009</ele>
      </trkpt>
      <trkpt lat="44.35925" lon="3.74104">
        <ele>1015.8</ele>
      </trkpt>
      <trkpt lat="44.35849" lon="3.74061">
        <ele>1035.7</ele>
      </trkpt>
      <trkpt lat="44.35824" lon="3.74034">
        <ele>1049.4</ele>
      </trkpt>
      <trkpt lat="44.35808" lon="3.74028">
        <ele>1051.1</ele>
      </trkpt>
      <trkpt lat="44.35774" lon="3.74031">
        <ele>1053.9</ele>
      </trkpt>
      <trkpt lat="44.35743" lon="3.74051">
        <ele>1060.7</ele>
      </trkpt>
      <trkpt lat="44.35717" lon="3.74056">
        <ele>1063.1</ele>
      </trkpt>
      <trkpt lat="44.35683" lon="3.74056">
        <ele>1066.7</ele>
      </trkpt>
      <trkpt lat="44.35685" lon="3.7405">
        <ele>1067.9</ele>
      </trkpt>
      <trkpt lat="44.35705" lon="3.74035">
        <ele>1069</ele>
      </trkpt>
      <trkpt lat="44.35704" lon="3.74031">
        <ele>1069.9</ele>
      </trkpt>
      <trkpt lat="44.35694" lon="3.74034">
        <ele>1070.7</ele>
      </trkpt>
      <trkpt lat="44.35596" lon="3.74048">
        <ele>1086.1</ele>
      </trkpt>
      <trkpt lat="44.35571" lon="3.74058">
        <ele>1091.1</ele>
      </trkpt>
      <trkpt lat="44.35546" lon="3.74055">
        <ele>1093.4</ele>
      </trkpt>
      <trkpt lat="44.3552" lon="3.74058">
        <ele>1093.9</ele>
      </trkpt>
      <trkpt lat="44.35494" lon="3.74046">
        <ele>1098</ele>
      </trkpt>
      <trkpt lat="44.35469" lon="3.74042">
        <ele>1098.8</ele>
      </trkpt>
      <trkpt lat="44.35454" lon="3.74045">
        <ele>1098.9</ele>
      </trkpt>
      <trkpt lat="44.35401" lon="3.74039">
        <ele>1100.7</ele>
      </trkpt>
      <trkpt lat="44.35391" lon="3.74036">
        <ele>1100.8</ele>
      </trkpt>
      <trkpt lat="44.35383" lon="3.74027">
        <ele>1100.9</ele>
      </trkpt>
      <trkpt lat="44.35294" lon="3.73982">
        <ele>1099.8</ele>
      </trkpt>
      <trkpt lat="44.35281" lon="3.73969">
        <ele>1099.6</ele>
      </trkpt>
      <trkpt lat="44.35237" lon="3.73935">
        <ele>1101.7</ele>
      </trkpt>
      <trkpt lat="44.35217" lon="3.73932">
        <ele>1102.9</ele>
      </trkpt>
      <trkpt lat="44.35202" lon="3.73917">
        <ele>1104</ele>
      </trkpt>
      <trkpt lat="44.35172" lon="3.739">
        <ele>1104.8</ele>
      </trkpt>
      <trkpt lat="44.35149" lon="3.73874">
        <ele>1107.1</ele>
      </trkpt>
      <trkpt lat="44.35141" lon="3.73871">
        <ele>1107.2</ele>
      </trkpt>
      <trkpt lat="44.35129" lon="3.73856">
        <ele>1107.1</ele>
      </trkpt>
      <trkpt lat="44.35106" lon="3.73831">
        <ele>1104.5</ele>
      </trkpt>
      <trkpt lat="44.35074" lon="3.73803">
        <ele>1105.2</ele>
      </trkpt>
      <trkpt lat="44.3505" lon="3.73785">
        <ele>1104.2</ele>
      </trkpt>
      <trkpt lat="44.35033" lon="3.73775">
        <ele>1103.9</ele>
      </trkpt>
      <trkpt lat="44.35018" lon="3.73761">
        <ele>1103.3</ele>
      </trkpt>
      <trkpt lat="44.34995" lon="3.73755">
        <ele>1102.3</ele>
      </trkpt>
      <trkpt lat="44.3498" lon="3.73742">
        <ele>1101.4</ele>
      </trkpt>
      <trkpt lat="44.34962" lon="3.73732">
        <ele>1101.2</ele>
      </trkpt>
      <trkpt lat="44.34944" lon="3.73722">
        <ele>1101.1</ele>
      </trkpt>
      <trkpt lat="44.34935" lon="3.73723">
        <ele>1101.1</ele>
      </trkpt>
      <trkpt lat="44.34926" lon="3.73721">
        <ele>1101.1</ele>
      </trkpt>
      <trkpt lat="44.34892" lon="3.73703">
        <ele>1100.8</ele>
      </trkpt>
      <trkpt lat="44.34857" lon="3.73682">
        <ele>1101</ele>
      </trkpt>
      <trkpt lat="44.34838" lon="3.73682">
        <ele>1101.2</ele>
      </trkpt>
      <trkpt lat="44.34835" lon="3.73682">
        <ele>1101.2</ele>
      </trkpt>
      <trkpt lat="44.3479" lon="3.73686">
        <ele>1100.3</ele>
      </trkpt>
      <trkpt lat="44.34773" lon="3.7368">
        <ele>1100.6</ele>
      </trkpt>
      <trkpt lat="44.34761" lon="3.73678">
        <ele>1101</ele>
      </trkpt>
      <trkpt lat="44.34735" lon="3.73682">
        <ele>1101.2</ele>
      </trkpt>
      <trkpt lat="44.34725" lon="3.73677">
        <ele>1101.2</ele>
      </trkpt>
      <trkpt lat="44.34717" lon="3.73677">
        <ele>1101.2</ele>
      </trkpt>
      <trkpt lat="44.34683" lon="3.73713">
        <ele>1100.9</ele>
      </trkpt>
      <trkpt lat="44.34661" lon="3.73743">
        <ele>1101.1</ele>
      </trkpt>
      <trkpt lat="44.34652" lon="3.73746">
        <ele>1101.1</ele>
      </trkpt>
      <trkpt lat="44.34642" lon="3.73753">
        <ele>1099.6</ele>
      </trkpt>
      <trkpt lat="44.34624" lon="3.7377">
        <ele>1099.1</ele>
      </trkpt>
      <trkpt lat="44.34615" lon="3.73772">
        <ele>1099.1</ele>
      </trkpt>
      <trkpt lat="44.34583" lon="3.7377">
        <ele>1100.6</ele>
      </trkpt>
      <trkpt lat="44.34562" lon="3.73754">
        <ele>1100.9</ele>
      </trkpt>
      <trkpt lat="44.34556" lon="3.73751">
        <ele>1101</ele>
      </trkpt>
      <trkpt lat="44.34539" lon="3.73747">
        <ele>1101.6</ele>
      </trkpt>
      <trkpt lat="44.3452" lon="3.73747">
        <ele>1102.3</ele>
      </trkpt>
      <trkpt lat="44.34496" lon="3.73749">
        <ele>1103.3</ele>
      </trkpt>
      <trkpt lat="44.34474" lon="3.73756">
        <ele>1103.5</ele>
      </trkpt>
      <trkpt lat="44.34433" lon="3.7378">
        <ele>1103.5</ele>
      </trkpt>
      <trkpt lat="44.34412" lon="3.73786">
        <ele>1104.2</ele>
      </trkpt>
      <trkpt lat="44.34376" lon="3.73784">
        <ele>1104</ele>
      </trkpt>
      <trkpt lat="44.34337" lon="3.73789">
        <ele>1103.8</ele>
      </trkpt>
      <trkpt lat="44.34326" lon="3.73787">
        <ele>1101.9</ele>
      </trkpt>
      <trkpt lat="44.343" lon="3.73778">
        <ele>1101.2</ele>
      </trkpt>
      <trkpt lat="44.34291" lon="3.73777">
        <ele>1101</ele>
      </trkpt>
      <trkpt lat="44.34282" lon="3.73782">
        <ele>1100.9</ele>
      </trkpt>
      <trkpt lat="44.34275" lon="3.73781">
        <ele>1100.7</ele>
      </trkpt>
      <trkpt lat="44.34259" lon="3.7376">
        <ele>1098.8</ele>
        <extensions>
          <visugpx:TrkExtension xmlns:visugpx="https://www.visugpx.com/editgpx/">
            <visugpx:node>5</visugpx:node>
            </visugpx:TrkExtension>
        </extensions>
      </trkpt>
      <trkpt lat="44.34248" lon="3.73744">
        <ele>1097.1</ele>
      </trkpt>
      <trkpt lat="44.34241" lon="3.73739">
        <ele>1097.1</ele>
      </trkpt>
      <trkpt lat="44.34238" lon="3.73743">
        <ele>1097.2</ele>
      </trkpt>
      <trkpt lat="44.34225" lon="3.7375">
        <ele>1097.6</ele>
      </trkpt>
      <trkpt lat="44.34199" lon="3.73779">
        <ele>1098.2</ele>
      </trkpt>
      <trkpt lat="44.34197" lon="3.73787">
        <ele>1097.9</ele>
      </trkpt>
      <trkpt lat="44.34196" lon="3.73849">
        <ele>1095.9</ele>
      </trkpt>
      <trkpt lat="44.34183" lon="3.73894">
        <ele>1094.2</ele>
      </trkpt>
      <trkpt lat="44.34177" lon="3.73904">
        <ele>1092.4</ele>
      </trkpt>
      <trkpt lat="44.34157" lon="3.73954">
        <ele>1084.6</ele>
      </trkpt>
      <trkpt lat="44.34148" lon="3.73971">
        <ele>1084.4</ele>
      </trkpt>
      <trkpt lat="44.34136" lon="3.73988">
        <ele>1083.5</ele>
      </trkpt>
      <trkpt lat="44.34114" lon="3.74011">
        <ele>1081.2</ele>
      </trkpt>
      <trkpt lat="44.34092" lon="3.74041">
        <ele>1080.8</ele>
      </trkpt>
      <trkpt lat="44.34074" lon="3.74077">
        <ele>1073.8</ele>
      </trkpt>
      <trkpt lat="44.34068" lon="3.74096">
        <ele>1072.1</ele>
      </trkpt>
      <trkpt lat="44.34056" lon="3.74119">
        <ele>1069.7</ele>
      </trkpt>
      <trkpt lat="44.3405" lon="3.74138">
        <ele>1069.1</ele>
      </trkpt>
      <trkpt lat="44.34044" lon="3.74233">
        <ele>1065.3</ele>
      </trkpt>
      <trkpt lat="44.3404" lon="3.74233">
        <ele>1064.5</ele>
      </trkpt>
      <trkpt lat="44.34025" lon="3.74194">
        <ele>1063.5</ele>
      </trkpt>
      <trkpt lat="44.34012" lon="3.74176">
        <ele>1060.9</ele>
      </trkpt>
      <trkpt lat="44.3399" lon="3.74177">
        <ele>1054.4</ele>
      </trkpt>
      <trkpt lat="44.33986" lon="3.74169">
        <ele>1054.5</ele>
      </trkpt>
      <trkpt lat="44.33968" lon="3.74147">
        <ele>1057.9</ele>
      </trkpt>
      <trkpt lat="44.33964" lon="3.7414">
        <ele>1058.1</ele>
      </trkpt>
      <trkpt lat="44.3396" lon="3.74138">
        <ele>1058.1</ele>
      </trkpt>
      <trkpt lat="44.33956" lon="3.74139">
        <ele>1058.1</ele>
      </trkpt>
      <trkpt lat="44.33936" lon="3.74185">
        <ele>1052</ele>
      </trkpt>
      <trkpt lat="44.33926" lon="3.74234">
        <ele>1045.8</ele>
      </trkpt>
      <trkpt lat="44.33926" lon="3.74248">
        <ele>1043.5</ele>
      </trkpt>
      <trkpt lat="44.3392" lon="3.74263">
        <ele>1038.7</ele>
      </trkpt>
      <trkpt lat="44.33912" lon="3.74276">
        <ele>1034</ele>
      </trkpt>
      <trkpt lat="44.339" lon="3.74289">
        <ele>1031.8</ele>
      </trkpt>
      <trkpt lat="44.33889" lon="3.74297">
        <ele>1030.8</ele>
      </trkpt>
      <trkpt lat="44.33879" lon="3.74301">
        <ele>1030.6</ele>
      </trkpt>
      <trkpt lat="44.33866" lon="3.74301">
        <ele>1030.7</ele>
      </trkpt>
      <trkpt lat="44.33851" lon="3.74307">
        <ele>1029.6</ele>
      </trkpt>
      <trkpt lat="44.33836" lon="3.74317">
        <ele>1027</ele>
      </trkpt>
      <trkpt lat="44.33822" lon="3.74315">
        <ele>1031.9</ele>
      </trkpt>
      <trkpt lat="44.33817" lon="3.74316">
        <ele>1032.5</ele>
      </trkpt>
      <trkpt lat="44.33813" lon="3.7432">
        <ele>1032.6</ele>
      </trkpt>
      <trkpt lat="44.33809" lon="3.74343">
        <ele>1023.8</ele>
      </trkpt>
      <trkpt lat="44.33809" lon="3.74363">
        <ele>1022.8</ele>
      </trkpt>
      <trkpt lat="44.33802" lon="3.74393">
        <ele>1020.7</ele>
      </trkpt>
      <trkpt lat="44.33795" lon="3.74416">
        <ele>1020.1</ele>
      </trkpt>
      <trkpt lat="44.33771" lon="3.74451">
        <ele>1016.5</ele>
      </trkpt>
      <trkpt lat="44.33769" lon="3.74463">
        <ele>1015.9</ele>
      </trkpt>
      <trkpt lat="44.33785" lon="3.74467">
        <ele>1015.5</ele>
      </trkpt>
      <trkpt lat="44.33799" lon="3.74467">
        <ele>1015.4</ele>
      </trkpt>
      <trkpt lat="44.33825" lon="3.74449">
        <ele>1014</ele>
      </trkpt>
      <trkpt lat="44.33845" lon="3.74442">
        <ele>1010.3</ele>
      </trkpt>
      <trkpt lat="44.33881" lon="3.74437">
        <ele>1009.7</ele>
      </trkpt>
      <trkpt lat="44.33923" lon="3.7442">
        <ele>1008</ele>
      </trkpt>
      <trkpt lat="44.33931" lon="3.74421">
        <ele>1009.6</ele>
      </trkpt>
      <trkpt lat="44.33938" lon="3.74428">
        <ele>1011</ele>
      </trkpt>
      <trkpt lat="44.3395" lon="3.74451">
        <ele>1012.6</ele>
      </trkpt>
      <trkpt lat="44.33954" lon="3.74467">
        <ele>1012.6</ele>
      </trkpt>
      <trkpt lat="44.33956" lon="3.74483">
        <ele>1012.4</ele>
      </trkpt>
      <trkpt lat="44.33953" lon="3.74549">
        <ele>1008.1</ele>
      </trkpt>
      <trkpt lat="44.33945" lon="3.74598">
        <ele>1004.8</ele>
      </trkpt>
      <trkpt lat="44.33934" lon="3.74637">
        <ele>1003.9</ele>
      </trkpt>
      <trkpt lat="44.3393" lon="3.74666">
        <ele>1005.2</ele>
      </trkpt>
      <trkpt lat="44.33938" lon="3.74701">
        <ele>1000.5</ele>
      </trkpt>
      <trkpt lat="44.33938" lon="3.74718">
        <ele>1000.3</ele>
      </trkpt>
      <trkpt lat="44.33936" lon="3.74734">
        <ele>1000.9</ele>
      </trkpt>
      <trkpt lat="44.33927" lon="3.74769">
        <ele>1002.7</ele>
      </trkpt>
      <trkpt lat="44.33924" lon="3.74778">
        <ele>1002.5</ele>
      </trkpt>
      <trkpt lat="44.3392" lon="3.74848">
        <ele>1005.6</ele>
      </trkpt>
      <trkpt lat="44.33915" lon="3.74893">
        <ele>1012.1</ele>
      </trkpt>
      <trkpt lat="44.33912" lon="3.74907">
        <ele>1010.3</ele>
      </trkpt>
      <trkpt lat="44.33906" lon="3.74922">
        <ele>1010</ele>
      </trkpt>
      <trkpt lat="44.33898" lon="3.7493">
        <ele>1011.8</ele>
      </trkpt>
      <trkpt lat="44.33855" lon="3.74959">
        <ele>1015.8</ele>
      </trkpt>
      <trkpt lat="44.33843" lon="3.74961">
        <ele>1016.4</ele>
      </trkpt>
      <trkpt lat="44.33831" lon="3.7496">
        <ele>1026</ele>
      </trkpt>
      <trkpt lat="44.33815" lon="3.74954">
        <ele>1027.4</ele>
      </trkpt>
      <trkpt lat="44.33805" lon="3.74947">
        <ele>1028.5</ele>
      </trkpt>
      <trkpt lat="44.33796" lon="3.7495">
        <ele>1029.1</ele>
      </trkpt>
      <trkpt lat="44.33777" lon="3.74968">
        <ele>1029.7</ele>
      </trkpt>
      <trkpt lat="44.33734" lon="3.74983">
        <ele>1038.9</ele>
      </trkpt>
      <trkpt lat="44.33692" lon="3.74993">
        <ele>1044.7</ele>
      </trkpt>
      <trkpt lat="44.33677" lon="3.75">
        <ele>1047.4</ele>
      </trkpt>
      <trkpt lat="44.33636" lon="3.75029">
        <ele>1055.9</ele>
        <extensions>
          <visugpx:TrkExtension xmlns:visugpx="https://www.visugpx.com/editgpx/">
            <visugpx:node>6</visugpx:node>
            </visugpx:TrkExtension>
        </extensions>
      </trkpt>
      <trkpt lat="44.33442" lon="3.75167">
        <ele>1079.3</ele>
      </trkpt>
      <trkpt lat="44.33403" lon="3.75209">
        <ele>1079.9</ele>
      </trkpt>
      <trkpt lat="44.33319" lon="3.75311">
        <ele>1083.5</ele>
      </trkpt>
      <trkpt lat="44.33295" lon="3.7533">
        <ele>1083.7</ele>
      </trkpt>
      <trkpt lat="44.33262" lon="3.75344">
        <ele>1084.9</ele>
      </trkpt>
      <trkpt lat="44.33232" lon="3.7535">
        <ele>1087.8</ele>
      </trkpt>
      <trkpt lat="44.3322" lon="3.75355">
        <ele>1088.4</ele>
      </trkpt>
      <trkpt lat="44.33204" lon="3.75369">
        <ele>1089.2</ele>
      </trkpt>
      <trkpt lat="44.33197" lon="3.75372">
        <ele>1089.5</ele>
      </trkpt>
      <trkpt lat="44.33182" lon="3.75371">
        <ele>1090.1</ele>
      </trkpt>
      <trkpt lat="44.33171" lon="3.75374">
        <ele>1090.4</ele>
      </trkpt>
      <trkpt lat="44.33157" lon="3.75384">
        <ele>1098.7</ele>
      </trkpt>
      <trkpt lat="44.33145" lon="3.75397">
        <ele>1099.6</ele>
      </trkpt>
      <trkpt lat="44.33106" lon="3.75426">
        <ele>1107</ele>
      </trkpt>
      <trkpt lat="44.33096" lon="3.75433">
        <ele>1108.1</ele>
      </trkpt>
      <trkpt lat="44.33089" lon="3.75434">
        <ele>1108.7</ele>
      </trkpt>
      <trkpt lat="44.33062" lon="3.75432">
        <ele>1118</ele>
      </trkpt>
      <trkpt lat="44.33014" lon="3.75424">
        <ele>1124.1</ele>
      </trkpt>
      <trkpt lat="44.32985" lon="3.75409">
        <ele>1133.9</ele>
      </trkpt>
      <trkpt lat="44.32961" lon="3.75393">
        <ele>1139.1</ele>
      </trkpt>
      <trkpt lat="44.3295" lon="3.75383">
        <ele>1140.7</ele>
      </trkpt>
      <trkpt lat="44.32936" lon="3.75356">
        <ele>1143.5</ele>
      </trkpt>
      <trkpt lat="44.32927" lon="3.75323">
        <ele>1145.9</ele>
      </trkpt>
      <trkpt lat="44.32914" lon="3.75295">
        <ele>1152.2</ele>
      </trkpt>
      <trkpt lat="44.32905" lon="3.75279">
        <ele>1151.1</ele>
      </trkpt>
      <trkpt lat="44.32893" lon="3.75266">
        <ele>1150.9</ele>
      </trkpt>
      <trkpt lat="44.32873" lon="3.75248">
        <ele>1143.2</ele>
      </trkpt>
      <trkpt lat="44.32848" lon="3.75234">
        <ele>1145.2</ele>
      </trkpt>
      <trkpt lat="44.32796" lon="3.75226">
        <ele>1150.4</ele>
      </trkpt>
      <trkpt lat="44.32771" lon="3.75227">
        <ele>1152.7</ele>
      </trkpt>
      <trkpt lat="44.32749" lon="3.75214">
        <ele>1162.8</ele>
      </trkpt>
      <trkpt lat="44.3273" lon="3.75208">
        <ele>1163.7</ele>
      </trkpt>
      <trkpt lat="44.32724" lon="3.75201">
        <ele>1163.7</ele>
      </trkpt>
      <trkpt lat="44.32718" lon="3.75182">
        <ele>1162.8</ele>
      </trkpt>
      <trkpt lat="44.327" lon="3.75141">
        <ele>1157.7</ele>
      </trkpt>
      <trkpt lat="44.32684" lon="3.75101">
        <ele>1158.7</ele>
      </trkpt>
      <trkpt lat="44.32668" lon="3.75074">
        <ele>1159.1</ele>
      </trkpt>
      <trkpt lat="44.32616" lon="3.75017">
        <ele>1169.4</ele>
      </trkpt>
      <trkpt lat="44.32591" lon="3.74996">
        <ele>1170.3</ele>
      </trkpt>
      <trkpt lat="44.32569" lon="3.74962">
        <ele>1177.9</ele>
      </trkpt>
      <trkpt lat="44.32508" lon="3.74894">
        <ele>1176.6</ele>
      </trkpt>
      <trkpt lat="44.32389" lon="3.74773">
        <ele>1200</ele>
      </trkpt>
      <trkpt lat="44.32349" lon="3.74741">
        <ele>1195.9</ele>
      </trkpt>
      <trkpt lat="44.32328" lon="3.74728">
        <ele>1203.1</ele>
      </trkpt>
      <trkpt lat="44.32302" lon="3.7472">
        <ele>1202.5</ele>
      </trkpt>
      <trkpt lat="44.3228" lon="3.74726">
        <ele>1204.9</ele>
      </trkpt>
      <trkpt lat="44.32257" lon="3.74729">
        <ele>1208.5</ele>
      </trkpt>
      <trkpt lat="44.32229" lon="3.74737">
        <ele>1209.8</ele>
      </trkpt>
      <trkpt lat="44.3218" lon="3.74772">
        <ele>1222.7</ele>
      </trkpt>
      <trkpt lat="44.32155" lon="3.74793">
        <ele>1222.7</ele>
      </trkpt>
      <trkpt lat="44.32131" lon="3.74826">
        <ele>1225.7</ele>
      </trkpt>
      <trkpt lat="44.32085" lon="3.74879">
        <ele>1244</ele>
      </trkpt>
      <trkpt lat="44.32056" lon="3.74928">
        <ele>1260.8</ele>
      </trkpt>
      <trkpt lat="44.32043" lon="3.74936">
        <ele>1262.6</ele>
      </trkpt>
      <trkpt lat="44.32027" lon="3.74938">
        <ele>1263.1</ele>
      </trkpt>
      <trkpt lat="44.32016" lon="3.74934">
        <ele>1262.4</ele>
        <extensions>
          <visugpx:TrkExtension xmlns:visugpx="https://www.visugpx.com/editgpx/">
            <visugpx:node>7</visugpx:node>
            </visugpx:TrkExtension>
        </extensions>
      </trkpt>
      <trkpt lat="44.32013" lon="3.74932">
        <ele>1262</ele>
      </trkpt>
      <trkpt lat="44.31975" lon="3.74908">
        <ele>1260.6</ele>
      </trkpt>
      <trkpt lat="44.31958" lon="3.74883">
        <ele>1261.4</ele>
      </trkpt>
      <trkpt lat="44.31943" lon="3.74869">
        <ele>1262</ele>
      </trkpt>
      <trkpt lat="44.31926" lon="3.74856">
        <ele>1263</ele>
      </trkpt>
      <trkpt lat="44.31917" lon="3.74844">
        <ele>1263.7</ele>
      </trkpt>
      <trkpt lat="44.31902" lon="3.74817">
        <ele>1269.9</ele>
      </trkpt>
      <trkpt lat="44.3189" lon="3.74798">
        <ele>1271.5</ele>
      </trkpt>
      <trkpt lat="44.31804" lon="3.74698">
        <ele>1287</ele>
      </trkpt>
      <trkpt lat="44.31792" lon="3.7469">
        <ele>1288.5</ele>
      </trkpt>
      <trkpt lat="44.31764" lon="3.74675">
        <ele>1294.4</ele>
      </trkpt>
      <trkpt lat="44.31738" lon="3.74651">
        <ele>1299.5</ele>
      </trkpt>
      <trkpt lat="44.3171" lon="3.74617">
        <ele>1299.6</ele>
      </trkpt>
      <trkpt lat="44.31684" lon="3.74592">
        <ele>1302.3</ele>
      </trkpt>
      <trkpt lat="44.3168" lon="3.74558">
        <ele>1300.6</ele>
      </trkpt>
      <trkpt lat="44.31667" lon="3.74507">
        <ele>1304.6</ele>
      </trkpt>
      <trkpt lat="44.3164" lon="3.74442">
        <ele>1307.7</ele>
      </trkpt>
      <trkpt lat="44.316" lon="3.74312">
        <ele>1317.4</ele>
      </trkpt>
      <trkpt lat="44.31593" lon="3.74251">
        <ele>1322.8</ele>
      </trkpt>
      <trkpt lat="44.31587" lon="3.74219">
        <ele>1321.7</ele>
      </trkpt>
      <trkpt lat="44.3158" lon="3.74195">
        <ele>1327.9</ele>
      </trkpt>
      <trkpt lat="44.31573" lon="3.74178">
        <ele>1328.6</ele>
      </trkpt>
      <trkpt lat="44.31571" lon="3.74162">
        <ele>1331.2</ele>
      </trkpt>
      <trkpt lat="44.31556" lon="3.74125">
        <ele>1333.4</ele>
      </trkpt>
      <trkpt lat="44.31555" lon="3.74095">
        <ele>1334.9</ele>
      </trkpt>
      <trkpt lat="44.3155" lon="3.7408">
        <ele>1342.2</ele>
      </trkpt>
      <trkpt lat="44.31549" lon="3.74039">
        <ele>1345.3</ele>
      </trkpt>
      <trkpt lat="44.31542" lon="3.73989">
        <ele>1357.9</ele>
      </trkpt>
      <trkpt lat="44.3153" lon="3.73925">
        <ele>1363.5</ele>
      </trkpt>
      <trkpt lat="44.3152" lon="3.73851">
        <ele>1376.6</ele>
      </trkpt>
      <trkpt lat="44.31492" lon="3.73689">
        <ele>1391.6</ele>
      </trkpt>
      <trkpt lat="44.31493" lon="3.73678">
        <ele>1392.6</ele>
      </trkpt>
      <trkpt lat="44.31495" lon="3.7367">
        <ele>1393.8</ele>
      </trkpt>
      <trkpt lat="44.31555" lon="3.7361">
        <ele>1389.2</ele>
      </trkpt>
      <trkpt lat="44.31561" lon="3.73599">
        <ele>1388.6</ele>
      </trkpt>
      <trkpt lat="44.31583" lon="3.73568">
        <ele>1384</ele>
      </trkpt>
      <trkpt lat="44.3158" lon="3.7356">
        <ele>1383.2</ele>
      </trkpt>
      <trkpt lat="44.31573" lon="3.73541">
        <ele>1381.6</ele>
      </trkpt>
      <trkpt lat="44.3157" lon="3.73538">
        <ele>1381.4</ele>
        <extensions>
          <visugpx:TrkExtension xmlns:visugpx="https://www.visugpx.com/editgpx/">
            <visugpx:node>8</visugpx:node>
            </visugpx:TrkExtension>
        </extensions>
      </trkpt>
      <trkpt lat="44.31573" lon="3.73541">
        <ele>1381.6</ele>
      </trkpt>
      <trkpt lat="44.3158" lon="3.7356">
        <ele>1383.2</ele>
      </trkpt>
      <trkpt lat="44.31583" lon="3.73568">
        <ele>1384</ele>
      </trkpt>
      <trkpt lat="44.31598" lon="3.73546">
        <ele>1379.8</ele>
      </trkpt>
      <trkpt lat="44.31633" lon="3.73493">
        <ele>1373.1</ele>
      </trkpt>
      <trkpt lat="44.31637" lon="3.7348">
        <ele>1372.8</ele>
      </trkpt>
      <trkpt lat="44.31668" lon="3.73283">
        <ele>1365.9</ele>
      </trkpt>
      <trkpt lat="44.31692" lon="3.73111">
        <ele>1372.7</ele>
      </trkpt>
      <trkpt lat="44.31692" lon="3.73103">
        <ele>1373</ele>
      </trkpt>
      <trkpt lat="44.31688" lon="3.73085">
        <ele>1373.6</ele>
      </trkpt>
      <trkpt lat="44.31688" lon="3.73074">
        <ele>1378.4</ele>
      </trkpt>
      <trkpt lat="44.31697" lon="3.73011">
        <ele>1382.5</ele>
      </trkpt>
      <trkpt lat="44.31705" lon="3.72961">
        <ele>1391.2</ele>
      </trkpt>
      <trkpt lat="44.31705" lon="3.72944">
        <ele>1392.2</ele>
      </trkpt>
      <trkpt lat="44.31706" lon="3.72925">
        <ele>1393</ele>
      </trkpt>
      <trkpt lat="44.31714" lon="3.72875">
        <ele>1400.6</ele>
      </trkpt>
      <trkpt lat="44.31714" lon="3.72821">
        <ele>1406.2</ele>
      </trkpt>
      <trkpt lat="44.31718" lon="3.72797">
        <ele>1406.9</ele>
      </trkpt>
      <trkpt lat="44.3172" lon="3.72762">
        <ele>1408.3</ele>
      </trkpt>
      <trkpt lat="44.31722" lon="3.72757">
        <ele>1408.7</ele>
      </trkpt>
      <trkpt lat="44.31722" lon="3.72752">
        <ele>1408.8</ele>
      </trkpt>
      <trkpt lat="44.31725" lon="3.72748">
        <ele>1411.4</ele>
      </trkpt>
      <trkpt lat="44.31725" lon="3.72732">
        <ele>1411.3</ele>
      </trkpt>
      <trkpt lat="44.31727" lon="3.72719">
        <ele>1411.5</ele>
      </trkpt>
      <trkpt lat="44.31728" lon="3.727">
        <ele>1412</ele>
      </trkpt>
      <trkpt lat="44.3173" lon="3.72651">
        <ele>1414.5</ele>
      </trkpt>
      <trkpt lat="44.31728" lon="3.72637">
        <ele>1414</ele>
      </trkpt>
      <trkpt lat="44.31728" lon="3.72616">
        <ele>1414</ele>
      </trkpt>
      <trkpt lat="44.3173" lon="3.72596">
        <ele>1414.8</ele>
      </trkpt>
      <trkpt lat="44.31735" lon="3.7259">
        <ele>1415.5</ele>
      </trkpt>
      <trkpt lat="44.31733" lon="3.72559">
        <ele>1413.9</ele>
      </trkpt>
      <trkpt lat="44.31725" lon="3.72499">
        <ele>1410.8</ele>
      </trkpt>
      <trkpt lat="44.31716" lon="3.72474">
        <ele>1410.6</ele>
      </trkpt>
      <trkpt lat="44.31711" lon="3.72451">
        <ele>1410.4</ele>
      </trkpt>
      <trkpt lat="44.31684" lon="3.72333">
        <ele>1403.8</ele>
      </trkpt>
      <trkpt lat="44.31681" lon="3.72318">
        <ele>1403.3</ele>
      </trkpt>
      <trkpt lat="44.3167" lon="3.72297">
        <ele>1402.2</ele>
      </trkpt>
      <trkpt lat="44.31667" lon="3.72254">
        <ele>1402.6</ele>
      </trkpt>
      <trkpt lat="44.31664" lon="3.72182">
        <ele>1396.2</ele>
      </trkpt>
      <trkpt lat="44.31665" lon="3.72143">
        <ele>1391.6</ele>
      </trkpt>
      <trkpt lat="44.31671" lon="3.72059">
        <ele>1383.3</ele>
      </trkpt>
      <trkpt lat="44.31676" lon="3.72036">
        <ele>1380.9</ele>
      </trkpt>
      <trkpt lat="44.31685" lon="3.72016">
        <ele>1379.8</ele>
      </trkpt>
      <trkpt lat="44.31703" lon="3.7198">
        <ele>1374.3</ele>
      </trkpt>
      <trkpt lat="44.31809" lon="3.71796">
        <ele>1350.9</ele>
      </trkpt>
      <trkpt lat="44.31828" lon="3.71775">
        <ele>1348.5</ele>
      </trkpt>
      <trkpt lat="44.3187" lon="3.71742">
        <ele>1330</ele>
      </trkpt>
      <trkpt lat="44.3198" lon="3.71638">
        <ele>1305</ele>
      </trkpt>
      <trkpt lat="44.31985" lon="3.71633">
        <ele>1304.8</ele>
      </trkpt>
      <trkpt lat="44.31987" lon="3.71631">
        <ele>1304.7</ele>
      </trkpt>
      <trkpt lat="44.31992" lon="3.71625">
        <ele>1304.5</ele>
      </trkpt>
      <trkpt lat="44.31993" lon="3.71616">
        <ele>1304.2</ele>
      </trkpt>
      <trkpt lat="44.31991" lon="3.71608">
        <ele>1304</ele>
      </trkpt>
      <trkpt lat="44.31986" lon="3.71596">
        <ele>1303.5</ele>
      </trkpt>
      <trkpt lat="44.31971" lon="3.71573">
        <ele>1299.9</ele>
      </trkpt>
      <trkpt lat="44.31954" lon="3.71555">
        <ele>1299.9</ele>
      </trkpt>
      <trkpt lat="44.31937" lon="3.71527">
        <ele>1297.9</ele>
      </trkpt>
      <trkpt lat="44.31927" lon="3.71516">
        <ele>1296.7</ele>
      </trkpt>
      <trkpt lat="44.31912" lon="3.71475">
        <ele>1293.2</ele>
      </trkpt>
      <trkpt lat="44.31911" lon="3.71458">
        <ele>1291.5</ele>
      </trkpt>
      <trkpt lat="44.31912" lon="3.71434">
        <ele>1286.7</ele>
      </trkpt>
      <trkpt lat="44.31902" lon="3.71415">
        <ele>1279</ele>
      </trkpt>
      <trkpt lat="44.31898" lon="3.7138">
        <ele>1277</ele>
      </trkpt>
      <trkpt lat="44.31887" lon="3.71353">
        <ele>1274.8</ele>
      </trkpt>
      <trkpt lat="44.31881" lon="3.71322">
        <ele>1264.5</ele>
      </trkpt>
      <trkpt lat="44.31875" lon="3.71282">
        <ele>1261.9</ele>
      </trkpt>
      <trkpt lat="44.31874" lon="3.71231">
        <ele>1249.8</ele>
      </trkpt>
      <trkpt lat="44.31869" lon="3.712">
        <ele>1247.6</ele>
      </trkpt>
      <trkpt lat="44.31865" lon="3.71182">
        <ele>1246.4</ele>
      </trkpt>
      <trkpt lat="44.31861" lon="3.71173">
        <ele>1246</ele>
      </trkpt>
      <trkpt lat="44.31853" lon="3.71166">
        <ele>1238.8</ele>
      </trkpt>
      <trkpt lat="44.31846" lon="3.71164">
        <ele>1240</ele>
      </trkpt>
      <trkpt lat="44.31842" lon="3.7116">
        <ele>1240.4</ele>
      </trkpt>
      <trkpt lat="44.3184" lon="3.71154">
        <ele>1239.4</ele>
      </trkpt>
      <trkpt lat="44.31842" lon="3.71146">
        <ele>1237.7</ele>
      </trkpt>
      <trkpt lat="44.31861" lon="3.71106">
        <ele>1232.3</ele>
      </trkpt>
      <trkpt lat="44.31892" lon="3.71022">
        <ele>1218.3</ele>
      </trkpt>
      <trkpt lat="44.31966" lon="3.70863">
        <ele>1198.4</ele>
      </trkpt>
      <trkpt lat="44.31973" lon="3.70852">
        <ele>1198.3</ele>
      </trkpt>
      <trkpt lat="44.3198" lon="3.70849">
        <ele>1198.4</ele>
      </trkpt>
      <trkpt lat="44.32004" lon="3.70842">
        <ele>1197</ele>
      </trkpt>
      <trkpt lat="44.3201" lon="3.70836">
        <ele>1196.8</ele>
      </trkpt>
      <trkpt lat="44.32022" lon="3.70815">
        <ele>1193</ele>
      </trkpt>
      <trkpt lat="44.32043" lon="3.70796">
        <ele>1191.1</ele>
      </trkpt>
      <trkpt lat="44.32052" lon="3.70781">
        <ele>1190.8</ele>
      </trkpt>
      <trkpt lat="44.32057" lon="3.70761">
        <ele>1191</ele>
      </trkpt>
      <trkpt lat="44.32078" lon="3.70708">
        <ele>1183</ele>
      </trkpt>
      <trkpt lat="44.32093" lon="3.70682">
        <ele>1182.4</ele>
      </trkpt>
      <trkpt lat="44.32107" lon="3.70669">
        <ele>1181.7</ele>
      </trkpt>
      <trkpt lat="44.32126" lon="3.70604">
        <ele>1173.7</ele>
      </trkpt>
      <trkpt lat="44.32131" lon="3.70597">
        <ele>1173.8</ele>
      </trkpt>
      <trkpt lat="44.32145" lon="3.70585">
        <ele>1174.9</ele>
      </trkpt>
      <trkpt lat="44.32152" lon="3.70576">
        <ele>1170.2</ele>
      </trkpt>
      <trkpt lat="44.32161" lon="3.70556">
        <ele>1167.9</ele>
      </trkpt>
      <trkpt lat="44.32178" lon="3.70528">
        <ele>1171.5</ele>
      </trkpt>
      <trkpt lat="44.3218" lon="3.70509">
        <ele>1171.2</ele>
      </trkpt>
      <trkpt lat="44.32185" lon="3.70492">
        <ele>1170.8</ele>
      </trkpt>
      <trkpt lat="44.32205" lon="3.70449">
        <ele>1170.5</ele>
      </trkpt>
      <trkpt lat="44.32212" lon="3.70428">
        <ele>1171</ele>
      </trkpt>
      <trkpt lat="44.32219" lon="3.70397">
        <ele>1169.5</ele>
      </trkpt>
      <trkpt lat="44.3222" lon="3.70363">
        <ele>1168.7</ele>
      </trkpt>
      <trkpt lat="44.32225" lon="3.70358">
        <ele>1169.5</ele>
      </trkpt>
      <trkpt lat="44.32232" lon="3.70354">
        <ele>1170.7</ele>
      </trkpt>
      <trkpt lat="44.32252" lon="3.70327">
        <ele>1175.1</ele>
      </trkpt>
      <trkpt lat="44.32264" lon="3.70316">
        <ele>1170.6</ele>
      </trkpt>
      <trkpt lat="44.32294" lon="3.70262">
        <ele>1165.9</ele>
      </trkpt>
      <trkpt lat="44.32304" lon="3.70236">
        <ele>1165.5</ele>
      </trkpt>
      <trkpt lat="44.32324" lon="3.70194">
        <ele>1165.8</ele>
      </trkpt>
      <trkpt lat="44.32333" lon="3.70164">
        <ele>1165.9</ele>
      </trkpt>
      <trkpt lat="44.32333" lon="3.70144">
        <ele>1165.3</ele>
      </trkpt>
      <trkpt lat="44.32339" lon="3.70122">
        <ele>1151.6</ele>
      </trkpt>
      <trkpt lat="44.32336" lon="3.70102">
        <ele>1156</ele>
      </trkpt>
      <trkpt lat="44.32342" lon="3.70086">
        <ele>1160.4</ele>
      </trkpt>
      <trkpt lat="44.32342" lon="3.7007">
        <ele>1157.6</ele>
      </trkpt>
      <trkpt lat="44.32345" lon="3.70055">
        <ele>1153.2</ele>
      </trkpt>
      <trkpt lat="44.32356" lon="3.70038">
        <ele>1150</ele>
      </trkpt>
      <trkpt lat="44.32362" lon="3.70014">
        <ele>1149.5</ele>
      </trkpt>
      <trkpt lat="44.32369" lon="3.7">
        <ele>1148</ele>
      </trkpt>
      <trkpt lat="44.32373" lon="3.69986">
        <ele>1145.2</ele>
      </trkpt>
      <trkpt lat="44.32382" lon="3.69979">
        <ele>1143.7</ele>
      </trkpt>
      <trkpt lat="44.32382" lon="3.69971">
        <ele>1143.6</ele>
      </trkpt>
      <trkpt lat="44.32385" lon="3.69966">
        <ele>1143.3</ele>
      </trkpt>
      <trkpt lat="44.32391" lon="3.69961">
        <ele>1142.9</ele>
      </trkpt>
      <trkpt lat="44.32393" lon="3.69953">
        <ele>1142.8</ele>
      </trkpt>
      <trkpt lat="44.32393" lon="3.69944">
        <ele>1142.8</ele>
      </trkpt>
      <trkpt lat="44.32407" lon="3.69933">
        <ele>1142.4</ele>
      </trkpt>
      <trkpt lat="44.32431" lon="3.69867">
        <ele>1133.9</ele>
      </trkpt>
      <trkpt lat="44.32437" lon="3.69858">
        <ele>1133.9</ele>
      </trkpt>
      <trkpt lat="44.32444" lon="3.69844">
        <ele>1133.8</ele>
      </trkpt>
      <trkpt lat="44.32444" lon="3.69833">
        <ele>1136.1</ele>
      </trkpt>
      <trkpt lat="44.32451" lon="3.69819">
        <ele>1134.6</ele>
      </trkpt>
      <trkpt lat="44.32454" lon="3.6981">
        <ele>1134</ele>
      </trkpt>
      <trkpt lat="44.32475" lon="3.6978">
        <ele>1133.2</ele>
      </trkpt>
      <trkpt lat="44.32478" lon="3.69766">
        <ele>1133.7</ele>
      </trkpt>
      <trkpt lat="44.32487" lon="3.69759">
        <ele>1134.4</ele>
      </trkpt>
      <trkpt lat="44.32494" lon="3.69741">
        <ele>1133.2</ele>
      </trkpt>
      <trkpt lat="44.32493" lon="3.69736">
        <ele>1132.3</ele>
      </trkpt>
      <trkpt lat="44.3249" lon="3.6973">
        <ele>1131.3</ele>
      </trkpt>
      <trkpt lat="44.32488" lon="3.69721">
        <ele>1130.4</ele>
      </trkpt>
      <trkpt lat="44.32486" lon="3.6972">
        <ele>1130.2</ele>
      </trkpt>
      <trkpt lat="44.32481" lon="3.69729">
        <ele>1130.4</ele>
      </trkpt>
      <trkpt lat="44.32462" lon="3.6975">
        <ele>1129.4</ele>
      </trkpt>
      <trkpt lat="44.32451" lon="3.69755">
        <ele>1133.1</ele>
      </trkpt>
      <trkpt lat="44.32436" lon="3.69758">
        <ele>1132.5</ele>
      </trkpt>
      <trkpt lat="44.32437" lon="3.69756">
        <ele>1132.5</ele>
      </trkpt>
      <trkpt lat="44.32445" lon="3.69748">
        <ele>1128.4</ele>
      </trkpt>
      <trkpt lat="44.3245" lon="3.69739">
        <ele>1128.2</ele>
      </trkpt>
      <trkpt lat="44.32468" lon="3.69667">
        <ele>1126.9</ele>
      </trkpt>
      <trkpt lat="44.32473" lon="3.6964">
        <ele>1117.7</ele>
      </trkpt>
      <trkpt lat="44.32492" lon="3.69591">
        <ele>1121.1</ele>
      </trkpt>
      <trkpt lat="44.325" lon="3.69544">
        <ele>1128.4</ele>
      </trkpt>
      <trkpt lat="44.32502" lon="3.69516">
        <ele>1123.4</ele>
      </trkpt>
      <trkpt lat="44.32506" lon="3.69492">
        <ele>1118.7</ele>
      </trkpt>
      <trkpt lat="44.3251" lon="3.6946">
        <ele>1121.1</ele>
      </trkpt>
      <trkpt lat="44.32511" lon="3.69385">
        <ele>1114.9</ele>
      </trkpt>
      <trkpt lat="44.32515" lon="3.6935">
        <ele>1112.3</ele>
      </trkpt>
      <trkpt lat="44.32519" lon="3.69276">
        <ele>1111.5</ele>
      </trkpt>
      <trkpt lat="44.32525" lon="3.69257">
        <ele>1110.9</ele>
      </trkpt>
      <trkpt lat="44.32529" lon="3.69237">
        <ele>1109.4</ele>
      </trkpt>
      <trkpt lat="44.32529" lon="3.69223">
        <ele>1109.8</ele>
      </trkpt>
      <trkpt lat="44.32534" lon="3.69188">
        <ele>1109.6</ele>
      </trkpt>
      <trkpt lat="44.32536" lon="3.69161">
        <ele>1105.1</ele>
      </trkpt>
      <trkpt lat="44.32545" lon="3.69121">
        <ele>1107</ele>
      </trkpt>
      <trkpt lat="44.32548" lon="3.69087">
        <ele>1107.6</ele>
      </trkpt>
      <trkpt lat="44.32545" lon="3.6906">
        <ele>1102.8</ele>
      </trkpt>
      <trkpt lat="44.32539" lon="3.69036">
        <ele>1100.8</ele>
      </trkpt>
      <trkpt lat="44.32524" lon="3.69004">
        <ele>1095.7</ele>
      </trkpt>
      <trkpt lat="44.32513" lon="3.68964">
        <ele>1094.7</ele>
      </trkpt>
      <trkpt lat="44.32495" lon="3.68873">
        <ele>1075.6</ele>
      </trkpt>
      <trkpt lat="44.32502" lon="3.68763">
        <ele>1088.1</ele>
      </trkpt>
      <trkpt lat="44.32498" lon="3.68738">
        <ele>1077.7</ele>
      </trkpt>
      <trkpt lat="44.325" lon="3.68724">
        <ele>1086.3</ele>
      </trkpt>
      <trkpt lat="44.32506" lon="3.68702">
        <ele>1085.6</ele>
      </trkpt>
      <trkpt lat="44.32515" lon="3.68675">
        <ele>1083.6</ele>
      </trkpt>
      <trkpt lat="44.32516" lon="3.68667">
        <ele>1083.3</ele>
      </trkpt>
      <trkpt lat="44.32525" lon="3.68632">
        <ele>1080.7</ele>
      </trkpt>
      <trkpt lat="44.32528" lon="3.68609">
        <ele>1079.9</ele>
      </trkpt>
      <trkpt lat="44.32531" lon="3.68589">
        <ele>1079.3</ele>
      </trkpt>
      <trkpt lat="44.32538" lon="3.68576">
        <ele>1076.7</ele>
      </trkpt>
      <trkpt lat="44.32542" lon="3.68562">
        <ele>1076.7</ele>
      </trkpt>
      <trkpt lat="44.32551" lon="3.68512">
        <ele>1076.1</ele>
      </trkpt>
      <trkpt lat="44.32585" lon="3.68374">
        <ele>1071</ele>
      </trkpt>
      <trkpt lat="44.32609" lon="3.68304">
        <ele>1074.4</ele>
      </trkpt>
      <trkpt lat="44.32619" lon="3.68259">
        <ele>1074.7</ele>
      </trkpt>
      <trkpt lat="44.32621" lon="3.6824">
        <ele>1076.2</ele>
      </trkpt>
      <trkpt lat="44.32621" lon="3.68176">
        <ele>1076.6</ele>
      </trkpt>
      <trkpt lat="44.32624" lon="3.68105">
        <ele>1077.5</ele>
      </trkpt>
      <trkpt lat="44.32621" lon="3.68074">
        <ele>1078.3</ele>
      </trkpt>
      <trkpt lat="44.32618" lon="3.68013">
        <ele>1078.3</ele>
      </trkpt>
      <trkpt lat="44.3262" lon="3.67986">
        <ele>1075.1</ele>
      </trkpt>
      <trkpt lat="44.32611" lon="3.67911">
        <ele>1073.7</ele>
      </trkpt>
      <trkpt lat="44.32618" lon="3.6787">
        <ele>1070.8</ele>
      </trkpt>
      <trkpt lat="44.32638" lon="3.67788">
        <ele>1068.7</ele>
      </trkpt>
      <trkpt lat="44.32646" lon="3.67739">
        <ele>1068.3</ele>
      </trkpt>
      <trkpt lat="44.32652" lon="3.67684">
        <ele>1068.8</ele>
      </trkpt>
      <trkpt lat="44.3266" lon="3.67612">
        <ele>1070.5</ele>
      </trkpt>
      <trkpt lat="44.32661" lon="3.67549">
        <ele>1068.3</ele>
      </trkpt>
      <trkpt lat="44.32655" lon="3.6751">
        <ele>1063.5</ele>
      </trkpt>
      <trkpt lat="44.32646" lon="3.67474">
        <ele>1061.4</ele>
      </trkpt>
      <trkpt lat="44.32633" lon="3.6744">
        <ele>1061.1</ele>
      </trkpt>
      <trkpt lat="44.32615" lon="3.67399">
        <ele>1055.1</ele>
      </trkpt>
      <trkpt lat="44.32576" lon="3.67339">
        <ele>1058.9</ele>
      </trkpt>
      <trkpt lat="44.32529" lon="3.67284">
        <ele>1053.7</ele>
      </trkpt>
      <trkpt lat="44.32494" lon="3.67211">
        <ele>1046.5</ele>
      </trkpt>
      <trkpt lat="44.32483" lon="3.6718">
        <ele>1045.1</ele>
      </trkpt>
      <trkpt lat="44.32479" lon="3.67154">
        <ele>1042.4</ele>
      </trkpt>
      <trkpt lat="44.32493" lon="3.67077">
        <ele>1040.6</ele>
      </trkpt>
      <trkpt lat="44.32493" lon="3.67054">
        <ele>1040.1</ele>
      </trkpt>
      <trkpt lat="44.32488" lon="3.67042">
        <ele>1039.9</ele>
      </trkpt>
      <trkpt lat="44.32471" lon="3.67022">
        <ele>1039.7</ele>
      </trkpt>
      <trkpt lat="44.32459" lon="3.66966">
        <ele>1040.4</ele>
      </trkpt>
      <trkpt lat="44.32462" lon="3.66933">
        <ele>1040.5</ele>
      </trkpt>
      <trkpt lat="44.32478" lon="3.66847">
        <ele>1041.8</ele>
      </trkpt>
      <trkpt lat="44.32482" lon="3.66804">
        <ele>1044.7</ele>
      </trkpt>
      <trkpt lat="44.32481" lon="3.66755">
        <ele>1045.9</ele>
      </trkpt>
      <trkpt lat="44.32491" lon="3.66702">
        <ele>1052.4</ele>
      </trkpt>
      <trkpt lat="44.32498" lon="3.66683">
        <ele>1054.4</ele>
      </trkpt>
      <trkpt lat="44.32531" lon="3.66605">
        <ele>1050.5</ele>
      </trkpt>
      <trkpt lat="44.32563" lon="3.6655">
        <ele>1057.4</ele>
      </trkpt>
      <trkpt lat="44.32572" lon="3.66523">
        <ele>1059.4</ele>
      </trkpt>
      <trkpt lat="44.32589" lon="3.66492">
        <ele>1057.6</ele>
      </trkpt>
      <trkpt lat="44.32633" lon="3.6643">
        <ele>1055.2</ele>
      </trkpt>
      <trkpt lat="44.32641" lon="3.66409">
        <ele>1062.4</ele>
      </trkpt>
      <trkpt lat="44.32664" lon="3.66368">
        <ele>1065</ele>
      </trkpt>
      <trkpt lat="44.32674" lon="3.66353">
        <ele>1055.2</ele>
      </trkpt>
      <trkpt lat="44.32685" lon="3.66342">
        <ele>1055.2</ele>
      </trkpt>
      <trkpt lat="44.32698" lon="3.66335">
        <ele>1052.7</ele>
      </trkpt>
      <trkpt lat="44.32724" lon="3.66324">
        <ele>1058.7</ele>
      </trkpt>
      <trkpt lat="44.32736" lon="3.66324">
        <ele>1055.3</ele>
      </trkpt>
      <trkpt lat="44.32749" lon="3.66331">
        <ele>1047.9</ele>
      </trkpt>
      <trkpt lat="44.32763" lon="3.66333">
        <ele>1042.5</ele>
      </trkpt>
      <trkpt lat="44.3279" lon="3.66316">
        <ele>1036.7</ele>
      </trkpt>
      <trkpt lat="44.32801" lon="3.66291">
        <ele>1035.8</ele>
      </trkpt>
      <trkpt lat="44.32818" lon="3.66211">
        <ele>1039.8</ele>
      </trkpt>
      <trkpt lat="44.32808" lon="3.66182">
        <ele>1041.2</ele>
      </trkpt>
      <trkpt lat="44.32806" lon="3.66171">
        <ele>1041.4</ele>
        <extensions>
          <visugpx:TrkExtension xmlns:visugpx="https://www.visugpx.com/editgpx/">
            <visugpx:node>11</visugpx:node>
            </visugpx:TrkExtension>
        </extensions>
      </trkpt>
      <trkpt lat="44.32806" lon="3.66168">
        <ele>1041.4</ele>
      </trkpt>
      <trkpt lat="44.32808" lon="3.66136">
        <ele>1047.8</ele>
      </trkpt>
      <trkpt lat="44.32806" lon="3.66112">
        <ele>1049.4</ele>
      </trkpt>
      <trkpt lat="44.32809" lon="3.6609">
        <ele>1046.7</ele>
      </trkpt>
      <trkpt lat="44.32821" lon="3.66068">
        <ele>1048</ele>
      </trkpt>
      <trkpt lat="44.32845" lon="3.66037">
        <ele>1025</ele>
      </trkpt>
      <trkpt lat="44.32853" lon="3.66019">
        <ele>1028.1</ele>
      </trkpt>
      <trkpt lat="44.32861" lon="3.6599">
        <ele>1036.8</ele>
      </trkpt>
      <trkpt lat="44.32895" lon="3.65908">
        <ele>1029.5</ele>
      </trkpt>
      <trkpt lat="44.329" lon="3.65887">
        <ele>1031.2</ele>
      </trkpt>
      <trkpt lat="44.329" lon="3.65866">
        <ele>1032.3</ele>
      </trkpt>
      <trkpt lat="44.32895" lon="3.6583">
        <ele>1029.2</ele>
      </trkpt>
      <trkpt lat="44.32895" lon="3.65818">
        <ele>1029.8</ele>
      </trkpt>
      <trkpt lat="44.32898" lon="3.65808">
        <ele>1030.1</ele>
      </trkpt>
      <trkpt lat="44.32915" lon="3.65781">
        <ele>1030.1</ele>
      </trkpt>
      <trkpt lat="44.3292" lon="3.65767">
        <ele>1017.4</ele>
      </trkpt>
      <trkpt lat="44.3292" lon="3.6574">
        <ele>1023.3</ele>
      </trkpt>
      <trkpt lat="44.32932" lon="3.65714">
        <ele>1017.2</ele>
      </trkpt>
      <trkpt lat="44.32934" lon="3.65697">
        <ele>1017.5</ele>
      </trkpt>
      <trkpt lat="44.32933" lon="3.65678">
        <ele>1020.3</ele>
      </trkpt>
      <trkpt lat="44.32928" lon="3.65652">
        <ele>1026.1</ele>
      </trkpt>
      <trkpt lat="44.32907" lon="3.65592">
        <ele>1032.2</ele>
      </trkpt>
      <trkpt lat="44.32887" lon="3.65561">
        <ele>1029.7</ele>
      </trkpt>
      <trkpt lat="44.32875" lon="3.65549">
        <ele>1027.7</ele>
      </trkpt>
      <trkpt lat="44.32869" lon="3.65538">
        <ele>1027</ele>
      </trkpt>
      <trkpt lat="44.32863" lon="3.65514">
        <ele>1025.8</ele>
      </trkpt>
      <trkpt lat="44.32859" lon="3.65487">
        <ele>1028.6</ele>
      </trkpt>
      <trkpt lat="44.32849" lon="3.65444">
        <ele>1029.4</ele>
      </trkpt>
      <trkpt lat="44.32836" lon="3.65403">
        <ele>1024.4</ele>
      </trkpt>
      <trkpt lat="44.32832" lon="3.65381">
        <ele>1005.8</ele>
      </trkpt>
      <trkpt lat="44.32831" lon="3.65365">
        <ele>1005</ele>
      </trkpt>
      <trkpt lat="44.32833" lon="3.65349">
        <ele>1006.7</ele>
      </trkpt>
      <trkpt lat="44.32838" lon="3.65339">
        <ele>1016.8</ele>
      </trkpt>
      <trkpt lat="44.3285" lon="3.65324">
        <ele>1013.5</ele>
      </trkpt>
      <trkpt lat="44.32874" lon="3.65306">
        <ele>1015.5</ele>
      </trkpt>
      <trkpt lat="44.32902" lon="3.65279">
        <ele>1015.4</ele>
      </trkpt>
      <trkpt lat="44.32934" lon="3.65249">
        <ele>1015.8</ele>
      </trkpt>
      <trkpt lat="44.32951" lon="3.6523">
        <ele>1017.4</ele>
      </trkpt>
      <trkpt lat="44.3298" lon="3.65182">
        <ele>1017.8</ele>
      </trkpt>
      <trkpt lat="44.3299" lon="3.65155">
        <ele>1013.5</ele>
      </trkpt>
      <trkpt lat="44.32993" lon="3.65141">
        <ele>1010.5</ele>
      </trkpt>
      <trkpt lat="44.32988" lon="3.65084">
        <ele>1012.4</ele>
      </trkpt>
      <trkpt lat="44.32984" lon="3.65066">
        <ele>1012.4</ele>
      </trkpt>
      <trkpt lat="44.32979" lon="3.65054">
        <ele>1011.5</ele>
      </trkpt>
      <trkpt lat="44.32973" lon="3.65046">
        <ele>1010.9</ele>
      </trkpt>
      <trkpt lat="44.32963" lon="3.65042">
        <ele>1009.2</ele>
      </trkpt>
      <trkpt lat="44.32934" lon="3.65013">
        <ele>1004.6</ele>
      </trkpt>
      <trkpt lat="44.32891" lon="3.6496">
        <ele>988.7</ele>
      </trkpt>
      <trkpt lat="44.3288" lon="3.64943">
        <ele>987.6</ele>
      </trkpt>
      <trkpt lat="44.32871" lon="3.64923">
        <ele>985.6</ele>
      </trkpt>
      <trkpt lat="44.32864" lon="3.64896">
        <ele>989.7</ele>
      </trkpt>
      <trkpt lat="44.32861" lon="3.64844">
        <ele>989.1</ele>
      </trkpt>
      <trkpt lat="44.32862" lon="3.64812">
        <ele>987.1</ele>
      </trkpt>
      <trkpt lat="44.32866" lon="3.64776">
        <ele>986.3</ele>
      </trkpt>
      <trkpt lat="44.32872" lon="3.6475">
        <ele>974.6</ele>
      </trkpt>
      <trkpt lat="44.32878" lon="3.64731">
        <ele>974.5</ele>
      </trkpt>
      <trkpt lat="44.32887" lon="3.64714">
        <ele>973.8</ele>
      </trkpt>
      <trkpt lat="44.32913" lon="3.64676">
        <ele>972.4</ele>
      </trkpt>
      <trkpt lat="44.32945" lon="3.6464">
        <ele>977.9</ele>
      </trkpt>
      <trkpt lat="44.32961" lon="3.64617">
        <ele>978.2</ele>
      </trkpt>
      <trkpt lat="44.32973" lon="3.64595">
        <ele>978.9</ele>
      </trkpt>
      <trkpt lat="44.32981" lon="3.64567">
        <ele>970.6</ele>
      </trkpt>
      <trkpt lat="44.32986" lon="3.64527">
        <ele>968.2</ele>
      </trkpt>
      <trkpt lat="44.32985" lon="3.64496">
        <ele>968.3</ele>
      </trkpt>
      <trkpt lat="44.32983" lon="3.64461">
        <ele>962.3</ele>
      </trkpt>
      <trkpt lat="44.32972" lon="3.64396">
        <ele>958.2</ele>
      </trkpt>
      <trkpt lat="44.32958" lon="3.64338">
        <ele>953.6</ele>
      </trkpt>
      <trkpt lat="44.32937" lon="3.64282">
        <ele>950</ele>
      </trkpt>
      <trkpt lat="44.3293" lon="3.64264">
        <ele>950.6</ele>
      </trkpt>
      <trkpt lat="44.32926" lon="3.64255">
        <ele>951.1</ele>
      </trkpt>
      <trkpt lat="44.3291" lon="3.64218">
        <ele>955.6</ele>
      </trkpt>
      <trkpt lat="44.32905" lon="3.64198">
        <ele>956.6</ele>
      </trkpt>
      <trkpt lat="44.32903" lon="3.6418">
        <ele>956.6</ele>
      </trkpt>
      <trkpt lat="44.32908" lon="3.64125">
        <ele>960.1</ele>
      </trkpt>
      <trkpt lat="44.32909" lon="3.64085">
        <ele>955.3</ele>
      </trkpt>
      <trkpt lat="44.32909" lon="3.64047">
        <ele>958</ele>
      </trkpt>
      <trkpt lat="44.32914" lon="3.63985">
        <ele>950.8</ele>
      </trkpt>
      <trkpt lat="44.3291" lon="3.63924">
        <ele>944.7</ele>
      </trkpt>
      <trkpt lat="44.32914" lon="3.63857">
        <ele>945.9</ele>
      </trkpt>
      <trkpt lat="44.32921" lon="3.63812">
        <ele>931</ele>
      </trkpt>
      <trkpt lat="44.3293" lon="3.6377">
        <ele>932</ele>
      </trkpt>
      <trkpt lat="44.3294" lon="3.63742">
        <ele>932.6</ele>
      </trkpt>
      <trkpt lat="44.32957" lon="3.63713">
        <ele>927.5</ele>
      </trkpt>
      <trkpt lat="44.32969" lon="3.6368">
        <ele>924.9</ele>
      </trkpt>
      <trkpt lat="44.32973" lon="3.63659">
        <ele>920.3</ele>
      </trkpt>
      <trkpt lat="44.32972" lon="3.63643">
        <ele>920.2</ele>
      </trkpt>
      <trkpt lat="44.32967" lon="3.63629">
        <ele>920.3</ele>
      </trkpt>
      <trkpt lat="44.32957" lon="3.6362">
        <ele>921.1</ele>
      </trkpt>
      <trkpt lat="44.32926" lon="3.63613">
        <ele>924.2</ele>
      </trkpt>
      <trkpt lat="44.32919" lon="3.63606">
        <ele>924.4</ele>
      </trkpt>
      <trkpt lat="44.32898" lon="3.63568">
        <ele>928.5</ele>
      </trkpt>
      <trkpt lat="44.32888" lon="3.63546">
        <ele>928.1</ele>
      </trkpt>
      <trkpt lat="44.32868" lon="3.63496">
        <ele>921.2</ele>
      </trkpt>
      <trkpt lat="44.32868" lon="3.63487">
        <ele>920.7</ele>
      </trkpt>
      <trkpt lat="44.32875" lon="3.63426">
        <ele>915.3</ele>
      </trkpt>
      <trkpt lat="44.32892" lon="3.63315">
        <ele>911.1</ele>
      </trkpt>
      <trkpt lat="44.32902" lon="3.63288">
        <ele>912.4</ele>
      </trkpt>
      <trkpt lat="44.32932" lon="3.63244">
        <ele>898</ele>
      </trkpt>
      <trkpt lat="44.32954" lon="3.63194">
        <ele>892.9</ele>
      </trkpt>
      <trkpt lat="44.32962" lon="3.63168">
        <ele>891</ele>
      </trkpt>
      <trkpt lat="44.32978" lon="3.63098">
        <ele>892.5</ele>
      </trkpt>
      <trkpt lat="44.32981" lon="3.6307">
        <ele>898.1</ele>
      </trkpt>
      <trkpt lat="44.32986" lon="3.63049">
        <ele>902.1</ele>
      </trkpt>
      <trkpt lat="44.32992" lon="3.63032">
        <ele>903.6</ele>
      </trkpt>
      <trkpt lat="44.33019" lon="3.63001">
        <ele>889.8</ele>
      </trkpt>
      <trkpt lat="44.33053" lon="3.62982">
        <ele>897.7</ele>
      </trkpt>
      <trkpt lat="44.33056" lon="3.62982">
        <ele>897.2</ele>
        <extensions>
          <visugpx:TrkExtension xmlns:visugpx="https://www.visugpx.com/editgpx/">
            <visugpx:node>13</visugpx:node>
            </visugpx:TrkExtension>
        </extensions>
      </trkpt>
      <trkpt lat="44.33075" lon="3.62981">
        <ele>894.1</ele>
      </trkpt>
      <trkpt lat="44.33091" lon="3.62983">
        <ele>883.4</ele>
      </trkpt>
      <trkpt lat="44.33103" lon="3.6298">
        <ele>882.6</ele>
      </trkpt>
      <trkpt lat="44.33113" lon="3.6297">
        <ele>882.1</ele>
      </trkpt>
      <trkpt lat="44.33123" lon="3.62953">
        <ele>881.9</ele>
      </trkpt>
      <trkpt lat="44.33128" lon="3.62937">
        <ele>882</ele>
      </trkpt>
      <trkpt lat="44.33129" lon="3.62915">
        <ele>882.6</ele>
      </trkpt>
      <trkpt lat="44.33127" lon="3.62892">
        <ele>882.5</ele>
      </trkpt>
      <trkpt lat="44.3312" lon="3.62864">
        <ele>882.6</ele>
      </trkpt>
      <trkpt lat="44.33093" lon="3.62778">
        <ele>877.7</ele>
      </trkpt>
      <trkpt lat="44.3308" lon="3.62714">
        <ele>902.7</ele>
      </trkpt>
      <trkpt lat="44.33078" lon="3.62688">
        <ele>900.6</ele>
      </trkpt>
      <trkpt lat="44.33081" lon="3.62672">
        <ele>892.9</ele>
      </trkpt>
      <trkpt lat="44.33088" lon="3.62658">
        <ele>881.1</ele>
      </trkpt>
      <trkpt lat="44.33095" lon="3.62641">
        <ele>874.7</ele>
      </trkpt>
      <trkpt lat="44.33102" lon="3.62613">
        <ele>874.2</ele>
      </trkpt>
      <trkpt lat="44.3311" lon="3.62556">
        <ele>881.9</ele>
      </trkpt>
      <trkpt lat="44.33116" lon="3.62541">
        <ele>881.2</ele>
      </trkpt>
      <trkpt lat="44.33125" lon="3.6253">
        <ele>879.5</ele>
      </trkpt>
      <trkpt lat="44.33142" lon="3.62515">
        <ele>874.1</ele>
      </trkpt>
      <trkpt lat="44.33155" lon="3.62496">
        <ele>877.6</ele>
      </trkpt>
      <trkpt lat="44.3318" lon="3.62445">
        <ele>880</ele>
      </trkpt>
      <trkpt lat="44.33184" lon="3.62439">
        <ele>881.5</ele>
      </trkpt>
      <trkpt lat="44.33191" lon="3.62435">
        <ele>881.2</ele>
      </trkpt>
      <trkpt lat="44.33205" lon="3.62434">
        <ele>878.6</ele>
      </trkpt>
      <trkpt lat="44.33222" lon="3.62437">
        <ele>876.6</ele>
      </trkpt>
      <trkpt lat="44.33312" lon="3.62476">
        <ele>861</ele>
      </trkpt>
      <trkpt lat="44.33335" lon="3.62478">
        <ele>856.3</ele>
      </trkpt>
      <trkpt lat="44.33355" lon="3.62475">
        <ele>857</ele>
      </trkpt>
      <trkpt lat="44.3337" lon="3.62469">
        <ele>857.4</ele>
      </trkpt>
      <trkpt lat="44.334" lon="3.6245">
        <ele>858.4</ele>
      </trkpt>
      <trkpt lat="44.33446" lon="3.62405">
        <ele>861.4</ele>
      </trkpt>
      <trkpt lat="44.33477" lon="3.6239">
        <ele>857.8</ele>
      </trkpt>
      <trkpt lat="44.33487" lon="3.62381">
        <ele>857.5</ele>
      </trkpt>
      <trkpt lat="44.33498" lon="3.62362">
        <ele>857.6</ele>
      </trkpt>
      <trkpt lat="44.33502" lon="3.62358">
        <ele>847</ele>
      </trkpt>
      <trkpt lat="44.33507" lon="3.62357">
        <ele>846.8</ele>
      </trkpt>
      <trkpt lat="44.33512" lon="3.62359">
        <ele>846.2</ele>
      </trkpt>
      <trkpt lat="44.33513" lon="3.62365">
        <ele>845.6</ele>
      </trkpt>
      <trkpt lat="44.3351" lon="3.62374">
        <ele>845.2</ele>
      </trkpt>
      <trkpt lat="44.335" lon="3.62387">
        <ele>845</ele>
      </trkpt>
      <trkpt lat="44.33475" lon="3.62413">
        <ele>855.9</ele>
      </trkpt>
      <trkpt lat="44.33405" lon="3.62526">
        <ele>835</ele>
      </trkpt>
      <trkpt lat="44.3347" lon="3.62469">
        <ele>842</ele>
      </trkpt>
      <trkpt lat="44.33535" lon="3.62452">
        <ele>834</ele>
      </trkpt>
      <trkpt lat="44.33673" lon="3.62499">
        <ele>816</ele>
      </trkpt>
      <trkpt lat="44.33746" lon="3.6251">
        <ele>806</ele>
      </trkpt>
      <trkpt lat="44.3381" lon="3.62486">
        <ele>796</ele>
      </trkpt>
      <trkpt lat="44.34006" lon="3.62425">
        <ele>779</ele>
      </trkpt>
      <trkpt lat="44.34107" lon="3.62375">
        <ele>775</ele>
      </trkpt>
      <trkpt lat="44.34193" lon="3.62344">
        <ele>766.8</ele>
      </trkpt>
      <trkpt lat="44.34151" lon="3.62294">
        <ele>752</ele>
      </trkpt>
      <trkpt lat="44.33989" lon="3.62277">
        <ele>741.4</ele>
      </trkpt>
      <trkpt lat="44.33941" lon="3.62266">
        <ele>739</ele>
      </trkpt>
      <trkpt lat="44.33844" lon="3.62281">
        <ele>739</ele>
      </trkpt>
      <trkpt lat="44.33811" lon="3.62298">
        <ele>747</ele>
      </trkpt>
      <trkpt lat="44.3378" lon="3.62302">
        <ele>749</ele>
      </trkpt>
      <trkpt lat="44.33734" lon="3.62169">
        <ele>736</ele>
      </trkpt>
      <trkpt lat="44.33693" lon="3.62082">
        <ele>719</ele>
      </trkpt>
      <trkpt lat="44.33759" lon="3.62057">
        <ele>691</ele>
      </trkpt>
      <trkpt lat="44.33738" lon="3.61964">
        <ele>701.6</ele>
      </trkpt>
      <trkpt lat="44.3382" lon="3.6205">
        <ele>680</ele>
      </trkpt>
      <trkpt lat="44.33834" lon="3.62047">
        <ele>667</ele>
      </trkpt>
      <trkpt lat="44.33819" lon="3.62013">
        <ele>676.6</ele>
      </trkpt>
      <trkpt lat="44.33836" lon="3.62029">
        <ele>666</ele>
      </trkpt>
      <trkpt lat="44.33862" lon="3.62014">
        <ele>664.5</ele>
      </trkpt>
      <trkpt lat="44.3392" lon="3.6202">
        <ele>654</ele>
      </trkpt>
      <trkpt lat="44.3399" lon="3.62001">
        <ele>642</ele>
      </trkpt>
      <trkpt lat="44.34058" lon="3.61937">
        <ele>636</ele>
      </trkpt>
      <trkpt lat="44.34211" lon="3.6186">
        <ele>611</ele>
      </trkpt>
      <trkpt lat="44.34256" lon="3.61835">
        <ele>602</ele>
      </trkpt>
      <trkpt lat="44.34305" lon="3.61823">
        <ele>601</ele>
      </trkpt>
      <trkpt lat="44.34358" lon="3.6177">
        <ele>589.8</ele>
      </trkpt>
      <trkpt lat="44.34372" lon="3.61748">
        <ele>587.3</ele>
      </trkpt>
      <trkpt lat="44.34392" lon="3.61748">
        <ele>583.3</ele>
      </trkpt>
      <trkpt lat="44.34395" lon="3.61735">
        <ele>583.3</ele>
      </trkpt>
      <trkpt lat="44.34402" lon="3.61709">
        <ele>583.5</ele>
      </trkpt>
      <trkpt lat="44.34401" lon="3.61693">
        <ele>583</ele>
      </trkpt>
      <trkpt lat="44.34392" lon="3.61654">
        <ele>582.7</ele>
      </trkpt>
      <trkpt lat="44.34362" lon="3.61586">
        <ele>587.6</ele>
      </trkpt>
      <trkpt lat="44.34355" lon="3.61566">
        <ele>585</ele>
      </trkpt>
      <trkpt lat="44.34338" lon="3.61448">
        <ele>581.2</ele>
      </trkpt>
      <trkpt lat="44.34328" lon="3.61355">
        <ele>601.1</ele>
      </trkpt>
      <trkpt lat="44.3433" lon="3.61309">
        <ele>600.8</ele>
      </trkpt>
      <trkpt lat="44.34337" lon="3.61245">
        <ele>585.8</ele>
      </trkpt>
      <trkpt lat="44.34337" lon="3.61225">
        <ele>582.9</ele>
        <extensions>
          <visugpx:TrkExtension xmlns:visugpx="https://www.visugpx.com/editgpx/">
            <visugpx:node>17</visugpx:node>
            </visugpx:TrkExtension>
        </extensions>
      </trkpt>
      <trkpt lat="44.34336" lon="3.61214">
        <ele>582.8</ele>
      </trkpt>
      <trkpt lat="44.34338" lon="3.61193">
        <ele>584.8</ele>
      </trkpt>
      <trkpt lat="44.34342" lon="3.61176">
        <ele>588.6</ele>
      </trkpt>
      <trkpt lat="44.34363" lon="3.61121">
        <ele>587.5</ele>
      </trkpt>
      <trkpt lat="44.34372" lon="3.61095">
        <ele>587.1</ele>
      </trkpt>
      <trkpt lat="44.34389" lon="3.61072">
        <ele>586.3</ele>
      </trkpt>
      <trkpt lat="44.34407" lon="3.61051">
        <ele>585.1</ele>
      </trkpt>
      <trkpt lat="44.34436" lon="3.60998">
        <ele>576</ele>
      </trkpt>
      <trkpt lat="44.34445" lon="3.60994">
        <ele>574.3</ele>
      </trkpt>
      <trkpt lat="44.34447" lon="3.60999">
        <ele>573.9</ele>
      </trkpt>
      <trkpt lat="44.34486" lon="3.61044">
        <ele>567.4</ele>
      </trkpt>
      <trkpt lat="44.34499" lon="3.61058">
        <ele>566.8</ele>
      </trkpt>
      <trkpt lat="44.34506" lon="3.61077">
        <ele>566.4</ele>
      </trkpt>
      <trkpt lat="44.34507" lon="3.61086">
        <ele>567.4</ele>
      </trkpt>
      <trkpt lat="44.34507" lon="3.61104">
        <ele>570.1</ele>
      </trkpt>
      <trkpt lat="44.34492" lon="3.61238">
        <ele>568.4</ele>
      </trkpt>
      <trkpt lat="44.34485" lon="3.61297">
        <ele>568.6</ele>
      </trkpt>
      <trkpt lat="44.34483" lon="3.61334">
        <ele>569.6</ele>
      </trkpt>
      <trkpt lat="44.34485" lon="3.61345">
        <ele>569.6</ele>
      </trkpt>
      <trkpt lat="44.34506" lon="3.61411">
        <ele>571.6</ele>
      </trkpt>
      <trkpt lat="44.34526" lon="3.61496">
        <ele>572.3</ele>
      </trkpt>
      <trkpt lat="44.3454" lon="3.61556">
        <ele>576.3</ele>
      </trkpt>
      <trkpt lat="44.34549" lon="3.61584">
        <ele>580</ele>
      </trkpt>
      <trkpt lat="44.34558" lon="3.61609">
        <ele>580.7</ele>
      </trkpt>
      <trkpt lat="44.34612" lon="3.61739">
        <ele>593.3</ele>
      </trkpt>
      <trkpt lat="44.34645" lon="3.61816">
        <ele>596.4</ele>
      </trkpt>
      <trkpt lat="44.34661" lon="3.61842">
        <ele>598.2</ele>
      </trkpt>
      <trkpt lat="44.34672" lon="3.61855">
        <ele>602.1</ele>
      </trkpt>
      <trkpt lat="44.34688" lon="3.61872">
        <ele>602.7</ele>
      </trkpt>
      <trkpt lat="44.34707" lon="3.61892">
        <ele>603.4</ele>
      </trkpt>
      <trkpt lat="44.34711" lon="3.61899">
        <ele>603.7</ele>
      </trkpt>
      <trkpt lat="44.34715" lon="3.61907">
        <ele>604</ele>
      </trkpt>
      <trkpt lat="44.34739" lon="3.61968">
        <ele>607.9</ele>
      </trkpt>
      <trkpt lat="44.34765" lon="3.62018">
        <ele>614.3</ele>
      </trkpt>
    </trkseg>
  </trk>
  <trk>
    <name><![CDATA[24 juil]]></name>
    <extensions>
      <line xmlns="http://www.topografix.com/GPX/gpx_style/0/2">
        <color>eb0000</color>
        <opacity>1</opacity>
        <width>3</width>
      </line>
    </extensions>
    <trkseg>
      <trkpt lat="44.34767" lon="3.62022">
        <ele>614.5</ele>
      </trkpt>
      <trkpt lat="44.34767" lon="3.62022">
        <ele>614.5</ele>
      </trkpt>
      <trkpt lat="44.34767" lon="3.62022">
        <ele>614.5</ele>
      </trkpt>
      <trkpt lat="44.34767" lon="3.62022">
        <ele>614.5</ele>
      </trkpt>
      <trkpt lat="44.34767" lon="3.62022">
        <ele>614.5</ele>
      </trkpt>
      <trkpt lat="44.34767" lon="3.62022">
        <ele>614.5</ele>
      </trkpt>
      <trkpt lat="44.34767" lon="3.62022">
        <ele>614.5</ele>
      </trkpt>
      <trkpt lat="44.34767" lon="3.62022">
        <ele>614.5</ele>
      </trkpt>
      <trkpt lat="44.34628" lon="3.61795">
        <ele>594.7</ele>
      </trkpt>
      <trkpt lat="44.34493" lon="3.61375">
        <ele>570</ele>
      </trkpt>
      <trkpt lat="44.34504" lon="3.61081">
        <ele>566</ele>
      </trkpt>
      <trkpt lat="44.34525" lon="3.61065">
        <ele>569</ele>
      </trkpt>
      <trkpt lat="44.34532" lon="3.61036">
        <ele>568.9</ele>
      </trkpt>
      <trkpt lat="44.34525" lon="3.61011">
        <ele>567</ele>
      </trkpt>
      <trkpt lat="44.34545" lon="3.60926">
        <ele>566</ele>
      </trkpt>
      <trkpt lat="44.34586" lon="3.60815">
        <ele>565.6</ele>
      </trkpt>
      <trkpt lat="44.34603" lon="3.60831">
        <ele>566.5</ele>
      </trkpt>
      <trkpt lat="44.34641" lon="3.60722">
        <ele>567.9</ele>
      </trkpt>
      <trkpt lat="44.34654" lon="3.60579">
        <ele>575</ele>
      </trkpt>
      <trkpt lat="44.3462" lon="3.60443">
        <ele>585</ele>
      </trkpt>
      <trkpt lat="44.34596" lon="3.60385">
        <ele>593</ele>
      </trkpt>
      <trkpt lat="44.3457" lon="3.60343">
        <ele>576.8</ele>
      </trkpt>
      <trkpt lat="44.34498" lon="3.60121">
        <ele>557.596</ele>
        <time>2019-03-26T04:36:31Z</time>
      </trkpt>
      <trkpt lat="44.34463" lon="3.59941">
        <ele>556.031</ele>
        <time>2019-03-26T04:36:51Z</time>
      </trkpt>
      <trkpt lat="44.34462" lon="3.59932">
        <ele>556.224</ele>
        <time>2016-06-08T08:03:13Z</time>
      </trkpt>
      <trkpt lat="44.34479" lon="3.59789">
        <ele>555.708</ele>
        <time>2016-06-08T08:03:33Z</time>
      </trkpt>
      <trkpt lat="44.34463" lon="3.59634">
        <ele>551.512</ele>
        <time>2016-06-08T08:03:53Z</time>
      </trkpt>
      <trkpt lat="44.34466" lon="3.59588">
        <ele>550.833</ele>
        <time>2016-06-08T08:04:13Z</time>
      </trkpt>
      <trkpt lat="44.34498" lon="3.59434">
        <ele>552.894</ele>
        <time>2016-06-08T08:04:33Z</time>
      </trkpt>
      <trkpt lat="44.34524" lon="3.59332">
        <ele>553.472</ele>
        <time>2016-06-08T08:04:53Z</time>
      </trkpt>
      <trkpt lat="44.34555" lon="3.5925">
        <ele>553.92</ele>
        <time>2016-06-08T08:05:13Z</time>
      </trkpt>
      <trkpt lat="44.34567" lon="3.59204">
        <ele>555.182</ele>
        <time>2016-06-08T08:05:33Z</time>
      </trkpt>
      <trkpt lat="44.34629" lon="3.59147">
        <ele>564.592</ele>
        <time>2016-06-08T08:05:53Z</time>
      </trkpt>
      <trkpt lat="44.34654" lon="3.59142">
        <ele>572.173</ele>
        <time>2016-06-08T08:06:13Z</time>
      </trkpt>
      <trkpt lat="44.34642" lon="3.59063">
        <ele>577.227</ele>
        <time>2016-06-08T08:06:33Z</time>
      </trkpt>
      <trkpt lat="44.34609" lon="3.58992">
        <ele>575.168</ele>
        <time>2016-06-08T08:06:53Z</time>
      </trkpt>
      <trkpt lat="44.34601" lon="3.58932">
        <ele>592.114</ele>
        <time>2016-06-08T08:07:13Z</time>
      </trkpt>
      <trkpt lat="44.34566" lon="3.58927">
        <ele>582.708</ele>
        <time>2016-06-08T08:07:33Z</time>
      </trkpt>
      <trkpt lat="44.34492" lon="3.58899">
        <ele>582.065</ele>
        <time>2016-06-08T08:07:53Z</time>
      </trkpt>
      <trkpt lat="44.34434" lon="3.58899">
        <ele>575.656</ele>
        <time>2016-06-08T08:08:13Z</time>
      </trkpt>
      <trkpt lat="44.3438" lon="3.5886">
        <ele>591.837</ele>
        <time>2016-06-08T08:08:33Z</time>
      </trkpt>
      <trkpt lat="44.34342" lon="3.58855">
        <ele>589.535</ele>
        <time>2016-06-08T08:08:53Z</time>
      </trkpt>
      <trkpt lat="44.34277" lon="3.58888">
        <ele>579.423</ele>
        <time>2016-06-08T08:09:13Z</time>
      </trkpt>
      <trkpt lat="44.34192" lon="3.58921">
        <ele>577.485</ele>
        <time>2016-06-08T08:09:33Z</time>
      </trkpt>
      <trkpt lat="44.34111" lon="3.58977">
        <ele>579.835</ele>
        <time>2016-06-08T08:09:53Z</time>
      </trkpt>
      <trkpt lat="44.3406" lon="3.58983">
        <ele>581.396</ele>
        <time>2016-06-08T08:10:13Z</time>
      </trkpt>
      <trkpt lat="44.34008" lon="3.58949">
        <ele>575.584</ele>
        <time>2016-06-08T08:10:33Z</time>
      </trkpt>
      <trkpt lat="44.33929" lon="3.58836">
        <ele>557.107</ele>
        <time>2016-06-08T08:10:53Z</time>
      </trkpt>
      <trkpt lat="44.33782" lon="3.58712">
        <ele>547.717</ele>
        <time>2016-06-08T08:11:13Z</time>
      </trkpt>
      <trkpt lat="44.33702" lon="3.58737">
        <ele>540.808</ele>
        <time>2016-06-08T08:11:33Z</time>
      </trkpt>
      <trkpt lat="44.33656" lon="3.58742">
        <ele>541.441</ele>
        <time>2016-06-08T08:11:53Z</time>
      </trkpt>
      <trkpt lat="44.33596" lon="3.58693">
        <ele>554.172</ele>
        <time>2016-06-08T08:12:13Z</time>
      </trkpt>
      <trkpt lat="44.33587" lon="3.58622">
        <ele>545.783</ele>
        <time>2016-06-08T08:12:33Z</time>
      </trkpt>
      <trkpt lat="44.33481" lon="3.58616">
        <ele>552.431</ele>
        <time>2016-06-08T08:12:53Z</time>
      </trkpt>
      <trkpt lat="44.334" lon="3.58657">
        <ele>550.589</ele>
        <time>2016-06-08T08:13:13Z</time>
      </trkpt>
      <trkpt lat="44.3334" lon="3.58718">
        <ele>549.661</ele>
        <time>2016-06-08T08:13:33Z</time>
      </trkpt>
      <trkpt lat="44.33271" lon="3.5886">
        <ele>555.521</ele>
        <time>2016-06-08T08:13:53Z</time>
      </trkpt>
      <trkpt lat="44.33206" lon="3.59026">
        <ele>552.732</ele>
        <time>2016-06-08T08:14:13Z</time>
      </trkpt>
      <trkpt lat="44.33155" lon="3.59123">
        <ele>550.874</ele>
        <time>2016-06-08T08:14:33Z</time>
      </trkpt>
      <trkpt lat="44.33106" lon="3.59057">
        <ele>540.456</ele>
        <time>2016-06-08T08:14:53Z</time>
      </trkpt>
      <trkpt lat="44.33067" lon="3.5905">
        <ele>544.821</ele>
        <time>2016-06-08T08:15:13Z</time>
      </trkpt>
      <trkpt lat="44.32992" lon="3.59096">
        <ele>544.708</ele>
        <time>2016-06-08T08:15:33Z</time>
      </trkpt>
      <trkpt lat="44.32332" lon="3.59617">
        <ele>547.97</ele>
        <time>2016-06-08T08:15:53Z</time>
      </trkpt>
      <trkpt lat="44.32109" lon="3.59661">
        <ele>549.231</ele>
        <time>2016-06-08T08:16:13Z</time>
      </trkpt>
      <trkpt lat="44.3197" lon="3.59756">
        <ele>548.022</ele>
        <time>2016-06-08T08:16:33Z</time>
      </trkpt>
      <trkpt lat="44.31789" lon="3.59804">
        <ele>547.07</ele>
        <time>2016-06-08T08:16:53Z</time>
      </trkpt>
      <trkpt lat="44.31637" lon="3.59808">
        <ele>554.688</ele>
        <time>2016-06-08T08:17:13Z</time>
      </trkpt>
      <trkpt lat="44.31519" lon="3.59771">
        <ele>565.66</ele>
        <time>2016-06-08T08:17:33Z</time>
      </trkpt>
      <trkpt lat="44.31356" lon="3.5978">
        <ele>554.29</ele>
        <time>2016-06-08T08:17:53Z</time>
      </trkpt>
      <trkpt lat="44.31265" lon="3.59824">
        <ele>553.611</ele>
        <time>2016-06-08T08:18:13Z</time>
      </trkpt>
      <trkpt lat="44.31265" lon="3.59866">
        <ele>556.028</ele>
        <time>2016-06-08T08:18:53Z</time>
      </trkpt>
      <trkpt lat="44.31305" lon="3.59889">
        <ele>568.02</ele>
        <time>2016-06-08T08:19:13Z</time>
      </trkpt>
      <trkpt lat="44.3141" lon="3.59884">
        <ele>574.308</ele>
        <time>2016-06-08T08:19:33Z</time>
      </trkpt>
      <trkpt lat="44.31497" lon="3.59931">
        <ele>572.66</ele>
        <time>2016-06-08T08:19:53Z</time>
      </trkpt>
      <trkpt lat="44.31562" lon="3.59997">
        <ele>558.821</ele>
        <time>2016-06-08T08:20:13Z</time>
      </trkpt>
      <trkpt lat="44.31556" lon="3.60104">
        <ele>563.312</ele>
        <time>2016-06-08T08:20:33Z</time>
      </trkpt>
      <trkpt lat="44.31545" lon="3.60131">
        <ele>566.78</ele>
        <time>2016-06-08T08:20:53Z</time>
      </trkpt>
      <trkpt lat="44.3151" lon="3.60333">
        <ele>570.738</ele>
        <time>2016-06-08T08:21:13Z</time>
      </trkpt>
      <trkpt lat="44.31515" lon="3.60383">
        <ele>567.82</ele>
        <time>2016-06-08T08:21:33Z</time>
      </trkpt>
      <trkpt lat="44.31568" lon="3.60567">
        <ele>564.93</ele>
        <time>2016-06-08T08:21:53Z</time>
      </trkpt>
      <trkpt lat="44.31542" lon="3.60614">
        <ele>569.871</ele>
        <time>2016-06-08T08:22:13Z</time>
      </trkpt>
      <trkpt lat="44.31557" lon="3.60643">
        <ele>569.111</ele>
        <time>2016-06-08T08:22:33Z</time>
      </trkpt>
      <trkpt lat="44.3161" lon="3.6062">
        <ele>565.021</ele>
        <time>2016-06-08T08:22:53Z</time>
      </trkpt>
      <trkpt lat="44.31724" lon="3.60722">
        <ele>577.903</ele>
        <time>2016-06-08T08:23:13Z</time>
      </trkpt>
      <trkpt lat="44.31782" lon="3.60812">
        <ele>576.208</ele>
        <time>2016-06-08T08:23:33Z</time>
      </trkpt>
      <trkpt lat="44.3179" lon="3.60902">
        <ele>585.024</ele>
        <time>2016-06-08T08:23:53Z</time>
      </trkpt>
      <trkpt lat="44.31674" lon="3.61102">
        <ele>598.915</ele>
        <time>2016-06-08T08:24:13Z</time>
      </trkpt>
      <trkpt lat="44.31606" lon="3.61133">
        <ele>605.956</ele>
        <time>2016-06-08T08:24:33Z</time>
      </trkpt>
      <trkpt lat="44.31528" lon="3.61139">
        <ele>616.914</ele>
        <time>2016-06-08T08:24:53Z</time>
      </trkpt>
      <trkpt lat="44.31442" lon="3.61183">
        <ele>620.472</ele>
        <time>2016-06-08T08:25:13Z</time>
      </trkpt>
      <trkpt lat="44.31378" lon="3.61243">
        <ele>624.624</ele>
        <time>2016-06-08T08:25:33Z</time>
      </trkpt>
      <trkpt lat="44.31324" lon="3.61355">
        <ele>626.014</ele>
        <time>2016-06-08T08:25:53Z</time>
      </trkpt>
      <trkpt lat="44.31265" lon="3.6173">
        <ele>608.645</ele>
        <time>2016-06-08T08:26:13Z</time>
      </trkpt>
      <trkpt lat="44.31197" lon="3.61799">
        <ele>607.234</ele>
        <time>2016-06-08T08:26:33Z</time>
      </trkpt>
      <trkpt lat="44.31139" lon="3.61849">
        <ele>608.755</ele>
        <time>2016-06-08T08:26:53Z</time>
      </trkpt>
      <trkpt lat="44.31143" lon="3.61872">
        <ele>607.61</ele>
        <time>2016-06-08T08:27:13Z</time>
      </trkpt>
      <trkpt lat="44.31202" lon="3.61892">
        <ele>601.108</ele>
        <time>2016-06-08T08:27:33Z</time>
      </trkpt>
      <trkpt lat="44.3125" lon="3.61877">
        <ele>598.556</ele>
        <time>2016-06-08T08:27:53Z</time>
      </trkpt>
      <trkpt lat="44.313" lon="3.61885">
        <ele>593.897</ele>
        <time>2016-06-08T08:28:13Z</time>
      </trkpt>
      <trkpt lat="44.31301" lon="3.61902">
        <ele>594.798</ele>
        <time>2016-06-08T08:28:33Z</time>
      </trkpt>
      <trkpt lat="44.31251" lon="3.61948">
        <ele>608.986</ele>
        <time>2016-06-08T08:28:53Z</time>
      </trkpt>
      <trkpt lat="44.31243" lon="3.61994">
        <ele>612.164</ele>
        <time>2016-06-08T08:29:13Z</time>
      </trkpt>
      <trkpt lat="44.31241" lon="3.62035">
        <ele>615.046</ele>
        <time>2019-03-26T05:03:31Z</time>
      </trkpt>
      <trkpt lat="44.31242" lon="3.6211">
        <ele>625.766</ele>
        <time>2019-03-26T05:03:51Z</time>
      </trkpt>
      <trkpt lat="44.31323" lon="3.62294">
        <ele>639.727</ele>
        <time>2019-03-26T05:04:11Z</time>
      </trkpt>
      <trkpt lat="44.31426" lon="3.62479">
        <ele>653.853</ele>
        <time>2019-03-26T05:04:31Z</time>
      </trkpt>
      <trkpt lat="44.31428" lon="3.62542">
        <ele>655.504</ele>
        <time>2019-03-26T05:04:51Z</time>
      </trkpt>
      <trkpt lat="44.31397" lon="3.62571">
        <ele>660.714</ele>
        <time>2019-03-26T05:05:11Z</time>
      </trkpt>
      <trkpt lat="44.31358" lon="3.62587">
        <ele>673.408</ele>
        <time>2019-03-26T05:05:31Z</time>
      </trkpt>
      <trkpt lat="44.31301" lon="3.62652">
        <ele>674.858</ele>
        <time>2019-03-26T05:05:51Z</time>
      </trkpt>
      <trkpt lat="44.31201" lon="3.62803">
        <ele>677.319</ele>
        <time>2019-03-26T05:06:11Z</time>
      </trkpt>
      <trkpt lat="44.3118" lon="3.62849">
        <ele>678.37</ele>
        <time>2019-03-26T05:06:31Z</time>
      </trkpt>
      <trkpt lat="44.31125" lon="3.62927">
        <ele>689.358</ele>
        <time>2019-03-26T05:06:51Z</time>
      </trkpt>
      <trkpt lat="44.31129" lon="3.63079">
        <ele>667.786</ele>
        <time>2019-03-26T05:07:11Z</time>
      </trkpt>
      <trkpt lat="44.31106" lon="3.63143">
        <ele>658.928</ele>
        <time>2016-06-08T08:33:33Z</time>
      </trkpt>
      <trkpt lat="44.31029" lon="3.63142">
        <ele>672.638</ele>
        <time>2016-06-08T08:33:53Z</time>
      </trkpt>
      <trkpt lat="44.30938" lon="3.63089">
        <ele>686.399</ele>
        <time>2019-03-26T05:08:11Z</time>
      </trkpt>
      <trkpt lat="44.30861" lon="3.63052">
        <ele>694.875</ele>
        <time>2016-06-08T08:34:13Z</time>
      </trkpt>
      <trkpt lat="44.30855" lon="3.63065">
        <ele>694.828</ele>
        <time>2016-06-08T08:34:33Z</time>
      </trkpt>
      <trkpt lat="44.30895" lon="3.63134">
        <ele>692.32</ele>
        <time>2016-06-08T08:34:53Z</time>
      </trkpt>
      <trkpt lat="44.30935" lon="3.63229">
        <ele>695.508</ele>
        <time>2016-06-08T08:35:13Z</time>
      </trkpt>
      <trkpt lat="44.30951" lon="3.63366">
        <ele>703.58</ele>
        <time>2016-06-08T08:35:33Z</time>
      </trkpt>
      <trkpt lat="44.30978" lon="3.63364">
        <ele>694.351</ele>
        <time>2016-06-08T08:35:53Z</time>
      </trkpt>
      <trkpt lat="44.30905" lon="3.63537">
        <ele>692.232</ele>
        <time>2016-06-08T08:36:13Z</time>
      </trkpt>
      <trkpt lat="44.3081" lon="3.63655">
        <ele>691.31</ele>
        <time>2016-06-08T08:36:33Z</time>
      </trkpt>
      <trkpt lat="44.30771" lon="3.63725">
        <ele>678.978</ele>
        <time>2019-03-26T05:11:11Z</time>
      </trkpt>
      <trkpt lat="44.30723" lon="3.63776">
        <ele>686.16</ele>
        <time>2019-03-26T05:11:31Z</time>
      </trkpt>
      <trkpt lat="44.30682" lon="3.63915">
        <ele>675.66</ele>
        <time>2016-06-08T08:37:13Z</time>
      </trkpt>
      <trkpt lat="44.30616" lon="3.6399">
        <ele>681.881</ele>
        <time>2016-06-08T08:37:33Z</time>
      </trkpt>
      <trkpt lat="44.30656" lon="3.64114">
        <ele>650.176</ele>
        <time>2019-03-26T05:12:31Z</time>
      </trkpt>
      <trkpt lat="44.30601" lon="3.64157">
        <ele>666.99</ele>
        <time>2016-06-08T08:38:13Z</time>
      </trkpt>
      <trkpt lat="44.30639" lon="3.64387">
        <ele>673.319</ele>
        <time>2016-06-08T08:38:33Z</time>
      </trkpt>
      <trkpt lat="44.30567" lon="3.64601">
        <ele>682.708</ele>
        <time>2016-06-08T08:38:53Z</time>
      </trkpt>
      <trkpt lat="44.30503" lon="3.64655">
        <ele>692.94</ele>
        <time>2016-06-08T08:39:13Z</time>
      </trkpt>
      <trkpt lat="44.30515" lon="3.6479">
        <ele>686.781</ele>
        <time>2016-06-08T08:39:33Z</time>
      </trkpt>
      <trkpt lat="44.30452" lon="3.64966">
        <ele>702.612</ele>
        <time>2016-06-08T08:39:53Z</time>
      </trkpt>
      <trkpt lat="44.30397" lon="3.65026">
        <ele>706.82</ele>
        <time>2016-06-08T08:40:13Z</time>
      </trkpt>
      <trkpt lat="44.30334" lon="3.65075">
        <ele>708.618</ele>
        <time>2016-06-08T08:40:33Z</time>
      </trkpt>
      <trkpt lat="44.30257" lon="3.65161">
        <ele>718.07</ele>
        <time>2016-06-08T08:40:53Z</time>
      </trkpt>
      <trkpt lat="44.30389" lon="3.65487">
        <ele>694.54</ele>
        <time>2019-03-26T05:15:51Z</time>
      </trkpt>
      <trkpt lat="44.30456" lon="3.65602">
        <ele>686.771</ele>
        <time>2019-03-26T05:16:11Z</time>
      </trkpt>
      <trkpt lat="44.30456" lon="3.65744">
        <ele>678.125</ele>
        <time>2019-03-26T05:16:31Z</time>
      </trkpt>
      <trkpt lat="44.30402" lon="3.65827">
        <ele>681.626</ele>
        <time>2019-03-26T05:16:51Z</time>
      </trkpt>
      <trkpt lat="44.30377" lon="3.65913">
        <ele>663.308</ele>
        <time>2019-03-26T05:17:11Z</time>
      </trkpt>
      <trkpt lat="44.30347" lon="3.6597">
        <ele>657.808</ele>
        <time>2019-03-26T05:17:31Z</time>
      </trkpt>
      <trkpt lat="44.30321" lon="3.66057">
        <ele>650.275</ele>
        <time>2019-03-26T05:17:51Z</time>
      </trkpt>
      <trkpt lat="44.30253" lon="3.66216">
        <ele>626.986</ele>
        <time>2019-03-26T05:18:11Z</time>
      </trkpt>
      <trkpt lat="44.30205" lon="3.66303">
        <ele>618.437</ele>
        <time>2019-03-26T05:18:31Z</time>
      </trkpt>
      <trkpt lat="44.30226" lon="3.663">
        <ele>616.515</ele>
        <time>2019-03-26T05:18:51Z</time>
      </trkpt>
      <trkpt lat="44.30264" lon="3.66273">
        <ele>611.043</ele>
        <time>2019-03-26T05:19:11Z</time>
      </trkpt>
      <trkpt lat="44.30226" lon="3.66333">
        <ele>612.615</ele>
        <time>2019-03-26T05:19:31Z</time>
      </trkpt>
      <trkpt lat="44.30189" lon="3.66345">
        <ele>613.185</ele>
        <time>2019-03-26T05:19:51Z</time>
      </trkpt>
      <trkpt lat="44.30138" lon="3.66329">
        <ele>609.646</ele>
        <time>2019-03-26T05:20:11Z</time>
      </trkpt>
      <trkpt lat="44.30113" lon="3.66389">
        <ele>608.611</ele>
        <time>2019-03-26T05:20:31Z</time>
      </trkpt>
      <trkpt lat="44.30111" lon="3.6639">
        <ele>609.121</ele>
        <time>2016-06-08T08:51:13Z</time>
      </trkpt>
      <trkpt lat="44.30058" lon="3.66368">
        <ele>610.203</ele>
        <time>2016-06-08T08:51:33Z</time>
      </trkpt>
      <trkpt lat="44.29875" lon="3.6648">
        <ele>618.608</ele>
        <time>2016-06-08T08:51:53Z</time>
      </trkpt>
      <trkpt lat="44.2983" lon="3.66507">
        <ele>615.274</ele>
        <time>2016-06-08T08:52:13Z</time>
      </trkpt>
      <trkpt lat="44.29799" lon="3.66566">
        <ele>617.025</ele>
        <time>2016-06-08T08:52:33Z</time>
      </trkpt>
      <trkpt lat="44.2978" lon="3.66631">
        <ele>622.096</ele>
        <time>2016-06-08T08:52:53Z</time>
      </trkpt>
      <trkpt lat="44.29762" lon="3.66934">
        <ele>622.894</ele>
        <time>2016-06-08T08:53:13Z</time>
      </trkpt>
      <trkpt lat="44.29791" lon="3.67067">
        <ele>623.132</ele>
        <time>2016-06-08T08:53:33Z</time>
      </trkpt>
      <trkpt lat="44.29824" lon="3.67133">
        <ele>626.944</ele>
        <time>2016-06-08T08:53:53Z</time>
      </trkpt>
      <trkpt lat="44.29915" lon="3.67212">
        <ele>640.694</ele>
        <time>2016-06-08T08:54:13Z</time>
      </trkpt>
      <trkpt lat="44.29942" lon="3.67293">
        <ele>634.695</ele>
        <time>2016-06-08T08:54:33Z</time>
      </trkpt>
      <trkpt lat="44.29933" lon="3.67463">
        <ele>629.824</ele>
        <time>2016-06-08T08:54:53Z</time>
      </trkpt>
      <trkpt lat="44.29953" lon="3.67583">
        <ele>633.504</ele>
        <time>2016-06-08T08:55:13Z</time>
      </trkpt>
      <trkpt lat="44.30028" lon="3.67738">
        <ele>643.314</ele>
        <time>2016-06-08T08:55:33Z</time>
      </trkpt>
      <trkpt lat="44.30032" lon="3.67829">
        <ele>637.808</ele>
        <time>2016-06-08T08:55:53Z</time>
      </trkpt>
      <trkpt lat="44.2992" lon="3.68029">
        <ele>633.935</ele>
        <time>2016-06-08T08:56:13Z</time>
      </trkpt>
      <trkpt lat="44.29882" lon="3.68184">
        <ele>648.756</ele>
        <time>2016-06-08T08:56:33Z</time>
      </trkpt>
      <trkpt lat="44.29833" lon="3.68308">
        <ele>651.827</ele>
        <time>2016-06-08T08:56:53Z</time>
      </trkpt>
      <trkpt lat="44.29788" lon="3.68362">
        <ele>654.755</ele>
        <time>2016-06-08T08:57:13Z</time>
      </trkpt>
      <trkpt lat="44.29684" lon="3.6838">
        <ele>653.573</ele>
        <time>2016-06-08T08:57:33Z</time>
      </trkpt>
      <trkpt lat="44.29601" lon="3.68405">
        <ele>659.215</ele>
        <time>2016-06-08T08:57:53Z</time>
      </trkpt>
      <trkpt lat="44.29515" lon="3.68352">
        <ele>663.525</ele>
        <time>2016-06-08T08:58:13Z</time>
      </trkpt>
      <trkpt lat="44.29483" lon="3.68346">
        <ele>653.036</ele>
        <time>2016-06-08T08:58:33Z</time>
      </trkpt>
      <trkpt lat="44.2945" lon="3.68373">
        <ele>655.987</ele>
        <time>2016-06-08T08:58:53Z</time>
      </trkpt>
      <trkpt lat="44.29392" lon="3.68446">
        <ele>657.842</ele>
        <time>2016-06-08T08:59:13Z</time>
      </trkpt>
      <trkpt lat="44.29286" lon="3.6848">
        <ele>654.426</ele>
        <time>2016-06-08T08:59:33Z</time>
      </trkpt>
      <trkpt lat="44.29241" lon="3.68527">
        <ele>653.708</ele>
        <time>2016-06-08T08:59:53Z</time>
      </trkpt>
      <trkpt lat="44.2923" lon="3.68579">
        <ele>653.891</ele>
        <time>2016-06-08T09:00:13Z</time>
      </trkpt>
      <trkpt lat="44.29218" lon="3.68678">
        <ele>671.192</ele>
        <time>2016-06-08T09:00:33Z</time>
      </trkpt>
      <trkpt lat="44.29183" lon="3.68736">
        <ele>668.393</ele>
        <time>2016-06-08T09:00:53Z</time>
      </trkpt>
      <trkpt lat="44.29026" lon="3.68814">
        <ele>659.091</ele>
        <time>2016-06-08T09:01:13Z</time>
      </trkpt>
      <trkpt lat="44.28959" lon="3.68942">
        <ele>677.459</ele>
        <time>2016-06-08T09:01:33Z</time>
      </trkpt>
      <trkpt lat="44.28908" lon="3.68969">
        <ele>673.421</ele>
        <time>2016-06-08T09:01:53Z</time>
      </trkpt>
      <trkpt lat="44.28794" lon="3.68928">
        <ele>665.121</ele>
        <time>2016-06-08T09:02:13Z</time>
      </trkpt>
      <trkpt lat="44.28748" lon="3.68935">
        <ele>659.432</ele>
        <time>2016-06-08T09:02:33Z</time>
      </trkpt>
      <trkpt lat="44.28585" lon="3.69064">
        <ele>665.079</ele>
        <time>2016-06-08T09:02:53Z</time>
      </trkpt>
      <trkpt lat="44.28556" lon="3.69111">
        <ele>663.205</ele>
        <time>2016-06-08T09:03:13Z</time>
      </trkpt>
      <trkpt lat="44.28499" lon="3.69248">
        <ele>669.325</ele>
        <time>2016-06-08T09:03:33Z</time>
      </trkpt>
      <trkpt lat="44.28259" lon="3.69484">
        <ele>662.508</ele>
        <time>2016-06-08T09:03:53Z</time>
      </trkpt>
      <trkpt lat="44.28223" lon="3.69604">
        <ele>672.08</ele>
        <time>2016-06-08T09:04:13Z</time>
      </trkpt>
      <trkpt lat="44.28193" lon="3.69644">
        <ele>668.681</ele>
        <time>2016-06-08T09:04:33Z</time>
      </trkpt>
      <trkpt lat="44.28153" lon="3.69661">
        <ele>667.212</ele>
        <time>2016-06-08T09:04:53Z</time>
      </trkpt>
      <trkpt lat="44.28094" lon="3.69662">
        <ele>664.74</ele>
        <time>2016-06-08T09:05:13Z</time>
      </trkpt>
      <trkpt lat="44.28061" lon="3.69678">
        <ele>663.518</ele>
        <time>2016-06-08T09:05:33Z</time>
      </trkpt>
      <trkpt lat="44.28028" lon="3.69689">
        <ele>666.94</ele>
        <time>2016-06-08T09:05:53Z</time>
      </trkpt>
      <trkpt lat="44.27995" lon="3.69734">
        <ele>668.62</ele>
        <time>2016-06-08T09:06:13Z</time>
      </trkpt>
      <trkpt lat="44.27988" lon="3.69791">
        <ele>669.391</ele>
        <time>2016-06-08T09:06:33Z</time>
      </trkpt>
      <trkpt lat="44.27994" lon="3.69877">
        <ele>669.599</ele>
        <time>2016-06-08T09:06:53Z</time>
      </trkpt>
      <trkpt lat="44.27982" lon="3.6998">
        <ele>668.807</ele>
        <time>2016-06-08T09:07:13Z</time>
      </trkpt>
      <trkpt lat="44.27988" lon="3.70134">
        <ele>675.127</ele>
        <time>2016-06-08T09:07:33Z</time>
      </trkpt>
      <trkpt lat="44.27947" lon="3.70269">
        <ele>669.608</ele>
        <time>2016-06-08T09:07:53Z</time>
      </trkpt>
      <trkpt lat="44.27883" lon="3.70455">
        <ele>674.432</ele>
        <time>2016-06-08T09:08:13Z</time>
      </trkpt>
      <trkpt lat="44.27866" lon="3.70654">
        <ele>685.643</ele>
        <time>2016-06-08T09:08:33Z</time>
      </trkpt>
      <trkpt lat="44.27841" lon="3.70702">
        <ele>686.784</ele>
        <time>2016-06-08T09:08:53Z</time>
      </trkpt>
      <trkpt lat="44.27783" lon="3.70754">
        <ele>682.992</ele>
        <time>2016-06-08T09:09:13Z</time>
      </trkpt>
      <trkpt lat="44.27757" lon="3.70808">
        <ele>682.18</ele>
        <time>2016-06-08T09:09:33Z</time>
      </trkpt>
      <trkpt lat="44.27752" lon="3.70879">
        <ele>682.852</ele>
        <time>2016-06-08T09:09:53Z</time>
      </trkpt>
      <trkpt lat="44.27772" lon="3.7093">
        <ele>683.352</ele>
        <time>2016-06-08T09:10:13Z</time>
      </trkpt>
      <trkpt lat="44.27825" lon="3.71001">
        <ele>694.873</ele>
        <time>2016-06-08T09:10:33Z</time>
      </trkpt>
      <trkpt lat="44.27848" lon="3.71068">
        <ele>687.814</ele>
        <time>2016-06-08T09:10:53Z</time>
      </trkpt>
      <trkpt lat="44.27853" lon="3.71188">
        <ele>685.754</ele>
        <time>2016-06-08T09:11:13Z</time>
      </trkpt>
      <trkpt lat="44.27832" lon="3.7125">
        <ele>685.809</ele>
        <time>2016-06-08T09:11:33Z</time>
      </trkpt>
      <trkpt lat="44.27782" lon="3.71345">
        <ele>688.608</ele>
        <time>2016-06-08T09:11:53Z</time>
      </trkpt>
      <trkpt lat="44.27774" lon="3.71405">
        <ele>690.054</ele>
        <time>2016-06-08T09:12:13Z</time>
      </trkpt>
      <trkpt lat="44.27819" lon="3.71517">
        <ele>692.495</ele>
        <time>2016-06-08T09:12:33Z</time>
      </trkpt>
      <trkpt lat="44.27818" lon="3.7157">
        <ele>692.016</ele>
        <time>2016-06-08T09:12:53Z</time>
      </trkpt>
      <trkpt lat="44.278" lon="3.71662">
        <ele>691.994</ele>
        <time>2016-06-08T09:13:13Z</time>
      </trkpt>
      <trkpt lat="44.27802" lon="3.71837">
        <ele>695.122</ele>
        <time>2016-06-08T09:13:33Z</time>
      </trkpt>
      <trkpt lat="44.27781" lon="3.71957">
        <ele>691.644</ele>
        <time>2016-06-08T09:13:53Z</time>
      </trkpt>
      <trkpt lat="44.27781" lon="3.72038">
        <ele>688.684</ele>
        <time>2016-06-08T09:14:13Z</time>
      </trkpt>
      <trkpt lat="44.27806" lon="3.72253">
        <ele>695.025</ele>
        <time>2016-06-08T09:14:33Z</time>
      </trkpt>
      <trkpt lat="44.2779" lon="3.72349">
        <ele>699.862</ele>
        <time>2016-06-08T09:14:53Z</time>
      </trkpt>
      <trkpt lat="44.2775" lon="3.72403">
        <ele>697.083</ele>
        <time>2016-06-08T09:15:13Z</time>
      </trkpt>
      <trkpt lat="44.27628" lon="3.72497">
        <ele>693.111</ele>
        <time>2019-03-26T05:45:11Z</time>
      </trkpt>
      <trkpt lat="44.2755" lon="3.726">
        <ele>695.008</ele>
        <time>2019-03-26T05:45:31Z</time>
      </trkpt>
      <trkpt lat="44.27487" lon="3.7278">
        <ele>706.049</ele>
        <time>2019-03-26T05:45:51Z</time>
      </trkpt>
      <trkpt lat="44.27481" lon="3.72879">
        <ele>708.92</ele>
        <time>2019-03-26T05:46:11Z</time>
      </trkpt>
      <trkpt lat="44.27451" lon="3.72954">
        <ele>700.861</ele>
        <time>2019-03-26T05:46:31Z</time>
      </trkpt>
      <trkpt lat="44.2741" lon="3.72987">
        <ele>705.529</ele>
        <time>2019-03-26T05:46:51Z</time>
      </trkpt>
      <trkpt lat="44.27295" lon="3.72964">
        <ele>698.057</ele>
        <time>2019-03-26T05:47:11Z</time>
      </trkpt>
      <trkpt lat="44.27226" lon="3.7298">
        <ele>697.619</ele>
        <time>2019-03-26T05:47:31Z</time>
      </trkpt>
      <trkpt lat="44.27165" lon="3.7302">
        <ele>696.839</ele>
        <time>2019-03-26T05:47:51Z</time>
      </trkpt>
    </trkseg>
  </trk>
  <trk>
    <name><![CDATA[25 juil]]></name>
    <extensions>
      <line xmlns="http://www.topografix.com/GPX/gpx_style/0/2">
        <color>0a0a0b</color>
        <opacity>1</opacity>
        <width>3</width>
      </line>
    </extensions>
    <trkseg>
      <trkpt lat="44.27165" lon="3.7302">
        <ele>696.839</ele>
        <time>2019-03-26T05:47:51Z</time>
      </trkpt>
      <trkpt lat="44.27165" lon="3.7302">
        <ele>696.839</ele>
        <time>2019-03-26T05:47:51Z</time>
      </trkpt>
      <trkpt lat="44.27165" lon="3.7302">
        <ele>696.839</ele>
        <time>2019-03-26T05:47:51Z</time>
      </trkpt>
      <trkpt lat="44.27165" lon="3.7302">
        <ele>696.839</ele>
        <time>2019-03-26T05:47:51Z</time>
      </trkpt>
      <trkpt lat="44.27165" lon="3.7302">
        <ele>696.839</ele>
        <time>2019-03-26T05:47:51Z</time>
      </trkpt>
      <trkpt lat="44.27165" lon="3.7302">
        <ele>696.839</ele>
        <time>2019-03-26T05:47:51Z</time>
      </trkpt>
      <trkpt lat="44.27165" lon="3.7302">
        <ele>696.839</ele>
        <time>2019-03-26T05:47:51Z</time>
      </trkpt>
      <trkpt lat="44.27165" lon="3.7302">
        <ele>696.839</ele>
        <time>2019-03-26T05:47:51Z</time>
      </trkpt>
      <trkpt lat="44.27128" lon="3.73066">
        <ele>699.07</ele>
        <time>2019-03-26T05:48:11Z</time>
      </trkpt>
      <trkpt lat="44.27077" lon="3.73002">
        <ele>711.427</ele>
        <time>2016-06-08T09:19:13Z</time>
      </trkpt>
      <trkpt lat="44.27055" lon="3.73006">
        <ele>720.668</ele>
        <time>2016-06-08T09:19:33Z</time>
      </trkpt>
      <trkpt lat="44.27032" lon="3.73055">
        <ele>709.714</ele>
        <time>2016-06-08T09:19:53Z</time>
      </trkpt>
      <trkpt lat="44.27" lon="3.7308">
        <ele>702.608</ele>
        <time>2016-06-08T09:20:13Z</time>
      </trkpt>
      <trkpt lat="44.26975" lon="3.73081">
        <ele>701.955</ele>
        <time>2016-06-08T09:20:33Z</time>
      </trkpt>
      <trkpt lat="44.26923" lon="3.73067">
        <ele>712.966</ele>
        <time>2016-06-08T09:20:53Z</time>
      </trkpt>
      <trkpt lat="44.26894" lon="3.73067">
        <ele>710.267</ele>
        <time>2016-06-08T09:21:13Z</time>
      </trkpt>
      <trkpt lat="44.26878" lon="3.73106">
        <ele>713.175</ele>
        <time>2016-06-08T09:21:33Z</time>
      </trkpt>
      <trkpt lat="44.26895" lon="3.73119">
        <ele>713.123</ele>
        <time>2016-06-08T09:21:53Z</time>
      </trkpt>
      <trkpt lat="44.26939" lon="3.73159">
        <ele>711.525</ele>
        <time>2016-06-08T09:22:13Z</time>
      </trkpt>
      <trkpt lat="44.26985" lon="3.73185">
        <ele>704.125</ele>
        <time>2016-06-08T09:22:33Z</time>
      </trkpt>
      <trkpt lat="44.27" lon="3.73212">
        <ele>707.276</ele>
        <time>2016-06-08T09:22:53Z</time>
      </trkpt>
      <trkpt lat="44.27002" lon="3.73325">
        <ele>718.287</ele>
        <time>2016-06-08T09:23:13Z</time>
      </trkpt>
      <trkpt lat="44.26951" lon="3.734">
        <ele>725.442</ele>
        <time>2016-06-08T09:23:33Z</time>
      </trkpt>
      <trkpt lat="44.26865" lon="3.73487">
        <ele>747.126</ele>
        <time>2016-06-08T09:23:53Z</time>
      </trkpt>
      <trkpt lat="44.26826" lon="3.73559">
        <ele>739.308</ele>
        <time>2016-06-08T09:24:13Z</time>
      </trkpt>
      <trkpt lat="44.26818" lon="3.73611">
        <ele>729.671</ele>
        <time>2016-06-08T09:24:33Z</time>
      </trkpt>
      <trkpt lat="44.26737" lon="3.73565">
        <ele>761.672</ele>
        <time>2016-06-08T09:24:53Z</time>
      </trkpt>
      <trkpt lat="44.267" lon="3.73564">
        <ele>765.043</ele>
        <time>2016-06-08T09:25:13Z</time>
      </trkpt>
      <trkpt lat="44.26644" lon="3.73535">
        <ele>772.421</ele>
        <time>2016-06-08T09:25:33Z</time>
      </trkpt>
      <trkpt lat="44.26574" lon="3.73554">
        <ele>770.919</ele>
        <time>2016-06-08T09:25:53Z</time>
      </trkpt>
      <trkpt lat="44.26527" lon="3.73583">
        <ele>767.031</ele>
        <time>2016-06-08T09:26:13Z</time>
      </trkpt>
      <trkpt lat="44.26512" lon="3.73568">
        <ele>772.111</ele>
        <time>2016-06-08T09:26:33Z</time>
      </trkpt>
      <trkpt lat="44.26574" lon="3.73517">
        <ele>785.742</ele>
        <time>2016-06-08T09:26:53Z</time>
      </trkpt>
      <trkpt lat="44.26618" lon="3.73464">
        <ele>799.051</ele>
        <time>2016-06-08T09:27:13Z</time>
      </trkpt>
      <trkpt lat="44.26752" lon="3.73467">
        <ele>796.701</ele>
        <time>2016-06-08T09:27:33Z</time>
      </trkpt>
      <trkpt lat="44.26777" lon="3.73426">
        <ele>803.011</ele>
        <time>2016-06-08T09:27:53Z</time>
      </trkpt>
      <trkpt lat="44.26799" lon="3.7335">
        <ele>809.108</ele>
        <time>2016-06-08T09:28:13Z</time>
      </trkpt>
      <trkpt lat="44.26829" lon="3.73288">
        <ele>799.048</ele>
        <time>2016-06-08T09:28:33Z</time>
      </trkpt>
      <trkpt lat="44.26798" lon="3.73244">
        <ele>800.989</ele>
        <time>2016-06-08T09:28:53Z</time>
      </trkpt>
      <trkpt lat="44.26667" lon="3.73271">
        <ele>820.34</ele>
        <time>2016-06-08T09:29:13Z</time>
      </trkpt>
      <trkpt lat="44.26524" lon="3.73259">
        <ele>824.628</ele>
        <time>2016-06-08T09:29:33Z</time>
      </trkpt>
      <trkpt lat="44.26468" lon="3.73254">
        <ele>833.556</ele>
        <time>2016-06-08T09:29:53Z</time>
      </trkpt>
      <trkpt lat="44.26428" lon="3.73222">
        <ele>841.298</ele>
        <time>2016-06-08T09:30:13Z</time>
      </trkpt>
      <trkpt lat="44.26403" lon="3.73131">
        <ele>850.118</ele>
        <time>2016-06-08T09:30:33Z</time>
      </trkpt>
      <trkpt lat="44.26358" lon="3.7307">
        <ele>853.359</ele>
        <time>2016-06-08T09:30:53Z</time>
      </trkpt>
      <trkpt lat="44.26311" lon="3.72974">
        <ele>854.523</ele>
        <time>2016-06-08T09:31:13Z</time>
      </trkpt>
      <trkpt lat="44.26323" lon="3.72897">
        <ele>849.383</ele>
        <time>2016-06-08T09:31:33Z</time>
      </trkpt>
      <trkpt lat="44.2628" lon="3.72717">
        <ele>855.311</ele>
        <time>2016-06-08T09:31:53Z</time>
      </trkpt>
      <trkpt lat="44.26237" lon="3.72686">
        <ele>853.608</ele>
        <time>2016-06-08T09:32:13Z</time>
      </trkpt>
      <trkpt lat="44.26177" lon="3.72693">
        <ele>849.045</ele>
        <time>2016-06-08T09:32:33Z</time>
      </trkpt>
      <trkpt lat="44.2612" lon="3.72762">
        <ele>862.326</ele>
        <time>2016-06-08T09:32:53Z</time>
      </trkpt>
      <trkpt lat="44.26033" lon="3.72791">
        <ele>870.147</ele>
        <time>2016-06-08T09:33:13Z</time>
      </trkpt>
      <trkpt lat="44.25993" lon="3.72767">
        <ele>866.345</ele>
        <time>2016-06-08T09:33:33Z</time>
      </trkpt>
      <trkpt lat="44.25926" lon="3.72752">
        <ele>880.963</ele>
        <time>2016-06-08T09:33:53Z</time>
      </trkpt>
      <trkpt lat="44.25904" lon="3.72702">
        <ele>874.195</ele>
        <time>2016-06-08T09:34:13Z</time>
      </trkpt>
      <trkpt lat="44.25877" lon="3.72644">
        <ele>879.775</ele>
        <time>2016-06-08T09:34:33Z</time>
      </trkpt>
      <trkpt lat="44.25875" lon="3.72579">
        <ele>873.326</ele>
        <time>2016-06-08T09:34:53Z</time>
      </trkpt>
      <trkpt lat="44.2572" lon="3.72453">
        <ele>898.678</ele>
        <time>2016-06-08T09:35:13Z</time>
      </trkpt>
      <trkpt lat="44.25692" lon="3.72444">
        <ele>900.133</ele>
        <time>2016-06-08T09:35:33Z</time>
      </trkpt>
      <trkpt lat="44.25628" lon="3.72449">
        <ele>913.726</ele>
        <time>2016-06-08T09:35:53Z</time>
      </trkpt>
      <trkpt lat="44.25552" lon="3.72401">
        <ele>916.108</ele>
        <time>2016-06-08T09:36:13Z</time>
      </trkpt>
      <trkpt lat="44.25515" lon="3.72391">
        <ele>920.59</ele>
        <time>2016-06-08T09:36:33Z</time>
      </trkpt>
      <trkpt lat="44.25458" lon="3.72401">
        <ele>925.681</ele>
        <time>2016-06-08T09:36:53Z</time>
      </trkpt>
      <trkpt lat="44.2544" lon="3.72421">
        <ele>931.962</ele>
        <time>2016-06-08T09:37:13Z</time>
      </trkpt>
      <trkpt lat="44.25334" lon="3.72435">
        <ele>939.77</ele>
        <time>2016-06-08T09:37:33Z</time>
      </trkpt>
      <trkpt lat="44.25267" lon="3.72418">
        <ele>939.588</ele>
        <time>2016-06-08T09:37:53Z</time>
      </trkpt>
      <trkpt lat="44.2516" lon="3.72411">
        <ele>949.08</ele>
        <time>2016-06-08T09:38:13Z</time>
      </trkpt>
      <trkpt lat="44.25094" lon="3.7239">
        <ele>941.01</ele>
        <time>2016-06-08T09:38:33Z</time>
      </trkpt>
      <trkpt lat="44.25012" lon="3.72433">
        <ele>953.081</ele>
        <time>2016-06-08T09:38:53Z</time>
      </trkpt>
      <trkpt lat="44.24899" lon="3.72387">
        <ele>947.264</ele>
        <time>2016-06-08T09:39:13Z</time>
      </trkpt>
      <trkpt lat="44.24851" lon="3.72386">
        <ele>943.806</ele>
        <time>2016-06-08T09:39:33Z</time>
      </trkpt>
      <trkpt lat="44.2477" lon="3.72474">
        <ele>960.316</ele>
        <time>2016-06-08T09:39:53Z</time>
      </trkpt>
      <trkpt lat="44.24753" lon="3.72508">
        <ele>968.408</ele>
        <time>2016-06-08T09:40:13Z</time>
      </trkpt>
      <trkpt lat="44.24586" lon="3.72556">
        <ele>959.239</ele>
        <time>2016-06-08T09:40:33Z</time>
      </trkpt>
      <trkpt lat="44.24515" lon="3.72561">
        <ele>957.06</ele>
        <time>2016-06-08T09:40:53Z</time>
      </trkpt>
      <trkpt lat="44.24471" lon="3.72551">
        <ele>953.281</ele>
        <time>2016-06-08T09:41:13Z</time>
      </trkpt>
      <trkpt lat="44.24438" lon="3.72561">
        <ele>952.369</ele>
        <time>2016-06-08T09:41:33Z</time>
      </trkpt>
      <trkpt lat="44.24409" lon="3.7263">
        <ele>951.177</ele>
        <time>2016-06-08T09:41:53Z</time>
      </trkpt>
      <trkpt lat="44.24367" lon="3.72646">
        <ele>946.179</ele>
        <time>2016-06-08T09:42:13Z</time>
      </trkpt>
      <trkpt lat="44.2434" lon="3.7262">
        <ele>943.719</ele>
        <time>2016-06-08T09:42:33Z</time>
      </trkpt>
      <trkpt lat="44.2435" lon="3.72669">
        <ele>941.94</ele>
        <time>2016-06-08T09:42:53Z</time>
      </trkpt>
      <trkpt lat="44.24382" lon="3.72721">
        <ele>937.588</ele>
        <time>2016-06-08T09:43:13Z</time>
      </trkpt>
      <trkpt lat="44.24377" lon="3.72986">
        <ele>928.824</ele>
        <time>2016-06-08T09:43:33Z</time>
      </trkpt>
      <trkpt lat="44.24356" lon="3.73036">
        <ele>927.526</ele>
        <time>2016-06-08T09:43:53Z</time>
      </trkpt>
      <trkpt lat="44.24214" lon="3.73292">
        <ele>929.408</ele>
        <time>2016-06-08T09:44:13Z</time>
      </trkpt>
      <trkpt lat="44.24261" lon="3.73481">
        <ele>949.951</ele>
        <time>2016-06-08T09:44:33Z</time>
      </trkpt>
      <trkpt lat="44.24293" lon="3.73534">
        <ele>955.612</ele>
        <time>2016-06-08T09:44:53Z</time>
      </trkpt>
      <trkpt lat="44.24268" lon="3.73592">
        <ele>949.083</ele>
        <time>2016-06-08T09:45:13Z</time>
      </trkpt>
      <trkpt lat="44.24269" lon="3.73632">
        <ele>955.221</ele>
        <time>2016-06-08T09:45:33Z</time>
      </trkpt>
      <trkpt lat="44.2429" lon="3.73684">
        <ele>962.059</ele>
        <time>2016-06-08T09:45:53Z</time>
      </trkpt>
      <trkpt lat="44.24265" lon="3.73751">
        <ele>960.871</ele>
        <time>2016-06-08T09:46:13Z</time>
      </trkpt>
      <trkpt lat="44.24285" lon="3.73792">
        <ele>966.881</ele>
        <time>2016-06-08T09:46:33Z</time>
      </trkpt>
      <trkpt lat="44.24291" lon="3.73867">
        <ele>973.452</ele>
        <time>2016-06-08T09:46:53Z</time>
      </trkpt>
      <trkpt lat="44.24268" lon="3.73937">
        <ele>968.874</ele>
        <time>2016-06-08T09:47:13Z</time>
      </trkpt>
      <trkpt lat="44.24247" lon="3.74089">
        <ele>979.356</ele>
        <time>2016-06-08T09:47:33Z</time>
      </trkpt>
      <trkpt lat="44.24248" lon="3.74174">
        <ele>987.721</ele>
        <time>2016-06-08T09:47:53Z</time>
      </trkpt>
      <trkpt lat="44.24233" lon="3.7423">
        <ele>983.308</ele>
        <time>2016-06-08T09:48:13Z</time>
      </trkpt>
      <trkpt lat="44.24258" lon="3.74273">
        <ele>993.81</ele>
        <time>2016-06-08T09:48:33Z</time>
      </trkpt>
      <trkpt lat="44.24234" lon="3.74329">
        <ele>992.241</ele>
        <time>2016-06-08T09:48:53Z</time>
      </trkpt>
      <trkpt lat="44.24205" lon="3.74385">
        <ele>993.892</ele>
        <time>2016-06-08T09:49:13Z</time>
      </trkpt>
      <trkpt lat="44.2421" lon="3.74437">
        <ele>1002.82</ele>
        <time>2016-06-08T09:49:33Z</time>
      </trkpt>
      <trkpt lat="44.2424" lon="3.74498">
        <ele>1010.658</ele>
        <time>2016-06-08T09:49:53Z</time>
      </trkpt>
      <trkpt lat="44.24213" lon="3.74641">
        <ele>1013.81</ele>
        <time>2016-06-08T09:50:13Z</time>
      </trkpt>
      <trkpt lat="44.24176" lon="3.74731">
        <ele>1011.52</ele>
        <time>2016-06-08T09:50:33Z</time>
      </trkpt>
      <trkpt lat="44.24185" lon="3.74811">
        <ele>1014.371</ele>
        <time>2016-06-08T09:50:53Z</time>
      </trkpt>
      <trkpt lat="44.24244" lon="3.74863">
        <ele>1027.794</ele>
        <time>2016-06-08T09:51:13Z</time>
      </trkpt>
      <trkpt lat="44.24258" lon="3.74935">
        <ele>1025.657</ele>
        <time>2016-06-08T09:51:33Z</time>
      </trkpt>
      <trkpt lat="44.2426" lon="3.74981">
        <ele>1021.922</ele>
        <time>2016-06-08T09:51:53Z</time>
      </trkpt>
      <trkpt lat="44.24275" lon="3.75026">
        <ele>1024.308</ele>
        <time>2016-06-08T09:52:13Z</time>
      </trkpt>
      <trkpt lat="44.24279" lon="3.75152">
        <ele>1031.262</ele>
        <time>2016-06-08T09:52:33Z</time>
      </trkpt>
      <trkpt lat="44.24257" lon="3.75228">
        <ele>1026.383</ele>
        <time>2016-06-08T09:52:53Z</time>
      </trkpt>
      <trkpt lat="44.24192" lon="3.7532">
        <ele>1020.514</ele>
        <time>2016-06-08T09:53:13Z</time>
      </trkpt>
      <trkpt lat="44.24131" lon="3.75382">
        <ele>1012.152</ele>
        <time>2016-06-08T09:53:33Z</time>
      </trkpt>
      <trkpt lat="44.24089" lon="3.7548">
        <ele>1009.27</ele>
        <time>2016-06-08T09:53:53Z</time>
      </trkpt>
      <trkpt lat="44.24036" lon="3.75518">
        <ele>1009.272</ele>
        <time>2016-06-08T09:54:13Z</time>
      </trkpt>
      <trkpt lat="44.23987" lon="3.75514">
        <ele>1005.012</ele>
        <time>2016-06-08T09:54:33Z</time>
      </trkpt>
      <trkpt lat="44.23907" lon="3.75525">
        <ele>999.853</ele>
        <time>2016-06-08T09:54:53Z</time>
      </trkpt>
      <trkpt lat="44.23754" lon="3.75559">
        <ele>987.881</ele>
        <time>2016-06-08T09:55:13Z</time>
      </trkpt>
      <trkpt lat="44.23638" lon="3.75615">
        <ele>988.061</ele>
        <time>2016-06-08T09:55:33Z</time>
      </trkpt>
      <trkpt lat="44.23586" lon="3.75615">
        <ele>983.617</ele>
        <time>2016-06-08T09:55:53Z</time>
      </trkpt>
      <trkpt lat="44.23543" lon="3.75635">
        <ele>978.808</ele>
        <time>2016-06-08T09:56:13Z</time>
      </trkpt>
      <trkpt lat="44.23483" lon="3.75733">
        <ele>976.141</ele>
        <time>2016-06-08T09:56:33Z</time>
      </trkpt>
      <trkpt lat="44.23467" lon="3.75847">
        <ele>981.442</ele>
        <time>2016-06-08T09:56:53Z</time>
      </trkpt>
      <trkpt lat="44.23478" lon="3.75895">
        <ele>986.193</ele>
        <time>2016-06-08T09:57:13Z</time>
      </trkpt>
      <trkpt lat="44.23448" lon="3.75931">
        <ele>983.211</ele>
        <time>2016-06-08T09:57:33Z</time>
      </trkpt>
      <trkpt lat="44.23395" lon="3.75961">
        <ele>975.799</ele>
        <time>2016-06-08T09:57:53Z</time>
      </trkpt>
      <trkpt lat="44.2338" lon="3.76114">
        <ele>979.221</ele>
        <time>2016-06-08T09:58:13Z</time>
      </trkpt>
      <trkpt lat="44.234" lon="3.76221">
        <ele>968.771</ele>
        <time>2016-06-08T09:58:33Z</time>
      </trkpt>
      <trkpt lat="44.23424" lon="3.76332">
        <ele>959.032</ele>
        <time>2016-06-08T09:58:53Z</time>
      </trkpt>
      <trkpt lat="44.23458" lon="3.76394">
        <ele>958.188</ele>
        <time>2016-06-08T09:59:13Z</time>
      </trkpt>
      <trkpt lat="44.23492" lon="3.76521">
        <ele>952.724</ele>
        <time>2016-06-08T09:59:33Z</time>
      </trkpt>
      <trkpt lat="44.23488" lon="3.7655">
        <ele>946.926</ele>
        <time>2016-06-08T09:59:53Z</time>
      </trkpt>
      <trkpt lat="44.235" lon="3.76575">
        <ele>947.608</ele>
        <time>2016-06-08T10:00:13Z</time>
      </trkpt>
      <trkpt lat="44.23549" lon="3.76598">
        <ele>950.211</ele>
        <time>2016-06-08T10:00:33Z</time>
      </trkpt>
      <trkpt lat="44.23509" lon="3.76605">
        <ele>943.832</ele>
        <time>2016-06-08T10:00:53Z</time>
      </trkpt>
      <trkpt lat="44.23567" lon="3.76645">
        <ele>939.723</ele>
        <time>2016-06-08T10:01:13Z</time>
      </trkpt>
      <trkpt lat="44.23604" lon="3.76654">
        <ele>943.051</ele>
        <time>2016-06-08T10:01:33Z</time>
      </trkpt>
      <trkpt lat="44.23616" lon="3.76699">
        <ele>938.229</ele>
        <time>2016-06-08T10:01:53Z</time>
      </trkpt>
      <trkpt lat="44.23587" lon="3.76872">
        <ele>926.481</ele>
        <time>2016-06-08T10:02:13Z</time>
      </trkpt>
      <trkpt lat="44.23598" lon="3.76969">
        <ele>921.681</ele>
        <time>2016-06-08T10:02:33Z</time>
      </trkpt>
      <trkpt lat="44.23635" lon="3.77113">
        <ele>918.122</ele>
        <time>2016-06-08T10:02:53Z</time>
      </trkpt>
      <trkpt lat="44.23639" lon="3.77163">
        <ele>916.623</ele>
        <time>2016-06-08T10:03:13Z</time>
      </trkpt>
      <trkpt lat="44.23653" lon="3.77212">
        <ele>912.283</ele>
        <time>2016-06-08T10:03:33Z</time>
      </trkpt>
      <trkpt lat="44.23613" lon="3.77208">
        <ele>902.111</ele>
        <time>2016-06-08T10:03:53Z</time>
      </trkpt>
      <trkpt lat="44.23624" lon="3.77238">
        <ele>899.208</ele>
        <time>2016-06-08T10:04:13Z</time>
      </trkpt>
      <trkpt lat="44.23656" lon="3.77263">
        <ele>901.995</ele>
        <time>2016-06-08T10:04:33Z</time>
      </trkpt>
      <trkpt lat="44.23659" lon="3.77291">
        <ele>901.366</ele>
        <time>2016-06-08T10:04:53Z</time>
      </trkpt>
      <trkpt lat="44.23631" lon="3.77336">
        <ele>898.437</ele>
        <time>2016-06-08T10:05:13Z</time>
      </trkpt>
      <trkpt lat="44.23601" lon="3.77348">
        <ele>895.485</ele>
        <time>2016-06-08T10:05:33Z</time>
      </trkpt>
      <trkpt lat="44.23565" lon="3.77342">
        <ele>890.283</ele>
        <time>2016-06-08T10:05:53Z</time>
      </trkpt>
      <trkpt lat="44.23513" lon="3.77355">
        <ele>885.995</ele>
        <time>2016-06-08T10:06:13Z</time>
      </trkpt>
      <trkpt lat="44.2346" lon="3.77435">
        <ele>893.115</ele>
        <time>2016-06-08T10:06:33Z</time>
      </trkpt>
      <trkpt lat="44.2341" lon="3.77495">
        <ele>889.526</ele>
        <time>2016-06-08T10:06:53Z</time>
      </trkpt>
      <trkpt lat="44.23384" lon="3.77541">
        <ele>892.333</ele>
        <time>2016-06-08T10:07:13Z</time>
      </trkpt>
      <trkpt lat="44.23207" lon="3.77747">
        <ele>889.423</ele>
        <time>2016-06-08T10:07:33Z</time>
      </trkpt>
      <trkpt lat="44.23215" lon="3.77819">
        <ele>885.415</ele>
        <time>2016-06-08T10:07:53Z</time>
      </trkpt>
      <trkpt lat="44.23129" lon="3.77956">
        <ele>885.1</ele>
      </trkpt>
      <trkpt lat="44.231" lon="3.78075">
        <ele>887.546</ele>
        <time>2016-06-08T10:08:33Z</time>
      </trkpt>
      <trkpt lat="44.23087" lon="3.78161">
        <ele>880.177</ele>
        <time>2016-06-08T10:08:53Z</time>
      </trkpt>
      <trkpt lat="44.23009" lon="3.7836">
        <ele>870.578</ele>
        <time>2016-06-08T10:09:13Z</time>
      </trkpt>
      <trkpt lat="44.22974" lon="3.78418">
        <ele>863.546</ele>
        <time>2016-06-08T10:09:33Z</time>
      </trkpt>
      <trkpt lat="44.22938" lon="3.78442">
        <ele>860.894</ele>
        <time>2016-06-08T10:09:53Z</time>
      </trkpt>
      <trkpt lat="44.22892" lon="3.7845">
        <ele>865.446</ele>
        <time>2016-06-08T10:10:13Z</time>
      </trkpt>
      <trkpt lat="44.22831" lon="3.78496">
        <ele>854.516</ele>
        <time>2016-06-08T10:10:33Z</time>
      </trkpt>
      <trkpt lat="44.22795" lon="3.78529">
        <ele>849.717</ele>
        <time>2016-06-08T10:10:53Z</time>
      </trkpt>
      <trkpt lat="44.22726" lon="3.78581">
        <ele>847.943</ele>
        <time>2016-06-08T10:11:13Z</time>
      </trkpt>
      <trkpt lat="44.22681" lon="3.78642">
        <ele>845.764</ele>
        <time>2016-06-08T10:11:33Z</time>
      </trkpt>
      <trkpt lat="44.2264" lon="3.78684">
        <ele>849.61</ele>
        <time>2016-06-08T10:11:53Z</time>
      </trkpt>
      <trkpt lat="44.22568" lon="3.78971">
        <ele>840.608</ele>
        <time>2016-06-08T10:12:13Z</time>
      </trkpt>
      <trkpt lat="44.22529" lon="3.78991">
        <ele>846.957</ele>
        <time>2016-06-08T10:12:33Z</time>
      </trkpt>
      <trkpt lat="44.22466" lon="3.7918">
        <ele>830.048</ele>
        <time>2016-06-08T10:12:53Z</time>
      </trkpt>
      <trkpt lat="44.22423" lon="3.79244">
        <ele>821.859</ele>
        <time>2016-06-08T10:13:13Z</time>
      </trkpt>
      <trkpt lat="44.22398" lon="3.79303">
        <ele>823.327</ele>
        <time>2016-06-08T10:13:33Z</time>
      </trkpt>
      <trkpt lat="44.22405" lon="3.79353">
        <ele>823.165</ele>
        <time>2016-06-08T10:13:53Z</time>
      </trkpt>
      <trkpt lat="44.22459" lon="3.79458">
        <ele>815.847</ele>
        <time>2016-06-08T10:14:13Z</time>
      </trkpt>
      <trkpt lat="44.22471" lon="3.7954">
        <ele>814.717</ele>
        <time>2016-06-08T10:14:33Z</time>
      </trkpt>
      <trkpt lat="44.22471" lon="3.79676">
        <ele>798.768</ele>
        <time>2016-06-08T10:14:53Z</time>
      </trkpt>
      <trkpt lat="44.22482" lon="3.79675">
        <ele>797.437</ele>
        <time>2016-06-08T10:15:13Z</time>
      </trkpt>
      <trkpt lat="44.22503" lon="3.79568">
        <ele>806.649</ele>
        <time>2016-06-08T10:15:33Z</time>
      </trkpt>
      <trkpt lat="44.22538" lon="3.79729">
        <ele>785.513</ele>
        <time>2016-06-08T10:15:53Z</time>
      </trkpt>
      <trkpt lat="44.22542" lon="3.79833">
        <ele>776.408</ele>
        <time>2016-06-08T10:16:13Z</time>
      </trkpt>
      <trkpt lat="44.22518" lon="3.7989">
        <ele>772.636</ele>
        <time>2016-06-08T10:16:33Z</time>
      </trkpt>
      <trkpt lat="44.22374" lon="3.79916">
        <ele>752.887</ele>
        <time>2016-06-08T10:16:53Z</time>
      </trkpt>
      <trkpt lat="44.22369" lon="3.79894">
        <ele>753.848</ele>
        <time>2016-06-08T10:17:13Z</time>
      </trkpt>
      <trkpt lat="44.22318" lon="3.79815">
        <ele>758.566</ele>
        <time>2016-06-08T10:17:33Z</time>
      </trkpt>
      <trkpt lat="44.22249" lon="3.79851">
        <ele>736.614</ele>
        <time>2016-06-08T10:17:53Z</time>
      </trkpt>
      <trkpt lat="44.2228" lon="3.79858">
        <ele>738.436</ele>
        <time>2016-06-08T10:18:13Z</time>
      </trkpt>
      <trkpt lat="44.22135" lon="3.79931">
        <ele>711.226</ele>
        <time>2016-06-08T10:18:33Z</time>
      </trkpt>
      <trkpt lat="44.22007" lon="3.79851">
        <ele>696.967</ele>
        <time>2016-06-08T10:18:53Z</time>
      </trkpt>
      <trkpt lat="44.2198" lon="3.79879">
        <ele>684.584</ele>
        <time>2016-06-08T10:19:13Z</time>
      </trkpt>
      <trkpt lat="44.21976" lon="3.79919">
        <ele>675.907</ele>
        <time>2016-06-08T10:19:33Z</time>
      </trkpt>
      <trkpt lat="44.2193" lon="3.79996">
        <ele>659.417</ele>
        <time>2016-06-08T10:19:53Z</time>
      </trkpt>
      <trkpt lat="44.21926" lon="3.80089">
        <ele>645.708</ele>
        <time>2016-06-08T10:20:13Z</time>
      </trkpt>
      <trkpt lat="44.21939" lon="3.80104">
        <ele>640</ele>
      </trkpt>
      <trkpt lat="44.21942" lon="3.80199">
        <ele>634.6</ele>
      </trkpt>
      <trkpt lat="44.21896" lon="3.8033">
        <ele>634.8</ele>
      </trkpt>
      <trkpt lat="44.2187" lon="3.80386">
        <ele>628</ele>
      </trkpt>
      <trkpt lat="44.21813" lon="3.804">
        <ele>616.1</ele>
      </trkpt>
      <trkpt lat="44.21838" lon="3.80464">
        <ele>613</ele>
      </trkpt>
      <trkpt lat="44.2192" lon="3.80489">
        <ele>602</ele>
      </trkpt>
      <trkpt lat="44.21995" lon="3.80397">
        <ele>602.4</ele>
      </trkpt>
      <trkpt lat="44.21995" lon="3.8045">
        <ele>592.6</ele>
      </trkpt>
      <trkpt lat="44.22019" lon="3.80424">
        <ele>575</ele>
      </trkpt>
      <trkpt lat="44.22039" lon="3.80376">
        <ele>578.424</ele>
        <time>2016-06-08T10:23:13Z</time>
      </trkpt>
      <trkpt lat="44.22052" lon="3.80443">
        <ele>561.304</ele>
        <time>2016-06-08T10:23:33Z</time>
      </trkpt>
      <trkpt lat="44.22016" lon="3.80539">
        <ele>551.914</ele>
        <time>2016-06-08T10:23:53Z</time>
      </trkpt>
      <trkpt lat="44.22047" lon="3.80505">
        <ele>543.208</ele>
        <time>2016-06-08T10:24:13Z</time>
      </trkpt>
      <trkpt lat="44.2207" lon="3.80498">
        <ele>534.885</ele>
        <time>2016-06-08T10:24:33Z</time>
      </trkpt>
      <trkpt lat="44.22033" lon="3.80564">
        <ele>530.546</ele>
        <time>2016-06-08T10:24:53Z</time>
      </trkpt>
      <trkpt lat="44.2201" lon="3.8065">
        <ele>526.317</ele>
        <time>2016-06-08T10:25:13Z</time>
      </trkpt>
      <trkpt lat="44.22013" lon="3.80709">
        <ele>509.035</ele>
        <time>2016-06-08T10:25:33Z</time>
      </trkpt>
      <trkpt lat="44.21929" lon="3.8087">
        <ele>499.973</ele>
        <time>2016-06-08T10:25:53Z</time>
      </trkpt>
      <trkpt lat="44.21856" lon="3.80926">
        <ele>497.035</ele>
        <time>2016-06-08T10:26:13Z</time>
      </trkpt>
      <trkpt lat="44.21843" lon="3.80896">
        <ele>498.695</ele>
        <time>2016-06-08T10:26:33Z</time>
      </trkpt>
      <trkpt lat="44.2182" lon="3.80896">
        <ele>495.646</ele>
        <time>2016-06-08T10:26:53Z</time>
      </trkpt>
      <trkpt lat="44.21757" lon="3.8084">
        <ele>492.836</ele>
        <time>2016-06-08T10:27:13Z</time>
      </trkpt>
      <trkpt lat="44.21702" lon="3.80831">
        <ele>490.717</ele>
        <time>2016-06-08T10:27:33Z</time>
      </trkpt>
      <trkpt lat="44.21601" lon="3.80763">
        <ele>495.018</ele>
        <time>2016-06-08T10:27:53Z</time>
      </trkpt>
      <trkpt lat="44.21591" lon="3.80732">
        <ele>497.308</ele>
        <time>2016-06-08T10:28:13Z</time>
      </trkpt>
      <trkpt lat="44.21611" lon="3.80679">
        <ele>505.226</ele>
        <time>2016-06-08T10:28:33Z</time>
      </trkpt>
      <trkpt lat="44.2159" lon="3.80659">
        <ele>508.527</ele>
        <time>2016-06-08T10:28:53Z</time>
      </trkpt>
      <trkpt lat="44.21522" lon="3.80707">
        <ele>510.398</ele>
        <time>2016-06-08T10:29:13Z</time>
      </trkpt>
      <trkpt lat="44.21484" lon="3.807">
        <ele>516.716</ele>
        <time>2016-06-08T10:29:33Z</time>
      </trkpt>
      <trkpt lat="44.21428" lon="3.8073">
        <ele>517.244</ele>
        <time>2016-06-08T10:29:53Z</time>
      </trkpt>
      <trkpt lat="44.2139" lon="3.80794">
        <ele>508.056</ele>
        <time>2016-06-08T10:30:13Z</time>
      </trkpt>
      <trkpt lat="44.21344" lon="3.80787">
        <ele>523.266</ele>
        <time>2016-06-08T10:30:33Z</time>
      </trkpt>
      <trkpt lat="44.21271" lon="3.80763">
        <ele>530</ele>
      </trkpt>
      <trkpt lat="44.21237" lon="3.8076">
        <ele>535.9</ele>
      </trkpt>
      <trkpt lat="44.21179" lon="3.8075">
        <ele>541.651</ele>
        <time>2016-06-08T10:31:13Z</time>
      </trkpt>
      <trkpt lat="44.21148" lon="3.80762">
        <ele>545.101</ele>
        <time>2016-06-08T10:31:33Z</time>
      </trkpt>
      <trkpt lat="44.21128" lon="3.80794">
        <ele>546.711</ele>
        <time>2016-06-08T10:31:53Z</time>
      </trkpt>
      <trkpt lat="44.21117" lon="3.8084">
        <ele>548.408</ele>
        <time>2016-06-08T10:32:13Z</time>
      </trkpt>
      <trkpt lat="44.21059" lon="3.80904">
        <ele>557.838</ele>
        <time>2016-06-08T10:32:33Z</time>
      </trkpt>
      <trkpt lat="44.2098" lon="3.8092">
        <ele>564.979</ele>
        <time>2016-06-08T10:32:53Z</time>
      </trkpt>
      <trkpt lat="44.20926" lon="3.80862">
        <ele>563.59</ele>
        <time>2016-06-08T10:33:13Z</time>
      </trkpt>
      <trkpt lat="44.20896" lon="3.80866">
        <ele>561.688</ele>
        <time>2016-06-08T10:33:33Z</time>
      </trkpt>
      <trkpt lat="44.20838" lon="3.80934">
        <ele>559.346</ele>
        <time>2016-06-08T10:33:53Z</time>
      </trkpt>
      <trkpt lat="44.20782" lon="3.81038">
        <ele>552.038</ele>
        <time>2016-06-08T10:34:13Z</time>
      </trkpt>
      <trkpt lat="44.20721" lon="3.8121">
        <ele>547.178</ele>
        <time>2016-06-08T10:34:33Z</time>
      </trkpt>
      <trkpt lat="44.20715" lon="3.81277">
        <ele>538.739</ele>
        <time>2016-06-08T10:34:53Z</time>
      </trkpt>
      <trkpt lat="44.20692" lon="3.813">
        <ele>533.742</ele>
        <time>2016-06-08T10:35:13Z</time>
      </trkpt>
      <trkpt lat="44.20644" lon="3.81303">
        <ele>536.122</ele>
        <time>2016-06-08T10:35:33Z</time>
      </trkpt>
      <trkpt lat="44.20618" lon="3.81459">
        <ele>515.814</ele>
        <time>2016-06-08T10:35:53Z</time>
      </trkpt>
      <trkpt lat="44.20611" lon="3.81488">
        <ele>514.308</ele>
        <time>2016-06-08T10:36:13Z</time>
      </trkpt>
      <trkpt lat="44.20602" lon="3.81545">
        <ele>512.087</ele>
        <time>2016-06-08T10:36:33Z</time>
      </trkpt>
      <trkpt lat="44.20568" lon="3.81632">
        <ele>513.298</ele>
        <time>2016-06-08T10:36:53Z</time>
      </trkpt>
      <trkpt lat="44.20525" lon="3.81697">
        <ele>510.259</ele>
        <time>2016-06-08T10:37:13Z</time>
      </trkpt>
      <trkpt lat="44.20489" lon="3.81714">
        <ele>512.937</ele>
        <time>2016-06-08T10:37:33Z</time>
      </trkpt>
      <trkpt lat="44.20457" lon="3.81776">
        <ele>510.265</ele>
        <time>2016-06-08T10:37:53Z</time>
      </trkpt>
      <trkpt lat="44.20429" lon="3.81883">
        <ele>500.357</ele>
        <time>2016-06-08T10:38:13Z</time>
      </trkpt>
      <trkpt lat="44.20424" lon="3.81951">
        <ele>497.357</ele>
        <time>2016-06-08T10:38:33Z</time>
      </trkpt>
      <trkpt lat="44.20397" lon="3.82002">
        <ele>502.588</ele>
        <time>2016-06-08T10:38:53Z</time>
      </trkpt>
      <trkpt lat="44.20396" lon="3.82086">
        <ele>492.877</ele>
        <time>2016-06-08T10:39:13Z</time>
      </trkpt>
      <trkpt lat="44.20382" lon="3.82139">
        <ele>486.061</ele>
        <time>2016-06-08T10:39:33Z</time>
      </trkpt>
      <trkpt lat="44.20324" lon="3.82186">
        <ele>485.627</ele>
        <time>2016-06-08T10:39:53Z</time>
      </trkpt>
      <trkpt lat="44.20285" lon="3.82315">
        <ele>470.108</ele>
        <time>2016-06-08T10:40:13Z</time>
      </trkpt>
      <trkpt lat="44.20247" lon="3.82379">
        <ele>468.43</ele>
        <time>2016-06-08T10:40:33Z</time>
      </trkpt>
      <trkpt lat="44.20242" lon="3.82489">
        <ele>468.991</ele>
        <time>2016-06-08T10:40:53Z</time>
      </trkpt>
      <trkpt lat="44.20263" lon="3.82598">
        <ele>469.362</ele>
        <time>2016-06-08T10:41:13Z</time>
      </trkpt>
      <trkpt lat="44.20222" lon="3.82727">
        <ele>475.94</ele>
        <time>2016-06-08T10:41:33Z</time>
      </trkpt>
      <trkpt lat="44.20232" lon="3.8279">
        <ele>467.378</ele>
        <time>2016-06-08T10:41:53Z</time>
      </trkpt>
      <trkpt lat="44.20192" lon="3.82785">
        <ele>470.1</ele>
      </trkpt>
      <trkpt lat="44.20164" lon="3.82809">
        <ele>477.8</ele>
      </trkpt>
      <trkpt lat="44.20202" lon="3.82817">
        <ele>463.789</ele>
        <time>2016-06-08T10:43:13Z</time>
      </trkpt>
      <trkpt lat="44.20173" lon="3.82836">
        <ele>458.806</ele>
        <time>2016-06-08T10:43:33Z</time>
      </trkpt>
      <trkpt lat="44.20142" lon="3.82887">
        <ele>448.926</ele>
        <time>2016-06-08T10:43:53Z</time>
      </trkpt>
      <trkpt lat="44.20061" lon="3.82921">
        <ele>458.408</ele>
        <time>2016-06-08T10:44:13Z</time>
      </trkpt>
      <trkpt lat="44.20039" lon="3.8296">
        <ele>456.621</ele>
        <time>2016-06-08T10:44:33Z</time>
      </trkpt>
      <trkpt lat="44.20056" lon="3.83004">
        <ele>444.342</ele>
        <time>2016-06-08T10:44:53Z</time>
      </trkpt>
      <trkpt lat="44.20048" lon="3.83078">
        <ele>438.423</ele>
        <time>2016-06-08T10:45:13Z</time>
      </trkpt>
      <trkpt lat="44.19986" lon="3.83189">
        <ele>437.211</ele>
        <time>2016-06-08T10:45:33Z</time>
      </trkpt>
      <trkpt lat="44.19958" lon="3.83201">
        <ele>434.139</ele>
        <time>2016-06-08T10:45:53Z</time>
      </trkpt>
      <trkpt lat="44.19909" lon="3.8318">
        <ele>435.291</ele>
        <time>2016-06-08T10:46:13Z</time>
      </trkpt>
      <trkpt lat="44.19879" lon="3.83182">
        <ele>435.921</ele>
        <time>2016-06-08T10:46:33Z</time>
      </trkpt>
      <trkpt lat="44.19879" lon="3.83221">
        <ele>425.772</ele>
        <time>2016-06-08T10:46:53Z</time>
      </trkpt>
      <trkpt lat="44.19838" lon="3.83326">
        <ele>412.163</ele>
        <time>2016-06-08T10:47:13Z</time>
      </trkpt>
      <trkpt lat="44.19819" lon="3.83334">
        <ele>407.244</ele>
        <time>2016-06-08T10:47:33Z</time>
      </trkpt>
      <trkpt lat="44.19773" lon="3.83303">
        <ele>403.618</ele>
        <time>2016-06-08T10:47:53Z</time>
      </trkpt>
      <trkpt lat="44.19729" lon="3.83244">
        <ele>409.208</ele>
        <time>2016-06-08T10:48:13Z</time>
      </trkpt>
      <trkpt lat="44.19695" lon="3.83253">
        <ele>407.359</ele>
        <time>2016-06-08T10:48:33Z</time>
      </trkpt>
      <trkpt lat="44.19697" lon="3.83329">
        <ele>396.09</ele>
        <time>2016-06-08T10:48:53Z</time>
      </trkpt>
      <trkpt lat="44.19655" lon="3.83358">
        <ele>394.181</ele>
        <time>2016-06-08T10:49:13Z</time>
      </trkpt>
      <trkpt lat="44.19631" lon="3.83342">
        <ele>400.759</ele>
        <time>2016-06-08T10:49:33Z</time>
      </trkpt>
      <trkpt lat="44.19615" lon="3.83366">
        <ele>395.277</ele>
        <time>2016-06-08T10:49:53Z</time>
      </trkpt>
      <trkpt lat="44.19573" lon="3.83391">
        <ele>398.679</ele>
        <time>2016-06-08T10:50:13Z</time>
      </trkpt>
      <trkpt lat="44.19562" lon="3.83444">
        <ele>391.019</ele>
        <time>2016-06-08T10:50:33Z</time>
      </trkpt>
      <trkpt lat="44.19522" lon="3.83496">
        <ele>385.91</ele>
        <time>2016-06-08T10:50:53Z</time>
      </trkpt>
      <trkpt lat="44.19489" lon="3.83518">
        <ele>388.153</ele>
        <time>2016-06-08T10:51:13Z</time>
      </trkpt>
      <trkpt lat="44.19496" lon="3.83549">
        <ele>384.904</ele>
        <time>2016-06-08T10:51:33Z</time>
      </trkpt>
      <trkpt lat="44.1954" lon="3.83608">
        <ele>379.414</ele>
        <time>2016-06-08T10:51:53Z</time>
      </trkpt>
      <trkpt lat="44.1954" lon="3.83651">
        <ele>375.708</ele>
        <time>2016-06-08T10:52:13Z</time>
      </trkpt>
      <trkpt lat="44.19514" lon="3.83694">
        <ele>375.548</ele>
        <time>2016-06-08T10:52:33Z</time>
      </trkpt>
      <trkpt lat="44.19458" lon="3.8391">
        <ele>366.349</ele>
        <time>2016-06-08T10:52:53Z</time>
      </trkpt>
      <trkpt lat="44.19442" lon="3.83928">
        <ele>364.57</ele>
        <time>2016-06-08T10:53:13Z</time>
      </trkpt>
      <trkpt lat="44.19382" lon="3.83938">
        <ele>356.198</ele>
        <time>2016-06-08T10:53:33Z</time>
      </trkpt>
      <trkpt lat="44.19348" lon="3.83905">
        <ele>365.516</ele>
        <time>2016-06-08T10:53:53Z</time>
      </trkpt>
      <trkpt lat="44.19319" lon="3.83951">
        <ele>353.778</ele>
        <time>2016-06-08T10:54:13Z</time>
      </trkpt>
      <trkpt lat="44.19222" lon="3.83976">
        <ele>335.698</ele>
        <time>2016-06-08T10:54:33Z</time>
      </trkpt>
      <trkpt lat="44.19199" lon="3.83941">
        <ele>337.249</ele>
        <time>2016-06-08T10:54:53Z</time>
      </trkpt>
      <trkpt lat="44.19175" lon="3.83926">
        <ele>331.559</ele>
        <time>2016-06-08T10:55:13Z</time>
      </trkpt>
      <trkpt lat="44.19169" lon="3.8389">
        <ele>336.003</ele>
        <time>2016-06-08T10:55:33Z</time>
      </trkpt>
      <trkpt lat="44.19088" lon="3.83787">
        <ele>315.123</ele>
        <time>2016-06-08T10:55:53Z</time>
      </trkpt>
      <trkpt lat="44.19093" lon="3.83746">
        <ele>317.608</ele>
        <time>2016-06-08T10:56:13Z</time>
      </trkpt>
      <trkpt lat="44.19131" lon="3.83694">
        <ele>331</ele>
      </trkpt>
      <trkpt lat="44.19092" lon="3.83693">
        <ele>326.9</ele>
      </trkpt>
      <trkpt lat="44.19045" lon="3.83692">
        <ele>308.81</ele>
        <time>2016-06-08T10:56:53Z</time>
      </trkpt>
      <trkpt lat="44.18998" lon="3.83632">
        <ele>304.248</ele>
        <time>2016-06-08T10:57:13Z</time>
      </trkpt>
      <trkpt lat="44.18971" lon="3.83567">
        <ele>305.626</ele>
        <time>2016-06-08T10:57:33Z</time>
      </trkpt>
      <trkpt lat="44.18927" lon="3.83519">
        <ele>300.988</ele>
        <time>2016-06-08T10:57:53Z</time>
      </trkpt>
      <trkpt lat="44.18905" lon="3.83454">
        <ele>296.518</ele>
        <time>2016-06-08T10:58:13Z</time>
      </trkpt>
      <trkpt lat="44.18892" lon="3.83398">
        <ele>295.959</ele>
        <time>2016-06-08T10:58:33Z</time>
      </trkpt>
      <trkpt lat="44.18845" lon="3.83327">
        <ele>296.768</ele>
        <time>2016-06-08T10:58:53Z</time>
      </trkpt>
      <trkpt lat="44.18785" lon="3.83342">
        <ele>288.042</ele>
        <time>2016-06-08T10:59:13Z</time>
      </trkpt>
      <trkpt lat="44.18724" lon="3.83405">
        <ele>275.726</ele>
        <time>2016-06-08T10:59:33Z</time>
      </trkpt>
      <trkpt lat="44.18694" lon="3.834">
        <ele>271.308</ele>
        <time>2016-06-08T10:59:53Z</time>
      </trkpt>
      <trkpt lat="44.18679" lon="3.83361">
        <ele>270.019</ele>
        <time>2016-06-08T11:00:13Z</time>
      </trkpt>
      <trkpt lat="44.18704" lon="3.8325">
        <ele>268.44</ele>
        <time>2016-06-08T11:00:33Z</time>
      </trkpt>
      <trkpt lat="44.18658" lon="3.83226">
        <ele>265.261</ele>
        <time>2016-06-08T11:00:53Z</time>
      </trkpt>
      <trkpt lat="44.18614" lon="3.83272">
        <ele>276.469</ele>
        <time>2016-06-08T11:01:13Z</time>
      </trkpt>
      <trkpt lat="44.1858" lon="3.83354">
        <ele>267.247</ele>
        <time>2016-06-08T11:01:33Z</time>
      </trkpt>
      <trkpt lat="44.18498" lon="3.83467">
        <ele>269.349</ele>
        <time>2016-06-08T11:01:53Z</time>
      </trkpt>
      <trkpt lat="44.18399" lon="3.83516">
        <ele>271.939</ele>
        <time>2016-06-08T11:02:13Z</time>
      </trkpt>
      <trkpt lat="44.18361" lon="3.83512">
        <ele>274.91</ele>
        <time>2016-06-08T11:02:33Z</time>
      </trkpt>
    </trkseg>
  </trk>
  <trk>
    <name><![CDATA[26 juil]]></name>
    <extensions>
      <line xmlns="http://www.topografix.com/GPX/gpx_style/0/2">
        <color>f40616</color>
        <opacity>1</opacity>
        <width>3</width>
      </line>
    </extensions>
    <trkseg>
      <trkpt lat="44.18361" lon="3.83512">
        <ele>274.91</ele>
        <time>2016-06-08T11:02:33Z</time>
      </trkpt>
      <trkpt lat="44.18361" lon="3.83512">
        <ele>274.91</ele>
        <time>2016-06-08T11:02:33Z</time>
      </trkpt>
      <trkpt lat="44.18361" lon="3.83512">
        <ele>274.91</ele>
        <time>2016-06-08T11:02:33Z</time>
      </trkpt>
      <trkpt lat="44.18361" lon="3.83512">
        <ele>274.91</ele>
        <time>2016-06-08T11:02:33Z</time>
      </trkpt>
      <trkpt lat="44.18361" lon="3.83512">
        <ele>274.91</ele>
        <time>2016-06-08T11:02:33Z</time>
      </trkpt>
      <trkpt lat="44.18361" lon="3.83512">
        <ele>274.91</ele>
        <time>2016-06-08T11:02:33Z</time>
      </trkpt>
      <trkpt lat="44.18361" lon="3.83512">
        <ele>274.91</ele>
        <time>2016-06-08T11:02:33Z</time>
      </trkpt>
      <trkpt lat="44.18361" lon="3.83512">
        <ele>274.91</ele>
        <time>2016-06-08T11:02:33Z</time>
      </trkpt>
      <trkpt lat="44.18284" lon="3.83521">
        <ele>277.488</ele>
        <time>2019-03-26T07:32:31Z</time>
      </trkpt>
      <trkpt lat="44.18118" lon="3.83518">
        <ele>282.424</ele>
        <time>2016-06-08T11:02:53Z</time>
      </trkpt>
      <trkpt lat="44.18101" lon="3.83529">
        <ele>282.126</ele>
        <time>2016-06-08T11:03:13Z</time>
      </trkpt>
      <trkpt lat="44.18105" lon="3.83568">
        <ele>272.508</ele>
        <time>2016-06-08T11:03:33Z</time>
      </trkpt>
      <trkpt lat="44.18078" lon="3.83643">
        <ele>270.411</ele>
        <time>2016-06-08T11:03:53Z</time>
      </trkpt>
      <trkpt lat="44.18052" lon="3.83652">
        <ele>271.972</ele>
        <time>2016-06-08T11:04:13Z</time>
      </trkpt>
      <trkpt lat="44.17956" lon="3.83654">
        <ele>276.163</ele>
        <time>2016-06-08T11:04:33Z</time>
      </trkpt>
      <trkpt lat="44.17869" lon="3.83738">
        <ele>270.611</ele>
        <time>2016-06-08T11:04:53Z</time>
      </trkpt>
      <trkpt lat="44.17851" lon="3.83783">
        <ele>268.799</ele>
        <time>2016-06-08T11:05:13Z</time>
      </trkpt>
      <trkpt lat="44.17814" lon="3.83807">
        <ele>272.651</ele>
        <time>2016-06-08T11:05:33Z</time>
      </trkpt>
      <trkpt lat="44.17771" lon="3.8381">
        <ele>281.581</ele>
        <time>2016-06-08T11:05:53Z</time>
      </trkpt>
      <trkpt lat="44.17721" lon="3.83846">
        <ele>278.972</ele>
        <time>2016-06-08T11:06:13Z</time>
      </trkpt>
      <trkpt lat="44.17688" lon="3.83856">
        <ele>284.199</ele>
        <time>2016-06-08T11:06:33Z</time>
      </trkpt>
      <trkpt lat="44.17634" lon="3.83918">
        <ele>287.307</ele>
        <time>2016-06-08T11:06:53Z</time>
      </trkpt>
      <trkpt lat="44.17624" lon="3.83966">
        <ele>283.027</ele>
        <time>2016-06-08T11:07:13Z</time>
      </trkpt>
      <trkpt lat="44.17597" lon="3.84028">
        <ele>290.408</ele>
        <time>2016-06-08T11:07:33Z</time>
      </trkpt>
      <trkpt lat="44.1755" lon="3.8422">
        <ele>297.192</ele>
        <time>2016-06-08T11:07:53Z</time>
      </trkpt>
      <trkpt lat="44.17504" lon="3.84271">
        <ele>300.333</ele>
        <time>2016-06-08T11:08:13Z</time>
      </trkpt>
      <trkpt lat="44.17443" lon="3.84267">
        <ele>299.464</ele>
        <time>2016-06-08T11:08:33Z</time>
      </trkpt>
      <trkpt lat="44.1735" lon="3.84217">
        <ele>283.012</ele>
        <time>2016-06-08T11:08:53Z</time>
      </trkpt>
      <trkpt lat="44.17276" lon="3.84219">
        <ele>277.99</ele>
        <time>2016-06-08T11:09:13Z</time>
      </trkpt>
      <trkpt lat="44.17223" lon="3.84145">
        <ele>273.512</ele>
        <time>2016-06-08T11:09:33Z</time>
      </trkpt>
      <trkpt lat="44.17197" lon="3.84126">
        <ele>265.132</ele>
        <time>2016-06-08T11:09:53Z</time>
      </trkpt>
      <trkpt lat="44.17234" lon="3.84084">
        <ele>264.593</ele>
        <time>2016-06-08T11:10:13Z</time>
      </trkpt>
      <trkpt lat="44.17151" lon="3.83975">
        <ele>254.092</ele>
        <time>2016-06-08T11:10:33Z</time>
      </trkpt>
      <trkpt lat="44.17124" lon="3.8391">
        <ele>252.073</ele>
        <time>2016-06-08T11:10:53Z</time>
      </trkpt>
      <trkpt lat="44.17042" lon="3.83883">
        <ele>259.52</ele>
        <time>2016-06-08T11:11:13Z</time>
      </trkpt>
      <trkpt lat="44.16927" lon="3.8397">
        <ele>269.508</ele>
        <time>2016-06-08T11:11:33Z</time>
      </trkpt>
      <trkpt lat="44.16804" lon="3.84165">
        <ele>262.442</ele>
        <time>2016-06-08T11:11:53Z</time>
      </trkpt>
      <trkpt lat="44.16776" lon="3.8422">
        <ele>259.483</ele>
        <time>2016-06-08T11:12:13Z</time>
      </trkpt>
      <trkpt lat="44.16748" lon="3.84232">
        <ele>260.284</ele>
        <time>2016-06-08T11:12:33Z</time>
      </trkpt>
      <trkpt lat="44.16326" lon="3.84199">
        <ele>254.492</ele>
        <time>2016-06-08T11:12:53Z</time>
      </trkpt>
      <trkpt lat="44.16333" lon="3.84149">
        <ele>252.87</ele>
        <time>2016-06-08T11:13:13Z</time>
      </trkpt>
      <trkpt lat="44.16324" lon="3.84112">
        <ele>257.142</ele>
        <time>2016-06-08T11:13:33Z</time>
      </trkpt>
      <trkpt lat="44.16311" lon="3.84166">
        <ele>260.952</ele>
        <time>2016-06-08T11:13:53Z</time>
      </trkpt>
      <trkpt lat="44.1628" lon="3.84233">
        <ele>274.463</ele>
        <time>2016-06-08T11:14:13Z</time>
      </trkpt>
      <trkpt lat="44.16284" lon="3.8419">
        <ele>273.332</ele>
        <time>2016-06-08T11:14:33Z</time>
      </trkpt>
      <trkpt lat="44.16269" lon="3.84108">
        <ele>278.092</ele>
        <time>2016-06-08T11:14:53Z</time>
      </trkpt>
      <trkpt lat="44.16175" lon="3.8411">
        <ele>299.911</ele>
        <time>2016-06-08T11:15:13Z</time>
      </trkpt>
      <trkpt lat="44.1605" lon="3.84126">
        <ele>284.908</ele>
        <time>2016-06-08T11:15:33Z</time>
      </trkpt>
      <trkpt lat="44.15987" lon="3.84168">
        <ele>272.446</ele>
        <time>2016-06-08T11:15:53Z</time>
      </trkpt>
      <trkpt lat="44.15949" lon="3.84153">
        <ele>260.997</ele>
        <time>2016-06-08T11:16:13Z</time>
      </trkpt>
      <trkpt lat="44.1592" lon="3.84117">
        <ele>254.458</ele>
        <time>2016-06-08T11:16:33Z</time>
      </trkpt>
      <trkpt lat="44.15872" lon="3.84111">
        <ele>241.556</ele>
        <time>2016-06-08T11:16:53Z</time>
      </trkpt>
      <trkpt lat="44.15852" lon="3.8407">
        <ele>237.724</ele>
        <time>2016-06-08T11:17:13Z</time>
      </trkpt>
      <trkpt lat="44.15812" lon="3.84049">
        <ele>236.626</ele>
        <time>2016-06-08T11:17:33Z</time>
      </trkpt>
      <trkpt lat="44.15684" lon="3.84063">
        <ele>234.596</ele>
        <time>2016-06-08T11:17:53Z</time>
      </trkpt>
      <trkpt lat="44.15678" lon="3.84121">
        <ele>234.517</ele>
        <time>2016-06-08T11:18:13Z</time>
      </trkpt>
      <trkpt lat="44.15655" lon="3.84132">
        <ele>239.357</ele>
        <time>2016-06-08T11:18:33Z</time>
      </trkpt>
      <trkpt lat="44.15675" lon="3.84147">
        <ele>238.9</ele>
        <time>2016-06-08T11:18:53Z</time>
      </trkpt>
      <trkpt lat="44.15676" lon="3.84218">
        <ele>253.92</ele>
        <time>2019-03-26T07:49:11Z</time>
      </trkpt>
      <trkpt lat="44.15687" lon="3.84265">
        <ele>259.408</ele>
        <time>2019-03-26T07:49:31Z</time>
      </trkpt>
      <trkpt lat="44.15656" lon="3.84233">
        <ele>265.488</ele>
        <time>2019-03-26T07:49:51Z</time>
      </trkpt>
      <trkpt lat="44.15635" lon="3.84189">
        <ele>260.169</ele>
        <time>2019-03-26T07:50:11Z</time>
      </trkpt>
      <trkpt lat="44.15628" lon="3.84195">
        <ele>264.26</ele>
        <time>2019-03-26T07:50:31Z</time>
      </trkpt>
      <trkpt lat="44.1564" lon="3.8423">
        <ele>271.518</ele>
        <time>2019-03-26T07:50:51Z</time>
      </trkpt>
      <trkpt lat="44.15636" lon="3.84254">
        <ele>278.186</ele>
        <time>2019-03-26T07:51:11Z</time>
      </trkpt>
      <trkpt lat="44.15662" lon="3.84314">
        <ele>281</ele>
      </trkpt>
      <trkpt lat="44.15662" lon="3.8438">
        <ele>281.7</ele>
      </trkpt>
      <trkpt lat="44.15581" lon="3.84264">
        <ele>298</ele>
      </trkpt>
      <trkpt lat="44.15474" lon="3.84187">
        <ele>312.4</ele>
      </trkpt>
      <trkpt lat="44.15375" lon="3.84125">
        <ele>333.8</ele>
      </trkpt>
      <trkpt lat="44.15335" lon="3.84029">
        <ele>328</ele>
      </trkpt>
      <trkpt lat="44.1528" lon="3.8396">
        <ele>343.4</ele>
      </trkpt>
      <trkpt lat="44.15176" lon="3.83924">
        <ele>369.182</ele>
        <time>2019-03-26T07:58:51Z</time>
      </trkpt>
      <trkpt lat="44.15172" lon="3.83922">
        <ele>370.23</ele>
        <time>2016-06-08T11:23:33Z</time>
      </trkpt>
      <trkpt lat="44.15093" lon="3.83858">
        <ele>380.412</ele>
        <time>2016-06-08T11:23:53Z</time>
      </trkpt>
      <trkpt lat="44.15004" lon="3.83826">
        <ele>397.612</ele>
        <time>2016-06-08T11:24:13Z</time>
      </trkpt>
      <trkpt lat="44.14959" lon="3.83795">
        <ele>408.843</ele>
        <time>2016-06-08T11:24:33Z</time>
      </trkpt>
      <trkpt lat="44.14817" lon="3.8373">
        <ele>433.063</ele>
        <time>2016-06-08T11:24:53Z</time>
      </trkpt>
      <trkpt lat="44.14767" lon="3.83747">
        <ele>449.244</ele>
        <time>2016-06-08T11:25:13Z</time>
      </trkpt>
      <trkpt lat="44.14646" lon="3.83657">
        <ele>468.218</ele>
        <time>2016-06-08T11:25:33Z</time>
      </trkpt>
      <trkpt lat="44.14571" lon="3.83516">
        <ele>484.608</ele>
        <time>2016-06-08T11:25:53Z</time>
      </trkpt>
      <trkpt lat="44.14557" lon="3.83512">
        <ele>488.439</ele>
        <time>2016-06-08T11:26:13Z</time>
      </trkpt>
      <trkpt lat="44.14485" lon="3.83396">
        <ele>500.26</ele>
        <time>2016-06-08T11:26:33Z</time>
      </trkpt>
      <trkpt lat="44.14483" lon="3.83413">
        <ele>505.361</ele>
        <time>2016-06-08T11:26:53Z</time>
      </trkpt>
      <trkpt lat="44.14491" lon="3.83458">
        <ele>510.279</ele>
        <time>2016-06-08T11:27:13Z</time>
      </trkpt>
      <trkpt lat="44.14487" lon="3.83541">
        <ele>511.977</ele>
        <time>2016-06-08T11:27:33Z</time>
      </trkpt>
      <trkpt lat="44.14467" lon="3.83548">
        <ele>512.919</ele>
        <time>2016-06-08T11:27:53Z</time>
      </trkpt>
      <trkpt lat="44.14423" lon="3.835">
        <ele>524.099</ele>
        <time>2016-06-08T11:28:13Z</time>
      </trkpt>
      <trkpt lat="44.14364" lon="3.83508">
        <ele>517.39</ele>
        <time>2016-06-08T11:28:33Z</time>
      </trkpt>
      <trkpt lat="44.14338" lon="3.83496">
        <ele>516.639</ele>
        <time>2016-06-08T11:28:53Z</time>
      </trkpt>
      <trkpt lat="44.14308" lon="3.83454">
        <ele>528.201</ele>
        <time>2016-06-08T11:29:13Z</time>
      </trkpt>
      <trkpt lat="44.1427" lon="3.8345">
        <ele>525.121</ele>
        <time>2016-06-08T11:29:33Z</time>
      </trkpt>
      <trkpt lat="44.14224" lon="3.83421">
        <ele>544.108</ele>
        <time>2016-06-08T11:29:53Z</time>
      </trkpt>
      <trkpt lat="44.14133" lon="3.83458">
        <ele>541.916</ele>
        <time>2016-06-08T11:30:13Z</time>
      </trkpt>
      <trkpt lat="44.14051" lon="3.83429">
        <ele>560.967</ele>
        <time>2016-06-08T11:30:33Z</time>
      </trkpt>
      <trkpt lat="44.13952" lon="3.83409">
        <ele>578.3</ele>
      </trkpt>
      <trkpt lat="44.13909" lon="3.83393">
        <ele>580.366</ele>
        <time>2016-06-08T11:31:13Z</time>
      </trkpt>
      <trkpt lat="44.1386" lon="3.83413">
        <ele>578.554</ele>
        <time>2016-06-08T11:31:33Z</time>
      </trkpt>
      <trkpt lat="44.13814" lon="3.83411">
        <ele>580.466</ele>
        <time>2016-06-08T11:31:53Z</time>
      </trkpt>
      <trkpt lat="44.13771" lon="3.83389">
        <ele>590.256</ele>
        <time>2016-06-08T11:32:13Z</time>
      </trkpt>
      <trkpt lat="44.13741" lon="3.83398">
        <ele>586.647</ele>
        <time>2016-06-08T11:32:33Z</time>
      </trkpt>
      <trkpt lat="44.13625" lon="3.8353">
        <ele>578.656</ele>
        <time>2016-06-08T11:32:53Z</time>
      </trkpt>
      <trkpt lat="44.13586" lon="3.83618">
        <ele>580.2</ele>
      </trkpt>
      <trkpt lat="44.13569" lon="3.83733">
        <ele>596.014</ele>
        <time>2016-06-08T11:33:33Z</time>
      </trkpt>
      <trkpt lat="44.13544" lon="3.83804">
        <ele>596.008</ele>
        <time>2016-06-08T11:33:53Z</time>
      </trkpt>
      <trkpt lat="44.13513" lon="3.83869">
        <ele>601.398</ele>
        <time>2016-06-08T11:34:13Z</time>
      </trkpt>
      <trkpt lat="44.13501" lon="3.83967">
        <ele>591.859</ele>
        <time>2016-06-08T11:34:33Z</time>
      </trkpt>
      <trkpt lat="44.13482" lon="3.8399">
        <ele>586.26</ele>
        <time>2016-06-08T11:34:53Z</time>
      </trkpt>
      <trkpt lat="44.13475" lon="3.83981">
        <ele>584.378</ele>
        <time>2016-06-08T11:35:13Z</time>
      </trkpt>
      <trkpt lat="44.13409" lon="3.84105">
        <ele>549.166</ele>
        <time>2016-06-08T11:35:33Z</time>
      </trkpt>
      <trkpt lat="44.13389" lon="3.84058">
        <ele>544.668</ele>
        <time>2016-06-08T11:35:53Z</time>
      </trkpt>
      <trkpt lat="44.13375" lon="3.84055">
        <ele>542.358</ele>
        <time>2016-06-08T11:36:13Z</time>
      </trkpt>
      <trkpt lat="44.13359" lon="3.84045">
        <ele>543.349</ele>
        <time>2016-06-08T11:36:33Z</time>
      </trkpt>
      <trkpt lat="44.13287" lon="3.84135">
        <ele>524.692</ele>
        <time>2016-06-08T11:36:53Z</time>
      </trkpt>
      <trkpt lat="44.13256" lon="3.84147">
        <ele>524.773</ele>
        <time>2016-06-08T11:37:13Z</time>
      </trkpt>
      <trkpt lat="44.13124" lon="3.84322">
        <ele>498.92</ele>
        <time>2016-06-08T11:37:33Z</time>
      </trkpt>
      <trkpt lat="44.1309" lon="3.84346">
        <ele>489.508</ele>
        <time>2016-06-08T11:37:53Z</time>
      </trkpt>
      <trkpt lat="44.13064" lon="3.84427">
        <ele>477.282</ele>
        <time>2016-06-08T11:38:13Z</time>
      </trkpt>
      <trkpt lat="44.1302" lon="3.84502">
        <ele>470.493</ele>
        <time>2016-06-08T11:38:33Z</time>
      </trkpt>
      <trkpt lat="44.13" lon="3.84554">
        <ele>463.724</ele>
        <time>2016-06-08T11:38:53Z</time>
      </trkpt>
      <trkpt lat="44.12897" lon="3.84638">
        <ele>461.532</ele>
        <time>2016-06-08T11:39:13Z</time>
      </trkpt>
      <trkpt lat="44.12745" lon="3.84708">
        <ele>456.41</ele>
        <time>2016-06-08T11:39:33Z</time>
      </trkpt>
      <trkpt lat="44.12645" lon="3.84718">
        <ele>443.172</ele>
        <time>2016-06-08T11:39:53Z</time>
      </trkpt>
      <trkpt lat="44.12553" lon="3.84771">
        <ele>425.932</ele>
        <time>2016-06-08T11:40:13Z</time>
      </trkpt>
      <trkpt lat="44.12471" lon="3.84791">
        <ele>417.263</ele>
        <time>2016-06-08T11:40:33Z</time>
      </trkpt>
      <trkpt lat="44.12307" lon="3.84774">
        <ele>393.729</ele>
        <time>2016-06-08T11:40:53Z</time>
      </trkpt>
      <trkpt lat="44.12231" lon="3.84791">
        <ele>389</ele>
        <time>2016-06-08T11:41:13Z</time>
      </trkpt>
      <trkpt lat="44.12207" lon="3.84785">
        <ele>386.42</ele>
        <time>2016-06-08T11:41:33Z</time>
      </trkpt>
      <trkpt lat="44.1217" lon="3.84805">
        <ele>381.708</ele>
        <time>2016-06-08T11:41:53Z</time>
      </trkpt>
      <trkpt lat="44.12094" lon="3.84812">
        <ele>370.785</ele>
        <time>2016-06-08T11:42:13Z</time>
      </trkpt>
      <trkpt lat="44.12015" lon="3.84862">
        <ele>361.996</ele>
        <time>2016-06-08T11:42:33Z</time>
      </trkpt>
      <trkpt lat="44.1189" lon="3.84918">
        <ele>334.957</ele>
        <time>2016-06-08T11:42:53Z</time>
      </trkpt>
      <trkpt lat="44.11899" lon="3.84844">
        <ele>332.975</ele>
        <time>2016-06-08T11:43:13Z</time>
      </trkpt>
      <trkpt lat="44.11956" lon="3.8469">
        <ele>318.443</ele>
        <time>2016-06-08T11:43:33Z</time>
      </trkpt>
      <trkpt lat="44.12031" lon="3.84543">
        <ele>302.585</ele>
        <time>2016-06-08T11:43:53Z</time>
      </trkpt>
      <trkpt lat="44.12139" lon="3.84505">
        <ele>291.235</ele>
        <time>2016-06-08T11:44:13Z</time>
      </trkpt>
      <trkpt lat="44.12024" lon="3.84475">
        <ele>273.756</ele>
        <time>2016-06-08T11:44:33Z</time>
      </trkpt>
      <trkpt lat="44.11922" lon="3.84545">
        <ele>263.116</ele>
        <time>2016-06-08T11:44:53Z</time>
      </trkpt>
      <trkpt lat="44.1191" lon="3.84588">
        <ele>267.176</ele>
        <time>2016-06-08T11:45:13Z</time>
      </trkpt>
      <trkpt lat="44.11856" lon="3.84623">
        <ele>253.813</ele>
        <time>2016-06-08T11:45:33Z</time>
      </trkpt>
      <trkpt lat="44.11817" lon="3.84698">
        <ele>253.908</ele>
        <time>2016-06-08T11:45:53Z</time>
      </trkpt>
      <trkpt lat="44.11744" lon="3.84752">
        <ele>240.884</ele>
        <time>2016-06-08T11:46:13Z</time>
      </trkpt>
      <trkpt lat="44.11722" lon="3.84783">
        <ele>239.915</ele>
        <time>2016-06-08T11:46:33Z</time>
      </trkpt>
      <trkpt lat="44.11646" lon="3.84845">
        <ele>226.036</ele>
        <time>2016-06-08T11:46:53Z</time>
      </trkpt>
      <trkpt lat="44.11559" lon="3.84955">
        <ele>212.784</ele>
        <time>2016-06-08T11:47:13Z</time>
      </trkpt>
      <trkpt lat="44.11546" lon="3.85037">
        <ele>211.552</ele>
        <time>2016-06-08T11:47:33Z</time>
      </trkpt>
      <trkpt lat="44.11514" lon="3.85099">
        <ele>207.834</ele>
        <time>2016-06-08T11:47:53Z</time>
      </trkpt>
      <trkpt lat="44.11506" lon="3.85188">
        <ele>212.544</ele>
        <time>2016-06-08T11:48:13Z</time>
      </trkpt>
      <trkpt lat="44.11472" lon="3.85328">
        <ele>206.835</ele>
        <time>2016-06-08T11:48:33Z</time>
      </trkpt>
      <trkpt lat="44.11407" lon="3.85438">
        <ele>205.881</ele>
        <time>2016-06-08T11:48:53Z</time>
      </trkpt>
      <trkpt lat="44.11368" lon="3.85573">
        <ele>210.161</ele>
        <time>2016-06-08T11:49:13Z</time>
      </trkpt>
      <trkpt lat="44.11274" lon="3.85765">
        <ele>209.117</ele>
        <time>2016-06-08T11:49:33Z</time>
      </trkpt>
      <trkpt lat="44.11237" lon="3.86066">
        <ele>209.908</ele>
        <time>2016-06-08T11:49:53Z</time>
      </trkpt>
      <trkpt lat="44.112" lon="3.86192">
        <ele>206.241</ele>
        <time>2016-06-08T11:50:13Z</time>
      </trkpt>
      <trkpt lat="44.11224" lon="3.86297">
        <ele>204.592</ele>
        <time>2016-06-08T11:50:33Z</time>
      </trkpt>
      <trkpt lat="44.11302" lon="3.86487">
        <ele>202.733</ele>
        <time>2016-06-08T11:50:53Z</time>
      </trkpt>
      <trkpt lat="44.11382" lon="3.86766">
        <ele>195.391</ele>
        <time>2019-03-26T08:26:51Z</time>
      </trkpt>
      <trkpt lat="44.1141" lon="3.86964">
        <ele>192.449</ele>
        <time>2019-03-26T08:27:11Z</time>
      </trkpt>
      <trkpt lat="44.11394" lon="3.87174">
        <ele>199.821</ele>
        <time>2019-03-26T08:27:31Z</time>
      </trkpt>
      <trkpt lat="44.11331" lon="3.87262">
        <ele>198.341</ele>
        <time>2019-03-26T08:27:51Z</time>
      </trkpt>
      <trkpt lat="44.11237" lon="3.87326">
        <ele>197.272</ele>
        <time>2016-06-08T11:52:53Z</time>
      </trkpt>
      <trkpt lat="44.11207" lon="3.87183">
        <ele>194.931</ele>
        <time>2016-06-08T11:53:13Z</time>
      </trkpt>
      <trkpt lat="44.11157" lon="3.87205">
        <ele>199.961</ele>
        <time>2016-06-08T11:53:33Z</time>
      </trkpt>
      <trkpt lat="44.11069" lon="3.87184">
        <ele>199.807</ele>
        <time>2016-06-08T11:53:53Z</time>
      </trkpt>
      <trkpt lat="44.11002" lon="3.87183">
        <ele>203.208</ele>
        <time>2016-06-08T11:54:13Z</time>
      </trkpt>
      <trkpt lat="44.10975" lon="3.87224">
        <ele>195.386</ele>
        <time>2016-06-08T11:54:33Z</time>
      </trkpt>
      <trkpt lat="44.10905" lon="3.87215">
        <ele>204.387</ele>
        <time>2016-06-08T11:54:53Z</time>
      </trkpt>
      <trkpt lat="44.10777" lon="3.87285">
        <ele>209.848</ele>
        <time>2016-06-08T11:55:13Z</time>
      </trkpt>
      <trkpt lat="44.10707" lon="3.8735">
        <ele>212.026</ele>
        <time>2016-06-08T11:55:33Z</time>
      </trkpt>
      <trkpt lat="44.10657" lon="3.87454">
        <ele>210.124</ele>
        <time>2016-06-08T11:55:53Z</time>
      </trkpt>
      <trkpt lat="44.10619" lon="3.87579">
        <ele>198.356</ele>
        <time>2016-06-08T11:56:13Z</time>
      </trkpt>
      <trkpt lat="44.10573" lon="3.87704">
        <ele>197.276</ele>
        <time>2016-06-08T11:56:33Z</time>
      </trkpt>
      <trkpt lat="44.10503" lon="3.87828">
        <ele>189.647</ele>
        <time>2016-06-08T11:56:53Z</time>
      </trkpt>
      <trkpt lat="44.10512" lon="3.87862">
        <ele>185.792</ele>
        <time>2016-06-08T11:57:13Z</time>
      </trkpt>
      <trkpt lat="44.10436" lon="3.88037">
        <ele>186.573</ele>
        <time>2016-06-08T11:57:33Z</time>
      </trkpt>
      <trkpt lat="44.10543" lon="3.88126">
        <ele>191</ele>
      </trkpt>
      <trkpt lat="44.10523" lon="3.88217">
        <ele>192</ele>
      </trkpt>
      <trkpt lat="44.10533" lon="3.88351">
        <ele>192</ele>
      </trkpt>
      <trkpt lat="44.10485" lon="3.8843">
        <ele>191</ele>
      </trkpt>
      <trkpt lat="44.10471" lon="3.88456">
        <ele>190.8</ele>
      </trkpt>
      <trkpt lat="44.10478" lon="3.88512">
        <ele>192</ele>
      </trkpt>
      <trkpt lat="44.10475" lon="3.88545">
        <ele>191.6</ele>
      </trkpt>
      <trkpt lat="44.10441" lon="3.8855">
        <ele>190.9</ele>
      </trkpt>
      <trkpt lat="44.10444" lon="3.88655">
        <ele>191.2</ele>
      </trkpt>
      <trkpt lat="44.10341" lon="3.88827">
        <ele>188</ele>
      </trkpt>
      <trkpt lat="44.10305" lon="3.88861">
        <ele>192</ele>
      </trkpt>
      <trkpt lat="44.10238" lon="3.88887">
        <ele>189.5</ele>
      </trkpt>
      <trkpt lat="44.10211" lon="3.89084">
        <ele>193.8</ele>
      </trkpt>
      <trkpt lat="44.10185" lon="3.89138">
        <ele>193</ele>
      </trkpt>
      <trkpt lat="44.10148" lon="3.89173">
        <ele>188.2</ele>
      </trkpt>
      <trkpt lat="44.10132" lon="3.89436">
        <ele>184.5</ele>
      </trkpt>
    </trkseg>
  </trk>
  <trk>
    <name><![CDATA[27 juil]]></name>
    <extensions>
      <line xmlns="http://www.topografix.com/GPX/gpx_style/0/2">
        <color>000000</color>
        <width>3</width>
      </line>
    </extensions>
    <trkseg>
      <trkpt lat="44.10129" lon="3.89441">
        <ele>184.5</ele>
      </trkpt>
      <trkpt lat="44.10129" lon="3.89441">
        <ele>184.5</ele>
      </trkpt>
      <trkpt lat="44.10127" lon="3.89452">
        <ele>184.5</ele>
      </trkpt>
      <trkpt lat="44.10122" lon="3.89473">
        <ele>184.5</ele>
      </trkpt>
      <trkpt lat="44.10122" lon="3.89488">
        <ele>184.6</ele>
      </trkpt>
      <trkpt lat="44.10126" lon="3.89489">
        <ele>184.7</ele>
      </trkpt>
      <trkpt lat="44.10129" lon="3.89491">
        <ele>184.8</ele>
      </trkpt>
      <trkpt lat="44.10132" lon="3.89496">
        <ele>184.9</ele>
      </trkpt>
      <trkpt lat="44.10132" lon="3.895">
        <ele>185.3</ele>
        <extensions>
          <visugpx:TrkExtension xmlns:visugpx="https://www.visugpx.com/editgpx/">
            <visugpx:node>1</visugpx:node>
            </visugpx:TrkExtension>
        </extensions>
      </trkpt>
      <trkpt lat="44.10133" lon="3.89501">
        <ele>186.5</ele>
      </trkpt>
      <trkpt lat="44.10132" lon="3.89507">
        <ele>186.6</ele>
      </trkpt>
      <trkpt lat="44.10129" lon="3.89514">
        <ele>186.6</ele>
      </trkpt>
      <trkpt lat="44.10134" lon="3.89515">
        <ele>186.8</ele>
      </trkpt>
      <trkpt lat="44.10144" lon="3.89507">
        <ele>186.9</ele>
      </trkpt>
      <trkpt lat="44.10172" lon="3.89496">
        <ele>187.8</ele>
      </trkpt>
      <trkpt lat="44.10193" lon="3.89487">
        <ele>189.5</ele>
      </trkpt>
      <trkpt lat="44.102" lon="3.89478">
        <ele>189.9</ele>
      </trkpt>
      <trkpt lat="44.10202" lon="3.89471">
        <ele>189.9</ele>
      </trkpt>
      <trkpt lat="44.10213" lon="3.89465">
        <ele>190.4</ele>
      </trkpt>
      <trkpt lat="44.1025" lon="3.89441">
        <ele>190.9</ele>
      </trkpt>
      <trkpt lat="44.10264" lon="3.89424">
        <ele>195.1</ele>
      </trkpt>
      <trkpt lat="44.10275" lon="3.89412">
        <ele>194.3</ele>
      </trkpt>
      <trkpt lat="44.10293" lon="3.89384">
        <ele>195.8</ele>
      </trkpt>
      <trkpt lat="44.10324" lon="3.89321">
        <ele>197.2</ele>
      </trkpt>
      <trkpt lat="44.10333" lon="3.89298">
        <ele>196.5</ele>
      </trkpt>
      <trkpt lat="44.1034" lon="3.89281">
        <ele>200</ele>
      </trkpt>
      <trkpt lat="44.1037" lon="3.89214">
        <ele>201.9</ele>
      </trkpt>
      <trkpt lat="44.10376" lon="3.89198">
        <ele>202.6</ele>
      </trkpt>
      <trkpt lat="44.10387" lon="3.89174">
        <ele>203.6</ele>
      </trkpt>
      <trkpt lat="44.10404" lon="3.89137">
        <ele>205.4</ele>
      </trkpt>
      <trkpt lat="44.10407" lon="3.8913">
        <ele>205.4</ele>
      </trkpt>
      <trkpt lat="44.10411" lon="3.89123">
        <ele>205.4</ele>
      </trkpt>
      <trkpt lat="44.10424" lon="3.891">
        <ele>206.6</ele>
      </trkpt>
      <trkpt lat="44.10435" lon="3.89081">
        <ele>205.3</ele>
      </trkpt>
      <trkpt lat="44.1044" lon="3.89075">
        <ele>205.2</ele>
      </trkpt>
      <trkpt lat="44.10453" lon="3.89059">
        <ele>204.8</ele>
      </trkpt>
      <trkpt lat="44.10457" lon="3.89054">
        <ele>204.7</ele>
      </trkpt>
      <trkpt lat="44.10466" lon="3.89043">
        <ele>204.4</ele>
      </trkpt>
      <trkpt lat="44.10494" lon="3.89011">
        <ele>202.4</ele>
      </trkpt>
      <trkpt lat="44.10504" lon="3.88999">
        <ele>201</ele>
      </trkpt>
      <trkpt lat="44.10528" lon="3.88966">
        <ele>200.8</ele>
      </trkpt>
      <trkpt lat="44.10546" lon="3.88938">
        <ele>200.6</ele>
      </trkpt>
      <trkpt lat="44.10547" lon="3.88936">
        <ele>200.6</ele>
        <extensions>
          <visugpx:TrkExtension xmlns:visugpx="https://www.visugpx.com/editgpx/">
            <visugpx:node>2</visugpx:node>
            </visugpx:TrkExtension>
        </extensions>
      </trkpt>
      <trkpt lat="44.1055" lon="3.88932">
        <ele>200.6</ele>
      </trkpt>
      <trkpt lat="44.10557" lon="3.8892">
        <ele>200.6</ele>
      </trkpt>
      <trkpt lat="44.10563" lon="3.88908">
        <ele>198.2</ele>
      </trkpt>
      <trkpt lat="44.10575" lon="3.8888">
        <ele>197.1</ele>
      </trkpt>
      <trkpt lat="44.10591" lon="3.88828">
        <ele>194.9</ele>
      </trkpt>
      <trkpt lat="44.1061" lon="3.88758">
        <ele>193.9</ele>
      </trkpt>
      <trkpt lat="44.10614" lon="3.88744">
        <ele>193.6</ele>
      </trkpt>
      <trkpt lat="44.10624" lon="3.88709">
        <ele>194.2</ele>
      </trkpt>
      <trkpt lat="44.10628" lon="3.88697">
        <ele>194.4</ele>
      </trkpt>
      <trkpt lat="44.10647" lon="3.88634">
        <ele>195.3</ele>
      </trkpt>
      <trkpt lat="44.10649" lon="3.88628">
        <ele>195.2</ele>
      </trkpt>
      <trkpt lat="44.1066" lon="3.88597">
        <ele>195.4</ele>
      </trkpt>
      <trkpt lat="44.10661" lon="3.88594">
        <ele>195.5</ele>
        <extensions>
          <visugpx:TrkExtension xmlns:visugpx="https://www.visugpx.com/editgpx/">
            <visugpx:node>3</visugpx:node>
            </visugpx:TrkExtension>
        </extensions>
      </trkpt>
      <trkpt lat="44.1066" lon="3.88597">
        <ele>195.4</ele>
      </trkpt>
      <trkpt lat="44.1067" lon="3.88623">
        <ele>199.6</ele>
      </trkpt>
      <trkpt lat="44.10671" lon="3.88626">
        <ele>199.7</ele>
      </trkpt>
      <trkpt lat="44.1069" lon="3.88679">
        <ele>200.1</ele>
      </trkpt>
      <trkpt lat="44.10704" lon="3.88721">
        <ele>200.2</ele>
      </trkpt>
      <trkpt lat="44.10712" lon="3.88742">
        <ele>200.2</ele>
      </trkpt>
      <trkpt lat="44.10729" lon="3.88767">
        <ele>199.3</ele>
      </trkpt>
      <trkpt lat="44.10734" lon="3.88772">
        <ele>199.4</ele>
      </trkpt>
      <trkpt lat="44.10736" lon="3.88774">
        <ele>199.4</ele>
      </trkpt>
      <trkpt lat="44.10742" lon="3.8878">
        <ele>199.3</ele>
      </trkpt>
      <trkpt lat="44.10747" lon="3.88783">
        <ele>199.3</ele>
      </trkpt>
      <trkpt lat="44.10758" lon="3.88783">
        <ele>202.4</ele>
      </trkpt>
      <trkpt lat="44.10767" lon="3.88781">
        <ele>202.6</ele>
      </trkpt>
      <trkpt lat="44.10769" lon="3.8879">
        <ele>202.4</ele>
      </trkpt>
      <trkpt lat="44.10788" lon="3.88863">
        <ele>202.8</ele>
      </trkpt>
      <trkpt lat="44.10793" lon="3.8889">
        <ele>203.7</ele>
      </trkpt>
      <trkpt lat="44.10797" lon="3.88942">
        <ele>209</ele>
      </trkpt>
      <trkpt lat="44.10803" lon="3.89008">
        <ele>216.8</ele>
      </trkpt>
      <trkpt lat="44.10806" lon="3.89029">
        <ele>218.1</ele>
      </trkpt>
      <trkpt lat="44.10828" lon="3.89098">
        <ele>226.7</ele>
      </trkpt>
      <trkpt lat="44.10845" lon="3.89129">
        <ele>225.2</ele>
      </trkpt>
      <trkpt lat="44.10851" lon="3.8915">
        <ele>226.7</ele>
      </trkpt>
      <trkpt lat="44.10852" lon="3.89166">
        <ele>227.7</ele>
      </trkpt>
      <trkpt lat="44.10856" lon="3.89184">
        <ele>230.9</ele>
      </trkpt>
      <trkpt lat="44.10874" lon="3.89222">
        <ele>230.9</ele>
      </trkpt>
      <trkpt lat="44.10877" lon="3.89246">
        <ele>231.4</ele>
      </trkpt>
      <trkpt lat="44.10873" lon="3.8927">
        <ele>235.3</ele>
      </trkpt>
      <trkpt lat="44.10869" lon="3.89284">
        <ele>235.8</ele>
      </trkpt>
      <trkpt lat="44.10863" lon="3.89294">
        <ele>236.2</ele>
      </trkpt>
      <trkpt lat="44.10861" lon="3.89302">
        <ele>236.5</ele>
      </trkpt>
      <trkpt lat="44.10862" lon="3.89312">
        <ele>236.7</ele>
      </trkpt>
      <trkpt lat="44.10865" lon="3.89325">
        <ele>236.8</ele>
      </trkpt>
      <trkpt lat="44.10876" lon="3.89353">
        <ele>239.6</ele>
      </trkpt>
      <trkpt lat="44.10887" lon="3.89387">
        <ele>240.3</ele>
      </trkpt>
      <trkpt lat="44.10897" lon="3.89494">
        <ele>249.9</ele>
      </trkpt>
      <trkpt lat="44.10913" lon="3.89539">
        <ele>258.4</ele>
      </trkpt>
      <trkpt lat="44.10932" lon="3.89572">
        <ele>256.3</ele>
      </trkpt>
      <trkpt lat="44.10957" lon="3.89624">
        <ele>262.5</ele>
      </trkpt>
      <trkpt lat="44.10962" lon="3.89638">
        <ele>263.1</ele>
      </trkpt>
      <trkpt lat="44.11002" lon="3.89712">
        <ele>275.4</ele>
      </trkpt>
      <trkpt lat="44.11007" lon="3.89718">
        <ele>276.5</ele>
      </trkpt>
      <trkpt lat="44.11012" lon="3.89718">
        <ele>276.5</ele>
        <extensions>
          <visugpx:TrkExtension xmlns:visugpx="https://www.visugpx.com/editgpx/">
            <visugpx:node>4</visugpx:node>
            </visugpx:TrkExtension>
        </extensions>
      </trkpt>
      <trkpt lat="44.11013" lon="3.89718">
        <ele>276.5</ele>
      </trkpt>
      <trkpt lat="44.11019" lon="3.89715">
        <ele>276.1</ele>
      </trkpt>
      <trkpt lat="44.11036" lon="3.89695">
        <ele>274.3</ele>
      </trkpt>
      <trkpt lat="44.11045" lon="3.89693">
        <ele>274.6</ele>
      </trkpt>
      <trkpt lat="44.11052" lon="3.89696">
        <ele>275.2</ele>
      </trkpt>
      <trkpt lat="44.11107" lon="3.89739">
        <ele>286</ele>
      </trkpt>
      <trkpt lat="44.11109" lon="3.89744">
        <ele>286.3</ele>
      </trkpt>
      <trkpt lat="44.11109" lon="3.89748">
        <ele>286.4</ele>
      </trkpt>
      <trkpt lat="44.11107" lon="3.8975">
        <ele>289.3</ele>
      </trkpt>
      <trkpt lat="44.11102" lon="3.89749">
        <ele>286.3</ele>
      </trkpt>
      <trkpt lat="44.11095" lon="3.89744">
        <ele>286.2</ele>
      </trkpt>
      <trkpt lat="44.11066" lon="3.89734">
        <ele>280.4</ele>
      </trkpt>
      <trkpt lat="44.1106" lon="3.89732">
        <ele>279.6</ele>
      </trkpt>
      <trkpt lat="44.11058" lon="3.89734">
        <ele>279.6</ele>
      </trkpt>
      <trkpt lat="44.11058" lon="3.89739">
        <ele>280.1</ele>
      </trkpt>
      <trkpt lat="44.11059" lon="3.89742">
        <ele>280.4</ele>
      </trkpt>
      <trkpt lat="44.11071" lon="3.89746">
        <ele>282.8</ele>
      </trkpt>
      <trkpt lat="44.11089" lon="3.8976">
        <ele>292.5</ele>
      </trkpt>
      <trkpt lat="44.11099" lon="3.89775">
        <ele>297.7</ele>
      </trkpt>
      <trkpt lat="44.11107" lon="3.89781">
        <ele>299.3</ele>
      </trkpt>
      <trkpt lat="44.11114" lon="3.89782">
        <ele>299.7</ele>
      </trkpt>
      <trkpt lat="44.11122" lon="3.8978">
        <ele>299.8</ele>
      </trkpt>
      <trkpt lat="44.11137" lon="3.89771">
        <ele>299.1</ele>
      </trkpt>
      <trkpt lat="44.11152" lon="3.89775">
        <ele>299.4</ele>
      </trkpt>
      <trkpt lat="44.11161" lon="3.89774">
        <ele>299.1</ele>
      </trkpt>
      <trkpt lat="44.11168" lon="3.89777">
        <ele>297.8</ele>
      </trkpt>
      <trkpt lat="44.11173" lon="3.89786">
        <ele>298.7</ele>
      </trkpt>
      <trkpt lat="44.11176" lon="3.89795">
        <ele>299.7</ele>
      </trkpt>
      <trkpt lat="44.11177" lon="3.89804">
        <ele>300.9</ele>
      </trkpt>
      <trkpt lat="44.11174" lon="3.89827">
        <ele>305.4</ele>
      </trkpt>
      <trkpt lat="44.1118" lon="3.8984">
        <ele>312</ele>
      </trkpt>
      <trkpt lat="44.11186" lon="3.89844">
        <ele>312.8</ele>
      </trkpt>
      <trkpt lat="44.11235" lon="3.89864">
        <ele>312.2</ele>
      </trkpt>
      <trkpt lat="44.11277" lon="3.89886">
        <ele>304.7</ele>
      </trkpt>
      <trkpt lat="44.11284" lon="3.89899">
        <ele>305.3</ele>
      </trkpt>
      <trkpt lat="44.1129" lon="3.89921">
        <ele>316.4</ele>
      </trkpt>
      <trkpt lat="44.11314" lon="3.89959">
        <ele>316.4</ele>
      </trkpt>
      <trkpt lat="44.1132" lon="3.89964">
        <ele>316.2</ele>
      </trkpt>
      <trkpt lat="44.11339" lon="3.89959">
        <ele>306.7</ele>
      </trkpt>
      <trkpt lat="44.11351" lon="3.89963">
        <ele>306.9</ele>
      </trkpt>
      <trkpt lat="44.11356" lon="3.8997">
        <ele>307.1</ele>
      </trkpt>
      <trkpt lat="44.11353" lon="3.89978">
        <ele>307.7</ele>
      </trkpt>
      <trkpt lat="44.11351" lon="3.8999">
        <ele>308.8</ele>
      </trkpt>
      <trkpt lat="44.11331" lon="3.90034">
        <ele>323.2</ele>
      </trkpt>
      <trkpt lat="44.11322" lon="3.9005">
        <ele>324.2</ele>
      </trkpt>
      <trkpt lat="44.11319" lon="3.90058">
        <ele>324</ele>
      </trkpt>
      <trkpt lat="44.11317" lon="3.90068">
        <ele>323.2</ele>
      </trkpt>
      <trkpt lat="44.11323" lon="3.90081">
        <ele>319</ele>
      </trkpt>
      <trkpt lat="44.11329" lon="3.90084">
        <ele>316.6</ele>
      </trkpt>
      <trkpt lat="44.1134" lon="3.90093">
        <ele>311.3</ele>
      </trkpt>
      <trkpt lat="44.11367" lon="3.90124">
        <ele>309.3</ele>
      </trkpt>
      <trkpt lat="44.11386" lon="3.90162">
        <ele>309.6</ele>
      </trkpt>
      <trkpt lat="44.11391" lon="3.90164">
        <ele>309.2</ele>
      </trkpt>
      <trkpt lat="44.11433" lon="3.90151">
        <ele>298.9</ele>
      </trkpt>
      <trkpt lat="44.1145" lon="3.90157">
        <ele>296.7</ele>
      </trkpt>
      <trkpt lat="44.11458" lon="3.90163">
        <ele>296</ele>
      </trkpt>
      <trkpt lat="44.1147" lon="3.9018">
        <ele>306.1</ele>
      </trkpt>
      <trkpt lat="44.11506" lon="3.90243">
        <ele>304.5</ele>
      </trkpt>
      <trkpt lat="44.11523" lon="3.90283">
        <ele>303.5</ele>
      </trkpt>
      <trkpt lat="44.1153" lon="3.90323">
        <ele>305</ele>
      </trkpt>
      <trkpt lat="44.11537" lon="3.90356">
        <ele>304.8</ele>
        <extensions>
          <visugpx:TrkExtension xmlns:visugpx="https://www.visugpx.com/editgpx/">
            <visugpx:node>5</visugpx:node>
            </visugpx:TrkExtension>
        </extensions>
      </trkpt>
      <trkpt lat="44.11538" lon="3.90363">
        <ele>304.5</ele>
      </trkpt>
      <trkpt lat="44.11537" lon="3.90372">
        <ele>304.6</ele>
      </trkpt>
      <trkpt lat="44.11534" lon="3.9038">
        <ele>305.2</ele>
      </trkpt>
      <trkpt lat="44.11525" lon="3.90392">
        <ele>307.2</ele>
      </trkpt>
      <trkpt lat="44.11516" lon="3.90409">
        <ele>311</ele>
      </trkpt>
      <trkpt lat="44.11502" lon="3.90436">
        <ele>311.7</ele>
      </trkpt>
      <trkpt lat="44.11499" lon="3.90447">
        <ele>329.3</ele>
      </trkpt>
      <trkpt lat="44.11497" lon="3.9046">
        <ele>330</ele>
      </trkpt>
      <trkpt lat="44.11499" lon="3.90472">
        <ele>329</ele>
      </trkpt>
      <trkpt lat="44.11504" lon="3.90492">
        <ele>314.6</ele>
      </trkpt>
      <trkpt lat="44.11523" lon="3.90554">
        <ele>313</ele>
      </trkpt>
      <trkpt lat="44.11529" lon="3.90581">
        <ele>314</ele>
      </trkpt>
      <trkpt lat="44.11529" lon="3.9059">
        <ele>318.4</ele>
      </trkpt>
      <trkpt lat="44.11527" lon="3.90599">
        <ele>318.8</ele>
      </trkpt>
      <trkpt lat="44.11517" lon="3.9061">
        <ele>320.4</ele>
      </trkpt>
      <trkpt lat="44.11507" lon="3.90623">
        <ele>321.7</ele>
      </trkpt>
      <trkpt lat="44.11502" lon="3.90636">
        <ele>323.7</ele>
      </trkpt>
      <trkpt lat="44.11502" lon="3.90643">
        <ele>325.2</ele>
      </trkpt>
      <trkpt lat="44.11504" lon="3.90647">
        <ele>326.1</ele>
      </trkpt>
      <trkpt lat="44.11517" lon="3.9067">
        <ele>330.5</ele>
      </trkpt>
      <trkpt lat="44.11534" lon="3.90718">
        <ele>327.6</ele>
      </trkpt>
      <trkpt lat="44.11542" lon="3.90744">
        <ele>327.2</ele>
      </trkpt>
      <trkpt lat="44.11545" lon="3.90774">
        <ele>335.4</ele>
      </trkpt>
      <trkpt lat="44.11548" lon="3.90786">
        <ele>335.7</ele>
      </trkpt>
      <trkpt lat="44.11562" lon="3.90817">
        <ele>334.6</ele>
      </trkpt>
      <trkpt lat="44.1158" lon="3.90849">
        <ele>339</ele>
      </trkpt>
      <trkpt lat="44.11582" lon="3.90864">
        <ele>343.9</ele>
      </trkpt>
      <trkpt lat="44.11601" lon="3.90917">
        <ele>335.7</ele>
      </trkpt>
      <trkpt lat="44.11609" lon="3.90935">
        <ele>332.1</ele>
      </trkpt>
      <trkpt lat="44.11609" lon="3.90967">
        <ele>331.5</ele>
      </trkpt>
      <trkpt lat="44.11602" lon="3.90998">
        <ele>336.3</ele>
      </trkpt>
      <trkpt lat="44.11595" lon="3.91008">
        <ele>337.8</ele>
      </trkpt>
      <trkpt lat="44.11588" lon="3.91028">
        <ele>334.3</ele>
      </trkpt>
      <trkpt lat="44.11587" lon="3.91048">
        <ele>333.2</ele>
      </trkpt>
      <trkpt lat="44.1159" lon="3.91121">
        <ele>334.1</ele>
      </trkpt>
      <trkpt lat="44.11586" lon="3.91143">
        <ele>336.8</ele>
      </trkpt>
      <trkpt lat="44.11586" lon="3.91159">
        <ele>342.5</ele>
      </trkpt>
      <trkpt lat="44.11589" lon="3.9117">
        <ele>345</ele>
      </trkpt>
      <trkpt lat="44.116" lon="3.9119">
        <ele>339.6</ele>
      </trkpt>
      <trkpt lat="44.11607" lon="3.91209">
        <ele>338.6</ele>
      </trkpt>
      <trkpt lat="44.11613" lon="3.91218">
        <ele>338.1</ele>
      </trkpt>
      <trkpt lat="44.1163" lon="3.91276">
        <ele>341.6</ele>
      </trkpt>
      <trkpt lat="44.11638" lon="3.91312">
        <ele>341.5</ele>
      </trkpt>
      <trkpt lat="44.11651" lon="3.91342">
        <ele>340.6</ele>
      </trkpt>
      <trkpt lat="44.11657" lon="3.91398">
        <ele>342</ele>
      </trkpt>
      <trkpt lat="44.1167" lon="3.91459">
        <ele>319.7</ele>
      </trkpt>
      <trkpt lat="44.11678" lon="3.91484">
        <ele>322</ele>
      </trkpt>
      <trkpt lat="44.11684" lon="3.91498">
        <ele>322.2</ele>
      </trkpt>
      <trkpt lat="44.11686" lon="3.91516">
        <ele>323</ele>
      </trkpt>
      <trkpt lat="44.11706" lon="3.91579">
        <ele>320.3</ele>
      </trkpt>
      <trkpt lat="44.11719" lon="3.9161">
        <ele>325.5</ele>
      </trkpt>
      <trkpt lat="44.11736" lon="3.91636">
        <ele>324.6</ele>
      </trkpt>
      <trkpt lat="44.11762" lon="3.91686">
        <ele>309.1</ele>
      </trkpt>
      <trkpt lat="44.11774" lon="3.91705">
        <ele>306.5</ele>
      </trkpt>
      <trkpt lat="44.11781" lon="3.91729">
        <ele>306.8</ele>
      </trkpt>
      <trkpt lat="44.11779" lon="3.91746">
        <ele>308.9</ele>
        <extensions>
          <visugpx:TrkExtension xmlns:visugpx="https://www.visugpx.com/editgpx/">
            <visugpx:node>6</visugpx:node>
            </visugpx:TrkExtension>
        </extensions>
      </trkpt>
      <trkpt lat="44.11779" lon="3.91749">
        <ele>309.1</ele>
      </trkpt>
      <trkpt lat="44.11767" lon="3.91801">
        <ele>307</ele>
      </trkpt>
      <trkpt lat="44.11761" lon="3.91831">
        <ele>311.8</ele>
      </trkpt>
      <trkpt lat="44.11762" lon="3.91851">
        <ele>302</ele>
      </trkpt>
      <trkpt lat="44.11756" lon="3.9187">
        <ele>298</ele>
      </trkpt>
      <trkpt lat="44.11746" lon="3.91891">
        <ele>326.7</ele>
      </trkpt>
      <trkpt lat="44.11742" lon="3.91908">
        <ele>318.4</ele>
      </trkpt>
      <trkpt lat="44.11739" lon="3.91945">
        <ele>320.9</ele>
      </trkpt>
      <trkpt lat="44.11742" lon="3.91952">
        <ele>320.7</ele>
      </trkpt>
      <trkpt lat="44.11744" lon="3.91972">
        <ele>317.3</ele>
      </trkpt>
      <trkpt lat="44.11738" lon="3.91982">
        <ele>315.3</ele>
      </trkpt>
      <trkpt lat="44.11741" lon="3.92027">
        <ele>313.1</ele>
      </trkpt>
      <trkpt lat="44.11743" lon="3.92134">
        <ele>302.3</ele>
      </trkpt>
      <trkpt lat="44.1174" lon="3.92149">
        <ele>297.5</ele>
      </trkpt>
      <trkpt lat="44.11722" lon="3.92205">
        <ele>287.6</ele>
      </trkpt>
      <trkpt lat="44.11697" lon="3.92256">
        <ele>273.5</ele>
      </trkpt>
      <trkpt lat="44.11682" lon="3.92269">
        <ele>277.9</ele>
      </trkpt>
      <trkpt lat="44.11666" lon="3.92288">
        <ele>304.4</ele>
      </trkpt>
      <trkpt lat="44.1165" lon="3.92303">
        <ele>303.1</ele>
      </trkpt>
      <trkpt lat="44.11646" lon="3.92317">
        <ele>299.8</ele>
      </trkpt>
      <trkpt lat="44.11637" lon="3.92328">
        <ele>302.6</ele>
      </trkpt>
      <trkpt lat="44.11633" lon="3.9234">
        <ele>294</ele>
      </trkpt>
      <trkpt lat="44.11637" lon="3.92354">
        <ele>292.2</ele>
      </trkpt>
      <trkpt lat="44.11654" lon="3.92426">
        <ele>265.3</ele>
      </trkpt>
      <trkpt lat="44.11657" lon="3.92455">
        <ele>268.1</ele>
      </trkpt>
      <trkpt lat="44.11651" lon="3.92483">
        <ele>261.6</ele>
      </trkpt>
      <trkpt lat="44.11638" lon="3.92517">
        <ele>253.5</ele>
      </trkpt>
      <trkpt lat="44.1162" lon="3.92556">
        <ele>256.4</ele>
      </trkpt>
      <trkpt lat="44.116" lon="3.92594">
        <ele>253.5</ele>
      </trkpt>
      <trkpt lat="44.11588" lon="3.92608">
        <ele>252.7</ele>
      </trkpt>
      <trkpt lat="44.11583" lon="3.92621">
        <ele>285.7</ele>
      </trkpt>
      <trkpt lat="44.11585" lon="3.92633">
        <ele>249.1</ele>
      </trkpt>
      <trkpt lat="44.11593" lon="3.92645">
        <ele>249.1</ele>
      </trkpt>
      <trkpt lat="44.11603" lon="3.92656">
        <ele>247.4</ele>
      </trkpt>
      <trkpt lat="44.11611" lon="3.92669">
        <ele>240.4</ele>
      </trkpt>
      <trkpt lat="44.11613" lon="3.92686">
        <ele>238</ele>
      </trkpt>
      <trkpt lat="44.11613" lon="3.92705">
        <ele>237.2</ele>
      </trkpt>
      <trkpt lat="44.11609" lon="3.9274">
        <ele>242.9</ele>
      </trkpt>
      <trkpt lat="44.1161" lon="3.92794">
        <ele>240.8</ele>
      </trkpt>
      <trkpt lat="44.11615" lon="3.92814">
        <ele>240.1</ele>
      </trkpt>
      <trkpt lat="44.11614" lon="3.9285">
        <ele>241</ele>
      </trkpt>
      <trkpt lat="44.11628" lon="3.92919">
        <ele>231.3</ele>
      </trkpt>
      <trkpt lat="44.1163" lon="3.92941">
        <ele>230.7</ele>
      </trkpt>
      <trkpt lat="44.11633" lon="3.9308">
        <ele>226.7</ele>
      </trkpt>
      <trkpt lat="44.11629" lon="3.93172">
        <ele>216.5</ele>
      </trkpt>
      <trkpt lat="44.11626" lon="3.93213">
        <ele>215.2</ele>
      </trkpt>
      <trkpt lat="44.1162" lon="3.93243">
        <ele>215</ele>
      </trkpt>
      <trkpt lat="44.11604" lon="3.93283">
        <ele>207.2</ele>
      </trkpt>
      <trkpt lat="44.1159" lon="3.93297">
        <ele>206.6</ele>
      </trkpt>
      <trkpt lat="44.11574" lon="3.93301">
        <ele>220.3</ele>
      </trkpt>
      <trkpt lat="44.11558" lon="3.93297">
        <ele>222.6</ele>
      </trkpt>
      <trkpt lat="44.11547" lon="3.93297">
        <ele>223.9</ele>
      </trkpt>
      <trkpt lat="44.11541" lon="3.93304">
        <ele>224</ele>
      </trkpt>
      <trkpt lat="44.11539" lon="3.93318">
        <ele>223.3</ele>
      </trkpt>
      <trkpt lat="44.11543" lon="3.93361">
        <ele>214.4</ele>
      </trkpt>
      <trkpt lat="44.11543" lon="3.9339">
        <ele>213.2</ele>
      </trkpt>
      <trkpt lat="44.11537" lon="3.93412">
        <ele>213.5</ele>
      </trkpt>
      <trkpt lat="44.11528" lon="3.93429">
        <ele>210.8</ele>
      </trkpt>
      <trkpt lat="44.11506" lon="3.93457">
        <ele>209.9</ele>
      </trkpt>
      <trkpt lat="44.11495" lon="3.93474">
        <ele>215.4</ele>
      </trkpt>
      <trkpt lat="44.1146" lon="3.93545">
        <ele>204.9</ele>
      </trkpt>
      <trkpt lat="44.11444" lon="3.93568">
        <ele>203.7</ele>
      </trkpt>
      <trkpt lat="44.11405" lon="3.9361">
        <ele>196.3</ele>
      </trkpt>
      <trkpt lat="44.11371" lon="3.93633">
        <ele>194.2</ele>
      </trkpt>
      <trkpt lat="44.11343" lon="3.93653">
        <ele>191.1</ele>
      </trkpt>
      <trkpt lat="44.11335" lon="3.93664">
        <ele>188</ele>
      </trkpt>
      <trkpt lat="44.11325" lon="3.93686">
        <ele>184.7</ele>
      </trkpt>
      <trkpt lat="44.11312" lon="3.93713">
        <ele>181.9</ele>
      </trkpt>
      <trkpt lat="44.113" lon="3.93727">
        <ele>181</ele>
      </trkpt>
      <trkpt lat="44.11284" lon="3.93743">
        <ele>180.5</ele>
      </trkpt>
      <trkpt lat="44.11257" lon="3.93764">
        <ele>172.6</ele>
      </trkpt>
      <trkpt lat="44.11216" lon="3.93784">
        <ele>172.4</ele>
      </trkpt>
      <trkpt lat="44.11207" lon="3.9379">
        <ele>172</ele>
        <extensions>
          <visugpx:TrkExtension xmlns:visugpx="https://www.visugpx.com/editgpx/">
            <visugpx:node>7</visugpx:node>
            </visugpx:TrkExtension>
        </extensions>
      </trkpt>
      <trkpt lat="44.11183" lon="3.93805">
        <ele>170.2</ele>
      </trkpt>
      <trkpt lat="44.11177" lon="3.93813">
        <ele>168.7</ele>
      </trkpt>
      <trkpt lat="44.11172" lon="3.93931">
        <ele>170.9</ele>
      </trkpt>
      <trkpt lat="44.11173" lon="3.93935">
        <ele>172</ele>
      </trkpt>
      <trkpt lat="44.11134" lon="3.94022">
        <ele>177</ele>
      </trkpt>
      <trkpt lat="44.11129" lon="3.94083">
        <ele>178.1</ele>
      </trkpt>
      <trkpt lat="44.11149" lon="3.94101">
        <ele>182.6</ele>
      </trkpt>
      <trkpt lat="44.11156" lon="3.94125">
        <ele>182.5</ele>
      </trkpt>
      <trkpt lat="44.11163" lon="3.94149">
        <ele>185</ele>
      </trkpt>
      <trkpt lat="44.11158" lon="3.94218">
        <ele>186.8</ele>
      </trkpt>
      <trkpt lat="44.11157" lon="3.9422">
        <ele>186.9</ele>
      </trkpt>
      <trkpt lat="44.11145" lon="3.94243">
        <ele>187.5</ele>
      </trkpt>
      <trkpt lat="44.11136" lon="3.94255">
        <ele>187.6</ele>
      </trkpt>
      <trkpt lat="44.11132" lon="3.94263">
        <ele>186.9</ele>
      </trkpt>
      <trkpt lat="44.11128" lon="3.94266">
        <ele>186.4</ele>
      </trkpt>
      <trkpt lat="44.11123" lon="3.94269">
        <ele>185.8</ele>
      </trkpt>
      <trkpt lat="44.11119" lon="3.94276">
        <ele>185.3</ele>
      </trkpt>
      <trkpt lat="44.11121" lon="3.94286">
        <ele>185.6</ele>
      </trkpt>
      <trkpt lat="44.11121" lon="3.94296">
        <ele>185.6</ele>
      </trkpt>
      <trkpt lat="44.11121" lon="3.94316">
        <ele>185.5</ele>
      </trkpt>
      <trkpt lat="44.11119" lon="3.94332">
        <ele>185</ele>
      </trkpt>
      <trkpt lat="44.11116" lon="3.94346">
        <ele>186</ele>
      </trkpt>
      <trkpt lat="44.1111" lon="3.9436">
        <ele>185.7</ele>
      </trkpt>
      <trkpt lat="44.11101" lon="3.94375">
        <ele>185.4</ele>
      </trkpt>
      <trkpt lat="44.11099" lon="3.94426">
        <ele>186.5</ele>
      </trkpt>
      <trkpt lat="44.11099" lon="3.94439">
        <ele>188.3</ele>
      </trkpt>
      <trkpt lat="44.11087" lon="3.9449">
        <ele>185.4</ele>
      </trkpt>
      <trkpt lat="44.11083" lon="3.94512">
        <ele>179.2</ele>
      </trkpt>
      <trkpt lat="44.11073" lon="3.9455">
        <ele>179</ele>
      </trkpt>
      <trkpt lat="44.11057" lon="3.94599">
        <ele>182.3</ele>
      </trkpt>
      <trkpt lat="44.11045" lon="3.94641">
        <ele>181.9</ele>
      </trkpt>
      <trkpt lat="44.11032" lon="3.94678">
        <ele>181.7</ele>
      </trkpt>
      <trkpt lat="44.11021" lon="3.94702">
        <ele>180.7</ele>
      </trkpt>
      <trkpt lat="44.11021" lon="3.94707">
        <ele>180.8</ele>
      </trkpt>
      <trkpt lat="44.11023" lon="3.94721">
        <ele>180.7</ele>
      </trkpt>
      <trkpt lat="44.11023" lon="3.94752">
        <ele>177.1</ele>
      </trkpt>
      <trkpt lat="44.11025" lon="3.94763">
        <ele>177.7</ele>
      </trkpt>
      <trkpt lat="44.11042" lon="3.9479">
        <ele>179.4</ele>
      </trkpt>
      <trkpt lat="44.11051" lon="3.94807">
        <ele>179</ele>
      </trkpt>
      <trkpt lat="44.11061" lon="3.94842">
        <ele>176.4</ele>
      </trkpt>
      <trkpt lat="44.11079" lon="3.94868">
        <ele>176.1</ele>
      </trkpt>
      <trkpt lat="44.11188" lon="3.94974">
        <ele>183.9</ele>
      </trkpt>
      <trkpt lat="44.11192" lon="3.94977">
        <ele>184</ele>
      </trkpt>
      <trkpt lat="44.11204" lon="3.94985">
        <ele>184.1</ele>
      </trkpt>
      <trkpt lat="44.11235" lon="3.94999">
        <ele>182.8</ele>
      </trkpt>
      <trkpt lat="44.11234" lon="3.95001">
        <ele>184.3</ele>
      </trkpt>
      <trkpt lat="44.11229" lon="3.9502">
        <ele>186.8</ele>
      </trkpt>
      <trkpt lat="44.11229" lon="3.95023">
        <ele>187.2</ele>
      </trkpt>
      <trkpt lat="44.11267" lon="3.95067">
        <ele>189</ele>
      </trkpt>
      <trkpt lat="44.11306" lon="3.95093">
        <ele>196.4</ele>
      </trkpt>
      <trkpt lat="44.11324" lon="3.95116">
        <ele>198.8</ele>
      </trkpt>
      <trkpt lat="44.11362" lon="3.95195">
        <ele>205.5</ele>
      </trkpt>
      <trkpt lat="44.1137" lon="3.95207">
        <ele>205.5</ele>
      </trkpt>
      <trkpt lat="44.11368" lon="3.95214">
        <ele>206.6</ele>
      </trkpt>
      <trkpt lat="44.11338" lon="3.95179">
        <ele>207.1</ele>
      </trkpt>
      <trkpt lat="44.11328" lon="3.95175">
        <ele>215.7</ele>
      </trkpt>
      <trkpt lat="44.11328" lon="3.95183">
        <ele>219.7</ele>
      </trkpt>
      <trkpt lat="44.11348" lon="3.95213">
        <ele>209.7</ele>
      </trkpt>
      <trkpt lat="44.11345" lon="3.95218">
        <ele>211.2</ele>
      </trkpt>
      <trkpt lat="44.11323" lon="3.95202">
        <ele>226.6</ele>
      </trkpt>
      <trkpt lat="44.11335" lon="3.95234">
        <ele>218.2</ele>
      </trkpt>
      <trkpt lat="44.11338" lon="3.9525">
        <ele>228.2</ele>
      </trkpt>
      <trkpt lat="44.11321" lon="3.95373">
        <ele>263.1</ele>
      </trkpt>
      <trkpt lat="44.11307" lon="3.95481">
        <ele>274.2</ele>
      </trkpt>
      <trkpt lat="44.113" lon="3.95549">
        <ele>279.5</ele>
      </trkpt>
      <trkpt lat="44.11296" lon="3.95572">
        <ele>280.3</ele>
      </trkpt>
      <trkpt lat="44.11278" lon="3.95602">
        <ele>287.2</ele>
      </trkpt>
      <trkpt lat="44.11258" lon="3.95615">
        <ele>289.1</ele>
      </trkpt>
      <trkpt lat="44.11247" lon="3.95625">
        <ele>306.7</ele>
      </trkpt>
      <trkpt lat="44.11241" lon="3.95672">
        <ele>303.1</ele>
      </trkpt>
      <trkpt lat="44.11244" lon="3.95682">
        <ele>306</ele>
      </trkpt>
      <trkpt lat="44.11249" lon="3.95685">
        <ele>306.5</ele>
      </trkpt>
      <trkpt lat="44.11261" lon="3.95682">
        <ele>297.6</ele>
      </trkpt>
      <trkpt lat="44.11288" lon="3.95689">
        <ele>297.9</ele>
      </trkpt>
      <trkpt lat="44.11308" lon="3.95703">
        <ele>298.3</ele>
      </trkpt>
      <trkpt lat="44.11323" lon="3.95722">
        <ele>300.7</ele>
      </trkpt>
      <trkpt lat="44.11328" lon="3.95735">
        <ele>302.8</ele>
        <extensions>
          <visugpx:TrkExtension xmlns:visugpx="https://www.visugpx.com/editgpx/">
            <visugpx:node>9</visugpx:node>
            </visugpx:TrkExtension>
        </extensions>
      </trkpt>
      <trkpt lat="44.11338" lon="3.95763">
        <ele>313.5</ele>
      </trkpt>
      <trkpt lat="44.11351" lon="3.95809">
        <ele>323.9</ele>
      </trkpt>
      <trkpt lat="44.11359" lon="3.95815">
        <ele>324.8</ele>
      </trkpt>
      <trkpt lat="44.11365" lon="3.95812">
        <ele>324.8</ele>
      </trkpt>
      <trkpt lat="44.11381" lon="3.95794">
        <ele>324.3</ele>
      </trkpt>
      <trkpt lat="44.114" lon="3.95757">
        <ele>322.8</ele>
      </trkpt>
      <trkpt lat="44.11419" lon="3.95707">
        <ele>330</ele>
      </trkpt>
      <trkpt lat="44.1144" lon="3.9564">
        <ele>320.7</ele>
      </trkpt>
      <trkpt lat="44.11455" lon="3.95609">
        <ele>320.3</ele>
      </trkpt>
      <trkpt lat="44.11477" lon="3.95585">
        <ele>323.9</ele>
      </trkpt>
      <trkpt lat="44.11495" lon="3.95574">
        <ele>318.8</ele>
      </trkpt>
      <trkpt lat="44.11508" lon="3.95572">
        <ele>318.8</ele>
      </trkpt>
      <trkpt lat="44.11518" lon="3.95583">
        <ele>317.2</ele>
      </trkpt>
      <trkpt lat="44.11528" lon="3.95604">
        <ele>331.2</ele>
      </trkpt>
      <trkpt lat="44.1158" lon="3.95664">
        <ele>340.5</ele>
      </trkpt>
      <trkpt lat="44.11594" lon="3.957">
        <ele>334.2</ele>
      </trkpt>
      <trkpt lat="44.11614" lon="3.9581">
        <ele>349.1</ele>
      </trkpt>
      <trkpt lat="44.11651" lon="3.95909">
        <ele>357.3</ele>
      </trkpt>
      <trkpt lat="44.11668" lon="3.9595">
        <ele>361.1</ele>
      </trkpt>
      <trkpt lat="44.11684" lon="3.95984">
        <ele>366.9</ele>
      </trkpt>
      <trkpt lat="44.11701" lon="3.96002">
        <ele>380.6</ele>
      </trkpt>
      <trkpt lat="44.1171" lon="3.96002">
        <ele>380.7</ele>
      </trkpt>
      <trkpt lat="44.11733" lon="3.95989">
        <ele>367.2</ele>
      </trkpt>
      <trkpt lat="44.11794" lon="3.95941">
        <ele>365.2</ele>
      </trkpt>
      <trkpt lat="44.11809" lon="3.95934">
        <ele>364.8</ele>
      </trkpt>
      <trkpt lat="44.11821" lon="3.95935">
        <ele>364.7</ele>
      </trkpt>
      <trkpt lat="44.11834" lon="3.95941">
        <ele>366</ele>
      </trkpt>
      <trkpt lat="44.11871" lon="3.95967">
        <ele>370.3</ele>
      </trkpt>
      <trkpt lat="44.11932" lon="3.96001">
        <ele>388.3</ele>
      </trkpt>
      <trkpt lat="44.11977" lon="3.96016">
        <ele>392.2</ele>
      </trkpt>
      <trkpt lat="44.12067" lon="3.9603">
        <ele>398</ele>
      </trkpt>
      <trkpt lat="44.1211" lon="3.96033">
        <ele>407.2</ele>
      </trkpt>
      <trkpt lat="44.12124" lon="3.96031">
        <ele>408.5</ele>
      </trkpt>
      <trkpt lat="44.12204" lon="3.96006">
        <ele>420.6</ele>
      </trkpt>
      <trkpt lat="44.12203" lon="3.96014">
        <ele>421.2</ele>
      </trkpt>
      <trkpt lat="44.12165" lon="3.96054">
        <ele>416.2</ele>
      </trkpt>
      <trkpt lat="44.12124" lon="3.96105">
        <ele>423.8</ele>
      </trkpt>
      <trkpt lat="44.12117" lon="3.96127">
        <ele>423.5</ele>
      </trkpt>
      <trkpt lat="44.12128" lon="3.96116">
        <ele>424.2</ele>
      </trkpt>
      <trkpt lat="44.12183" lon="3.96085">
        <ele>433.7</ele>
      </trkpt>
      <trkpt lat="44.12236" lon="3.96064">
        <ele>432.9</ele>
      </trkpt>
      <trkpt lat="44.12264" lon="3.96056">
        <ele>435.5</ele>
      </trkpt>
      <trkpt lat="44.12279" lon="3.96058">
        <ele>435.1</ele>
      </trkpt>
      <trkpt lat="44.12296" lon="3.96064">
        <ele>435.6</ele>
      </trkpt>
      <trkpt lat="44.12306" lon="3.96074">
        <ele>437.2</ele>
      </trkpt>
      <trkpt lat="44.1234" lon="3.96131">
        <ele>442.8</ele>
      </trkpt>
      <trkpt lat="44.12372" lon="3.96167">
        <ele>448.9</ele>
      </trkpt>
      <trkpt lat="44.12406" lon="3.96196">
        <ele>447.3</ele>
      </trkpt>
      <trkpt lat="44.12439" lon="3.96218">
        <ele>441.8</ele>
      </trkpt>
      <trkpt lat="44.12461" lon="3.96229">
        <ele>440.8</ele>
      </trkpt>
      <trkpt lat="44.12505" lon="3.9624">
        <ele>435.5</ele>
      </trkpt>
      <trkpt lat="44.12533" lon="3.9625">
        <ele>429.4</ele>
      </trkpt>
      <trkpt lat="44.12583" lon="3.96274">
        <ele>431.7</ele>
      </trkpt>
      <trkpt lat="44.12598" lon="3.96279">
        <ele>428.4</ele>
      </trkpt>
      <trkpt lat="44.12626" lon="3.96282">
        <ele>427.9</ele>
      </trkpt>
      <trkpt lat="44.12661" lon="3.96281">
        <ele>426.9</ele>
      </trkpt>
      <trkpt lat="44.12667" lon="3.96281">
        <ele>426</ele>
        <extensions>
          <visugpx:TrkExtension xmlns:visugpx="https://www.visugpx.com/editgpx/">
            <visugpx:node>10</visugpx:node>
            </visugpx:TrkExtension>
        </extensions>
      </trkpt>
      <trkpt lat="44.12691" lon="3.96284">
        <ele>426.4</ele>
      </trkpt>
      <trkpt lat="44.12737" lon="3.96292">
        <ele>427</ele>
      </trkpt>
      <trkpt lat="44.12766" lon="3.96292">
        <ele>426.1</ele>
      </trkpt>
      <trkpt lat="44.128" lon="3.96289">
        <ele>425.5</ele>
      </trkpt>
      <trkpt lat="44.12841" lon="3.96276">
        <ele>424</ele>
      </trkpt>
      <trkpt lat="44.12872" lon="3.96262">
        <ele>424.5</ele>
      </trkpt>
      <trkpt lat="44.12936" lon="3.96256">
        <ele>430.9</ele>
      </trkpt>
      <trkpt lat="44.12946" lon="3.96257">
        <ele>432.8</ele>
      </trkpt>
      <trkpt lat="44.12954" lon="3.96264">
        <ele>434.2</ele>
      </trkpt>
      <trkpt lat="44.12962" lon="3.9628">
        <ele>435.7</ele>
      </trkpt>
      <trkpt lat="44.12969" lon="3.96305">
        <ele>437.8</ele>
      </trkpt>
      <trkpt lat="44.1297" lon="3.96338">
        <ele>440.7</ele>
      </trkpt>
      <trkpt lat="44.12973" lon="3.96356">
        <ele>440.4</ele>
      </trkpt>
      <trkpt lat="44.12983" lon="3.96398">
        <ele>442</ele>
      </trkpt>
      <trkpt lat="44.12985" lon="3.96429">
        <ele>441.8</ele>
      </trkpt>
      <trkpt lat="44.12984" lon="3.96456">
        <ele>438.8</ele>
      </trkpt>
      <trkpt lat="44.12985" lon="3.96467">
        <ele>438.7</ele>
      </trkpt>
      <trkpt lat="44.12995" lon="3.96487">
        <ele>441.2</ele>
      </trkpt>
      <trkpt lat="44.13001" lon="3.96493">
        <ele>446.4</ele>
      </trkpt>
      <trkpt lat="44.1301" lon="3.96497">
        <ele>446.9</ele>
      </trkpt>
      <trkpt lat="44.13017" lon="3.96494">
        <ele>447.8</ele>
      </trkpt>
      <trkpt lat="44.13026" lon="3.96487">
        <ele>448.8</ele>
      </trkpt>
      <trkpt lat="44.13032" lon="3.96475">
        <ele>449.7</ele>
      </trkpt>
      <trkpt lat="44.13036" lon="3.96456">
        <ele>451.2</ele>
      </trkpt>
      <trkpt lat="44.13043" lon="3.96399">
        <ele>458.8</ele>
      </trkpt>
      <trkpt lat="44.13054" lon="3.96353">
        <ele>461.1</ele>
      </trkpt>
      <trkpt lat="44.13062" lon="3.96334">
        <ele>463.4</ele>
      </trkpt>
      <trkpt lat="44.13066" lon="3.9633">
        <ele>460.6</ele>
      </trkpt>
      <trkpt lat="44.1307" lon="3.9633">
        <ele>462.1</ele>
      </trkpt>
      <trkpt lat="44.13081" lon="3.96349">
        <ele>465</ele>
      </trkpt>
      <trkpt lat="44.13087" lon="3.96357">
        <ele>470.5</ele>
      </trkpt>
      <trkpt lat="44.13101" lon="3.9636">
        <ele>470.9</ele>
      </trkpt>
      <trkpt lat="44.13111" lon="3.96357">
        <ele>471.4</ele>
      </trkpt>
      <trkpt lat="44.13178" lon="3.96323">
        <ele>482.9</ele>
      </trkpt>
      <trkpt lat="44.13192" lon="3.96318">
        <ele>483.7</ele>
      </trkpt>
      <trkpt lat="44.13215" lon="3.9632">
        <ele>487</ele>
      </trkpt>
      <trkpt lat="44.13238" lon="3.96316">
        <ele>491.2</ele>
      </trkpt>
      <trkpt lat="44.13296" lon="3.9633">
        <ele>508.5</ele>
      </trkpt>
      <trkpt lat="44.13359" lon="3.9636">
        <ele>519.9</ele>
      </trkpt>
      <trkpt lat="44.13379" lon="3.96363">
        <ele>521.4</ele>
      </trkpt>
      <trkpt lat="44.13417" lon="3.96365">
        <ele>527.8</ele>
      </trkpt>
      <trkpt lat="44.13434" lon="3.96371">
        <ele>527.1</ele>
      </trkpt>
      <trkpt lat="44.13462" lon="3.96391">
        <ele>527.1</ele>
      </trkpt>
      <trkpt lat="44.13483" lon="3.96401">
        <ele>529.2</ele>
      </trkpt>
      <trkpt lat="44.13495" lon="3.96405">
        <ele>531.1</ele>
      </trkpt>
      <trkpt lat="44.13514" lon="3.96416">
        <ele>530</ele>
      </trkpt>
      <trkpt lat="44.13579" lon="3.96472">
        <ele>541.1</ele>
      </trkpt>
      <trkpt lat="44.13592" lon="3.96479">
        <ele>544.2</ele>
      </trkpt>
      <trkpt lat="44.13604" lon="3.96481">
        <ele>543.9</ele>
      </trkpt>
      <trkpt lat="44.13615" lon="3.96486">
        <ele>543.9</ele>
      </trkpt>
      <trkpt lat="44.13652" lon="3.96518">
        <ele>553.1</ele>
      </trkpt>
      <trkpt lat="44.13678" lon="3.96564">
        <ele>554.2</ele>
      </trkpt>
      <trkpt lat="44.13689" lon="3.96588">
        <ele>560.9</ele>
      </trkpt>
      <trkpt lat="44.13704" lon="3.96637">
        <ele>562</ele>
      </trkpt>
      <trkpt lat="44.13719" lon="3.96675">
        <ele>569.5</ele>
      </trkpt>
      <trkpt lat="44.13731" lon="3.96698">
        <ele>570.7</ele>
      </trkpt>
      <trkpt lat="44.13743" lon="3.96712">
        <ele>572.3</ele>
      </trkpt>
      <trkpt lat="44.13784" lon="3.96735">
        <ele>576</ele>
      </trkpt>
      <trkpt lat="44.13793" lon="3.96737">
        <ele>576</ele>
      </trkpt>
      <trkpt lat="44.13855" lon="3.96732">
        <ele>578.4</ele>
      </trkpt>
      <trkpt lat="44.13869" lon="3.96728">
        <ele>578.5</ele>
      </trkpt>
      <trkpt lat="44.13877" lon="3.96722">
        <ele>578.6</ele>
      </trkpt>
      <trkpt lat="44.13884" lon="3.96715">
        <ele>578.8</ele>
      </trkpt>
      <trkpt lat="44.13894" lon="3.96709">
        <ele>579.3</ele>
      </trkpt>
      <trkpt lat="44.13925" lon="3.96698">
        <ele>583.5</ele>
      </trkpt>
      <trkpt lat="44.13944" lon="3.96691">
        <ele>583.9</ele>
      </trkpt>
      <trkpt lat="44.13959" lon="3.96683">
        <ele>584.6</ele>
      </trkpt>
      <trkpt lat="44.13973" lon="3.96672">
        <ele>586.3</ele>
      </trkpt>
      <trkpt lat="44.14008" lon="3.96621">
        <ele>601.5</ele>
      </trkpt>
      <trkpt lat="44.14018" lon="3.96614">
        <ele>602.4</ele>
      </trkpt>
      <trkpt lat="44.14048" lon="3.96608">
        <ele>604.4</ele>
      </trkpt>
      <trkpt lat="44.14066" lon="3.96607">
        <ele>606.3</ele>
      </trkpt>
      <trkpt lat="44.14111" lon="3.96609">
        <ele>614.6</ele>
      </trkpt>
      <trkpt lat="44.14124" lon="3.96613">
        <ele>615.3</ele>
      </trkpt>
      <trkpt lat="44.14154" lon="3.96632">
        <ele>615.9</ele>
      </trkpt>
      <trkpt lat="44.14169" lon="3.96648">
        <ele>623.2</ele>
      </trkpt>
      <trkpt lat="44.14188" lon="3.96683">
        <ele>617.9</ele>
      </trkpt>
      <trkpt lat="44.14197" lon="3.96695">
        <ele>618.5</ele>
      </trkpt>
      <trkpt lat="44.14224" lon="3.9672">
        <ele>620.1</ele>
      </trkpt>
      <trkpt lat="44.14237" lon="3.96735">
        <ele>621.3</ele>
      </trkpt>
      <trkpt lat="44.14247" lon="3.96752">
        <ele>622.6</ele>
      </trkpt>
      <trkpt lat="44.1425" lon="3.96766">
        <ele>619.7</ele>
      </trkpt>
      <trkpt lat="44.1425" lon="3.96779">
        <ele>618.2</ele>
      </trkpt>
      <trkpt lat="44.14247" lon="3.9679">
        <ele>617.7</ele>
      </trkpt>
      <trkpt lat="44.14237" lon="3.96813">
        <ele>618.2</ele>
        <extensions>
          <visugpx:TrkExtension xmlns:visugpx="https://www.visugpx.com/editgpx/">
            <visugpx:node>11</visugpx:node>
            </visugpx:TrkExtension>
        </extensions>
      </trkpt>
      <trkpt lat="44.14233" lon="3.96825">
        <ele>618.8</ele>
      </trkpt>
      <trkpt lat="44.14222" lon="3.96852">
        <ele>616.6</ele>
      </trkpt>
      <trkpt lat="44.1421" lon="3.96876">
        <ele>615</ele>
      </trkpt>
      <trkpt lat="44.1419" lon="3.96971">
        <ele>612.5</ele>
      </trkpt>
      <trkpt lat="44.14184" lon="3.96988">
        <ele>612.1</ele>
      </trkpt>
      <trkpt lat="44.14168" lon="3.97022">
        <ele>609.3</ele>
      </trkpt>
      <trkpt lat="44.14165" lon="3.9704">
        <ele>600.9</ele>
      </trkpt>
      <trkpt lat="44.14164" lon="3.9706">
        <ele>602.5</ele>
      </trkpt>
      <trkpt lat="44.14167" lon="3.97075">
        <ele>610.5</ele>
      </trkpt>
      <trkpt lat="44.14179" lon="3.97113">
        <ele>604.8</ele>
      </trkpt>
      <trkpt lat="44.1418" lon="3.97124">
        <ele>604.2</ele>
      </trkpt>
      <trkpt lat="44.1418" lon="3.97139">
        <ele>604.3</ele>
      </trkpt>
      <trkpt lat="44.14184" lon="3.97185">
        <ele>603.5</ele>
      </trkpt>
      <trkpt lat="44.14194" lon="3.97238">
        <ele>602.6</ele>
      </trkpt>
      <trkpt lat="44.14202" lon="3.97297">
        <ele>603.4</ele>
      </trkpt>
      <trkpt lat="44.14214" lon="3.97342">
        <ele>604.1</ele>
      </trkpt>
      <trkpt lat="44.14219" lon="3.97366">
        <ele>603.9</ele>
      </trkpt>
      <trkpt lat="44.1422" lon="3.97391">
        <ele>603.7</ele>
      </trkpt>
      <trkpt lat="44.14218" lon="3.97488">
        <ele>602.6</ele>
      </trkpt>
      <trkpt lat="44.14218" lon="3.97505">
        <ele>606.6</ele>
      </trkpt>
      <trkpt lat="44.1422" lon="3.97517">
        <ele>607.1</ele>
      </trkpt>
      <trkpt lat="44.14221" lon="3.97538">
        <ele>608.4</ele>
      </trkpt>
      <trkpt lat="44.14215" lon="3.9755">
        <ele>609.3</ele>
      </trkpt>
      <trkpt lat="44.14216" lon="3.97565">
        <ele>610.2</ele>
      </trkpt>
      <trkpt lat="44.14214" lon="3.9757">
        <ele>610.5</ele>
      </trkpt>
      <trkpt lat="44.14216" lon="3.97577">
        <ele>610.7</ele>
      </trkpt>
      <trkpt lat="44.14212" lon="3.97598">
        <ele>616.1</ele>
      </trkpt>
      <trkpt lat="44.14206" lon="3.97622">
        <ele>617.2</ele>
      </trkpt>
      <trkpt lat="44.142" lon="3.97629">
        <ele>618</ele>
      </trkpt>
      <trkpt lat="44.14198" lon="3.97635">
        <ele>618.6</ele>
      </trkpt>
      <trkpt lat="44.14195" lon="3.97657">
        <ele>620.7</ele>
      </trkpt>
      <trkpt lat="44.14192" lon="3.97669">
        <ele>623.2</ele>
      </trkpt>
      <trkpt lat="44.14185" lon="3.97681">
        <ele>624.4</ele>
      </trkpt>
      <trkpt lat="44.14181" lon="3.977">
        <ele>623.8</ele>
      </trkpt>
      <trkpt lat="44.14173" lon="3.97705">
        <ele>624.8</ele>
      </trkpt>
      <trkpt lat="44.1417" lon="3.97714">
        <ele>625.8</ele>
      </trkpt>
      <trkpt lat="44.14169" lon="3.97725">
        <ele>627.8</ele>
      </trkpt>
      <trkpt lat="44.14162" lon="3.97743">
        <ele>636.9</ele>
      </trkpt>
      <trkpt lat="44.14163" lon="3.9776">
        <ele>638.3</ele>
      </trkpt>
      <trkpt lat="44.14161" lon="3.97772">
        <ele>636.6</ele>
      </trkpt>
      <trkpt lat="44.14162" lon="3.97778">
        <ele>636.2</ele>
      </trkpt>
      <trkpt lat="44.14153" lon="3.978">
        <ele>635.3</ele>
      </trkpt>
      <trkpt lat="44.14151" lon="3.97814">
        <ele>635.5</ele>
      </trkpt>
      <trkpt lat="44.1415" lon="3.97822">
        <ele>635.7</ele>
      </trkpt>
      <trkpt lat="44.14152" lon="3.9784">
        <ele>634.8</ele>
      </trkpt>
      <trkpt lat="44.14148" lon="3.97868">
        <ele>632.5</ele>
      </trkpt>
      <trkpt lat="44.14147" lon="3.97885">
        <ele>631.6</ele>
      </trkpt>
      <trkpt lat="44.14148" lon="3.97895">
        <ele>631.3</ele>
      </trkpt>
      <trkpt lat="44.14162" lon="3.97922">
        <ele>629.3</ele>
      </trkpt>
      <trkpt lat="44.14164" lon="3.97928">
        <ele>628.4</ele>
      </trkpt>
      <trkpt lat="44.14163" lon="3.97934">
        <ele>627.5</ele>
      </trkpt>
      <trkpt lat="44.14164" lon="3.97939">
        <ele>627</ele>
      </trkpt>
      <trkpt lat="44.14173" lon="3.97952">
        <ele>612.6</ele>
      </trkpt>
      <trkpt lat="44.14174" lon="3.97958">
        <ele>611.9</ele>
      </trkpt>
      <trkpt lat="44.14176" lon="3.97964">
        <ele>611.5</ele>
      </trkpt>
      <trkpt lat="44.14179" lon="3.97972">
        <ele>611.4</ele>
      </trkpt>
      <trkpt lat="44.14181" lon="3.97978">
        <ele>611.7</ele>
      </trkpt>
      <trkpt lat="44.14184" lon="3.9798">
        <ele>611.2</ele>
      </trkpt>
      <trkpt lat="44.14186" lon="3.97985">
        <ele>611.2</ele>
      </trkpt>
      <trkpt lat="44.14186" lon="3.9799">
        <ele>611.9</ele>
      </trkpt>
      <trkpt lat="44.14189" lon="3.97999">
        <ele>611.2</ele>
      </trkpt>
      <trkpt lat="44.14202" lon="3.98011">
        <ele>601.3</ele>
      </trkpt>
      <trkpt lat="44.14208" lon="3.98022">
        <ele>598.6</ele>
      </trkpt>
      <trkpt lat="44.14212" lon="3.98032">
        <ele>597.1</ele>
        <extensions>
          <visugpx:TrkExtension xmlns:visugpx="https://www.visugpx.com/editgpx/">
            <visugpx:node>12</visugpx:node>
            </visugpx:TrkExtension>
        </extensions>
      </trkpt>
      <trkpt lat="44.14215" lon="3.98041">
        <ele>596</ele>
      </trkpt>
      <trkpt lat="44.14218" lon="3.98046">
        <ele>595.1</ele>
      </trkpt>
      <trkpt lat="44.1422" lon="3.98062">
        <ele>593.4</ele>
      </trkpt>
      <trkpt lat="44.14218" lon="3.98072">
        <ele>593.1</ele>
      </trkpt>
      <trkpt lat="44.14221" lon="3.98075">
        <ele>592.1</ele>
      </trkpt>
      <trkpt lat="44.14221" lon="3.98082">
        <ele>591.8</ele>
      </trkpt>
      <trkpt lat="44.14218" lon="3.98093">
        <ele>583</ele>
      </trkpt>
      <trkpt lat="44.14222" lon="3.98104">
        <ele>581.9</ele>
      </trkpt>
      <trkpt lat="44.14223" lon="3.98114">
        <ele>581</ele>
      </trkpt>
      <trkpt lat="44.14227" lon="3.98124">
        <ele>579.6</ele>
      </trkpt>
      <trkpt lat="44.14223" lon="3.98148">
        <ele>576.9</ele>
      </trkpt>
      <trkpt lat="44.14221" lon="3.98176">
        <ele>565.1</ele>
      </trkpt>
      <trkpt lat="44.14213" lon="3.98209">
        <ele>563.2</ele>
      </trkpt>
      <trkpt lat="44.14204" lon="3.98271">
        <ele>551.9</ele>
      </trkpt>
      <trkpt lat="44.14202" lon="3.98296">
        <ele>550.5</ele>
      </trkpt>
      <trkpt lat="44.14203" lon="3.98319">
        <ele>549.3</ele>
      </trkpt>
      <trkpt lat="44.142" lon="3.98358">
        <ele>542</ele>
      </trkpt>
      <trkpt lat="44.14201" lon="3.9838">
        <ele>540.7</ele>
      </trkpt>
      <trkpt lat="44.14198" lon="3.98407">
        <ele>539.8</ele>
      </trkpt>
      <trkpt lat="44.14198" lon="3.98429">
        <ele>534.3</ele>
      </trkpt>
      <trkpt lat="44.14196" lon="3.98433">
        <ele>534.4</ele>
      </trkpt>
      <trkpt lat="44.14197" lon="3.98448">
        <ele>533.5</ele>
      </trkpt>
      <trkpt lat="44.14195" lon="3.98475">
        <ele>532.7</ele>
      </trkpt>
      <trkpt lat="44.14195" lon="3.98488">
        <ele>532.6</ele>
      </trkpt>
      <trkpt lat="44.14191" lon="3.98506">
        <ele>529.7</ele>
      </trkpt>
      <trkpt lat="44.14196" lon="3.98525">
        <ele>527.8</ele>
      </trkpt>
      <trkpt lat="44.14195" lon="3.98531">
        <ele>527.6</ele>
      </trkpt>
      <trkpt lat="44.14192" lon="3.98535">
        <ele>527.8</ele>
      </trkpt>
      <trkpt lat="44.14191" lon="3.98541">
        <ele>527.6</ele>
      </trkpt>
      <trkpt lat="44.14191" lon="3.98556">
        <ele>527.4</ele>
      </trkpt>
      <trkpt lat="44.14192" lon="3.98574">
        <ele>527.5</ele>
      </trkpt>
      <trkpt lat="44.14191" lon="3.98585">
        <ele>526.5</ele>
      </trkpt>
      <trkpt lat="44.14197" lon="3.98596">
        <ele>525.1</ele>
      </trkpt>
      <trkpt lat="44.14197" lon="3.98608">
        <ele>524.9</ele>
      </trkpt>
      <trkpt lat="44.1419" lon="3.9864">
        <ele>526.3</ele>
      </trkpt>
      <trkpt lat="44.14189" lon="3.98651">
        <ele>527.4</ele>
      </trkpt>
      <trkpt lat="44.14185" lon="3.98657">
        <ele>528.8</ele>
      </trkpt>
      <trkpt lat="44.14184" lon="3.98666">
        <ele>529.7</ele>
      </trkpt>
      <trkpt lat="44.1418" lon="3.98675">
        <ele>529</ele>
      </trkpt>
      <trkpt lat="44.14176" lon="3.98682">
        <ele>528.6</ele>
      </trkpt>
      <trkpt lat="44.14176" lon="3.98692">
        <ele>526.6</ele>
      </trkpt>
      <trkpt lat="44.14159" lon="3.98736">
        <ele>531.2</ele>
      </trkpt>
      <trkpt lat="44.14158" lon="3.98745">
        <ele>532.8</ele>
      </trkpt>
      <trkpt lat="44.14151" lon="3.98755">
        <ele>530.4</ele>
      </trkpt>
      <trkpt lat="44.14149" lon="3.98765">
        <ele>528.8</ele>
      </trkpt>
      <trkpt lat="44.14146" lon="3.98768">
        <ele>527.9</ele>
      </trkpt>
      <trkpt lat="44.14143" lon="3.98779">
        <ele>526.4</ele>
      </trkpt>
      <trkpt lat="44.14137" lon="3.98789">
        <ele>525.2</ele>
      </trkpt>
      <trkpt lat="44.14136" lon="3.98807">
        <ele>524.4</ele>
      </trkpt>
      <trkpt lat="44.14134" lon="3.98812">
        <ele>524.1</ele>
      </trkpt>
      <trkpt lat="44.14133" lon="3.98866">
        <ele>515.9</ele>
      </trkpt>
      <trkpt lat="44.14128" lon="3.98887">
        <ele>514</ele>
      </trkpt>
      <trkpt lat="44.14126" lon="3.98912">
        <ele>512.6</ele>
      </trkpt>
      <trkpt lat="44.14121" lon="3.98928">
        <ele>503.9</ele>
      </trkpt>
      <trkpt lat="44.14122" lon="3.98936">
        <ele>503.3</ele>
      </trkpt>
      <trkpt lat="44.14119" lon="3.98949">
        <ele>502.6</ele>
      </trkpt>
      <trkpt lat="44.14116" lon="3.98957">
        <ele>502.3</ele>
      </trkpt>
      <trkpt lat="44.14099" lon="3.98978">
        <ele>503.6</ele>
      </trkpt>
      <trkpt lat="44.14095" lon="3.9899">
        <ele>505</ele>
      </trkpt>
      <trkpt lat="44.14085" lon="3.99005">
        <ele>504.1</ele>
      </trkpt>
      <trkpt lat="44.14081" lon="3.99016">
        <ele>500.6</ele>
      </trkpt>
      <trkpt lat="44.14075" lon="3.99046">
        <ele>494.4</ele>
      </trkpt>
      <trkpt lat="44.14069" lon="3.99063">
        <ele>493.2</ele>
      </trkpt>
      <trkpt lat="44.14063" lon="3.99075">
        <ele>492.6</ele>
      </trkpt>
      <trkpt lat="44.14054" lon="3.99099">
        <ele>487</ele>
      </trkpt>
      <trkpt lat="44.14048" lon="3.99104">
        <ele>486.4</ele>
      </trkpt>
      <trkpt lat="44.14043" lon="3.99111">
        <ele>485.9</ele>
      </trkpt>
      <trkpt lat="44.14032" lon="3.99146">
        <ele>485.3</ele>
      </trkpt>
      <trkpt lat="44.14022" lon="3.99163">
        <ele>486.6</ele>
      </trkpt>
      <trkpt lat="44.14009" lon="3.99178">
        <ele>483.3</ele>
      </trkpt>
      <trkpt lat="44.14003" lon="3.99195">
        <ele>479.8</ele>
      </trkpt>
      <trkpt lat="44.13998" lon="3.99199">
        <ele>486.4</ele>
      </trkpt>
      <trkpt lat="44.13962" lon="3.9925">
        <ele>486.1</ele>
      </trkpt>
      <trkpt lat="44.13958" lon="3.99253">
        <ele>486.5</ele>
      </trkpt>
      <trkpt lat="44.13953" lon="3.99261">
        <ele>486.8</ele>
      </trkpt>
      <trkpt lat="44.13951" lon="3.99269">
        <ele>486.9</ele>
      </trkpt>
      <trkpt lat="44.13944" lon="3.9928">
        <ele>487.4</ele>
      </trkpt>
      <trkpt lat="44.13922" lon="3.99309">
        <ele>491.7</ele>
      </trkpt>
      <trkpt lat="44.13914" lon="3.99315">
        <ele>494.7</ele>
      </trkpt>
      <trkpt lat="44.13903" lon="3.99334">
        <ele>499.7</ele>
      </trkpt>
      <trkpt lat="44.13896" lon="3.99349">
        <ele>498.5</ele>
      </trkpt>
      <trkpt lat="44.13891" lon="3.99352">
        <ele>498.1</ele>
      </trkpt>
      <trkpt lat="44.13881" lon="3.99372">
        <ele>497.6</ele>
      </trkpt>
      <trkpt lat="44.13872" lon="3.99397">
        <ele>498.2</ele>
      </trkpt>
      <trkpt lat="44.13867" lon="3.99414">
        <ele>498.8</ele>
      </trkpt>
      <trkpt lat="44.13865" lon="3.99428">
        <ele>500.1</ele>
      </trkpt>
      <trkpt lat="44.13859" lon="3.99438">
        <ele>500.4</ele>
      </trkpt>
      <trkpt lat="44.13854" lon="3.99452">
        <ele>500.8</ele>
      </trkpt>
      <trkpt lat="44.13851" lon="3.99496">
        <ele>504.6</ele>
      </trkpt>
      <trkpt lat="44.13845" lon="3.99511">
        <ele>504.4</ele>
      </trkpt>
      <trkpt lat="44.13843" lon="3.99523">
        <ele>502.6</ele>
      </trkpt>
      <trkpt lat="44.13832" lon="3.99543">
        <ele>510.3</ele>
      </trkpt>
      <trkpt lat="44.13827" lon="3.99545">
        <ele>510.3</ele>
      </trkpt>
      <trkpt lat="44.1382" lon="3.99553">
        <ele>510.5</ele>
      </trkpt>
      <trkpt lat="44.13809" lon="3.99573">
        <ele>511.2</ele>
      </trkpt>
      <trkpt lat="44.13805" lon="3.99592">
        <ele>515.5</ele>
      </trkpt>
      <trkpt lat="44.13785" lon="3.99612">
        <ele>516</ele>
      </trkpt>
      <trkpt lat="44.13776" lon="3.9963">
        <ele>516.7</ele>
      </trkpt>
      <trkpt lat="44.13773" lon="3.99647">
        <ele>517.7</ele>
      </trkpt>
      <trkpt lat="44.13775" lon="3.99669">
        <ele>518</ele>
      </trkpt>
      <trkpt lat="44.13774" lon="3.9968">
        <ele>517.8</ele>
      </trkpt>
      <trkpt lat="44.13772" lon="3.99686">
        <ele>517.7</ele>
      </trkpt>
      <trkpt lat="44.13774" lon="3.99704">
        <ele>516.9</ele>
      </trkpt>
      <trkpt lat="44.13775" lon="3.99708">
        <ele>516.7</ele>
      </trkpt>
      <trkpt lat="44.13777" lon="3.99713">
        <ele>516.5</ele>
      </trkpt>
      <trkpt lat="44.13777" lon="3.9972">
        <ele>516.5</ele>
      </trkpt>
      <trkpt lat="44.13774" lon="3.99727">
        <ele>517</ele>
      </trkpt>
      <trkpt lat="44.13772" lon="3.99738">
        <ele>517.6</ele>
      </trkpt>
      <trkpt lat="44.13774" lon="3.99744">
        <ele>517.5</ele>
      </trkpt>
      <trkpt lat="44.13775" lon="3.99763">
        <ele>515.5</ele>
      </trkpt>
      <trkpt lat="44.1378" lon="3.99808">
        <ele>513.9</ele>
      </trkpt>
      <trkpt lat="44.13779" lon="3.9987">
        <ele>512.8</ele>
      </trkpt>
      <trkpt lat="44.13781" lon="3.99877">
        <ele>512.5</ele>
      </trkpt>
      <trkpt lat="44.13782" lon="3.99891">
        <ele>512.5</ele>
      </trkpt>
      <trkpt lat="44.13778" lon="3.99918">
        <ele>514</ele>
      </trkpt>
      <trkpt lat="44.13778" lon="3.9995">
        <ele>513.5</ele>
      </trkpt>
      <trkpt lat="44.13774" lon="3.99968">
        <ele>514.4</ele>
      </trkpt>
      <trkpt lat="44.13771" lon="3.99999">
        <ele>517</ele>
      </trkpt>
      <trkpt lat="44.13767" lon="4.00016">
        <ele>519.3</ele>
      </trkpt>
      <trkpt lat="44.13761" lon="4.00027">
        <ele>519.6</ele>
      </trkpt>
      <trkpt lat="44.13757" lon="4.00046">
        <ele>521</ele>
      </trkpt>
      <trkpt lat="44.13758" lon="4.0005">
        <ele>521.4</ele>
      </trkpt>
      <trkpt lat="44.13764" lon="4.00058">
        <ele>521.9</ele>
      </trkpt>
      <trkpt lat="44.13763" lon="4.00067">
        <ele>524.1</ele>
      </trkpt>
      <trkpt lat="44.1376" lon="4.00075">
        <ele>527.4</ele>
      </trkpt>
      <trkpt lat="44.13753" lon="4.00081">
        <ele>533</ele>
      </trkpt>
      <trkpt lat="44.13753" lon="4.00089">
        <ele>531</ele>
      </trkpt>
      <trkpt lat="44.13749" lon="4.00105">
        <ele>531.6</ele>
      </trkpt>
      <trkpt lat="44.1375" lon="4.00109">
        <ele>523.2</ele>
      </trkpt>
      <trkpt lat="44.13747" lon="4.00118">
        <ele>530.5</ele>
      </trkpt>
      <trkpt lat="44.13746" lon="4.00128">
        <ele>530</ele>
      </trkpt>
      <trkpt lat="44.13735" lon="4.00152">
        <ele>529.6</ele>
      </trkpt>
      <trkpt lat="44.13731" lon="4.00168">
        <ele>527.8</ele>
      </trkpt>
      <trkpt lat="44.1372" lon="4.00184">
        <ele>526.9</ele>
      </trkpt>
      <trkpt lat="44.13712" lon="4.0019">
        <ele>526.7</ele>
      </trkpt>
      <trkpt lat="44.13694" lon="4.0023">
        <ele>526.8</ele>
      </trkpt>
      <trkpt lat="44.13688" lon="4.00234">
        <ele>527.6</ele>
      </trkpt>
      <trkpt lat="44.13686" lon="4.00242">
        <ele>528.2</ele>
      </trkpt>
      <trkpt lat="44.13684" lon="4.00259">
        <ele>519.9</ele>
      </trkpt>
      <trkpt lat="44.13686" lon="4.00287">
        <ele>512.6</ele>
      </trkpt>
      <trkpt lat="44.13684" lon="4.00293">
        <ele>511.7</ele>
      </trkpt>
      <trkpt lat="44.13682" lon="4.00292">
        <ele>512.1</ele>
      </trkpt>
      <trkpt lat="44.1368" lon="4.00295">
        <ele>511.8</ele>
      </trkpt>
      <trkpt lat="44.13681" lon="4.00297">
        <ele>511.3</ele>
      </trkpt>
      <trkpt lat="44.13679" lon="4.00299">
        <ele>511.2</ele>
      </trkpt>
      <trkpt lat="44.13681" lon="4.00302">
        <ele>510.6</ele>
      </trkpt>
      <trkpt lat="44.13676" lon="4.00303">
        <ele>510.9</ele>
      </trkpt>
      <trkpt lat="44.13675" lon="4.00307">
        <ele>510.6</ele>
      </trkpt>
      <trkpt lat="44.13678" lon="4.00317">
        <ele>509.6</ele>
      </trkpt>
      <trkpt lat="44.13677" lon="4.00323">
        <ele>509.6</ele>
      </trkpt>
      <trkpt lat="44.13673" lon="4.00328">
        <ele>510.1</ele>
      </trkpt>
      <trkpt lat="44.13669" lon="4.00345">
        <ele>499.1</ele>
      </trkpt>
      <trkpt lat="44.13663" lon="4.00348">
        <ele>501</ele>
      </trkpt>
      <trkpt lat="44.13657" lon="4.00347">
        <ele>500.2</ele>
      </trkpt>
      <trkpt lat="44.13655" lon="4.0035">
        <ele>498.6</ele>
      </trkpt>
      <trkpt lat="44.13658" lon="4.0036">
        <ele>495.9</ele>
      </trkpt>
      <trkpt lat="44.13652" lon="4.00373">
        <ele>492.1</ele>
      </trkpt>
      <trkpt lat="44.13652" lon="4.00394">
        <ele>488.2</ele>
      </trkpt>
      <trkpt lat="44.13645" lon="4.0041">
        <ele>486.5</ele>
      </trkpt>
      <trkpt lat="44.13639" lon="4.00417">
        <ele>476.2</ele>
      </trkpt>
      <trkpt lat="44.13638" lon="4.00429">
        <ele>475.3</ele>
      </trkpt>
      <trkpt lat="44.13634" lon="4.00438">
        <ele>474.3</ele>
      </trkpt>
      <trkpt lat="44.13634" lon="4.00445">
        <ele>473.6</ele>
      </trkpt>
      <trkpt lat="44.13628" lon="4.00464">
        <ele>471.8</ele>
      </trkpt>
      <trkpt lat="44.13614" lon="4.00487">
        <ele>471.9</ele>
      </trkpt>
      <trkpt lat="44.1361" lon="4.00493">
        <ele>472.4</ele>
      </trkpt>
      <trkpt lat="44.13606" lon="4.00501">
        <ele>468.7</ele>
      </trkpt>
      <trkpt lat="44.13601" lon="4.00524">
        <ele>468.3</ele>
      </trkpt>
      <trkpt lat="44.136" lon="4.0053">
        <ele>468.2</ele>
      </trkpt>
      <trkpt lat="44.136" lon="4.00534">
        <ele>468.1</ele>
      </trkpt>
      <trkpt lat="44.136" lon="4.00555">
        <ele>469.4</ele>
      </trkpt>
      <trkpt lat="44.13604" lon="4.00601">
        <ele>468</ele>
      </trkpt>
      <trkpt lat="44.13603" lon="4.00639">
        <ele>466.7</ele>
      </trkpt>
      <trkpt lat="44.13606" lon="4.00679">
        <ele>464.4</ele>
      </trkpt>
      <trkpt lat="44.13603" lon="4.00707">
        <ele>460.1</ele>
      </trkpt>
      <trkpt lat="44.13589" lon="4.00753">
        <ele>467.9</ele>
      </trkpt>
      <trkpt lat="44.13581" lon="4.00772">
        <ele>472.1</ele>
      </trkpt>
      <trkpt lat="44.13547" lon="4.00816">
        <ele>468.2</ele>
      </trkpt>
      <trkpt lat="44.13538" lon="4.00823">
        <ele>468.1</ele>
      </trkpt>
      <trkpt lat="44.13532" lon="4.00833">
        <ele>467.6</ele>
      </trkpt>
      <trkpt lat="44.13531" lon="4.00846">
        <ele>461.8</ele>
      </trkpt>
      <trkpt lat="44.1353" lon="4.00873">
        <ele>461.6</ele>
      </trkpt>
      <trkpt lat="44.13527" lon="4.00887">
        <ele>461.6</ele>
      </trkpt>
      <trkpt lat="44.13524" lon="4.00892">
        <ele>461.7</ele>
      </trkpt>
      <trkpt lat="44.13524" lon="4.00903">
        <ele>461.8</ele>
      </trkpt>
      <trkpt lat="44.1353" lon="4.00952">
        <ele>467.6</ele>
      </trkpt>
      <trkpt lat="44.13555" lon="4.0101">
        <ele>477.9</ele>
      </trkpt>
      <trkpt lat="44.13557" lon="4.01019">
        <ele>478.4</ele>
      </trkpt>
      <trkpt lat="44.13559" lon="4.01029">
        <ele>479.3</ele>
      </trkpt>
      <trkpt lat="44.13597" lon="4.01097">
        <ele>483.1</ele>
      </trkpt>
      <trkpt lat="44.13605" lon="4.01122">
        <ele>481.9</ele>
      </trkpt>
      <trkpt lat="44.13606" lon="4.01145">
        <ele>484.1</ele>
      </trkpt>
      <trkpt lat="44.13602" lon="4.01154">
        <ele>486.6</ele>
      </trkpt>
      <trkpt lat="44.13592" lon="4.01169">
        <ele>495.8</ele>
      </trkpt>
      <trkpt lat="44.13581" lon="4.01189">
        <ele>500.7</ele>
      </trkpt>
      <trkpt lat="44.13576" lon="4.01203">
        <ele>501.6</ele>
      </trkpt>
      <trkpt lat="44.13573" lon="4.01222">
        <ele>503</ele>
      </trkpt>
      <trkpt lat="44.13571" lon="4.01226">
        <ele>503.3</ele>
      </trkpt>
      <trkpt lat="44.13555" lon="4.0123">
        <ele>503</ele>
      </trkpt>
      <trkpt lat="44.13536" lon="4.0124">
        <ele>502.9</ele>
      </trkpt>
      <trkpt lat="44.13514" lon="4.01269">
        <ele>511.7</ele>
      </trkpt>
      <trkpt lat="44.13469" lon="4.01347">
        <ele>526.7</ele>
      </trkpt>
      <trkpt lat="44.13452" lon="4.01375">
        <ele>528.5</ele>
      </trkpt>
      <trkpt lat="44.13445" lon="4.01381">
        <ele>528.9</ele>
      </trkpt>
      <trkpt lat="44.13413" lon="4.01385">
        <ele>522.2</ele>
      </trkpt>
      <trkpt lat="44.13401" lon="4.01391">
        <ele>522.7</ele>
      </trkpt>
      <trkpt lat="44.13383" lon="4.01408">
        <ele>522.6</ele>
      </trkpt>
      <trkpt lat="44.13359" lon="4.01426">
        <ele>527.2</ele>
      </trkpt>
      <trkpt lat="44.1335" lon="4.01436">
        <ele>526.7</ele>
      </trkpt>
      <trkpt lat="44.13349" lon="4.01446">
        <ele>527.3</ele>
      </trkpt>
      <trkpt lat="44.13357" lon="4.0146">
        <ele>528.2</ele>
      </trkpt>
      <trkpt lat="44.13369" lon="4.01471">
        <ele>529.2</ele>
      </trkpt>
      <trkpt lat="44.1338" lon="4.01486">
        <ele>530.5</ele>
      </trkpt>
      <trkpt lat="44.13433" lon="4.01534">
        <ele>533.9</ele>
      </trkpt>
      <trkpt lat="44.13444" lon="4.01553">
        <ele>532.3</ele>
      </trkpt>
      <trkpt lat="44.13453" lon="4.01582">
        <ele>531</ele>
      </trkpt>
      <trkpt lat="44.13458" lon="4.01649">
        <ele>518.1</ele>
        <extensions>
          <visugpx:TrkExtension xmlns:visugpx="https://www.visugpx.com/editgpx/">
            <visugpx:node>13</visugpx:node>
            </visugpx:TrkExtension>
        </extensions>
      </trkpt>
      <trkpt lat="44.1346" lon="4.01682">
        <ele>514.1</ele>
      </trkpt>
      <trkpt lat="44.13466" lon="4.01692">
        <ele>514.4</ele>
      </trkpt>
      <trkpt lat="44.13467" lon="4.01698">
        <ele>514.5</ele>
      </trkpt>
      <trkpt lat="44.13465" lon="4.01704">
        <ele>514.6</ele>
      </trkpt>
      <trkpt lat="44.13464" lon="4.0172">
        <ele>514.8</ele>
      </trkpt>
      <trkpt lat="44.13459" lon="4.01732">
        <ele>514.9</ele>
      </trkpt>
      <trkpt lat="44.13454" lon="4.0175">
        <ele>517.9</ele>
      </trkpt>
      <trkpt lat="44.13451" lon="4.01768">
        <ele>518.3</ele>
      </trkpt>
      <trkpt lat="44.13448" lon="4.01776">
        <ele>518.6</ele>
      </trkpt>
      <trkpt lat="44.13445" lon="4.01794">
        <ele>519.4</ele>
      </trkpt>
      <trkpt lat="44.13439" lon="4.01804">
        <ele>520.2</ele>
      </trkpt>
      <trkpt lat="44.13435" lon="4.01826">
        <ele>522.1</ele>
      </trkpt>
      <trkpt lat="44.13437" lon="4.01845">
        <ele>523</ele>
      </trkpt>
      <trkpt lat="44.13435" lon="4.0185">
        <ele>523</ele>
      </trkpt>
      <trkpt lat="44.13438" lon="4.0186">
        <ele>522.5</ele>
      </trkpt>
      <trkpt lat="44.13434" lon="4.01879">
        <ele>522.9</ele>
      </trkpt>
      <trkpt lat="44.13433" lon="4.01909">
        <ele>525.3</ele>
      </trkpt>
      <trkpt lat="44.13425" lon="4.01941">
        <ele>524.5</ele>
      </trkpt>
      <trkpt lat="44.13426" lon="4.0195">
        <ele>524</ele>
      </trkpt>
      <trkpt lat="44.13415" lon="4.01981">
        <ele>534.6</ele>
      </trkpt>
      <trkpt lat="44.13412" lon="4.02004">
        <ele>538.6</ele>
      </trkpt>
      <trkpt lat="44.13409" lon="4.02013">
        <ele>539.3</ele>
      </trkpt>
      <trkpt lat="44.13408" lon="4.02023">
        <ele>539.8</ele>
      </trkpt>
      <trkpt lat="44.13404" lon="4.02045">
        <ele>540.5</ele>
      </trkpt>
      <trkpt lat="44.134" lon="4.02053">
        <ele>540.7</ele>
      </trkpt>
      <trkpt lat="44.13377" lon="4.02065">
        <ele>542</ele>
      </trkpt>
      <trkpt lat="44.13374" lon="4.02071">
        <ele>542.3</ele>
      </trkpt>
      <trkpt lat="44.13365" lon="4.02078">
        <ele>543.4</ele>
      </trkpt>
      <trkpt lat="44.13355" lon="4.02092">
        <ele>547.5</ele>
      </trkpt>
      <trkpt lat="44.13351" lon="4.02102">
        <ele>547.7</ele>
      </trkpt>
      <trkpt lat="44.13347" lon="4.02115">
        <ele>548</ele>
      </trkpt>
      <trkpt lat="44.13348" lon="4.02132">
        <ele>548.6</ele>
      </trkpt>
      <trkpt lat="44.13347" lon="4.02137">
        <ele>549</ele>
      </trkpt>
      <trkpt lat="44.13338" lon="4.02149">
        <ele>551.1</ele>
      </trkpt>
      <trkpt lat="44.13336" lon="4.02155">
        <ele>552.3</ele>
      </trkpt>
      <trkpt lat="44.13338" lon="4.02162">
        <ele>553.7</ele>
      </trkpt>
      <trkpt lat="44.13334" lon="4.02182">
        <ele>552.2</ele>
      </trkpt>
      <trkpt lat="44.13328" lon="4.02191">
        <ele>546.9</ele>
      </trkpt>
      <trkpt lat="44.13326" lon="4.02199">
        <ele>545.6</ele>
      </trkpt>
      <trkpt lat="44.13327" lon="4.02213">
        <ele>544.7</ele>
      </trkpt>
      <trkpt lat="44.13329" lon="4.02221">
        <ele>544.8</ele>
      </trkpt>
      <trkpt lat="44.13334" lon="4.02228">
        <ele>549.3</ele>
      </trkpt>
      <trkpt lat="44.13339" lon="4.02231">
        <ele>549.2</ele>
      </trkpt>
      <trkpt lat="44.13346" lon="4.02232">
        <ele>549</ele>
      </trkpt>
      <trkpt lat="44.13362" lon="4.02243">
        <ele>548.4</ele>
      </trkpt>
      <trkpt lat="44.13367" lon="4.02251">
        <ele>548.4</ele>
      </trkpt>
      <trkpt lat="44.13368" lon="4.0226">
        <ele>548.4</ele>
      </trkpt>
      <trkpt lat="44.1337" lon="4.02264">
        <ele>548.3</ele>
      </trkpt>
      <trkpt lat="44.13377" lon="4.02264">
        <ele>548.1</ele>
      </trkpt>
      <trkpt lat="44.13381" lon="4.02268">
        <ele>548.1</ele>
      </trkpt>
      <trkpt lat="44.1339" lon="4.02287">
        <ele>548.4</ele>
      </trkpt>
      <trkpt lat="44.13396" lon="4.02306">
        <ele>549.2</ele>
      </trkpt>
      <trkpt lat="44.13407" lon="4.02331">
        <ele>551.4</ele>
      </trkpt>
      <trkpt lat="44.13428" lon="4.02357">
        <ele>544</ele>
      </trkpt>
      <trkpt lat="44.13431" lon="4.02368">
        <ele>542.2</ele>
      </trkpt>
      <trkpt lat="44.13427" lon="4.02374">
        <ele>541.9</ele>
      </trkpt>
      <trkpt lat="44.1343" lon="4.02381">
        <ele>541.1</ele>
      </trkpt>
      <trkpt lat="44.13432" lon="4.02399">
        <ele>540.2</ele>
      </trkpt>
      <trkpt lat="44.13425" lon="4.02422">
        <ele>536.3</ele>
      </trkpt>
      <trkpt lat="44.1342" lon="4.02446">
        <ele>530.1</ele>
      </trkpt>
      <trkpt lat="44.1342" lon="4.02453">
        <ele>528.7</ele>
      </trkpt>
      <trkpt lat="44.13424" lon="4.02459">
        <ele>527.5</ele>
      </trkpt>
      <trkpt lat="44.13426" lon="4.02468">
        <ele>526.3</ele>
      </trkpt>
      <trkpt lat="44.13425" lon="4.0248">
        <ele>525.3</ele>
      </trkpt>
      <trkpt lat="44.13436" lon="4.02498">
        <ele>524</ele>
      </trkpt>
      <trkpt lat="44.13437" lon="4.02508">
        <ele>516.7</ele>
      </trkpt>
      <trkpt lat="44.13448" lon="4.02523">
        <ele>513.4</ele>
      </trkpt>
      <trkpt lat="44.13452" lon="4.02532">
        <ele>512.2</ele>
      </trkpt>
      <trkpt lat="44.13453" lon="4.02543">
        <ele>511.4</ele>
      </trkpt>
      <trkpt lat="44.13452" lon="4.02574">
        <ele>510.1</ele>
      </trkpt>
      <trkpt lat="44.13454" lon="4.02585">
        <ele>503.6</ele>
      </trkpt>
      <trkpt lat="44.13452" lon="4.02595">
        <ele>503.5</ele>
      </trkpt>
      <trkpt lat="44.13455" lon="4.02602">
        <ele>502.8</ele>
      </trkpt>
      <trkpt lat="44.13452" lon="4.02616">
        <ele>502.3</ele>
      </trkpt>
      <trkpt lat="44.13455" lon="4.02631">
        <ele>501.2</ele>
      </trkpt>
      <trkpt lat="44.13449" lon="4.02648">
        <ele>501</ele>
      </trkpt>
      <trkpt lat="44.1345" lon="4.02657">
        <ele>500.7</ele>
      </trkpt>
      <trkpt lat="44.13448" lon="4.0266">
        <ele>500.8</ele>
      </trkpt>
      <trkpt lat="44.13451" lon="4.02666">
        <ele>500.4</ele>
      </trkpt>
      <trkpt lat="44.13453" lon="4.0268">
        <ele>495.9</ele>
      </trkpt>
      <trkpt lat="44.13455" lon="4.02685">
        <ele>495.6</ele>
      </trkpt>
      <trkpt lat="44.1345" lon="4.02698">
        <ele>495.7</ele>
      </trkpt>
      <trkpt lat="44.13448" lon="4.02713">
        <ele>495.5</ele>
      </trkpt>
      <trkpt lat="44.13449" lon="4.02725">
        <ele>495.3</ele>
      </trkpt>
      <trkpt lat="44.13446" lon="4.02741">
        <ele>495.6</ele>
      </trkpt>
      <trkpt lat="44.13455" lon="4.02765">
        <ele>493</ele>
      </trkpt>
      <trkpt lat="44.13458" lon="4.0282">
        <ele>492.4</ele>
      </trkpt>
      <trkpt lat="44.13464" lon="4.02838">
        <ele>491.4</ele>
      </trkpt>
      <trkpt lat="44.1346" lon="4.02867">
        <ele>491.5</ele>
      </trkpt>
      <trkpt lat="44.13463" lon="4.02882">
        <ele>491.3</ele>
      </trkpt>
      <trkpt lat="44.1347" lon="4.02898">
        <ele>491</ele>
      </trkpt>
      <trkpt lat="44.13472" lon="4.02924">
        <ele>487.6</ele>
      </trkpt>
      <trkpt lat="44.13471" lon="4.02952">
        <ele>486.4</ele>
      </trkpt>
      <trkpt lat="44.13473" lon="4.02959">
        <ele>485.9</ele>
      </trkpt>
      <trkpt lat="44.13476" lon="4.02966">
        <ele>485.4</ele>
      </trkpt>
      <trkpt lat="44.13486" lon="4.02973">
        <ele>484.6</ele>
      </trkpt>
      <trkpt lat="44.1349" lon="4.0298">
        <ele>483.7</ele>
      </trkpt>
      <trkpt lat="44.13494" lon="4.02991">
        <ele>482.2</ele>
      </trkpt>
      <trkpt lat="44.13498" lon="4.0302">
        <ele>478</ele>
      </trkpt>
      <trkpt lat="44.13504" lon="4.03035">
        <ele>469.7</ele>
      </trkpt>
      <trkpt lat="44.13503" lon="4.03056">
        <ele>470.2</ele>
      </trkpt>
      <trkpt lat="44.13516" lon="4.03083">
        <ele>471.3</ele>
      </trkpt>
      <trkpt lat="44.13519" lon="4.03094">
        <ele>472</ele>
      </trkpt>
      <trkpt lat="44.13519" lon="4.03101">
        <ele>471.6</ele>
      </trkpt>
      <trkpt lat="44.13529" lon="4.03113">
        <ele>470</ele>
      </trkpt>
      <trkpt lat="44.13531" lon="4.03138">
        <ele>470.3</ele>
      </trkpt>
      <trkpt lat="44.13542" lon="4.0315">
        <ele>469.9</ele>
      </trkpt>
      <trkpt lat="44.13545" lon="4.03151">
        <ele>469.8</ele>
      </trkpt>
      <trkpt lat="44.13547" lon="4.03157">
        <ele>469.8</ele>
      </trkpt>
      <trkpt lat="44.13553" lon="4.03166">
        <ele>469.8</ele>
      </trkpt>
      <trkpt lat="44.13554" lon="4.03176">
        <ele>472.6</ele>
      </trkpt>
      <trkpt lat="44.13557" lon="4.03182">
        <ele>472.6</ele>
      </trkpt>
      <trkpt lat="44.13559" lon="4.03189">
        <ele>472.8</ele>
      </trkpt>
      <trkpt lat="44.13556" lon="4.032">
        <ele>473.2</ele>
      </trkpt>
      <trkpt lat="44.13557" lon="4.03209">
        <ele>473.5</ele>
      </trkpt>
      <trkpt lat="44.1356" lon="4.03213">
        <ele>473.7</ele>
      </trkpt>
      <trkpt lat="44.1356" lon="4.03221">
        <ele>474.1</ele>
      </trkpt>
      <trkpt lat="44.13565" lon="4.03226">
        <ele>474.5</ele>
      </trkpt>
      <trkpt lat="44.13567" lon="4.03237">
        <ele>475.4</ele>
      </trkpt>
      <trkpt lat="44.13568" lon="4.03253">
        <ele>475.5</ele>
      </trkpt>
      <trkpt lat="44.13566" lon="4.03264">
        <ele>474.5</ele>
      </trkpt>
      <trkpt lat="44.13559" lon="4.03289">
        <ele>472.6</ele>
      </trkpt>
      <trkpt lat="44.13556" lon="4.03292">
        <ele>472.3</ele>
      </trkpt>
      <trkpt lat="44.13553" lon="4.03302">
        <ele>471.9</ele>
      </trkpt>
      <trkpt lat="44.13551" lon="4.03318">
        <ele>471.5</ele>
      </trkpt>
      <trkpt lat="44.13552" lon="4.0333">
        <ele>471.5</ele>
      </trkpt>
      <trkpt lat="44.13561" lon="4.03345">
        <ele>468.5</ele>
      </trkpt>
      <trkpt lat="44.13562" lon="4.03361">
        <ele>467.5</ele>
      </trkpt>
      <trkpt lat="44.13559" lon="4.03384">
        <ele>466.2</ele>
      </trkpt>
      <trkpt lat="44.13564" lon="4.03398">
        <ele>466.4</ele>
      </trkpt>
      <trkpt lat="44.13557" lon="4.03416">
        <ele>465.7</ele>
      </trkpt>
      <trkpt lat="44.13559" lon="4.03428">
        <ele>461.7</ele>
      </trkpt>
      <trkpt lat="44.13554" lon="4.0345">
        <ele>459.7</ele>
      </trkpt>
      <trkpt lat="44.13554" lon="4.03459">
        <ele>459.3</ele>
      </trkpt>
      <trkpt lat="44.13559" lon="4.03478">
        <ele>459.1</ele>
      </trkpt>
      <trkpt lat="44.13558" lon="4.03491">
        <ele>459</ele>
      </trkpt>
      <trkpt lat="44.13563" lon="4.03506">
        <ele>460.4</ele>
      </trkpt>
      <trkpt lat="44.13565" lon="4.03517">
        <ele>460.6</ele>
      </trkpt>
      <trkpt lat="44.13563" lon="4.03523">
        <ele>460.6</ele>
      </trkpt>
      <trkpt lat="44.13564" lon="4.03533">
        <ele>461.1</ele>
      </trkpt>
      <trkpt lat="44.13563" lon="4.03559">
        <ele>463</ele>
      </trkpt>
      <trkpt lat="44.13561" lon="4.03566">
        <ele>463.5</ele>
      </trkpt>
      <trkpt lat="44.13563" lon="4.03588">
        <ele>468.2</ele>
      </trkpt>
      <trkpt lat="44.13561" lon="4.036">
        <ele>467.8</ele>
      </trkpt>
      <trkpt lat="44.13563" lon="4.03618">
        <ele>467.6</ele>
      </trkpt>
      <trkpt lat="44.13562" lon="4.03626">
        <ele>467.6</ele>
      </trkpt>
      <trkpt lat="44.13552" lon="4.03652">
        <ele>467.6</ele>
      </trkpt>
      <trkpt lat="44.13546" lon="4.03663">
        <ele>467.5</ele>
      </trkpt>
      <trkpt lat="44.13523" lon="4.03677">
        <ele>463.3</ele>
      </trkpt>
      <trkpt lat="44.13522" lon="4.03683">
        <ele>462.9</ele>
      </trkpt>
      <trkpt lat="44.13517" lon="4.03687">
        <ele>462.8</ele>
      </trkpt>
      <trkpt lat="44.13505" lon="4.03705">
        <ele>461.2</ele>
      </trkpt>
      <trkpt lat="44.13503" lon="4.03737">
        <ele>458.3</ele>
      </trkpt>
      <trkpt lat="44.13497" lon="4.03748">
        <ele>455.4</ele>
      </trkpt>
      <trkpt lat="44.13492" lon="4.03772">
        <ele>444.7</ele>
      </trkpt>
      <trkpt lat="44.13491" lon="4.03776">
        <ele>443.5</ele>
      </trkpt>
      <trkpt lat="44.13475" lon="4.03791">
        <ele>439</ele>
      </trkpt>
      <trkpt lat="44.13471" lon="4.03798">
        <ele>437.9</ele>
      </trkpt>
      <trkpt lat="44.13472" lon="4.03812">
        <ele>436.6</ele>
      </trkpt>
      <trkpt lat="44.13475" lon="4.03816">
        <ele>436.5</ele>
      </trkpt>
      <trkpt lat="44.13478" lon="4.03834">
        <ele>426.8</ele>
      </trkpt>
      <trkpt lat="44.13477" lon="4.03839">
        <ele>426.3</ele>
      </trkpt>
      <trkpt lat="44.13479" lon="4.03854">
        <ele>424.5</ele>
      </trkpt>
      <trkpt lat="44.13478" lon="4.03872">
        <ele>421.3</ele>
      </trkpt>
      <trkpt lat="44.13484" lon="4.03878">
        <ele>420.4</ele>
      </trkpt>
      <trkpt lat="44.13485" lon="4.03882">
        <ele>419.6</ele>
      </trkpt>
      <trkpt lat="44.13479" lon="4.03887">
        <ele>418.8</ele>
      </trkpt>
      <trkpt lat="44.13477" lon="4.03895">
        <ele>417.7</ele>
      </trkpt>
      <trkpt lat="44.13459" lon="4.03907">
        <ele>417.4</ele>
      </trkpt>
      <trkpt lat="44.13439" lon="4.03915">
        <ele>416.5</ele>
      </trkpt>
      <trkpt lat="44.13425" lon="4.03917">
        <ele>410</ele>
      </trkpt>
      <trkpt lat="44.1342" lon="4.03921">
        <ele>410.8</ele>
      </trkpt>
      <trkpt lat="44.13392" lon="4.03957">
        <ele>397.1</ele>
      </trkpt>
      <trkpt lat="44.13384" lon="4.03969">
        <ele>395.5</ele>
      </trkpt>
      <trkpt lat="44.13369" lon="4.03982">
        <ele>393.8</ele>
      </trkpt>
      <trkpt lat="44.13348" lon="4.03992">
        <ele>391.2</ele>
      </trkpt>
      <trkpt lat="44.13307" lon="4.04017">
        <ele>375.6</ele>
      </trkpt>
      <trkpt lat="44.1327" lon="4.04049">
        <ele>369.8</ele>
      </trkpt>
      <trkpt lat="44.1326" lon="4.04055">
        <ele>369</ele>
      </trkpt>
      <trkpt lat="44.13226" lon="4.04067">
        <ele>357.8</ele>
      </trkpt>
      <trkpt lat="44.13213" lon="4.04075">
        <ele>356.4</ele>
      </trkpt>
      <trkpt lat="44.13204" lon="4.04086">
        <ele>353.6</ele>
      </trkpt>
      <trkpt lat="44.13189" lon="4.04096">
        <ele>352.4</ele>
      </trkpt>
      <trkpt lat="44.13158" lon="4.04138">
        <ele>337.6</ele>
      </trkpt>
      <trkpt lat="44.13143" lon="4.0415">
        <ele>335.9</ele>
      </trkpt>
      <trkpt lat="44.13137" lon="4.04157">
        <ele>334.8</ele>
      </trkpt>
      <trkpt lat="44.13148" lon="4.04165">
        <ele>337.4</ele>
      </trkpt>
      <trkpt lat="44.13155" lon="4.04169">
        <ele>335.2</ele>
      </trkpt>
      <trkpt lat="44.13176" lon="4.04177">
        <ele>338.1</ele>
      </trkpt>
      <trkpt lat="44.13196" lon="4.04182">
        <ele>335.2</ele>
      </trkpt>
      <trkpt lat="44.13221" lon="4.04183">
        <ele>335</ele>
      </trkpt>
      <trkpt lat="44.13252" lon="4.04189">
        <ele>335.2</ele>
      </trkpt>
      <trkpt lat="44.13268" lon="4.04191">
        <ele>333.9</ele>
      </trkpt>
      <trkpt lat="44.13284" lon="4.04188">
        <ele>333.6</ele>
      </trkpt>
      <trkpt lat="44.13299" lon="4.04182">
        <ele>334.2</ele>
      </trkpt>
      <trkpt lat="44.13311" lon="4.04181">
        <ele>335</ele>
      </trkpt>
      <trkpt lat="44.13331" lon="4.04187">
        <ele>335.4</ele>
      </trkpt>
      <trkpt lat="44.1334" lon="4.04189">
        <ele>335.9</ele>
      </trkpt>
      <trkpt lat="44.13357" lon="4.04187">
        <ele>335.5</ele>
      </trkpt>
      <trkpt lat="44.13372" lon="4.04191">
        <ele>334.9</ele>
      </trkpt>
      <trkpt lat="44.13378" lon="4.04195">
        <ele>334.6</ele>
      </trkpt>
      <trkpt lat="44.13406" lon="4.04205">
        <ele>334</ele>
      </trkpt>
      <trkpt lat="44.13416" lon="4.04214">
        <ele>332.3</ele>
      </trkpt>
      <trkpt lat="44.13424" lon="4.04224">
        <ele>334.9</ele>
      </trkpt>
      <trkpt lat="44.13442" lon="4.04251">
        <ele>322</ele>
      </trkpt>
      <trkpt lat="44.13448" lon="4.04264">
        <ele>321.5</ele>
      </trkpt>
      <trkpt lat="44.13452" lon="4.04272">
        <ele>321.1</ele>
      </trkpt>
      <trkpt lat="44.13456" lon="4.04283">
        <ele>320.2</ele>
      </trkpt>
      <trkpt lat="44.13466" lon="4.04288">
        <ele>320.4</ele>
      </trkpt>
      <trkpt lat="44.1349" lon="4.04294">
        <ele>321</ele>
      </trkpt>
      <trkpt lat="44.135" lon="4.04302">
        <ele>319.9</ele>
      </trkpt>
      <trkpt lat="44.13507" lon="4.04313">
        <ele>321</ele>
      </trkpt>
      <trkpt lat="44.13513" lon="4.04351">
        <ele>311.4</ele>
      </trkpt>
      <trkpt lat="44.13521" lon="4.0437">
        <ele>309.4</ele>
      </trkpt>
      <trkpt lat="44.13532" lon="4.04385">
        <ele>308.1</ele>
      </trkpt>
      <trkpt lat="44.13536" lon="4.04403">
        <ele>307</ele>
      </trkpt>
      <trkpt lat="44.13536" lon="4.04411">
        <ele>306.6</ele>
      </trkpt>
      <trkpt lat="44.13535" lon="4.04417">
        <ele>302.9</ele>
      </trkpt>
      <trkpt lat="44.13532" lon="4.04426">
        <ele>302.8</ele>
      </trkpt>
      <trkpt lat="44.13532" lon="4.04435">
        <ele>302.9</ele>
      </trkpt>
      <trkpt lat="44.13535" lon="4.0445">
        <ele>303</ele>
      </trkpt>
      <trkpt lat="44.13538" lon="4.04459">
        <ele>303.2</ele>
      </trkpt>
      <trkpt lat="44.13542" lon="4.04466">
        <ele>303.3</ele>
      </trkpt>
      <trkpt lat="44.13543" lon="4.04472">
        <ele>303.4</ele>
      </trkpt>
      <trkpt lat="44.13546" lon="4.04481">
        <ele>303.7</ele>
      </trkpt>
      <trkpt lat="44.13547" lon="4.04488">
        <ele>303.8</ele>
      </trkpt>
      <trkpt lat="44.13538" lon="4.04507">
        <ele>308.7</ele>
      </trkpt>
      <trkpt lat="44.13528" lon="4.04536">
        <ele>310.1</ele>
        <extensions>
          <visugpx:TrkExtension xmlns:visugpx="https://www.visugpx.com/editgpx/">
            <visugpx:node>14</visugpx:node>
            </visugpx:TrkExtension>
        </extensions>
      </trkpt>
      <trkpt lat="44.13522" lon="4.04552">
        <ele>310.9</ele>
      </trkpt>
      <trkpt lat="44.13519" lon="4.04557">
        <ele>310.9</ele>
      </trkpt>
      <trkpt lat="44.13513" lon="4.04562">
        <ele>310.7</ele>
      </trkpt>
      <trkpt lat="44.13507" lon="4.04573">
        <ele>310.2</ele>
      </trkpt>
      <trkpt lat="44.13499" lon="4.0458">
        <ele>306.6</ele>
      </trkpt>
      <trkpt lat="44.13473" lon="4.04624">
        <ele>306.6</ele>
      </trkpt>
      <trkpt lat="44.1347" lon="4.04633">
        <ele>307.4</ele>
      </trkpt>
      <trkpt lat="44.13463" lon="4.04646">
        <ele>307.6</ele>
      </trkpt>
      <trkpt lat="44.13456" lon="4.04654">
        <ele>306.6</ele>
      </trkpt>
      <trkpt lat="44.13446" lon="4.04673">
        <ele>316.6</ele>
      </trkpt>
      <trkpt lat="44.13433" lon="4.04683">
        <ele>313.8</ele>
      </trkpt>
      <trkpt lat="44.13423" lon="4.04697">
        <ele>316.1</ele>
      </trkpt>
      <trkpt lat="44.13386" lon="4.0475">
        <ele>314.3</ele>
      </trkpt>
      <trkpt lat="44.13371" lon="4.04765">
        <ele>311.6</ele>
      </trkpt>
      <trkpt lat="44.13295" lon="4.04858">
        <ele>300.4</ele>
      </trkpt>
      <trkpt lat="44.13278" lon="4.04881">
        <ele>298.5</ele>
      </trkpt>
      <trkpt lat="44.1327" lon="4.04903">
        <ele>297.2</ele>
      </trkpt>
      <trkpt lat="44.13267" lon="4.04928">
        <ele>297.8</ele>
      </trkpt>
      <trkpt lat="44.13265" lon="4.04981">
        <ele>297.5</ele>
      </trkpt>
      <trkpt lat="44.13271" lon="4.05002">
        <ele>291.7</ele>
      </trkpt>
      <trkpt lat="44.1328" lon="4.05018">
        <ele>292.1</ele>
      </trkpt>
      <trkpt lat="44.13299" lon="4.05046">
        <ele>291.5</ele>
      </trkpt>
      <trkpt lat="44.13319" lon="4.05065">
        <ele>290.8</ele>
      </trkpt>
      <trkpt lat="44.13354" lon="4.05092">
        <ele>285.2</ele>
      </trkpt>
      <trkpt lat="44.13378" lon="4.05107">
        <ele>284.4</ele>
      </trkpt>
      <trkpt lat="44.13384" lon="4.05106">
        <ele>285</ele>
      </trkpt>
      <trkpt lat="44.13403" lon="4.05113">
        <ele>285.8</ele>
      </trkpt>
      <trkpt lat="44.13409" lon="4.05118">
        <ele>285.3</ele>
      </trkpt>
      <trkpt lat="44.13416" lon="4.05146">
        <ele>282.1</ele>
      </trkpt>
      <trkpt lat="44.13415" lon="4.05152">
        <ele>281.6</ele>
      </trkpt>
      <trkpt lat="44.13419" lon="4.05196">
        <ele>287.1</ele>
      </trkpt>
      <trkpt lat="44.13418" lon="4.05212">
        <ele>287.3</ele>
      </trkpt>
      <trkpt lat="44.13413" lon="4.05226">
        <ele>274</ele>
      </trkpt>
      <trkpt lat="44.1338" lon="4.05277">
        <ele>268.4</ele>
      </trkpt>
      <trkpt lat="44.13371" lon="4.05283">
        <ele>267.1</ele>
      </trkpt>
      <trkpt lat="44.13356" lon="4.05311">
        <ele>265</ele>
      </trkpt>
      <trkpt lat="44.13323" lon="4.05358">
        <ele>254.3</ele>
      </trkpt>
      <trkpt lat="44.13311" lon="4.05366">
        <ele>253.4</ele>
      </trkpt>
      <trkpt lat="44.13301" lon="4.05377">
        <ele>252.9</ele>
      </trkpt>
      <trkpt lat="44.13293" lon="4.0539">
        <ele>252.8</ele>
      </trkpt>
      <trkpt lat="44.13282" lon="4.05403">
        <ele>252.5</ele>
      </trkpt>
      <trkpt lat="44.13265" lon="4.05413">
        <ele>252.1</ele>
      </trkpt>
      <trkpt lat="44.13249" lon="4.05437">
        <ele>249.7</ele>
      </trkpt>
      <trkpt lat="44.13248" lon="4.05443">
        <ele>249.5</ele>
      </trkpt>
      <trkpt lat="44.13236" lon="4.05504">
        <ele>251.5</ele>
      </trkpt>
      <trkpt lat="44.13209" lon="4.05516">
        <ele>250</ele>
      </trkpt>
      <trkpt lat="44.13126" lon="4.05519">
        <ele>247.4</ele>
      </trkpt>
      <trkpt lat="44.13042" lon="4.05428">
        <ele>233.1</ele>
      </trkpt>
      <trkpt lat="44.12964" lon="4.0561">
        <ele>235</ele>
      </trkpt>
      <trkpt lat="44.12973" lon="4.05802">
        <ele>232</ele>
      </trkpt>
      <trkpt lat="44.12977" lon="4.05955">
        <ele>222.9</ele>
      </trkpt>
      <trkpt lat="44.12945" lon="4.06037">
        <ele>216</ele>
      </trkpt>
      <trkpt lat="44.12947" lon="4.06125">
        <ele>204</ele>
      </trkpt>
      <trkpt lat="44.12942" lon="4.06209">
        <ele>193</ele>
      </trkpt>
      <trkpt lat="44.12874" lon="4.06289">
        <ele>191</ele>
      </trkpt>
      <trkpt lat="44.12818" lon="4.06412">
        <ele>184</ele>
      </trkpt>
      <trkpt lat="44.12789" lon="4.06543">
        <ele>173</ele>
      </trkpt>
      <trkpt lat="44.12733" lon="4.06624">
        <ele>173</ele>
      </trkpt>
      <trkpt lat="44.12705" lon="4.0671">
        <ele>170.9</ele>
      </trkpt>
      <trkpt lat="44.12699" lon="4.0677">
        <ele>167.8</ele>
      </trkpt>
      <trkpt lat="44.1267" lon="4.06857">
        <ele>160.8</ele>
      </trkpt>
      <trkpt lat="44.12653" lon="4.06897">
        <ele>153.5</ele>
      </trkpt>
      <trkpt lat="44.12558" lon="4.06993">
        <ele>141</ele>
      </trkpt>
      <trkpt lat="44.12561" lon="4.06991">
        <ele>141.1</ele>
      </trkpt>
      <trkpt lat="44.12543" lon="4.06996">
        <ele>140</ele>
      </trkpt>
      <trkpt lat="44.12532" lon="4.06972">
        <ele>139.8</ele>
      </trkpt>
      <trkpt lat="44.12474" lon="4.0696">
        <ele>139</ele>
      </trkpt>
      <trkpt lat="44.12433" lon="4.0698">
        <ele>138.8</ele>
      </trkpt>
      <trkpt lat="44.12429" lon="4.07101">
        <ele>132.5</ele>
      </trkpt>
      <trkpt lat="44.12415" lon="4.07225">
        <ele>130.7</ele>
      </trkpt>
      <trkpt lat="44.12415" lon="4.07238">
        <ele>131.2</ele>
      </trkpt>
      <trkpt lat="44.12416" lon="4.07242">
        <ele>131.4</ele>
      </trkpt>
      <trkpt lat="44.12417" lon="4.07247">
        <ele>131.9</ele>
      </trkpt>
      <trkpt lat="44.12412" lon="4.07254">
        <ele>132.3</ele>
      </trkpt>
      <trkpt lat="44.12403" lon="4.07258">
        <ele>132.6</ele>
      </trkpt>
      <trkpt lat="44.12388" lon="4.07267">
        <ele>132.9</ele>
      </trkpt>
      <trkpt lat="44.12347" lon="4.07281">
        <ele>132.8</ele>
      </trkpt>
      <trkpt lat="44.12331" lon="4.07289">
        <ele>132.7</ele>
      </trkpt>
      <trkpt lat="44.12314" lon="4.07306">
        <ele>133.4</ele>
      </trkpt>
      <trkpt lat="44.12265" lon="4.0736">
        <ele>134</ele>
      </trkpt>
      <trkpt lat="44.12234" lon="4.07414">
        <ele>134</ele>
      </trkpt>
      <trkpt lat="44.12121" lon="4.07608">
        <ele>135.6</ele>
      </trkpt>
      <trkpt lat="44.12107" lon="4.07733">
        <ele>135</ele>
      </trkpt>
      <trkpt lat="44.12112" lon="4.07862">
        <ele>130</ele>
      </trkpt>
      <trkpt lat="44.12123" lon="4.0798">
        <ele>129.3</ele>
      </trkpt>
      <trkpt lat="44.12124" lon="4.08124">
        <ele>128.5</ele>
      </trkpt>
      <trkpt lat="44.12129" lon="4.08381">
        <ele>128.8</ele>
      </trkpt>
      <trkpt lat="44.12364" lon="4.08297">
        <ele>133</ele>
      </trkpt>
      <trkpt lat="44.12406" lon="4.08392">
        <ele>132.7</ele>
      </trkpt>
      <trkpt lat="44.1254" lon="4.08331">
        <ele>135</ele>
      </trkpt>
      <trkpt lat="44.12704" lon="4.08378">
        <ele>137.5</ele>
      </trkpt>
      <trkpt lat="44.12704" lon="4.08385">
        <ele>137.5</ele>
      </trkpt>
      <trkpt lat="44.12713" lon="4.08477">
        <ele>137.3</ele>
      </trkpt>
      <trkpt lat="44.12718" lon="4.08539">
        <ele>136.4</ele>
      </trkpt>
      <trkpt lat="44.12719" lon="4.08546">
        <ele>136.4</ele>
      </trkpt>
      <trkpt lat="44.12737" lon="4.08542">
        <ele>136.6</ele>
      </trkpt>
    </trkseg>
  </trk>
</gpx>